<?xml version="1.0" encoding="UTF-8" standalone="no" ?>
<gpx xmlns="http://www.topografix.com/GPX/1/1" xmlns:xsi="http://www.w3.org/2001/XMLSchema-instance" xsi:schemaLocation="http://www.topografix.com/GPX/1/1 http://www.topografix.com/GPX/1/1/gpx.xsd" version="1.1" creator="VisuGPX - https://www.visugpx.com">
  <metadata>
    <name>Sur les traces de Bacchus à Prayssac(46) 2012</name>
    <desc><![CDATA[Sur les traces de Bacchus à Prayssac(46) 2012]]></desc>
  </metadata>
  <trk>
    <name><![CDATA[Sur les traces de Bacchus à Prayssac(46) 2012_1]]></name>
    <trkseg>
      <trkpt lat="44.5072" lon="1.19115">
        <ele>103</ele>
        <time>2012-09-16T05:33:26Z</time>
      </trkpt>
      <trkpt lat="44.50717" lon="1.19075">
        <ele>101</ele>
        <time>2012-09-16T05:33:44Z</time>
      </trkpt>
      <trkpt lat="44.50712" lon="1.1906">
        <ele>101</ele>
        <time>2012-09-16T05:33:49Z</time>
      </trkpt>
      <trkpt lat="44.50708" lon="1.19046">
        <ele>99</ele>
        <time>2012-09-16T05:33:54Z</time>
      </trkpt>
      <trkpt lat="44.50703" lon="1.19028">
        <ele>98</ele>
        <time>2012-09-16T05:33:59Z</time>
      </trkpt>
      <trkpt lat="44.50697" lon="1.1901">
        <ele>96</ele>
        <time>2012-09-16T05:34:04Z</time>
      </trkpt>
      <trkpt lat="44.50691" lon="1.18992">
        <ele>96</ele>
        <time>2012-09-16T05:34:09Z</time>
      </trkpt>
      <trkpt lat="44.50686" lon="1.1897">
        <ele>96</ele>
        <time>2012-09-16T05:34:14Z</time>
      </trkpt>
      <trkpt lat="44.50679" lon="1.18949">
        <ele>97</ele>
        <time>2012-09-16T05:34:19Z</time>
      </trkpt>
      <trkpt lat="44.50673" lon="1.18928">
        <ele>100</ele>
        <time>2012-09-16T05:34:25Z</time>
      </trkpt>
      <trkpt lat="44.50671" lon="1.18912">
        <ele>101</ele>
        <time>2012-09-16T05:34:30Z</time>
      </trkpt>
      <trkpt lat="44.50658" lon="1.18901">
        <ele>101</ele>
        <time>2012-09-16T05:34:36Z</time>
      </trkpt>
      <trkpt lat="44.50634" lon="1.18893">
        <ele>102</ele>
        <time>2012-09-16T05:34:41Z</time>
      </trkpt>
      <trkpt lat="44.50614" lon="1.18887">
        <ele>105</ele>
        <time>2012-09-16T05:34:47Z</time>
      </trkpt>
      <trkpt lat="44.5059" lon="1.18881">
        <ele>109</ele>
        <time>2012-09-16T05:34:52Z</time>
      </trkpt>
      <trkpt lat="44.50571" lon="1.18873">
        <ele>112</ele>
        <time>2012-09-16T05:34:57Z</time>
      </trkpt>
      <trkpt lat="44.50554" lon="1.18863">
        <ele>113</ele>
        <time>2012-09-16T05:35:02Z</time>
      </trkpt>
      <trkpt lat="44.50557" lon="1.18839">
        <ele>113</ele>
        <time>2012-09-16T05:35:08Z</time>
      </trkpt>
      <trkpt lat="44.50573" lon="1.18804">
        <ele>113</ele>
        <time>2012-09-16T05:35:14Z</time>
      </trkpt>
      <trkpt lat="44.50579" lon="1.18775">
        <ele>109</ele>
        <time>2012-09-16T05:35:19Z</time>
      </trkpt>
      <trkpt lat="44.50575" lon="1.18754">
        <ele>108</ele>
        <time>2012-09-16T05:35:24Z</time>
      </trkpt>
      <trkpt lat="44.50579" lon="1.18728">
        <ele>108</ele>
        <time>2012-09-16T05:35:30Z</time>
      </trkpt>
      <trkpt lat="44.50589" lon="1.18696">
        <ele>108</ele>
        <time>2012-09-16T05:35:35Z</time>
      </trkpt>
      <trkpt lat="44.506" lon="1.18673">
        <ele>108</ele>
        <time>2012-09-16T05:35:41Z</time>
      </trkpt>
      <trkpt lat="44.50615" lon="1.18645">
        <ele>108</ele>
        <time>2012-09-16T05:35:46Z</time>
      </trkpt>
      <trkpt lat="44.5063" lon="1.18623">
        <ele>108</ele>
        <time>2012-09-16T05:35:51Z</time>
      </trkpt>
      <trkpt lat="44.50643" lon="1.18606">
        <ele>109</ele>
        <time>2012-09-16T05:35:56Z</time>
      </trkpt>
      <trkpt lat="44.50657" lon="1.18589">
        <ele>109</ele>
        <time>2012-09-16T05:36:02Z</time>
      </trkpt>
      <trkpt lat="44.50673" lon="1.18572">
        <ele>110</ele>
        <time>2012-09-16T05:36:07Z</time>
      </trkpt>
      <trkpt lat="44.50687" lon="1.1856">
        <ele>110</ele>
        <time>2012-09-16T05:36:13Z</time>
      </trkpt>
      <trkpt lat="44.50705" lon="1.18546">
        <ele>110</ele>
        <time>2012-09-16T05:36:18Z</time>
      </trkpt>
      <trkpt lat="44.50721" lon="1.18536">
        <ele>110</ele>
        <time>2012-09-16T05:36:24Z</time>
      </trkpt>
      <trkpt lat="44.50739" lon="1.18526">
        <ele>110</ele>
        <time>2012-09-16T05:36:29Z</time>
      </trkpt>
      <trkpt lat="44.50755" lon="1.18515">
        <ele>110</ele>
        <time>2012-09-16T05:36:35Z</time>
      </trkpt>
      <trkpt lat="44.50774" lon="1.18502">
        <ele>110</ele>
        <time>2012-09-16T05:36:40Z</time>
      </trkpt>
      <trkpt lat="44.5079" lon="1.18488">
        <ele>110</ele>
        <time>2012-09-16T05:36:45Z</time>
      </trkpt>
      <trkpt lat="44.50804" lon="1.18474">
        <ele>110</ele>
        <time>2012-09-16T05:36:50Z</time>
      </trkpt>
      <trkpt lat="44.50816" lon="1.18458">
        <ele>110</ele>
        <time>2012-09-16T05:36:56Z</time>
      </trkpt>
      <trkpt lat="44.50832" lon="1.18437">
        <ele>110</ele>
        <time>2012-09-16T05:37:02Z</time>
      </trkpt>
      <trkpt lat="44.50849" lon="1.18412">
        <ele>110</ele>
        <time>2012-09-16T05:37:07Z</time>
      </trkpt>
      <trkpt lat="44.50864" lon="1.18392">
        <ele>110</ele>
        <time>2012-09-16T05:37:12Z</time>
      </trkpt>
      <trkpt lat="44.50883" lon="1.1837">
        <ele>110</ele>
        <time>2012-09-16T05:37:17Z</time>
      </trkpt>
      <trkpt lat="44.50907" lon="1.18347">
        <ele>110</ele>
        <time>2012-09-16T05:37:22Z</time>
      </trkpt>
      <trkpt lat="44.50932" lon="1.18321">
        <ele>110</ele>
        <time>2012-09-16T05:37:27Z</time>
      </trkpt>
      <trkpt lat="44.50957" lon="1.18296">
        <ele>110</ele>
        <time>2012-09-16T05:37:32Z</time>
      </trkpt>
      <trkpt lat="44.50979" lon="1.18272">
        <ele>110</ele>
        <time>2012-09-16T05:37:37Z</time>
      </trkpt>
      <trkpt lat="44.50998" lon="1.18248">
        <ele>110</ele>
        <time>2012-09-16T05:37:42Z</time>
      </trkpt>
      <trkpt lat="44.51018" lon="1.18227">
        <ele>110</ele>
        <time>2012-09-16T05:37:47Z</time>
      </trkpt>
      <trkpt lat="44.5104" lon="1.18206">
        <ele>110</ele>
        <time>2012-09-16T05:37:52Z</time>
      </trkpt>
      <trkpt lat="44.51064" lon="1.18183">
        <ele>110</ele>
        <time>2012-09-16T05:37:57Z</time>
      </trkpt>
      <trkpt lat="44.51089" lon="1.18157">
        <ele>109</ele>
        <time>2012-09-16T05:38:02Z</time>
      </trkpt>
      <trkpt lat="44.51115" lon="1.18132">
        <ele>108</ele>
        <time>2012-09-16T05:38:07Z</time>
      </trkpt>
      <trkpt lat="44.5115" lon="1.18111">
        <ele>106</ele>
        <time>2012-09-16T05:38:12Z</time>
      </trkpt>
      <trkpt lat="44.51194" lon="1.18094">
        <ele>102</ele>
        <time>2012-09-16T05:38:17Z</time>
      </trkpt>
      <trkpt lat="44.51235" lon="1.18069">
        <ele>98</ele>
        <time>2012-09-16T05:38:22Z</time>
      </trkpt>
      <trkpt lat="44.51272" lon="1.18039">
        <ele>97</ele>
        <time>2012-09-16T05:38:27Z</time>
      </trkpt>
      <trkpt lat="44.51305" lon="1.18011">
        <ele>97</ele>
        <time>2012-09-16T05:38:32Z</time>
      </trkpt>
      <trkpt lat="44.51334" lon="1.17986">
        <ele>97</ele>
        <time>2012-09-16T05:38:37Z</time>
      </trkpt>
      <trkpt lat="44.51361" lon="1.17964">
        <ele>97</ele>
        <time>2012-09-16T05:38:42Z</time>
      </trkpt>
      <trkpt lat="44.51386" lon="1.17946">
        <ele>97</ele>
        <time>2012-09-16T05:38:47Z</time>
      </trkpt>
      <trkpt lat="44.51408" lon="1.17931">
        <ele>97</ele>
        <time>2012-09-16T05:38:52Z</time>
      </trkpt>
      <trkpt lat="44.51431" lon="1.1792">
        <ele>97</ele>
        <time>2012-09-16T05:38:57Z</time>
      </trkpt>
      <trkpt lat="44.51453" lon="1.17908">
        <ele>97</ele>
        <time>2012-09-16T05:39:02Z</time>
      </trkpt>
      <trkpt lat="44.51476" lon="1.17897">
        <ele>97</ele>
        <time>2012-09-16T05:39:07Z</time>
      </trkpt>
      <trkpt lat="44.51498" lon="1.17886">
        <ele>97</ele>
        <time>2012-09-16T05:39:12Z</time>
      </trkpt>
      <trkpt lat="44.51519" lon="1.17875">
        <ele>97</ele>
        <time>2012-09-16T05:39:17Z</time>
      </trkpt>
      <trkpt lat="44.5154" lon="1.17865">
        <ele>97</ele>
        <time>2012-09-16T05:39:22Z</time>
      </trkpt>
      <trkpt lat="44.51559" lon="1.17858">
        <ele>98</ele>
        <time>2012-09-16T05:39:27Z</time>
      </trkpt>
      <trkpt lat="44.51578" lon="1.1785">
        <ele>99</ele>
        <time>2012-09-16T05:39:32Z</time>
      </trkpt>
      <trkpt lat="44.51596" lon="1.17839">
        <ele>100</ele>
        <time>2012-09-16T05:39:38Z</time>
      </trkpt>
      <trkpt lat="44.51616" lon="1.17821">
        <ele>101</ele>
        <time>2012-09-16T05:39:44Z</time>
      </trkpt>
      <trkpt lat="44.51634" lon="1.17802">
        <ele>101</ele>
        <time>2012-09-16T05:39:49Z</time>
      </trkpt>
      <trkpt lat="44.5165" lon="1.17788">
        <ele>101</ele>
        <time>2012-09-16T05:39:55Z</time>
      </trkpt>
      <trkpt lat="44.5167" lon="1.17772">
        <ele>102</ele>
        <time>2012-09-16T05:40:00Z</time>
      </trkpt>
      <trkpt lat="44.51686" lon="1.1776">
        <ele>104</ele>
        <time>2012-09-16T05:40:05Z</time>
      </trkpt>
      <trkpt lat="44.51702" lon="1.17748">
        <ele>105</ele>
        <time>2012-09-16T05:40:11Z</time>
      </trkpt>
      <trkpt lat="44.5172" lon="1.17729">
        <ele>106</ele>
        <time>2012-09-16T05:40:16Z</time>
      </trkpt>
      <trkpt lat="44.51733" lon="1.17711">
        <ele>107</ele>
        <time>2012-09-16T05:40:21Z</time>
      </trkpt>
      <trkpt lat="44.51747" lon="1.17692">
        <ele>108</ele>
        <time>2012-09-16T05:40:27Z</time>
      </trkpt>
      <trkpt lat="44.51763" lon="1.17671">
        <ele>109</ele>
        <time>2012-09-16T05:40:32Z</time>
      </trkpt>
      <trkpt lat="44.51776" lon="1.17657">
        <ele>109</ele>
        <time>2012-09-16T05:40:37Z</time>
      </trkpt>
      <trkpt lat="44.51789" lon="1.17642">
        <ele>111</ele>
        <time>2012-09-16T05:40:42Z</time>
      </trkpt>
      <trkpt lat="44.51803" lon="1.17626">
        <ele>113</ele>
        <time>2012-09-16T05:40:47Z</time>
      </trkpt>
      <trkpt lat="44.51815" lon="1.17612">
        <ele>115</ele>
        <time>2012-09-16T05:40:53Z</time>
      </trkpt>
      <trkpt lat="44.51828" lon="1.17598">
        <ele>116</ele>
        <time>2012-09-16T05:40:58Z</time>
      </trkpt>
      <trkpt lat="44.51842" lon="1.17582">
        <ele>118</ele>
        <time>2012-09-16T05:41:03Z</time>
      </trkpt>
      <trkpt lat="44.51854" lon="1.17568">
        <ele>119</ele>
        <time>2012-09-16T05:41:08Z</time>
      </trkpt>
      <trkpt lat="44.51867" lon="1.17554">
        <ele>120</ele>
        <time>2012-09-16T05:41:13Z</time>
      </trkpt>
      <trkpt lat="44.51879" lon="1.17541">
        <ele>121</ele>
        <time>2012-09-16T05:41:19Z</time>
      </trkpt>
      <trkpt lat="44.51891" lon="1.17528">
        <ele>122</ele>
        <time>2012-09-16T05:41:24Z</time>
      </trkpt>
      <trkpt lat="44.51901" lon="1.17512">
        <ele>124</ele>
        <time>2012-09-16T05:41:29Z</time>
      </trkpt>
      <trkpt lat="44.51893" lon="1.17499">
        <ele>124</ele>
        <time>2012-09-16T05:41:34Z</time>
      </trkpt>
      <trkpt lat="44.51878" lon="1.17488">
        <ele>125</ele>
        <time>2012-09-16T05:41:39Z</time>
      </trkpt>
      <trkpt lat="44.51862" lon="1.17476">
        <ele>125</ele>
        <time>2012-09-16T05:41:44Z</time>
      </trkpt>
      <trkpt lat="44.51847" lon="1.17461">
        <ele>125</ele>
        <time>2012-09-16T05:41:49Z</time>
      </trkpt>
      <trkpt lat="44.51832" lon="1.17449">
        <ele>125</ele>
        <time>2012-09-16T05:41:54Z</time>
      </trkpt>
      <trkpt lat="44.51815" lon="1.17435">
        <ele>125</ele>
        <time>2012-09-16T05:41:59Z</time>
      </trkpt>
      <trkpt lat="44.518" lon="1.17421">
        <ele>125</ele>
        <time>2012-09-16T05:42:04Z</time>
      </trkpt>
      <trkpt lat="44.51785" lon="1.17407">
        <ele>125</ele>
        <time>2012-09-16T05:42:09Z</time>
      </trkpt>
      <trkpt lat="44.51769" lon="1.17399">
        <ele>125</ele>
        <time>2012-09-16T05:42:14Z</time>
      </trkpt>
      <trkpt lat="44.51752" lon="1.17397">
        <ele>125</ele>
        <time>2012-09-16T05:42:20Z</time>
      </trkpt>
      <trkpt lat="44.51731" lon="1.17395">
        <ele>125</ele>
        <time>2012-09-16T05:42:25Z</time>
      </trkpt>
      <trkpt lat="44.51716" lon="1.17388">
        <ele>126</ele>
        <time>2012-09-16T05:42:31Z</time>
      </trkpt>
      <trkpt lat="44.51703" lon="1.17371">
        <ele>126</ele>
        <time>2012-09-16T05:42:36Z</time>
      </trkpt>
      <trkpt lat="44.51701" lon="1.17354">
        <ele>130</ele>
        <time>2012-09-16T05:42:42Z</time>
      </trkpt>
      <trkpt lat="44.51707" lon="1.17339">
        <ele>131</ele>
        <time>2012-09-16T05:42:47Z</time>
      </trkpt>
      <trkpt lat="44.51717" lon="1.17326">
        <ele>133</ele>
        <time>2012-09-16T05:42:52Z</time>
      </trkpt>
      <trkpt lat="44.51729" lon="1.17313">
        <ele>135</ele>
        <time>2012-09-16T05:42:57Z</time>
      </trkpt>
      <trkpt lat="44.51738" lon="1.17303">
        <ele>137</ele>
        <time>2012-09-16T05:43:02Z</time>
      </trkpt>
      <trkpt lat="44.51749" lon="1.17291">
        <ele>139</ele>
        <time>2012-09-16T05:43:08Z</time>
      </trkpt>
      <trkpt lat="44.51762" lon="1.1728">
        <ele>140</ele>
        <time>2012-09-16T05:43:13Z</time>
      </trkpt>
      <trkpt lat="44.5178" lon="1.1727">
        <ele>140</ele>
        <time>2012-09-16T05:43:19Z</time>
      </trkpt>
      <trkpt lat="44.51794" lon="1.17265">
        <ele>140</ele>
        <time>2012-09-16T05:43:24Z</time>
      </trkpt>
      <trkpt lat="44.51811" lon="1.17262">
        <ele>140</ele>
        <time>2012-09-16T05:43:30Z</time>
      </trkpt>
      <trkpt lat="44.51828" lon="1.17259">
        <ele>140</ele>
        <time>2012-09-16T05:43:35Z</time>
      </trkpt>
      <trkpt lat="44.5184" lon="1.17258">
        <ele>140</ele>
        <time>2012-09-16T05:43:40Z</time>
      </trkpt>
      <trkpt lat="44.51853" lon="1.17256">
        <ele>140</ele>
        <time>2012-09-16T05:43:46Z</time>
      </trkpt>
      <trkpt lat="44.51866" lon="1.17255">
        <ele>142</ele>
        <time>2012-09-16T05:43:51Z</time>
      </trkpt>
      <trkpt lat="44.51882" lon="1.17251">
        <ele>145</ele>
        <time>2012-09-16T05:43:56Z</time>
      </trkpt>
      <trkpt lat="44.51895" lon="1.17246">
        <ele>146</ele>
        <time>2012-09-16T05:44:01Z</time>
      </trkpt>
      <trkpt lat="44.51908" lon="1.17243">
        <ele>148</ele>
        <time>2012-09-16T05:44:06Z</time>
      </trkpt>
      <trkpt lat="44.51923" lon="1.17238">
        <ele>149</ele>
        <time>2012-09-16T05:44:11Z</time>
      </trkpt>
      <trkpt lat="44.51935" lon="1.17234">
        <ele>151</ele>
        <time>2012-09-16T05:44:16Z</time>
      </trkpt>
      <trkpt lat="44.51947" lon="1.1723">
        <ele>152</ele>
        <time>2012-09-16T05:44:22Z</time>
      </trkpt>
      <trkpt lat="44.51959" lon="1.17227">
        <ele>153</ele>
        <time>2012-09-16T05:44:27Z</time>
      </trkpt>
      <trkpt lat="44.51976" lon="1.17221">
        <ele>155</ele>
        <time>2012-09-16T05:44:33Z</time>
      </trkpt>
      <trkpt lat="44.5199" lon="1.17215">
        <ele>156</ele>
        <time>2012-09-16T05:44:38Z</time>
      </trkpt>
      <trkpt lat="44.52002" lon="1.1721">
        <ele>157</ele>
        <time>2012-09-16T05:44:43Z</time>
      </trkpt>
      <trkpt lat="44.52015" lon="1.17205">
        <ele>159</ele>
        <time>2012-09-16T05:44:48Z</time>
      </trkpt>
      <trkpt lat="44.52032" lon="1.17199">
        <ele>160</ele>
        <time>2012-09-16T05:44:54Z</time>
      </trkpt>
      <trkpt lat="44.52048" lon="1.17197">
        <ele>160</ele>
        <time>2012-09-16T05:45:00Z</time>
      </trkpt>
      <trkpt lat="44.52062" lon="1.1721">
        <ele>162</ele>
        <time>2012-09-16T05:45:06Z</time>
      </trkpt>
      <trkpt lat="44.52069" lon="1.17229">
        <ele>163</ele>
        <time>2012-09-16T05:45:11Z</time>
      </trkpt>
      <trkpt lat="44.52074" lon="1.17246">
        <ele>164</ele>
        <time>2012-09-16T05:45:16Z</time>
      </trkpt>
      <trkpt lat="44.52079" lon="1.1727">
        <ele>164</ele>
        <time>2012-09-16T05:45:21Z</time>
      </trkpt>
      <trkpt lat="44.52085" lon="1.17289">
        <ele>164</ele>
        <time>2012-09-16T05:45:26Z</time>
      </trkpt>
      <trkpt lat="44.52095" lon="1.17306">
        <ele>164</ele>
        <time>2012-09-16T05:45:31Z</time>
      </trkpt>
      <trkpt lat="44.52108" lon="1.17317">
        <ele>164</ele>
        <time>2012-09-16T05:45:36Z</time>
      </trkpt>
      <trkpt lat="44.52123" lon="1.1732">
        <ele>166</ele>
        <time>2012-09-16T05:45:41Z</time>
      </trkpt>
      <trkpt lat="44.52138" lon="1.17318">
        <ele>168</ele>
        <time>2012-09-16T05:45:47Z</time>
      </trkpt>
      <trkpt lat="44.52153" lon="1.17315">
        <ele>172</ele>
        <time>2012-09-16T05:45:53Z</time>
      </trkpt>
      <trkpt lat="44.52168" lon="1.17308">
        <ele>176</ele>
        <time>2012-09-16T05:45:58Z</time>
      </trkpt>
      <trkpt lat="44.52181" lon="1.173">
        <ele>179</ele>
        <time>2012-09-16T05:46:04Z</time>
      </trkpt>
      <trkpt lat="44.52191" lon="1.17287">
        <ele>183</ele>
        <time>2012-09-16T05:46:09Z</time>
      </trkpt>
      <trkpt lat="44.52199" lon="1.17273">
        <ele>186</ele>
        <time>2012-09-16T05:46:15Z</time>
      </trkpt>
      <trkpt lat="44.52205" lon="1.1726">
        <ele>188</ele>
        <time>2012-09-16T05:46:20Z</time>
      </trkpt>
      <trkpt lat="44.52214" lon="1.17239">
        <ele>192</ele>
        <time>2012-09-16T05:46:25Z</time>
      </trkpt>
      <trkpt lat="44.52224" lon="1.17222">
        <ele>192</ele>
        <time>2012-09-16T05:46:30Z</time>
      </trkpt>
      <trkpt lat="44.52232" lon="1.17207">
        <ele>195</ele>
        <time>2012-09-16T05:46:36Z</time>
      </trkpt>
      <trkpt lat="44.52243" lon="1.17184">
        <ele>198</ele>
        <time>2012-09-16T05:46:42Z</time>
      </trkpt>
      <trkpt lat="44.52251" lon="1.17166">
        <ele>198</ele>
        <time>2012-09-16T05:46:47Z</time>
      </trkpt>
      <trkpt lat="44.52259" lon="1.17146">
        <ele>198</ele>
        <time>2012-09-16T05:46:53Z</time>
      </trkpt>
      <trkpt lat="44.52267" lon="1.17129">
        <ele>198</ele>
        <time>2012-09-16T05:46:58Z</time>
      </trkpt>
      <trkpt lat="44.52275" lon="1.17111">
        <ele>199</ele>
        <time>2012-09-16T05:47:03Z</time>
      </trkpt>
      <trkpt lat="44.52283" lon="1.17095">
        <ele>199</ele>
        <time>2012-09-16T05:47:08Z</time>
      </trkpt>
      <trkpt lat="44.52292" lon="1.17081">
        <ele>200</ele>
        <time>2012-09-16T05:47:13Z</time>
      </trkpt>
      <trkpt lat="44.52302" lon="1.17064">
        <ele>200</ele>
        <time>2012-09-16T05:47:19Z</time>
      </trkpt>
      <trkpt lat="44.52311" lon="1.17049">
        <ele>200</ele>
        <time>2012-09-16T05:47:25Z</time>
      </trkpt>
      <trkpt lat="44.52318" lon="1.17038">
        <ele>200</ele>
        <time>2012-09-16T05:47:30Z</time>
      </trkpt>
      <trkpt lat="44.52326" lon="1.17023">
        <ele>200</ele>
        <time>2012-09-16T05:47:36Z</time>
      </trkpt>
      <trkpt lat="44.52331" lon="1.17009">
        <ele>204</ele>
        <time>2012-09-16T05:47:41Z</time>
      </trkpt>
      <trkpt lat="44.5234" lon="1.16995">
        <ele>207</ele>
        <time>2012-09-16T05:47:46Z</time>
      </trkpt>
      <trkpt lat="44.52354" lon="1.16985">
        <ele>211</ele>
        <time>2012-09-16T05:47:51Z</time>
      </trkpt>
      <trkpt lat="44.52367" lon="1.16983">
        <ele>216</ele>
        <time>2012-09-16T05:47:56Z</time>
      </trkpt>
      <trkpt lat="44.52379" lon="1.1698">
        <ele>217</ele>
        <time>2012-09-16T05:48:01Z</time>
      </trkpt>
      <trkpt lat="44.52384" lon="1.16969">
        <ele>217</ele>
        <time>2012-09-16T05:48:06Z</time>
      </trkpt>
      <trkpt lat="44.52377" lon="1.16954">
        <ele>218</ele>
        <time>2012-09-16T05:48:11Z</time>
      </trkpt>
      <trkpt lat="44.52368" lon="1.16942">
        <ele>220</ele>
        <time>2012-09-16T05:48:16Z</time>
      </trkpt>
      <trkpt lat="44.52357" lon="1.16939">
        <ele>221</ele>
        <time>2012-09-16T05:48:21Z</time>
      </trkpt>
      <trkpt lat="44.52351" lon="1.16928">
        <ele>221</ele>
        <time>2012-09-16T05:48:27Z</time>
      </trkpt>
      <trkpt lat="44.52358" lon="1.16915">
        <ele>222</ele>
        <time>2012-09-16T05:48:32Z</time>
      </trkpt>
      <trkpt lat="44.52364" lon="1.16912">
        <ele>222</ele>
        <time>2012-09-16T05:48:38Z</time>
      </trkpt>
      <trkpt lat="44.52372" lon="1.16908">
        <ele>222</ele>
        <time>2012-09-16T05:48:45Z</time>
      </trkpt>
      <trkpt lat="44.52375" lon="1.16908">
        <ele>222</ele>
        <time>2012-09-16T05:48:51Z</time>
      </trkpt>
      <trkpt lat="44.52377" lon="1.16909">
        <ele>218</ele>
        <time>2012-09-16T05:49:01Z</time>
      </trkpt>
      <trkpt lat="44.52379" lon="1.16909">
        <ele>213</ele>
        <time>2012-09-16T05:49:10Z</time>
      </trkpt>
      <trkpt lat="44.52384" lon="1.16905">
        <ele>213</ele>
        <time>2012-09-16T05:49:16Z</time>
      </trkpt>
      <trkpt lat="44.52388" lon="1.16899">
        <ele>213</ele>
        <time>2012-09-16T05:49:21Z</time>
      </trkpt>
      <trkpt lat="44.52384" lon="1.16891">
        <ele>213</ele>
        <time>2012-09-16T05:49:26Z</time>
      </trkpt>
      <trkpt lat="44.52367" lon="1.16886">
        <ele>213</ele>
        <time>2012-09-16T05:49:32Z</time>
      </trkpt>
      <trkpt lat="44.52349" lon="1.16884">
        <ele>216</ele>
        <time>2012-09-16T05:49:37Z</time>
      </trkpt>
      <trkpt lat="44.52334" lon="1.16882">
        <ele>216</ele>
        <time>2012-09-16T05:49:42Z</time>
      </trkpt>
      <trkpt lat="44.52319" lon="1.16876">
        <ele>216</ele>
        <time>2012-09-16T05:49:47Z</time>
      </trkpt>
      <trkpt lat="44.52296" lon="1.1687">
        <ele>216</ele>
        <time>2012-09-16T05:49:53Z</time>
      </trkpt>
      <trkpt lat="44.52272" lon="1.16862">
        <ele>216</ele>
        <time>2012-09-16T05:49:59Z</time>
      </trkpt>
      <trkpt lat="44.52261" lon="1.16864">
        <ele>215</ele>
        <time>2012-09-16T05:50:05Z</time>
      </trkpt>
      <trkpt lat="44.52261" lon="1.16864">
        <ele>214</ele>
        <time>2012-09-16T05:50:10Z</time>
      </trkpt>
      <trkpt lat="44.52274" lon="1.16866">
        <ele>213</ele>
        <time>2012-09-16T05:50:15Z</time>
      </trkpt>
      <trkpt lat="44.52293" lon="1.16872">
        <ele>213</ele>
        <time>2012-09-16T05:50:20Z</time>
      </trkpt>
      <trkpt lat="44.52312" lon="1.16877">
        <ele>213</ele>
        <time>2012-09-16T05:50:26Z</time>
      </trkpt>
      <trkpt lat="44.52338" lon="1.16883">
        <ele>213</ele>
        <time>2012-09-16T05:50:32Z</time>
      </trkpt>
      <trkpt lat="44.52367" lon="1.16883">
        <ele>214</ele>
        <time>2012-09-16T05:50:37Z</time>
      </trkpt>
      <trkpt lat="44.52384" lon="1.16887">
        <ele>214</ele>
        <time>2012-09-16T05:50:42Z</time>
      </trkpt>
      <trkpt lat="44.52394" lon="1.1689">
        <ele>214</ele>
        <time>2012-09-16T05:50:47Z</time>
      </trkpt>
      <trkpt lat="44.52404" lon="1.16891">
        <ele>214</ele>
        <time>2012-09-16T05:50:54Z</time>
      </trkpt>
      <trkpt lat="44.52387" lon="1.16899">
        <ele>214</ele>
        <time>2012-09-16T05:50:59Z</time>
      </trkpt>
      <trkpt lat="44.52369" lon="1.16908">
        <ele>214</ele>
        <time>2012-09-16T05:51:04Z</time>
      </trkpt>
      <trkpt lat="44.52361" lon="1.16911">
        <ele>214</ele>
        <time>2012-09-16T05:51:10Z</time>
      </trkpt>
      <trkpt lat="44.52361" lon="1.1693">
        <ele>215</ele>
        <time>2012-09-16T05:51:15Z</time>
      </trkpt>
      <trkpt lat="44.52383" lon="1.16951">
        <ele>215</ele>
        <time>2012-09-16T05:51:20Z</time>
      </trkpt>
      <trkpt lat="44.52371" lon="1.16974">
        <ele>213</ele>
        <time>2012-09-16T05:51:26Z</time>
      </trkpt>
      <trkpt lat="44.5234" lon="1.16989">
        <ele>212</ele>
        <time>2012-09-16T05:51:31Z</time>
      </trkpt>
      <trkpt lat="44.52322" lon="1.17034">
        <ele>208</ele>
        <time>2012-09-16T05:51:36Z</time>
      </trkpt>
      <trkpt lat="44.52298" lon="1.17076">
        <ele>207</ele>
        <time>2012-09-16T05:51:42Z</time>
      </trkpt>
      <trkpt lat="44.52274" lon="1.17121">
        <ele>204</ele>
        <time>2012-09-16T05:51:47Z</time>
      </trkpt>
      <trkpt lat="44.52251" lon="1.17173">
        <ele>200</ele>
        <time>2012-09-16T05:51:53Z</time>
      </trkpt>
      <trkpt lat="44.52228" lon="1.17222">
        <ele>197</ele>
        <time>2012-09-16T05:51:58Z</time>
      </trkpt>
      <trkpt lat="44.52197" lon="1.17291">
        <ele>194</ele>
        <time>2012-09-16T05:52:03Z</time>
      </trkpt>
      <trkpt lat="44.52162" lon="1.17321">
        <ele>194</ele>
        <time>2012-09-16T05:52:08Z</time>
      </trkpt>
      <trkpt lat="44.52117" lon="1.17324">
        <ele>191</ele>
        <time>2012-09-16T05:52:13Z</time>
      </trkpt>
      <trkpt lat="44.5208" lon="1.17287">
        <ele>186</ele>
        <time>2012-09-16T05:52:18Z</time>
      </trkpt>
      <trkpt lat="44.52067" lon="1.17235">
        <ele>177</ele>
        <time>2012-09-16T05:52:23Z</time>
      </trkpt>
      <trkpt lat="44.52044" lon="1.17205">
        <ele>167</ele>
        <time>2012-09-16T05:52:29Z</time>
      </trkpt>
      <trkpt lat="44.51997" lon="1.17217">
        <ele>161</ele>
        <time>2012-09-16T05:52:35Z</time>
      </trkpt>
      <trkpt lat="44.51945" lon="1.17233">
        <ele>161</ele>
        <time>2012-09-16T05:52:41Z</time>
      </trkpt>
      <trkpt lat="44.51889" lon="1.17254">
        <ele>161</ele>
        <time>2012-09-16T05:52:47Z</time>
      </trkpt>
      <trkpt lat="44.51843" lon="1.17264">
        <ele>161</ele>
        <time>2012-09-16T05:52:52Z</time>
      </trkpt>
      <trkpt lat="44.51805" lon="1.17268">
        <ele>160</ele>
        <time>2012-09-16T05:52:58Z</time>
      </trkpt>
      <trkpt lat="44.51765" lon="1.17281">
        <ele>155</ele>
        <time>2012-09-16T05:53:03Z</time>
      </trkpt>
      <trkpt lat="44.51738" lon="1.17304">
        <ele>150</ele>
        <time>2012-09-16T05:53:08Z</time>
      </trkpt>
      <trkpt lat="44.51726" lon="1.17316">
        <ele>145</ele>
        <time>2012-09-16T05:53:14Z</time>
      </trkpt>
      <trkpt lat="44.51721" lon="1.17322">
        <ele>141</ele>
        <time>2012-09-16T05:53:21Z</time>
      </trkpt>
      <trkpt lat="44.51721" lon="1.17321">
        <ele>141</ele>
        <time>2012-09-16T05:53:26Z</time>
      </trkpt>
      <trkpt lat="44.5172" lon="1.17323">
        <ele>141</ele>
        <time>2012-09-16T05:53:33Z</time>
      </trkpt>
      <trkpt lat="44.51715" lon="1.17327">
        <ele>141</ele>
        <time>2012-09-16T05:53:39Z</time>
      </trkpt>
      <trkpt lat="44.51714" lon="1.17327">
        <ele>141</ele>
        <time>2012-09-16T05:53:51Z</time>
      </trkpt>
      <trkpt lat="44.5171" lon="1.17331">
        <ele>141</ele>
        <time>2012-09-16T05:53:56Z</time>
      </trkpt>
      <trkpt lat="44.51712" lon="1.17329">
        <ele>141</ele>
        <time>2012-09-16T05:54:05Z</time>
      </trkpt>
      <trkpt lat="44.51704" lon="1.17315">
        <ele>141</ele>
        <time>2012-09-16T05:54:10Z</time>
      </trkpt>
      <trkpt lat="44.51698" lon="1.17301">
        <ele>141</ele>
        <time>2012-09-16T05:54:15Z</time>
      </trkpt>
      <trkpt lat="44.5169" lon="1.1729">
        <ele>141</ele>
        <time>2012-09-16T05:54:20Z</time>
      </trkpt>
      <trkpt lat="44.51683" lon="1.17278">
        <ele>141</ele>
        <time>2012-09-16T05:54:25Z</time>
      </trkpt>
      <trkpt lat="44.51677" lon="1.17267">
        <ele>141</ele>
        <time>2012-09-16T05:54:30Z</time>
      </trkpt>
      <trkpt lat="44.51671" lon="1.17258">
        <ele>141</ele>
        <time>2012-09-16T05:54:35Z</time>
      </trkpt>
      <trkpt lat="44.51667" lon="1.17247">
        <ele>144</ele>
        <time>2012-09-16T05:54:40Z</time>
      </trkpt>
      <trkpt lat="44.51659" lon="1.17239">
        <ele>149</ele>
        <time>2012-09-16T05:54:46Z</time>
      </trkpt>
      <trkpt lat="44.51655" lon="1.17227">
        <ele>154</ele>
        <time>2012-09-16T05:54:52Z</time>
      </trkpt>
      <trkpt lat="44.51649" lon="1.17216">
        <ele>155</ele>
        <time>2012-09-16T05:54:57Z</time>
      </trkpt>
      <trkpt lat="44.51643" lon="1.1721">
        <ele>160</ele>
        <time>2012-09-16T05:55:02Z</time>
      </trkpt>
      <trkpt lat="44.51635" lon="1.17203">
        <ele>164</ele>
        <time>2012-09-16T05:55:07Z</time>
      </trkpt>
      <trkpt lat="44.51629" lon="1.17192">
        <ele>170</ele>
        <time>2012-09-16T05:55:13Z</time>
      </trkpt>
      <trkpt lat="44.51625" lon="1.17184">
        <ele>172</ele>
        <time>2012-09-16T05:55:18Z</time>
      </trkpt>
      <trkpt lat="44.51626" lon="1.17176">
        <ele>175</ele>
        <time>2012-09-16T05:55:23Z</time>
      </trkpt>
      <trkpt lat="44.51622" lon="1.17168">
        <ele>175</ele>
        <time>2012-09-16T05:55:28Z</time>
      </trkpt>
      <trkpt lat="44.51619" lon="1.1716">
        <ele>176</ele>
        <time>2012-09-16T05:55:33Z</time>
      </trkpt>
      <trkpt lat="44.51616" lon="1.17154">
        <ele>176</ele>
        <time>2012-09-16T05:55:39Z</time>
      </trkpt>
      <trkpt lat="44.51615" lon="1.17147">
        <ele>176</ele>
        <time>2012-09-16T05:55:45Z</time>
      </trkpt>
      <trkpt lat="44.51611" lon="1.17134">
        <ele>177</ele>
        <time>2012-09-16T05:55:50Z</time>
      </trkpt>
      <trkpt lat="44.5161" lon="1.17124">
        <ele>177</ele>
        <time>2012-09-16T05:55:57Z</time>
      </trkpt>
      <trkpt lat="44.51606" lon="1.17117">
        <ele>177</ele>
        <time>2012-09-16T05:56:02Z</time>
      </trkpt>
      <trkpt lat="44.51604" lon="1.17113">
        <ele>177</ele>
        <time>2012-09-16T05:56:07Z</time>
      </trkpt>
      <trkpt lat="44.51599" lon="1.17106">
        <ele>177</ele>
        <time>2012-09-16T05:56:13Z</time>
      </trkpt>
      <trkpt lat="44.51597" lon="1.17099">
        <ele>177</ele>
        <time>2012-09-16T05:56:19Z</time>
      </trkpt>
      <trkpt lat="44.51593" lon="1.17093">
        <ele>180</ele>
        <time>2012-09-16T05:56:26Z</time>
      </trkpt>
      <trkpt lat="44.5159" lon="1.17085">
        <ele>184</ele>
        <time>2012-09-16T05:56:31Z</time>
      </trkpt>
      <trkpt lat="44.51591" lon="1.17077">
        <ele>186</ele>
        <time>2012-09-16T05:56:36Z</time>
      </trkpt>
      <trkpt lat="44.5159" lon="1.17069">
        <ele>188</ele>
        <time>2012-09-16T05:56:42Z</time>
      </trkpt>
      <trkpt lat="44.5159" lon="1.1706">
        <ele>189</ele>
        <time>2012-09-16T05:56:47Z</time>
      </trkpt>
      <trkpt lat="44.51589" lon="1.17053">
        <ele>189</ele>
        <time>2012-09-16T05:56:52Z</time>
      </trkpt>
      <trkpt lat="44.51588" lon="1.17046">
        <ele>189</ele>
        <time>2012-09-16T05:56:58Z</time>
      </trkpt>
      <trkpt lat="44.51587" lon="1.17035">
        <ele>189</ele>
        <time>2012-09-16T05:57:04Z</time>
      </trkpt>
      <trkpt lat="44.51582" lon="1.17028">
        <ele>189</ele>
        <time>2012-09-16T05:57:09Z</time>
      </trkpt>
      <trkpt lat="44.51577" lon="1.17025">
        <ele>189</ele>
        <time>2012-09-16T05:57:15Z</time>
      </trkpt>
      <trkpt lat="44.51572" lon="1.1702">
        <ele>189</ele>
        <time>2012-09-16T05:57:21Z</time>
      </trkpt>
      <trkpt lat="44.51566" lon="1.17014">
        <ele>189</ele>
        <time>2012-09-16T05:57:27Z</time>
      </trkpt>
      <trkpt lat="44.51562" lon="1.17004">
        <ele>189</ele>
        <time>2012-09-16T05:57:33Z</time>
      </trkpt>
      <trkpt lat="44.51558" lon="1.16997">
        <ele>192</ele>
        <time>2012-09-16T05:57:39Z</time>
      </trkpt>
      <trkpt lat="44.51555" lon="1.1699">
        <ele>193</ele>
        <time>2012-09-16T05:57:45Z</time>
      </trkpt>
      <trkpt lat="44.51556" lon="1.16977">
        <ele>193</ele>
        <time>2012-09-16T05:57:51Z</time>
      </trkpt>
      <trkpt lat="44.51555" lon="1.16967">
        <ele>194</ele>
        <time>2012-09-16T05:57:56Z</time>
      </trkpt>
      <trkpt lat="44.51551" lon="1.16959">
        <ele>196</ele>
        <time>2012-09-16T05:58:01Z</time>
      </trkpt>
      <trkpt lat="44.51546" lon="1.16951">
        <ele>200</ele>
        <time>2012-09-16T05:58:07Z</time>
      </trkpt>
      <trkpt lat="44.5154" lon="1.16944">
        <ele>205</ele>
        <time>2012-09-16T05:58:12Z</time>
      </trkpt>
      <trkpt lat="44.51535" lon="1.16939">
        <ele>208</ele>
        <time>2012-09-16T05:58:19Z</time>
      </trkpt>
      <trkpt lat="44.51529" lon="1.16931">
        <ele>210</ele>
        <time>2012-09-16T05:58:25Z</time>
      </trkpt>
      <trkpt lat="44.51525" lon="1.16925">
        <ele>211</ele>
        <time>2012-09-16T05:58:31Z</time>
      </trkpt>
      <trkpt lat="44.51519" lon="1.1692">
        <ele>211</ele>
        <time>2012-09-16T05:58:37Z</time>
      </trkpt>
      <trkpt lat="44.51515" lon="1.16911">
        <ele>211</ele>
        <time>2012-09-16T05:58:42Z</time>
      </trkpt>
      <trkpt lat="44.51508" lon="1.16902">
        <ele>213</ele>
        <time>2012-09-16T05:58:48Z</time>
      </trkpt>
      <trkpt lat="44.51504" lon="1.16894">
        <ele>215</ele>
        <time>2012-09-16T05:58:53Z</time>
      </trkpt>
      <trkpt lat="44.51497" lon="1.1689">
        <ele>216</ele>
        <time>2012-09-16T05:58:59Z</time>
      </trkpt>
      <trkpt lat="44.51488" lon="1.16887">
        <ele>216</ele>
        <time>2012-09-16T05:59:05Z</time>
      </trkpt>
      <trkpt lat="44.51482" lon="1.16885">
        <ele>216</ele>
        <time>2012-09-16T05:59:11Z</time>
      </trkpt>
      <trkpt lat="44.51475" lon="1.16888">
        <ele>216</ele>
        <time>2012-09-16T05:59:16Z</time>
      </trkpt>
      <trkpt lat="44.51465" lon="1.16892">
        <ele>216</ele>
        <time>2012-09-16T05:59:21Z</time>
      </trkpt>
      <trkpt lat="44.51451" lon="1.16896">
        <ele>216</ele>
        <time>2012-09-16T05:59:26Z</time>
      </trkpt>
      <trkpt lat="44.51435" lon="1.16902">
        <ele>216</ele>
        <time>2012-09-16T05:59:32Z</time>
      </trkpt>
      <trkpt lat="44.51418" lon="1.16909">
        <ele>216</ele>
        <time>2012-09-16T05:59:37Z</time>
      </trkpt>
      <trkpt lat="44.51385" lon="1.16922">
        <ele>213</ele>
        <time>2012-09-16T05:59:42Z</time>
      </trkpt>
      <trkpt lat="44.5135" lon="1.16931">
        <ele>212</ele>
        <time>2012-09-16T05:59:47Z</time>
      </trkpt>
      <trkpt lat="44.51313" lon="1.16942">
        <ele>210</ele>
        <time>2012-09-16T05:59:52Z</time>
      </trkpt>
      <trkpt lat="44.51279" lon="1.16954">
        <ele>209</ele>
        <time>2012-09-16T05:59:57Z</time>
      </trkpt>
      <trkpt lat="44.51262" lon="1.16985">
        <ele>207</ele>
        <time>2012-09-16T06:00:02Z</time>
      </trkpt>
      <trkpt lat="44.51248" lon="1.17015">
        <ele>207</ele>
        <time>2012-09-16T06:00:07Z</time>
      </trkpt>
      <trkpt lat="44.51221" lon="1.17007">
        <ele>207</ele>
        <time>2012-09-16T06:00:12Z</time>
      </trkpt>
      <trkpt lat="44.51191" lon="1.16999">
        <ele>206</ele>
        <time>2012-09-16T06:00:17Z</time>
      </trkpt>
      <trkpt lat="44.51159" lon="1.1699">
        <ele>206</ele>
        <time>2012-09-16T06:00:22Z</time>
      </trkpt>
      <trkpt lat="44.51133" lon="1.16956">
        <ele>202</ele>
        <time>2012-09-16T06:00:27Z</time>
      </trkpt>
      <trkpt lat="44.51133" lon="1.16903">
        <ele>197</ele>
        <time>2012-09-16T06:00:32Z</time>
      </trkpt>
      <trkpt lat="44.5116" lon="1.16859">
        <ele>197</ele>
        <time>2012-09-16T06:00:37Z</time>
      </trkpt>
      <trkpt lat="44.51191" lon="1.16829">
        <ele>197</ele>
        <time>2012-09-16T06:00:42Z</time>
      </trkpt>
      <trkpt lat="44.51219" lon="1.16801">
        <ele>192</ele>
        <time>2012-09-16T06:00:48Z</time>
      </trkpt>
      <trkpt lat="44.51231" lon="1.16744">
        <ele>187</ele>
        <time>2012-09-16T06:00:53Z</time>
      </trkpt>
      <trkpt lat="44.51239" lon="1.16683">
        <ele>182</ele>
        <time>2012-09-16T06:00:58Z</time>
      </trkpt>
      <trkpt lat="44.51249" lon="1.16633">
        <ele>177</ele>
        <time>2012-09-16T06:01:03Z</time>
      </trkpt>
      <trkpt lat="44.51237" lon="1.16595">
        <ele>173</ele>
        <time>2012-09-16T06:01:09Z</time>
      </trkpt>
      <trkpt lat="44.51208" lon="1.16573">
        <ele>173</ele>
        <time>2012-09-16T06:01:14Z</time>
      </trkpt>
      <trkpt lat="44.51177" lon="1.16541">
        <ele>179</ele>
        <time>2012-09-16T06:01:20Z</time>
      </trkpt>
      <trkpt lat="44.51166" lon="1.16505">
        <ele>179</ele>
        <time>2012-09-16T06:01:25Z</time>
      </trkpt>
      <trkpt lat="44.51153" lon="1.16461">
        <ele>179</ele>
        <time>2012-09-16T06:01:31Z</time>
      </trkpt>
      <trkpt lat="44.51127" lon="1.16433">
        <ele>179</ele>
        <time>2012-09-16T06:01:36Z</time>
      </trkpt>
      <trkpt lat="44.51115" lon="1.16393">
        <ele>179</ele>
        <time>2012-09-16T06:01:41Z</time>
      </trkpt>
      <trkpt lat="44.51093" lon="1.16379">
        <ele>175</ele>
        <time>2012-09-16T06:01:46Z</time>
      </trkpt>
      <trkpt lat="44.51066" lon="1.16375">
        <ele>170</ele>
        <time>2012-09-16T06:01:51Z</time>
      </trkpt>
      <trkpt lat="44.51052" lon="1.16333">
        <ele>164</ele>
        <time>2012-09-16T06:01:57Z</time>
      </trkpt>
      <trkpt lat="44.51041" lon="1.16288">
        <ele>159</ele>
        <time>2012-09-16T06:02:02Z</time>
      </trkpt>
      <trkpt lat="44.51024" lon="1.16235">
        <ele>153</ele>
        <time>2012-09-16T06:02:08Z</time>
      </trkpt>
      <trkpt lat="44.51009" lon="1.16191">
        <ele>148</ele>
        <time>2012-09-16T06:02:13Z</time>
      </trkpt>
      <trkpt lat="44.51012" lon="1.16155">
        <ele>143</ele>
        <time>2012-09-16T06:02:18Z</time>
      </trkpt>
      <trkpt lat="44.50999" lon="1.16132">
        <ele>141</ele>
        <time>2012-09-16T06:02:23Z</time>
      </trkpt>
      <trkpt lat="44.50988" lon="1.16112">
        <ele>143</ele>
        <time>2012-09-16T06:02:28Z</time>
      </trkpt>
      <trkpt lat="44.50979" lon="1.16096">
        <ele>148</ele>
        <time>2012-09-16T06:02:33Z</time>
      </trkpt>
      <trkpt lat="44.50975" lon="1.16075">
        <ele>154</ele>
        <time>2012-09-16T06:02:39Z</time>
      </trkpt>
      <trkpt lat="44.50968" lon="1.16058">
        <ele>159</ele>
        <time>2012-09-16T06:02:44Z</time>
      </trkpt>
      <trkpt lat="44.50959" lon="1.16041">
        <ele>164</ele>
        <time>2012-09-16T06:02:49Z</time>
      </trkpt>
      <trkpt lat="44.50951" lon="1.16024">
        <ele>169</ele>
        <time>2012-09-16T06:02:54Z</time>
      </trkpt>
      <trkpt lat="44.50946" lon="1.16005">
        <ele>169</ele>
        <time>2012-09-16T06:02:59Z</time>
      </trkpt>
      <trkpt lat="44.50944" lon="1.15988">
        <ele>169</ele>
        <time>2012-09-16T06:03:04Z</time>
      </trkpt>
      <trkpt lat="44.50941" lon="1.15969">
        <ele>169</ele>
        <time>2012-09-16T06:03:09Z</time>
      </trkpt>
      <trkpt lat="44.50942" lon="1.15946">
        <ele>165</ele>
        <time>2012-09-16T06:03:15Z</time>
      </trkpt>
      <trkpt lat="44.50943" lon="1.15926">
        <ele>160</ele>
        <time>2012-09-16T06:03:20Z</time>
      </trkpt>
      <trkpt lat="44.50946" lon="1.15905">
        <ele>155</ele>
        <time>2012-09-16T06:03:25Z</time>
      </trkpt>
      <trkpt lat="44.50951" lon="1.1589">
        <ele>153</ele>
        <time>2012-09-16T06:03:30Z</time>
      </trkpt>
      <trkpt lat="44.50956" lon="1.15878">
        <ele>150</ele>
        <time>2012-09-16T06:03:35Z</time>
      </trkpt>
      <trkpt lat="44.50956" lon="1.15867">
        <ele>150</ele>
        <time>2012-09-16T06:03:40Z</time>
      </trkpt>
      <trkpt lat="44.50953" lon="1.15854">
        <ele>153</ele>
        <time>2012-09-16T06:03:46Z</time>
      </trkpt>
      <trkpt lat="44.50954" lon="1.15845">
        <ele>159</ele>
        <time>2012-09-16T06:03:51Z</time>
      </trkpt>
      <trkpt lat="44.50959" lon="1.1584">
        <ele>165</ele>
        <time>2012-09-16T06:03:56Z</time>
      </trkpt>
      <trkpt lat="44.50965" lon="1.15834">
        <ele>170</ele>
        <time>2012-09-16T06:04:01Z</time>
      </trkpt>
      <trkpt lat="44.50972" lon="1.15827">
        <ele>176</ele>
        <time>2012-09-16T06:04:06Z</time>
      </trkpt>
      <trkpt lat="44.50978" lon="1.15816">
        <ele>181</ele>
        <time>2012-09-16T06:04:11Z</time>
      </trkpt>
      <trkpt lat="44.50983" lon="1.15807">
        <ele>186</ele>
        <time>2012-09-16T06:04:16Z</time>
      </trkpt>
      <trkpt lat="44.50989" lon="1.158">
        <ele>186</ele>
        <time>2012-09-16T06:04:22Z</time>
      </trkpt>
      <trkpt lat="44.50994" lon="1.15794">
        <ele>186</ele>
        <time>2012-09-16T06:04:27Z</time>
      </trkpt>
      <trkpt lat="44.50998" lon="1.15781">
        <ele>186</ele>
        <time>2012-09-16T06:04:32Z</time>
      </trkpt>
      <trkpt lat="44.51004" lon="1.1576">
        <ele>186</ele>
        <time>2012-09-16T06:04:37Z</time>
      </trkpt>
      <trkpt lat="44.51012" lon="1.15737">
        <ele>186</ele>
        <time>2012-09-16T06:04:42Z</time>
      </trkpt>
      <trkpt lat="44.51005" lon="1.1571">
        <ele>186</ele>
        <time>2012-09-16T06:04:47Z</time>
      </trkpt>
      <trkpt lat="44.50991" lon="1.15681">
        <ele>181</ele>
        <time>2012-09-16T06:04:52Z</time>
      </trkpt>
      <trkpt lat="44.50972" lon="1.15644">
        <ele>180</ele>
        <time>2012-09-16T06:04:57Z</time>
      </trkpt>
      <trkpt lat="44.50956" lon="1.15615">
        <ele>180</ele>
        <time>2012-09-16T06:05:02Z</time>
      </trkpt>
      <trkpt lat="44.5095" lon="1.15601">
        <ele>176</ele>
        <time>2012-09-16T06:05:07Z</time>
      </trkpt>
      <trkpt lat="44.5094" lon="1.15569">
        <ele>172</ele>
        <time>2012-09-16T06:05:12Z</time>
      </trkpt>
      <trkpt lat="44.50937" lon="1.1555">
        <ele>170</ele>
        <time>2012-09-16T06:05:17Z</time>
      </trkpt>
      <trkpt lat="44.50932" lon="1.15541">
        <ele>170</ele>
        <time>2012-09-16T06:05:22Z</time>
      </trkpt>
      <trkpt lat="44.50933" lon="1.15539">
        <ele>170</ele>
        <time>2012-09-16T06:05:28Z</time>
      </trkpt>
      <trkpt lat="44.50934" lon="1.15539">
        <ele>170</ele>
        <time>2012-09-16T06:05:37Z</time>
      </trkpt>
      <trkpt lat="44.50932" lon="1.15537">
        <ele>170</ele>
        <time>2012-09-16T06:05:45Z</time>
      </trkpt>
      <trkpt lat="44.50929" lon="1.15535">
        <ele>170</ele>
        <time>2012-09-16T06:05:50Z</time>
      </trkpt>
      <trkpt lat="44.50927" lon="1.15535">
        <ele>168</ele>
        <time>2012-09-16T06:05:55Z</time>
      </trkpt>
      <trkpt lat="44.50927" lon="1.15537">
        <ele>162</ele>
        <time>2012-09-16T06:06:10Z</time>
      </trkpt>
      <trkpt lat="44.50928" lon="1.15537">
        <ele>162</ele>
        <time>2012-09-16T06:06:21Z</time>
      </trkpt>
      <trkpt lat="44.5093" lon="1.15534">
        <ele>163</ele>
        <time>2012-09-16T06:06:27Z</time>
      </trkpt>
      <trkpt lat="44.50931" lon="1.15532">
        <ele>173</ele>
        <time>2012-09-16T06:06:37Z</time>
      </trkpt>
      <trkpt lat="44.50934" lon="1.1553">
        <ele>179</ele>
        <time>2012-09-16T06:06:43Z</time>
      </trkpt>
      <trkpt lat="44.50933" lon="1.1553">
        <ele>183</ele>
        <time>2012-09-16T06:06:53Z</time>
      </trkpt>
      <trkpt lat="44.50932" lon="1.15524">
        <ele>185</ele>
        <time>2012-09-16T06:06:59Z</time>
      </trkpt>
      <trkpt lat="44.50929" lon="1.15522">
        <ele>185</ele>
        <time>2012-09-16T06:07:05Z</time>
      </trkpt>
      <trkpt lat="44.5093" lon="1.1552">
        <ele>182</ele>
        <time>2012-09-16T06:07:27Z</time>
      </trkpt>
      <trkpt lat="44.50931" lon="1.1552">
        <ele>182</ele>
        <time>2012-09-16T06:07:32Z</time>
      </trkpt>
      <trkpt lat="44.50934" lon="1.1552">
        <ele>182</ele>
        <time>2012-09-16T06:07:44Z</time>
      </trkpt>
      <trkpt lat="44.50932" lon="1.15512">
        <ele>182</ele>
        <time>2012-09-16T06:07:49Z</time>
      </trkpt>
      <trkpt lat="44.50925" lon="1.15486">
        <ele>182</ele>
        <time>2012-09-16T06:07:55Z</time>
      </trkpt>
      <trkpt lat="44.50919" lon="1.15459">
        <ele>182</ele>
        <time>2012-09-16T06:08:01Z</time>
      </trkpt>
      <trkpt lat="44.50915" lon="1.15437">
        <ele>182</ele>
        <time>2012-09-16T06:08:06Z</time>
      </trkpt>
      <trkpt lat="44.50912" lon="1.15412">
        <ele>180</ele>
        <time>2012-09-16T06:08:12Z</time>
      </trkpt>
      <trkpt lat="44.5091" lon="1.15383">
        <ele>179</ele>
        <time>2012-09-16T06:08:18Z</time>
      </trkpt>
      <trkpt lat="44.50907" lon="1.15361">
        <ele>179</ele>
        <time>2012-09-16T06:08:23Z</time>
      </trkpt>
      <trkpt lat="44.50906" lon="1.15337">
        <ele>179</ele>
        <time>2012-09-16T06:08:28Z</time>
      </trkpt>
      <trkpt lat="44.50906" lon="1.15312">
        <ele>179</ele>
        <time>2012-09-16T06:08:33Z</time>
      </trkpt>
      <trkpt lat="44.50903" lon="1.15285">
        <ele>179</ele>
        <time>2012-09-16T06:08:38Z</time>
      </trkpt>
      <trkpt lat="44.50899" lon="1.15259">
        <ele>179</ele>
        <time>2012-09-16T06:08:43Z</time>
      </trkpt>
      <trkpt lat="44.50894" lon="1.15233">
        <ele>179</ele>
        <time>2012-09-16T06:08:48Z</time>
      </trkpt>
      <trkpt lat="44.50889" lon="1.15212">
        <ele>179</ele>
        <time>2012-09-16T06:08:53Z</time>
      </trkpt>
      <trkpt lat="44.50884" lon="1.15194">
        <ele>178</ele>
        <time>2012-09-16T06:08:58Z</time>
      </trkpt>
      <trkpt lat="44.50875" lon="1.15177">
        <ele>178</ele>
        <time>2012-09-16T06:09:03Z</time>
      </trkpt>
      <trkpt lat="44.50863" lon="1.15161">
        <ele>178</ele>
        <time>2012-09-16T06:09:08Z</time>
      </trkpt>
      <trkpt lat="44.50851" lon="1.15146">
        <ele>178</ele>
        <time>2012-09-16T06:09:14Z</time>
      </trkpt>
      <trkpt lat="44.50839" lon="1.15135">
        <ele>178</ele>
        <time>2012-09-16T06:09:19Z</time>
      </trkpt>
      <trkpt lat="44.50811" lon="1.15124">
        <ele>178</ele>
        <time>2012-09-16T06:09:24Z</time>
      </trkpt>
      <trkpt lat="44.50773" lon="1.15108">
        <ele>174</ele>
        <time>2012-09-16T06:09:29Z</time>
      </trkpt>
      <trkpt lat="44.50734" lon="1.15089">
        <ele>169</ele>
        <time>2012-09-16T06:09:34Z</time>
      </trkpt>
      <trkpt lat="44.50701" lon="1.15064">
        <ele>169</ele>
        <time>2012-09-16T06:09:39Z</time>
      </trkpt>
      <trkpt lat="44.50675" lon="1.15033">
        <ele>167</ele>
        <time>2012-09-16T06:09:44Z</time>
      </trkpt>
      <trkpt lat="44.50642" lon="1.14993">
        <ele>164</ele>
        <time>2012-09-16T06:09:50Z</time>
      </trkpt>
      <trkpt lat="44.50618" lon="1.14959">
        <ele>161</ele>
        <time>2012-09-16T06:09:55Z</time>
      </trkpt>
      <trkpt lat="44.50604" lon="1.14928">
        <ele>156</ele>
        <time>2012-09-16T06:10:01Z</time>
      </trkpt>
      <trkpt lat="44.50597" lon="1.14901">
        <ele>152</ele>
        <time>2012-09-16T06:10:07Z</time>
      </trkpt>
      <trkpt lat="44.50587" lon="1.14874">
        <ele>148</ele>
        <time>2012-09-16T06:10:13Z</time>
      </trkpt>
      <trkpt lat="44.50571" lon="1.14857">
        <ele>143</ele>
        <time>2012-09-16T06:10:18Z</time>
      </trkpt>
      <trkpt lat="44.50555" lon="1.14834">
        <ele>140</ele>
        <time>2012-09-16T06:10:24Z</time>
      </trkpt>
      <trkpt lat="44.5054" lon="1.14811">
        <ele>135</ele>
        <time>2012-09-16T06:10:29Z</time>
      </trkpt>
      <trkpt lat="44.50517" lon="1.14786">
        <ele>129</ele>
        <time>2012-09-16T06:10:35Z</time>
      </trkpt>
      <trkpt lat="44.50489" lon="1.1477">
        <ele>127</ele>
        <time>2012-09-16T06:10:40Z</time>
      </trkpt>
      <trkpt lat="44.50465" lon="1.14761">
        <ele>125</ele>
        <time>2012-09-16T06:10:45Z</time>
      </trkpt>
      <trkpt lat="44.50447" lon="1.14754">
        <ele>123</ele>
        <time>2012-09-16T06:10:50Z</time>
      </trkpt>
      <trkpt lat="44.50423" lon="1.14751">
        <ele>120</ele>
        <time>2012-09-16T06:10:56Z</time>
      </trkpt>
      <trkpt lat="44.50406" lon="1.14749">
        <ele>117</ele>
        <time>2012-09-16T06:11:01Z</time>
      </trkpt>
      <trkpt lat="44.5039" lon="1.14749">
        <ele>113</ele>
        <time>2012-09-16T06:11:07Z</time>
      </trkpt>
      <trkpt lat="44.50373" lon="1.14749">
        <ele>111</ele>
        <time>2012-09-16T06:11:12Z</time>
      </trkpt>
      <trkpt lat="44.50352" lon="1.14741">
        <ele>107</ele>
        <time>2012-09-16T06:11:17Z</time>
      </trkpt>
      <trkpt lat="44.50329" lon="1.14719">
        <ele>101</ele>
        <time>2012-09-16T06:11:23Z</time>
      </trkpt>
      <trkpt lat="44.50307" lon="1.14714">
        <ele>98</ele>
        <time>2012-09-16T06:11:28Z</time>
      </trkpt>
      <trkpt lat="44.50285" lon="1.14704">
        <ele>95</ele>
        <time>2012-09-16T06:11:33Z</time>
      </trkpt>
      <trkpt lat="44.50267" lon="1.14698">
        <ele>93</ele>
        <time>2012-09-16T06:11:39Z</time>
      </trkpt>
      <trkpt lat="44.5027" lon="1.14692">
        <ele>93</ele>
        <time>2012-09-16T06:11:46Z</time>
      </trkpt>
      <trkpt lat="44.50269" lon="1.14685">
        <ele>96</ele>
        <time>2012-09-16T06:11:53Z</time>
      </trkpt>
      <trkpt lat="44.50268" lon="1.14684">
        <ele>99</ele>
        <time>2012-09-16T06:11:58Z</time>
      </trkpt>
      <trkpt lat="44.50269" lon="1.14682">
        <ele>100</ele>
        <time>2012-09-16T06:12:04Z</time>
      </trkpt>
      <trkpt lat="44.50274" lon="1.14682">
        <ele>100</ele>
        <time>2012-09-16T06:12:11Z</time>
      </trkpt>
      <trkpt lat="44.50275" lon="1.14683">
        <ele>101</ele>
        <time>2012-09-16T06:12:29Z</time>
      </trkpt>
      <trkpt lat="44.50276" lon="1.14684">
        <ele>101</ele>
        <time>2012-09-16T06:12:39Z</time>
      </trkpt>
      <trkpt lat="44.50277" lon="1.14684">
        <ele>101</ele>
        <time>2012-09-16T06:12:47Z</time>
      </trkpt>
      <trkpt lat="44.50284" lon="1.14684">
        <ele>101</ele>
        <time>2012-09-16T06:12:52Z</time>
      </trkpt>
      <trkpt lat="44.50297" lon="1.14688">
        <ele>100</ele>
        <time>2012-09-16T06:12:57Z</time>
      </trkpt>
      <trkpt lat="44.50319" lon="1.14689">
        <ele>99</ele>
        <time>2012-09-16T06:13:03Z</time>
      </trkpt>
      <trkpt lat="44.50337" lon="1.14682">
        <ele>96</ele>
        <time>2012-09-16T06:13:08Z</time>
      </trkpt>
      <trkpt lat="44.50354" lon="1.14673">
        <ele>93</ele>
        <time>2012-09-16T06:13:13Z</time>
      </trkpt>
      <trkpt lat="44.50375" lon="1.14664">
        <ele>92</ele>
        <time>2012-09-16T06:13:19Z</time>
      </trkpt>
      <trkpt lat="44.50393" lon="1.14656">
        <ele>91</ele>
        <time>2012-09-16T06:13:24Z</time>
      </trkpt>
      <trkpt lat="44.50414" lon="1.14647">
        <ele>91</ele>
        <time>2012-09-16T06:13:29Z</time>
      </trkpt>
      <trkpt lat="44.50437" lon="1.14639">
        <ele>92</ele>
        <time>2012-09-16T06:13:34Z</time>
      </trkpt>
      <trkpt lat="44.50459" lon="1.14634">
        <ele>93</ele>
        <time>2012-09-16T06:13:39Z</time>
      </trkpt>
      <trkpt lat="44.5048" lon="1.1463">
        <ele>93</ele>
        <time>2012-09-16T06:13:45Z</time>
      </trkpt>
      <trkpt lat="44.50499" lon="1.14625">
        <ele>94</ele>
        <time>2012-09-16T06:13:50Z</time>
      </trkpt>
      <trkpt lat="44.50518" lon="1.14622">
        <ele>94</ele>
        <time>2012-09-16T06:13:55Z</time>
      </trkpt>
      <trkpt lat="44.50544" lon="1.1462">
        <ele>97</ele>
        <time>2012-09-16T06:14:02Z</time>
      </trkpt>
      <trkpt lat="44.50564" lon="1.14617">
        <ele>99</ele>
        <time>2012-09-16T06:14:07Z</time>
      </trkpt>
      <trkpt lat="44.50585" lon="1.14614">
        <ele>99</ele>
        <time>2012-09-16T06:14:12Z</time>
      </trkpt>
      <trkpt lat="44.50607" lon="1.14613">
        <ele>99</ele>
        <time>2012-09-16T06:14:17Z</time>
      </trkpt>
      <trkpt lat="44.50626" lon="1.1461">
        <ele>99</ele>
        <time>2012-09-16T06:14:22Z</time>
      </trkpt>
      <trkpt lat="44.50643" lon="1.14606">
        <ele>97</ele>
        <time>2012-09-16T06:14:27Z</time>
      </trkpt>
      <trkpt lat="44.50657" lon="1.14598">
        <ele>97</ele>
        <time>2012-09-16T06:14:32Z</time>
      </trkpt>
      <trkpt lat="44.50679" lon="1.14582">
        <ele>97</ele>
        <time>2012-09-16T06:14:38Z</time>
      </trkpt>
      <trkpt lat="44.50701" lon="1.14562">
        <ele>97</ele>
        <time>2012-09-16T06:14:44Z</time>
      </trkpt>
      <trkpt lat="44.50723" lon="1.14551">
        <ele>97</ele>
        <time>2012-09-16T06:14:49Z</time>
      </trkpt>
      <trkpt lat="44.50742" lon="1.14554">
        <ele>97</ele>
        <time>2012-09-16T06:14:54Z</time>
      </trkpt>
      <trkpt lat="44.50756" lon="1.14553">
        <ele>97</ele>
        <time>2012-09-16T06:15:00Z</time>
      </trkpt>
      <trkpt lat="44.50766" lon="1.14533">
        <ele>97</ele>
        <time>2012-09-16T06:15:05Z</time>
      </trkpt>
      <trkpt lat="44.50785" lon="1.14515">
        <ele>97</ele>
        <time>2012-09-16T06:15:11Z</time>
      </trkpt>
      <trkpt lat="44.50801" lon="1.14488">
        <ele>97</ele>
        <time>2012-09-16T06:15:16Z</time>
      </trkpt>
      <trkpt lat="44.50822" lon="1.14462">
        <ele>97</ele>
        <time>2012-09-16T06:15:21Z</time>
      </trkpt>
      <trkpt lat="44.50847" lon="1.14437">
        <ele>97</ele>
        <time>2012-09-16T06:15:27Z</time>
      </trkpt>
      <trkpt lat="44.50872" lon="1.14422">
        <ele>97</ele>
        <time>2012-09-16T06:15:32Z</time>
      </trkpt>
      <trkpt lat="44.50897" lon="1.1441">
        <ele>97</ele>
        <time>2012-09-16T06:15:37Z</time>
      </trkpt>
      <trkpt lat="44.50913" lon="1.14398">
        <ele>98</ele>
        <time>2012-09-16T06:15:42Z</time>
      </trkpt>
      <trkpt lat="44.50937" lon="1.14391">
        <ele>100</ele>
        <time>2012-09-16T06:15:47Z</time>
      </trkpt>
      <trkpt lat="44.50954" lon="1.14383">
        <ele>102</ele>
        <time>2012-09-16T06:15:52Z</time>
      </trkpt>
      <trkpt lat="44.50957" lon="1.14358">
        <ele>102</ele>
        <time>2012-09-16T06:15:57Z</time>
      </trkpt>
      <trkpt lat="44.50956" lon="1.14323">
        <ele>102</ele>
        <time>2012-09-16T06:16:03Z</time>
      </trkpt>
      <trkpt lat="44.50955" lon="1.14298">
        <ele>100</ele>
        <time>2012-09-16T06:16:08Z</time>
      </trkpt>
      <trkpt lat="44.50955" lon="1.14281">
        <ele>99</ele>
        <time>2012-09-16T06:16:13Z</time>
      </trkpt>
      <trkpt lat="44.50952" lon="1.14268">
        <ele>99</ele>
        <time>2012-09-16T06:16:18Z</time>
      </trkpt>
      <trkpt lat="44.50944" lon="1.14261">
        <ele>99</ele>
        <time>2012-09-16T06:16:23Z</time>
      </trkpt>
      <trkpt lat="44.50932" lon="1.14262">
        <ele>101</ele>
        <time>2012-09-16T06:16:29Z</time>
      </trkpt>
      <trkpt lat="44.50921" lon="1.14263">
        <ele>107</ele>
        <time>2012-09-16T06:16:35Z</time>
      </trkpt>
      <trkpt lat="44.5091" lon="1.14262">
        <ele>112</ele>
        <time>2012-09-16T06:16:40Z</time>
      </trkpt>
      <trkpt lat="44.50896" lon="1.14261">
        <ele>116</ele>
        <time>2012-09-16T06:16:46Z</time>
      </trkpt>
      <trkpt lat="44.50883" lon="1.14265">
        <ele>116</ele>
        <time>2012-09-16T06:16:51Z</time>
      </trkpt>
      <trkpt lat="44.50871" lon="1.14268">
        <ele>116</ele>
        <time>2012-09-16T06:16:56Z</time>
      </trkpt>
      <trkpt lat="44.50859" lon="1.14272">
        <ele>117</ele>
        <time>2012-09-16T06:17:02Z</time>
      </trkpt>
      <trkpt lat="44.50849" lon="1.14276">
        <ele>120</ele>
        <time>2012-09-16T06:17:07Z</time>
      </trkpt>
      <trkpt lat="44.50837" lon="1.14278">
        <ele>120</ele>
        <time>2012-09-16T06:17:12Z</time>
      </trkpt>
      <trkpt lat="44.50824" lon="1.1428">
        <ele>125</ele>
        <time>2012-09-16T06:17:18Z</time>
      </trkpt>
      <trkpt lat="44.50812" lon="1.14279">
        <ele>125</ele>
        <time>2012-09-16T06:17:23Z</time>
      </trkpt>
      <trkpt lat="44.508" lon="1.14278">
        <ele>125</ele>
        <time>2012-09-16T06:17:28Z</time>
      </trkpt>
      <trkpt lat="44.50789" lon="1.1428">
        <ele>123</ele>
        <time>2012-09-16T06:17:33Z</time>
      </trkpt>
      <trkpt lat="44.50776" lon="1.14279">
        <ele>123</ele>
        <time>2012-09-16T06:17:38Z</time>
      </trkpt>
      <trkpt lat="44.50763" lon="1.14278">
        <ele>120</ele>
        <time>2012-09-16T06:17:43Z</time>
      </trkpt>
      <trkpt lat="44.5075" lon="1.14276">
        <ele>119</ele>
        <time>2012-09-16T06:17:48Z</time>
      </trkpt>
      <trkpt lat="44.50741" lon="1.14273">
        <ele>119</ele>
        <time>2012-09-16T06:17:53Z</time>
      </trkpt>
      <trkpt lat="44.50732" lon="1.14269">
        <ele>119</ele>
        <time>2012-09-16T06:17:58Z</time>
      </trkpt>
      <trkpt lat="44.50725" lon="1.14263">
        <ele>119</ele>
        <time>2012-09-16T06:18:03Z</time>
      </trkpt>
      <trkpt lat="44.50719" lon="1.14257">
        <ele>119</ele>
        <time>2012-09-16T06:18:08Z</time>
      </trkpt>
      <trkpt lat="44.50711" lon="1.14252">
        <ele>119</ele>
        <time>2012-09-16T06:18:13Z</time>
      </trkpt>
      <trkpt lat="44.50703" lon="1.14247">
        <ele>120</ele>
        <time>2012-09-16T06:18:18Z</time>
      </trkpt>
      <trkpt lat="44.50693" lon="1.1424">
        <ele>121</ele>
        <time>2012-09-16T06:18:24Z</time>
      </trkpt>
      <trkpt lat="44.50685" lon="1.1423">
        <ele>122</ele>
        <time>2012-09-16T06:18:29Z</time>
      </trkpt>
      <trkpt lat="44.50675" lon="1.14219">
        <ele>127</ele>
        <time>2012-09-16T06:18:35Z</time>
      </trkpt>
      <trkpt lat="44.50668" lon="1.14211">
        <ele>128</ele>
        <time>2012-09-16T06:18:40Z</time>
      </trkpt>
      <trkpt lat="44.50664" lon="1.14196">
        <ele>128</ele>
        <time>2012-09-16T06:18:45Z</time>
      </trkpt>
      <trkpt lat="44.50673" lon="1.1418">
        <ele>128</ele>
        <time>2012-09-16T06:18:51Z</time>
      </trkpt>
      <trkpt lat="44.50684" lon="1.14188">
        <ele>128</ele>
        <time>2012-09-16T06:18:56Z</time>
      </trkpt>
      <trkpt lat="44.50696" lon="1.14188">
        <ele>128</ele>
        <time>2012-09-16T06:19:01Z</time>
      </trkpt>
      <trkpt lat="44.50705" lon="1.14177">
        <ele>129</ele>
        <time>2012-09-16T06:19:06Z</time>
      </trkpt>
      <trkpt lat="44.50722" lon="1.14166">
        <ele>129</ele>
        <time>2012-09-16T06:19:12Z</time>
      </trkpt>
      <trkpt lat="44.50735" lon="1.14164">
        <ele>129</ele>
        <time>2012-09-16T06:19:17Z</time>
      </trkpt>
      <trkpt lat="44.5075" lon="1.14162">
        <ele>129</ele>
        <time>2012-09-16T06:19:23Z</time>
      </trkpt>
      <trkpt lat="44.50762" lon="1.14158">
        <ele>130</ele>
        <time>2012-09-16T06:19:28Z</time>
      </trkpt>
      <trkpt lat="44.50774" lon="1.14153">
        <ele>132</ele>
        <time>2012-09-16T06:19:33Z</time>
      </trkpt>
      <trkpt lat="44.50783" lon="1.14149">
        <ele>135</ele>
        <time>2012-09-16T06:19:38Z</time>
      </trkpt>
      <trkpt lat="44.50793" lon="1.14146">
        <ele>136</ele>
        <time>2012-09-16T06:19:43Z</time>
      </trkpt>
      <trkpt lat="44.50802" lon="1.14143">
        <ele>137</ele>
        <time>2012-09-16T06:19:48Z</time>
      </trkpt>
      <trkpt lat="44.50814" lon="1.14139">
        <ele>138</ele>
        <time>2012-09-16T06:19:53Z</time>
      </trkpt>
      <trkpt lat="44.50828" lon="1.14135">
        <ele>140</ele>
        <time>2012-09-16T06:19:58Z</time>
      </trkpt>
      <trkpt lat="44.50846" lon="1.14129">
        <ele>141</ele>
        <time>2012-09-16T06:20:04Z</time>
      </trkpt>
      <trkpt lat="44.50862" lon="1.14123">
        <ele>143</ele>
        <time>2012-09-16T06:20:10Z</time>
      </trkpt>
      <trkpt lat="44.50874" lon="1.14119">
        <ele>144</ele>
        <time>2012-09-16T06:20:15Z</time>
      </trkpt>
      <trkpt lat="44.50886" lon="1.14125">
        <ele>146</ele>
        <time>2012-09-16T06:20:20Z</time>
      </trkpt>
      <trkpt lat="44.50897" lon="1.14126">
        <ele>149</ele>
        <time>2012-09-16T06:20:25Z</time>
      </trkpt>
      <trkpt lat="44.50909" lon="1.14112">
        <ele>151</ele>
        <time>2012-09-16T06:20:30Z</time>
      </trkpt>
      <trkpt lat="44.5092" lon="1.14092">
        <ele>153</ele>
        <time>2012-09-16T06:20:36Z</time>
      </trkpt>
      <trkpt lat="44.5093" lon="1.14069">
        <ele>153</ele>
        <time>2012-09-16T06:20:41Z</time>
      </trkpt>
      <trkpt lat="44.5094" lon="1.14046">
        <ele>155</ele>
        <time>2012-09-16T06:20:46Z</time>
      </trkpt>
      <trkpt lat="44.50952" lon="1.14018">
        <ele>156</ele>
        <time>2012-09-16T06:20:52Z</time>
      </trkpt>
      <trkpt lat="44.50967" lon="1.13997">
        <ele>157</ele>
        <time>2012-09-16T06:20:57Z</time>
      </trkpt>
      <trkpt lat="44.50978" lon="1.13961">
        <ele>157</ele>
        <time>2012-09-16T06:21:03Z</time>
      </trkpt>
      <trkpt lat="44.50995" lon="1.13931">
        <ele>157</ele>
        <time>2012-09-16T06:21:08Z</time>
      </trkpt>
      <trkpt lat="44.51012" lon="1.13906">
        <ele>157</ele>
        <time>2012-09-16T06:21:13Z</time>
      </trkpt>
      <trkpt lat="44.51024" lon="1.13887">
        <ele>157</ele>
        <time>2012-09-16T06:21:18Z</time>
      </trkpt>
      <trkpt lat="44.51039" lon="1.13866">
        <ele>157</ele>
        <time>2012-09-16T06:21:24Z</time>
      </trkpt>
      <trkpt lat="44.5106" lon="1.13844">
        <ele>156</ele>
        <time>2012-09-16T06:21:29Z</time>
      </trkpt>
      <trkpt lat="44.51077" lon="1.13825">
        <ele>156</ele>
        <time>2012-09-16T06:21:34Z</time>
      </trkpt>
      <trkpt lat="44.51099" lon="1.13804">
        <ele>155</ele>
        <time>2012-09-16T06:21:40Z</time>
      </trkpt>
      <trkpt lat="44.51114" lon="1.13788">
        <ele>153</ele>
        <time>2012-09-16T06:21:45Z</time>
      </trkpt>
      <trkpt lat="44.51119" lon="1.13765">
        <ele>152</ele>
        <time>2012-09-16T06:21:50Z</time>
      </trkpt>
      <trkpt lat="44.51123" lon="1.13736">
        <ele>152</ele>
        <time>2012-09-16T06:21:55Z</time>
      </trkpt>
      <trkpt lat="44.51128" lon="1.13709">
        <ele>152</ele>
        <time>2012-09-16T06:22:00Z</time>
      </trkpt>
      <trkpt lat="44.51136" lon="1.13688">
        <ele>153</ele>
        <time>2012-09-16T06:22:05Z</time>
      </trkpt>
      <trkpt lat="44.51145" lon="1.13667">
        <ele>154</ele>
        <time>2012-09-16T06:22:10Z</time>
      </trkpt>
      <trkpt lat="44.51159" lon="1.13643">
        <ele>155</ele>
        <time>2012-09-16T06:22:16Z</time>
      </trkpt>
      <trkpt lat="44.51176" lon="1.13617">
        <ele>156</ele>
        <time>2012-09-16T06:22:22Z</time>
      </trkpt>
      <trkpt lat="44.51196" lon="1.13594">
        <ele>157</ele>
        <time>2012-09-16T06:22:27Z</time>
      </trkpt>
      <trkpt lat="44.51217" lon="1.13566">
        <ele>158</ele>
        <time>2012-09-16T06:22:33Z</time>
      </trkpt>
      <trkpt lat="44.51227" lon="1.13539">
        <ele>161</ele>
        <time>2012-09-16T06:22:38Z</time>
      </trkpt>
      <trkpt lat="44.51233" lon="1.13509">
        <ele>164</ele>
        <time>2012-09-16T06:22:43Z</time>
      </trkpt>
      <trkpt lat="44.51241" lon="1.13478">
        <ele>166</ele>
        <time>2012-09-16T06:22:49Z</time>
      </trkpt>
      <trkpt lat="44.51248" lon="1.13447">
        <ele>166</ele>
        <time>2012-09-16T06:22:55Z</time>
      </trkpt>
      <trkpt lat="44.51255" lon="1.13421">
        <ele>167</ele>
        <time>2012-09-16T06:23:00Z</time>
      </trkpt>
      <trkpt lat="44.51265" lon="1.134">
        <ele>168</ele>
        <time>2012-09-16T06:23:05Z</time>
      </trkpt>
      <trkpt lat="44.51281" lon="1.13377">
        <ele>169</ele>
        <time>2012-09-16T06:23:11Z</time>
      </trkpt>
      <trkpt lat="44.51295" lon="1.1336">
        <ele>170</ele>
        <time>2012-09-16T06:23:16Z</time>
      </trkpt>
      <trkpt lat="44.5131" lon="1.13343">
        <ele>170</ele>
        <time>2012-09-16T06:23:21Z</time>
      </trkpt>
      <trkpt lat="44.51327" lon="1.13326">
        <ele>170</ele>
        <time>2012-09-16T06:23:27Z</time>
      </trkpt>
      <trkpt lat="44.51341" lon="1.13312">
        <ele>171</ele>
        <time>2012-09-16T06:23:32Z</time>
      </trkpt>
      <trkpt lat="44.51354" lon="1.13296">
        <ele>172</ele>
        <time>2012-09-16T06:23:37Z</time>
      </trkpt>
      <trkpt lat="44.51369" lon="1.13285">
        <ele>172</ele>
        <time>2012-09-16T06:23:42Z</time>
      </trkpt>
      <trkpt lat="44.51382" lon="1.13275">
        <ele>172</ele>
        <time>2012-09-16T06:23:47Z</time>
      </trkpt>
      <trkpt lat="44.51399" lon="1.13263">
        <ele>172</ele>
        <time>2012-09-16T06:23:52Z</time>
      </trkpt>
      <trkpt lat="44.51418" lon="1.13251">
        <ele>172</ele>
        <time>2012-09-16T06:23:58Z</time>
      </trkpt>
      <trkpt lat="44.51432" lon="1.13242">
        <ele>172</ele>
        <time>2012-09-16T06:24:03Z</time>
      </trkpt>
      <trkpt lat="44.51448" lon="1.13232">
        <ele>172</ele>
        <time>2012-09-16T06:24:08Z</time>
      </trkpt>
      <trkpt lat="44.51466" lon="1.13221">
        <ele>172</ele>
        <time>2012-09-16T06:24:14Z</time>
      </trkpt>
      <trkpt lat="44.51476" lon="1.13214">
        <ele>173</ele>
        <time>2012-09-16T06:24:19Z</time>
      </trkpt>
      <trkpt lat="44.51489" lon="1.13207">
        <ele>173</ele>
        <time>2012-09-16T06:24:24Z</time>
      </trkpt>
      <trkpt lat="44.515" lon="1.13199">
        <ele>176</ele>
        <time>2012-09-16T06:24:29Z</time>
      </trkpt>
      <trkpt lat="44.51508" lon="1.13191">
        <ele>178</ele>
        <time>2012-09-16T06:24:34Z</time>
      </trkpt>
      <trkpt lat="44.51517" lon="1.13182">
        <ele>179</ele>
        <time>2012-09-16T06:24:39Z</time>
      </trkpt>
      <trkpt lat="44.51524" lon="1.13172">
        <ele>181</ele>
        <time>2012-09-16T06:24:44Z</time>
      </trkpt>
      <trkpt lat="44.5153" lon="1.13163">
        <ele>186</ele>
        <time>2012-09-16T06:24:49Z</time>
      </trkpt>
      <trkpt lat="44.51538" lon="1.13157">
        <ele>191</ele>
        <time>2012-09-16T06:24:54Z</time>
      </trkpt>
      <trkpt lat="44.51556" lon="1.13152">
        <ele>197</ele>
        <time>2012-09-16T06:25:00Z</time>
      </trkpt>
      <trkpt lat="44.51573" lon="1.13147">
        <ele>197</ele>
        <time>2012-09-16T06:25:05Z</time>
      </trkpt>
      <trkpt lat="44.51588" lon="1.13141">
        <ele>197</ele>
        <time>2012-09-16T06:25:10Z</time>
      </trkpt>
      <trkpt lat="44.51606" lon="1.13134">
        <ele>197</ele>
        <time>2012-09-16T06:25:16Z</time>
      </trkpt>
      <trkpt lat="44.5163" lon="1.13127">
        <ele>197</ele>
        <time>2012-09-16T06:25:22Z</time>
      </trkpt>
      <trkpt lat="44.51652" lon="1.13123">
        <ele>197</ele>
        <time>2012-09-16T06:25:27Z</time>
      </trkpt>
      <trkpt lat="44.51673" lon="1.1312">
        <ele>197</ele>
        <time>2012-09-16T06:25:32Z</time>
      </trkpt>
      <trkpt lat="44.51702" lon="1.1312">
        <ele>196</ele>
        <time>2012-09-16T06:25:38Z</time>
      </trkpt>
      <trkpt lat="44.51729" lon="1.13123">
        <ele>195</ele>
        <time>2012-09-16T06:25:43Z</time>
      </trkpt>
      <trkpt lat="44.5175" lon="1.13116">
        <ele>195</ele>
        <time>2012-09-16T06:25:48Z</time>
      </trkpt>
      <trkpt lat="44.51763" lon="1.1312">
        <ele>195</ele>
        <time>2012-09-16T06:25:53Z</time>
      </trkpt>
      <trkpt lat="44.51792" lon="1.13133">
        <ele>195</ele>
        <time>2012-09-16T06:25:59Z</time>
      </trkpt>
      <trkpt lat="44.51833" lon="1.13143">
        <ele>192</ele>
        <time>2012-09-16T06:26:05Z</time>
      </trkpt>
      <trkpt lat="44.51866" lon="1.13138">
        <ele>190</ele>
        <time>2012-09-16T06:26:10Z</time>
      </trkpt>
      <trkpt lat="44.51897" lon="1.13154">
        <ele>190</ele>
        <time>2012-09-16T06:26:15Z</time>
      </trkpt>
      <trkpt lat="44.51916" lon="1.13202">
        <ele>190</ele>
        <time>2012-09-16T06:26:21Z</time>
      </trkpt>
      <trkpt lat="44.51907" lon="1.13252">
        <ele>190</ele>
        <time>2012-09-16T06:26:26Z</time>
      </trkpt>
      <trkpt lat="44.51911" lon="1.1327">
        <ele>190</ele>
        <time>2012-09-16T06:26:31Z</time>
      </trkpt>
      <trkpt lat="44.51923" lon="1.1328">
        <ele>188</ele>
        <time>2012-09-16T06:26:36Z</time>
      </trkpt>
      <trkpt lat="44.51933" lon="1.1329">
        <ele>188</ele>
        <time>2012-09-16T06:26:41Z</time>
      </trkpt>
      <trkpt lat="44.51943" lon="1.13303">
        <ele>188</ele>
        <time>2012-09-16T06:26:47Z</time>
      </trkpt>
      <trkpt lat="44.51955" lon="1.13312">
        <ele>192</ele>
        <time>2012-09-16T06:26:52Z</time>
      </trkpt>
      <trkpt lat="44.51966" lon="1.13324">
        <ele>195</ele>
        <time>2012-09-16T06:26:57Z</time>
      </trkpt>
      <trkpt lat="44.51975" lon="1.13335">
        <ele>197</ele>
        <time>2012-09-16T06:27:02Z</time>
      </trkpt>
      <trkpt lat="44.51989" lon="1.13347">
        <ele>199</ele>
        <time>2012-09-16T06:27:08Z</time>
      </trkpt>
      <trkpt lat="44.52002" lon="1.13355">
        <ele>201</ele>
        <time>2012-09-16T06:27:14Z</time>
      </trkpt>
      <trkpt lat="44.52017" lon="1.13362">
        <ele>201</ele>
        <time>2012-09-16T06:27:19Z</time>
      </trkpt>
      <trkpt lat="44.52047" lon="1.13352">
        <ele>199</ele>
        <time>2012-09-16T06:27:25Z</time>
      </trkpt>
      <trkpt lat="44.52076" lon="1.13339">
        <ele>194</ele>
        <time>2012-09-16T06:27:30Z</time>
      </trkpt>
      <trkpt lat="44.52116" lon="1.13326">
        <ele>192</ele>
        <time>2012-09-16T06:27:36Z</time>
      </trkpt>
      <trkpt lat="44.5215" lon="1.13313">
        <ele>192</ele>
        <time>2012-09-16T06:27:41Z</time>
      </trkpt>
      <trkpt lat="44.52187" lon="1.13302">
        <ele>190</ele>
        <time>2012-09-16T06:27:46Z</time>
      </trkpt>
      <trkpt lat="44.52222" lon="1.13301">
        <ele>187</ele>
        <time>2012-09-16T06:27:52Z</time>
      </trkpt>
      <trkpt lat="44.52249" lon="1.13305">
        <ele>186</ele>
        <time>2012-09-16T06:27:57Z</time>
      </trkpt>
      <trkpt lat="44.5227" lon="1.13302">
        <ele>186</ele>
        <time>2012-09-16T06:28:02Z</time>
      </trkpt>
      <trkpt lat="44.52286" lon="1.13296">
        <ele>186</ele>
        <time>2012-09-16T06:28:07Z</time>
      </trkpt>
      <trkpt lat="44.52293" lon="1.13287">
        <ele>186</ele>
        <time>2012-09-16T06:28:12Z</time>
      </trkpt>
      <trkpt lat="44.52306" lon="1.13275">
        <ele>186</ele>
        <time>2012-09-16T06:28:17Z</time>
      </trkpt>
      <trkpt lat="44.52317" lon="1.13258">
        <ele>192</ele>
        <time>2012-09-16T06:28:23Z</time>
      </trkpt>
      <trkpt lat="44.52325" lon="1.13247">
        <ele>195</ele>
        <time>2012-09-16T06:28:28Z</time>
      </trkpt>
      <trkpt lat="44.52338" lon="1.13239">
        <ele>197</ele>
        <time>2012-09-16T06:28:33Z</time>
      </trkpt>
      <trkpt lat="44.52346" lon="1.13236">
        <ele>197</ele>
        <time>2012-09-16T06:28:38Z</time>
      </trkpt>
      <trkpt lat="44.52358" lon="1.13236">
        <ele>198</ele>
        <time>2012-09-16T06:28:43Z</time>
      </trkpt>
      <trkpt lat="44.52373" lon="1.1324">
        <ele>199</ele>
        <time>2012-09-16T06:28:48Z</time>
      </trkpt>
      <trkpt lat="44.52387" lon="1.13245">
        <ele>200</ele>
        <time>2012-09-16T06:28:53Z</time>
      </trkpt>
      <trkpt lat="44.524" lon="1.13252">
        <ele>202</ele>
        <time>2012-09-16T06:28:58Z</time>
      </trkpt>
      <trkpt lat="44.52414" lon="1.13259">
        <ele>202</ele>
        <time>2012-09-16T06:29:03Z</time>
      </trkpt>
      <trkpt lat="44.52428" lon="1.13264">
        <ele>202</ele>
        <time>2012-09-16T06:29:08Z</time>
      </trkpt>
      <trkpt lat="44.52443" lon="1.13259">
        <ele>202</ele>
        <time>2012-09-16T06:29:13Z</time>
      </trkpt>
      <trkpt lat="44.52454" lon="1.13254">
        <ele>200</ele>
        <time>2012-09-16T06:29:18Z</time>
      </trkpt>
      <trkpt lat="44.52463" lon="1.13251">
        <ele>195</ele>
        <time>2012-09-16T06:29:23Z</time>
      </trkpt>
      <trkpt lat="44.52471" lon="1.13245">
        <ele>194</ele>
        <time>2012-09-16T06:29:28Z</time>
      </trkpt>
      <trkpt lat="44.52478" lon="1.13239">
        <ele>196</ele>
        <time>2012-09-16T06:29:34Z</time>
      </trkpt>
      <trkpt lat="44.52488" lon="1.13235">
        <ele>201</ele>
        <time>2012-09-16T06:29:39Z</time>
      </trkpt>
      <trkpt lat="44.525" lon="1.13227">
        <ele>206</ele>
        <time>2012-09-16T06:29:44Z</time>
      </trkpt>
      <trkpt lat="44.52514" lon="1.13214">
        <ele>209</ele>
        <time>2012-09-16T06:29:49Z</time>
      </trkpt>
      <trkpt lat="44.52536" lon="1.13202">
        <ele>210</ele>
        <time>2012-09-16T06:29:54Z</time>
      </trkpt>
      <trkpt lat="44.52573" lon="1.13209">
        <ele>210</ele>
        <time>2012-09-16T06:29:59Z</time>
      </trkpt>
      <trkpt lat="44.52607" lon="1.1323">
        <ele>206</ele>
        <time>2012-09-16T06:30:04Z</time>
      </trkpt>
      <trkpt lat="44.52637" lon="1.13239">
        <ele>203</ele>
        <time>2012-09-16T06:30:09Z</time>
      </trkpt>
      <trkpt lat="44.52663" lon="1.13223">
        <ele>202</ele>
        <time>2012-09-16T06:30:14Z</time>
      </trkpt>
      <trkpt lat="44.52691" lon="1.13204">
        <ele>200</ele>
        <time>2012-09-16T06:30:19Z</time>
      </trkpt>
      <trkpt lat="44.52719" lon="1.13217">
        <ele>196</ele>
        <time>2012-09-16T06:30:25Z</time>
      </trkpt>
      <trkpt lat="44.52739" lon="1.1326">
        <ele>193</ele>
        <time>2012-09-16T06:30:31Z</time>
      </trkpt>
      <trkpt lat="44.52769" lon="1.13269">
        <ele>192</ele>
        <time>2012-09-16T06:30:36Z</time>
      </trkpt>
      <trkpt lat="44.52791" lon="1.13295">
        <ele>190</ele>
        <time>2012-09-16T06:30:41Z</time>
      </trkpt>
      <trkpt lat="44.52788" lon="1.13329">
        <ele>189</ele>
        <time>2012-09-16T06:30:46Z</time>
      </trkpt>
      <trkpt lat="44.52789" lon="1.13349">
        <ele>189</ele>
        <time>2012-09-16T06:30:51Z</time>
      </trkpt>
      <trkpt lat="44.528" lon="1.13364">
        <ele>189</ele>
        <time>2012-09-16T06:30:57Z</time>
      </trkpt>
      <trkpt lat="44.52811" lon="1.13371">
        <ele>189</ele>
        <time>2012-09-16T06:31:02Z</time>
      </trkpt>
      <trkpt lat="44.52822" lon="1.13372">
        <ele>189</ele>
        <time>2012-09-16T06:31:07Z</time>
      </trkpt>
      <trkpt lat="44.52829" lon="1.13374">
        <ele>189</ele>
        <time>2012-09-16T06:31:12Z</time>
      </trkpt>
      <trkpt lat="44.5284" lon="1.13375">
        <ele>189</ele>
        <time>2012-09-16T06:31:18Z</time>
      </trkpt>
      <trkpt lat="44.5285" lon="1.13376">
        <ele>189</ele>
        <time>2012-09-16T06:31:23Z</time>
      </trkpt>
      <trkpt lat="44.5286" lon="1.13375">
        <ele>189</ele>
        <time>2012-09-16T06:31:28Z</time>
      </trkpt>
      <trkpt lat="44.52871" lon="1.13374">
        <ele>189</ele>
        <time>2012-09-16T06:31:33Z</time>
      </trkpt>
      <trkpt lat="44.5288" lon="1.13373">
        <ele>189</ele>
        <time>2012-09-16T06:31:38Z</time>
      </trkpt>
      <trkpt lat="44.5289" lon="1.13372">
        <ele>189</ele>
        <time>2012-09-16T06:31:43Z</time>
      </trkpt>
      <trkpt lat="44.52901" lon="1.1337">
        <ele>189</ele>
        <time>2012-09-16T06:31:48Z</time>
      </trkpt>
      <trkpt lat="44.52912" lon="1.13368">
        <ele>190</ele>
        <time>2012-09-16T06:31:53Z</time>
      </trkpt>
      <trkpt lat="44.52924" lon="1.13366">
        <ele>190</ele>
        <time>2012-09-16T06:31:58Z</time>
      </trkpt>
      <trkpt lat="44.52938" lon="1.13365">
        <ele>191</ele>
        <time>2012-09-16T06:32:03Z</time>
      </trkpt>
      <trkpt lat="44.52952" lon="1.13362">
        <ele>195</ele>
        <time>2012-09-16T06:32:09Z</time>
      </trkpt>
      <trkpt lat="44.5296" lon="1.13362">
        <ele>195</ele>
        <time>2012-09-16T06:32:14Z</time>
      </trkpt>
      <trkpt lat="44.5297" lon="1.13362">
        <ele>196</ele>
        <time>2012-09-16T06:32:19Z</time>
      </trkpt>
      <trkpt lat="44.5298" lon="1.13364">
        <ele>196</ele>
        <time>2012-09-16T06:32:24Z</time>
      </trkpt>
      <trkpt lat="44.52988" lon="1.13366">
        <ele>196</ele>
        <time>2012-09-16T06:32:29Z</time>
      </trkpt>
      <trkpt lat="44.52996" lon="1.13359">
        <ele>196</ele>
        <time>2012-09-16T06:32:34Z</time>
      </trkpt>
      <trkpt lat="44.53004" lon="1.13347">
        <ele>197</ele>
        <time>2012-09-16T06:32:39Z</time>
      </trkpt>
      <trkpt lat="44.53013" lon="1.13333">
        <ele>198</ele>
        <time>2012-09-16T06:32:45Z</time>
      </trkpt>
      <trkpt lat="44.53028" lon="1.13322">
        <ele>198</ele>
        <time>2012-09-16T06:32:51Z</time>
      </trkpt>
      <trkpt lat="44.53039" lon="1.13317">
        <ele>198</ele>
        <time>2012-09-16T06:32:56Z</time>
      </trkpt>
      <trkpt lat="44.53049" lon="1.13314">
        <ele>198</ele>
        <time>2012-09-16T06:33:01Z</time>
      </trkpt>
      <trkpt lat="44.53059" lon="1.13313">
        <ele>199</ele>
        <time>2012-09-16T06:33:06Z</time>
      </trkpt>
      <trkpt lat="44.53069" lon="1.13312">
        <ele>201</ele>
        <time>2012-09-16T06:33:11Z</time>
      </trkpt>
      <trkpt lat="44.5308" lon="1.13313">
        <ele>202</ele>
        <time>2012-09-16T06:33:16Z</time>
      </trkpt>
      <trkpt lat="44.53092" lon="1.13313">
        <ele>203</ele>
        <time>2012-09-16T06:33:21Z</time>
      </trkpt>
      <trkpt lat="44.53105" lon="1.13314">
        <ele>205</ele>
        <time>2012-09-16T06:33:26Z</time>
      </trkpt>
      <trkpt lat="44.5312" lon="1.13315">
        <ele>207</ele>
        <time>2012-09-16T06:33:32Z</time>
      </trkpt>
      <trkpt lat="44.53131" lon="1.13318">
        <ele>208</ele>
        <time>2012-09-16T06:33:37Z</time>
      </trkpt>
      <trkpt lat="44.53146" lon="1.13321">
        <ele>210</ele>
        <time>2012-09-16T06:33:43Z</time>
      </trkpt>
      <trkpt lat="44.53158" lon="1.13324">
        <ele>211</ele>
        <time>2012-09-16T06:33:48Z</time>
      </trkpt>
      <trkpt lat="44.53171" lon="1.13327">
        <ele>212</ele>
        <time>2012-09-16T06:33:53Z</time>
      </trkpt>
      <trkpt lat="44.53183" lon="1.1333">
        <ele>214</ele>
        <time>2012-09-16T06:33:58Z</time>
      </trkpt>
      <trkpt lat="44.53196" lon="1.13329">
        <ele>215</ele>
        <time>2012-09-16T06:34:03Z</time>
      </trkpt>
      <trkpt lat="44.53206" lon="1.13329">
        <ele>215</ele>
        <time>2012-09-16T06:34:08Z</time>
      </trkpt>
      <trkpt lat="44.53219" lon="1.13322">
        <ele>215</ele>
        <time>2012-09-16T06:34:13Z</time>
      </trkpt>
      <trkpt lat="44.53239" lon="1.13309">
        <ele>216</ele>
        <time>2012-09-16T06:34:18Z</time>
      </trkpt>
      <trkpt lat="44.53265" lon="1.13286">
        <ele>218</ele>
        <time>2012-09-16T06:34:24Z</time>
      </trkpt>
      <trkpt lat="44.53292" lon="1.13263">
        <ele>222</ele>
        <time>2012-09-16T06:34:30Z</time>
      </trkpt>
      <trkpt lat="44.53322" lon="1.1324">
        <ele>222</ele>
        <time>2012-09-16T06:34:35Z</time>
      </trkpt>
      <trkpt lat="44.53353" lon="1.13211">
        <ele>222</ele>
        <time>2012-09-16T06:34:40Z</time>
      </trkpt>
      <trkpt lat="44.53376" lon="1.13185">
        <ele>222</ele>
        <time>2012-09-16T06:34:45Z</time>
      </trkpt>
      <trkpt lat="44.53407" lon="1.13166">
        <ele>222</ele>
        <time>2012-09-16T06:34:51Z</time>
      </trkpt>
      <trkpt lat="44.53428" lon="1.13153">
        <ele>221</ele>
        <time>2012-09-16T06:34:56Z</time>
      </trkpt>
      <trkpt lat="44.53438" lon="1.13153">
        <ele>221</ele>
        <time>2012-09-16T06:35:01Z</time>
      </trkpt>
      <trkpt lat="44.5345" lon="1.13157">
        <ele>221</ele>
        <time>2012-09-16T06:35:06Z</time>
      </trkpt>
      <trkpt lat="44.53463" lon="1.13161">
        <ele>221</ele>
        <time>2012-09-16T06:35:12Z</time>
      </trkpt>
      <trkpt lat="44.53471" lon="1.13166">
        <ele>221</ele>
        <time>2012-09-16T06:35:17Z</time>
      </trkpt>
      <trkpt lat="44.53481" lon="1.13169">
        <ele>221</ele>
        <time>2012-09-16T06:35:22Z</time>
      </trkpt>
      <trkpt lat="44.53491" lon="1.13172">
        <ele>221</ele>
        <time>2012-09-16T06:35:27Z</time>
      </trkpt>
      <trkpt lat="44.53503" lon="1.13172">
        <ele>221</ele>
        <time>2012-09-16T06:35:32Z</time>
      </trkpt>
      <trkpt lat="44.53512" lon="1.13175">
        <ele>221</ele>
        <time>2012-09-16T06:35:37Z</time>
      </trkpt>
      <trkpt lat="44.53523" lon="1.13179">
        <ele>221</ele>
        <time>2012-09-16T06:35:42Z</time>
      </trkpt>
      <trkpt lat="44.53532" lon="1.13182">
        <ele>221</ele>
        <time>2012-09-16T06:35:47Z</time>
      </trkpt>
      <trkpt lat="44.5354" lon="1.13183">
        <ele>221</ele>
        <time>2012-09-16T06:35:52Z</time>
      </trkpt>
      <trkpt lat="44.5355" lon="1.13186">
        <ele>221</ele>
        <time>2012-09-16T06:35:57Z</time>
      </trkpt>
      <trkpt lat="44.53561" lon="1.13185">
        <ele>221</ele>
        <time>2012-09-16T06:36:02Z</time>
      </trkpt>
      <trkpt lat="44.5357" lon="1.13187">
        <ele>221</ele>
        <time>2012-09-16T06:36:07Z</time>
      </trkpt>
      <trkpt lat="44.53577" lon="1.13189">
        <ele>222</ele>
        <time>2012-09-16T06:36:12Z</time>
      </trkpt>
      <trkpt lat="44.53589" lon="1.13188">
        <ele>225</ele>
        <time>2012-09-16T06:36:17Z</time>
      </trkpt>
      <trkpt lat="44.536" lon="1.13188">
        <ele>229</ele>
        <time>2012-09-16T06:36:22Z</time>
      </trkpt>
      <trkpt lat="44.53616" lon="1.13188">
        <ele>232</ele>
        <time>2012-09-16T06:36:28Z</time>
      </trkpt>
      <trkpt lat="44.53627" lon="1.13188">
        <ele>236</ele>
        <time>2012-09-16T06:36:33Z</time>
      </trkpt>
      <trkpt lat="44.53638" lon="1.13188">
        <ele>238</ele>
        <time>2012-09-16T06:36:38Z</time>
      </trkpt>
      <trkpt lat="44.5365" lon="1.13188">
        <ele>238</ele>
        <time>2012-09-16T06:36:43Z</time>
      </trkpt>
      <trkpt lat="44.53661" lon="1.13187">
        <ele>240</ele>
        <time>2012-09-16T06:36:48Z</time>
      </trkpt>
      <trkpt lat="44.53671" lon="1.13187">
        <ele>240</ele>
        <time>2012-09-16T06:36:53Z</time>
      </trkpt>
      <trkpt lat="44.53679" lon="1.1318">
        <ele>240</ele>
        <time>2012-09-16T06:36:59Z</time>
      </trkpt>
      <trkpt lat="44.53694" lon="1.13179">
        <ele>240</ele>
        <time>2012-09-16T06:37:04Z</time>
      </trkpt>
      <trkpt lat="44.53706" lon="1.1317">
        <ele>240</ele>
        <time>2012-09-16T06:37:11Z</time>
      </trkpt>
      <trkpt lat="44.53717" lon="1.13162">
        <ele>240</ele>
        <time>2012-09-16T06:37:16Z</time>
      </trkpt>
      <trkpt lat="44.53727" lon="1.13154">
        <ele>240</ele>
        <time>2012-09-16T06:37:21Z</time>
      </trkpt>
      <trkpt lat="44.53738" lon="1.1314">
        <ele>240</ele>
        <time>2012-09-16T06:37:27Z</time>
      </trkpt>
      <trkpt lat="44.53737" lon="1.13124">
        <ele>240</ele>
        <time>2012-09-16T06:37:35Z</time>
      </trkpt>
      <trkpt lat="44.53729" lon="1.13108">
        <ele>242</ele>
        <time>2012-09-16T06:37:40Z</time>
      </trkpt>
      <trkpt lat="44.53725" lon="1.13085">
        <ele>244</ele>
        <time>2012-09-16T06:37:45Z</time>
      </trkpt>
      <trkpt lat="44.53719" lon="1.13058">
        <ele>246</ele>
        <time>2012-09-16T06:37:50Z</time>
      </trkpt>
      <trkpt lat="44.53711" lon="1.13038">
        <ele>249</ele>
        <time>2012-09-16T06:37:55Z</time>
      </trkpt>
      <trkpt lat="44.53697" lon="1.13014">
        <ele>252</ele>
        <time>2012-09-16T06:38:01Z</time>
      </trkpt>
      <trkpt lat="44.53687" lon="1.12992">
        <ele>255</ele>
        <time>2012-09-16T06:38:06Z</time>
      </trkpt>
      <trkpt lat="44.53675" lon="1.12968">
        <ele>256</ele>
        <time>2012-09-16T06:38:11Z</time>
      </trkpt>
      <trkpt lat="44.53664" lon="1.12944">
        <ele>256</ele>
        <time>2012-09-16T06:38:16Z</time>
      </trkpt>
      <trkpt lat="44.53653" lon="1.12921">
        <ele>256</ele>
        <time>2012-09-16T06:38:21Z</time>
      </trkpt>
      <trkpt lat="44.5364" lon="1.129">
        <ele>257</ele>
        <time>2012-09-16T06:38:26Z</time>
      </trkpt>
      <trkpt lat="44.53624" lon="1.12873">
        <ele>258</ele>
        <time>2012-09-16T06:38:32Z</time>
      </trkpt>
      <trkpt lat="44.5361" lon="1.12847">
        <ele>258</ele>
        <time>2012-09-16T06:38:38Z</time>
      </trkpt>
      <trkpt lat="44.53595" lon="1.12818">
        <ele>258</ele>
        <time>2012-09-16T06:38:44Z</time>
      </trkpt>
      <trkpt lat="44.53582" lon="1.12784">
        <ele>258</ele>
        <time>2012-09-16T06:38:49Z</time>
      </trkpt>
      <trkpt lat="44.53571" lon="1.12742">
        <ele>258</ele>
        <time>2012-09-16T06:38:54Z</time>
      </trkpt>
      <trkpt lat="44.53568" lon="1.12701">
        <ele>257</ele>
        <time>2012-09-16T06:38:59Z</time>
      </trkpt>
      <trkpt lat="44.53564" lon="1.12651">
        <ele>253</ele>
        <time>2012-09-16T06:39:04Z</time>
      </trkpt>
      <trkpt lat="44.53558" lon="1.12605">
        <ele>252</ele>
        <time>2012-09-16T06:39:09Z</time>
      </trkpt>
      <trkpt lat="44.53562" lon="1.12543">
        <ele>251</ele>
        <time>2012-09-16T06:39:15Z</time>
      </trkpt>
      <trkpt lat="44.53569" lon="1.12482">
        <ele>246</ele>
        <time>2012-09-16T06:39:21Z</time>
      </trkpt>
      <trkpt lat="44.53573" lon="1.12445">
        <ele>243</ele>
        <time>2012-09-16T06:39:26Z</time>
      </trkpt>
      <trkpt lat="44.53597" lon="1.12435">
        <ele>241</ele>
        <time>2012-09-16T06:39:32Z</time>
      </trkpt>
      <trkpt lat="44.53619" lon="1.12431">
        <ele>240</ele>
        <time>2012-09-16T06:39:37Z</time>
      </trkpt>
      <trkpt lat="44.53636" lon="1.1242">
        <ele>239</ele>
        <time>2012-09-16T06:39:42Z</time>
      </trkpt>
      <trkpt lat="44.53642" lon="1.12414">
        <ele>237</ele>
        <time>2012-09-16T06:39:47Z</time>
      </trkpt>
      <trkpt lat="44.53644" lon="1.12413">
        <ele>237</ele>
        <time>2012-09-16T06:39:54Z</time>
      </trkpt>
      <trkpt lat="44.53651" lon="1.12396">
        <ele>236</ele>
        <time>2012-09-16T06:39:59Z</time>
      </trkpt>
      <trkpt lat="44.5366" lon="1.12359">
        <ele>235</ele>
        <time>2012-09-16T06:40:05Z</time>
      </trkpt>
      <trkpt lat="44.53667" lon="1.12325">
        <ele>235</ele>
        <time>2012-09-16T06:40:10Z</time>
      </trkpt>
      <trkpt lat="44.53676" lon="1.12283">
        <ele>235</ele>
        <time>2012-09-16T06:40:15Z</time>
      </trkpt>
      <trkpt lat="44.53688" lon="1.1224">
        <ele>235</ele>
        <time>2012-09-16T06:40:20Z</time>
      </trkpt>
      <trkpt lat="44.53697" lon="1.12201">
        <ele>235</ele>
        <time>2012-09-16T06:40:25Z</time>
      </trkpt>
      <trkpt lat="44.53704" lon="1.1216">
        <ele>235</ele>
        <time>2012-09-16T06:40:30Z</time>
      </trkpt>
      <trkpt lat="44.53706" lon="1.12109">
        <ele>235</ele>
        <time>2012-09-16T06:40:36Z</time>
      </trkpt>
      <trkpt lat="44.53706" lon="1.1207">
        <ele>235</ele>
        <time>2012-09-16T06:40:41Z</time>
      </trkpt>
      <trkpt lat="44.53708" lon="1.12034">
        <ele>235</ele>
        <time>2012-09-16T06:40:46Z</time>
      </trkpt>
      <trkpt lat="44.53707" lon="1.12002">
        <ele>235</ele>
        <time>2012-09-16T06:40:51Z</time>
      </trkpt>
      <trkpt lat="44.53704" lon="1.1197">
        <ele>235</ele>
        <time>2012-09-16T06:40:56Z</time>
      </trkpt>
      <trkpt lat="44.53705" lon="1.11939">
        <ele>235</ele>
        <time>2012-09-16T06:41:01Z</time>
      </trkpt>
      <trkpt lat="44.53712" lon="1.11909">
        <ele>237</ele>
        <time>2012-09-16T06:41:06Z</time>
      </trkpt>
      <trkpt lat="44.53717" lon="1.11861">
        <ele>239</ele>
        <time>2012-09-16T06:41:12Z</time>
      </trkpt>
      <trkpt lat="44.53722" lon="1.1181">
        <ele>240</ele>
        <time>2012-09-16T06:41:17Z</time>
      </trkpt>
      <trkpt lat="44.53731" lon="1.11764">
        <ele>240</ele>
        <time>2012-09-16T06:41:22Z</time>
      </trkpt>
      <trkpt lat="44.53744" lon="1.11712">
        <ele>241</ele>
        <time>2012-09-16T06:41:28Z</time>
      </trkpt>
      <trkpt lat="44.53755" lon="1.11666">
        <ele>242</ele>
        <time>2012-09-16T06:41:34Z</time>
      </trkpt>
      <trkpt lat="44.5377" lon="1.11632">
        <ele>242</ele>
        <time>2012-09-16T06:41:39Z</time>
      </trkpt>
      <trkpt lat="44.53783" lon="1.11586">
        <ele>242</ele>
        <time>2012-09-16T06:41:45Z</time>
      </trkpt>
      <trkpt lat="44.5379" lon="1.11537">
        <ele>240</ele>
        <time>2012-09-16T06:41:51Z</time>
      </trkpt>
      <trkpt lat="44.53797" lon="1.11494">
        <ele>240</ele>
        <time>2012-09-16T06:41:57Z</time>
      </trkpt>
      <trkpt lat="44.53802" lon="1.11461">
        <ele>239</ele>
        <time>2012-09-16T06:42:02Z</time>
      </trkpt>
      <trkpt lat="44.53812" lon="1.11435">
        <ele>239</ele>
        <time>2012-09-16T06:42:08Z</time>
      </trkpt>
      <trkpt lat="44.53824" lon="1.11425">
        <ele>236</ele>
        <time>2012-09-16T06:42:13Z</time>
      </trkpt>
      <trkpt lat="44.53839" lon="1.11419">
        <ele>235</ele>
        <time>2012-09-16T06:42:18Z</time>
      </trkpt>
      <trkpt lat="44.53863" lon="1.11419">
        <ele>235</ele>
        <time>2012-09-16T06:42:23Z</time>
      </trkpt>
      <trkpt lat="44.53884" lon="1.11406">
        <ele>235</ele>
        <time>2012-09-16T06:42:28Z</time>
      </trkpt>
      <trkpt lat="44.5391" lon="1.11401">
        <ele>235</ele>
        <time>2012-09-16T06:42:34Z</time>
      </trkpt>
      <trkpt lat="44.53933" lon="1.11401">
        <ele>233</ele>
        <time>2012-09-16T06:42:39Z</time>
      </trkpt>
      <trkpt lat="44.53962" lon="1.11401">
        <ele>230</ele>
        <time>2012-09-16T06:42:44Z</time>
      </trkpt>
      <trkpt lat="44.53993" lon="1.11399">
        <ele>227</ele>
        <time>2012-09-16T06:42:49Z</time>
      </trkpt>
      <trkpt lat="44.54031" lon="1.11387">
        <ele>226</ele>
        <time>2012-09-16T06:42:55Z</time>
      </trkpt>
      <trkpt lat="44.54062" lon="1.1137">
        <ele>224</ele>
        <time>2012-09-16T06:43:00Z</time>
      </trkpt>
      <trkpt lat="44.54083" lon="1.11344">
        <ele>224</ele>
        <time>2012-09-16T06:43:05Z</time>
      </trkpt>
      <trkpt lat="44.54099" lon="1.11331">
        <ele>224</ele>
        <time>2012-09-16T06:43:10Z</time>
      </trkpt>
      <trkpt lat="44.54135" lon="1.1134">
        <ele>221</ele>
        <time>2012-09-16T06:43:15Z</time>
      </trkpt>
      <trkpt lat="44.5418" lon="1.11343">
        <ele>218</ele>
        <time>2012-09-16T06:43:20Z</time>
      </trkpt>
      <trkpt lat="44.54213" lon="1.11346">
        <ele>215</ele>
        <time>2012-09-16T06:43:25Z</time>
      </trkpt>
      <trkpt lat="44.54241" lon="1.11356">
        <ele>213</ele>
        <time>2012-09-16T06:43:30Z</time>
      </trkpt>
      <trkpt lat="44.54276" lon="1.11355">
        <ele>213</ele>
        <time>2012-09-16T06:43:36Z</time>
      </trkpt>
      <trkpt lat="44.54304" lon="1.11365">
        <ele>212</ele>
        <time>2012-09-16T06:43:41Z</time>
      </trkpt>
      <trkpt lat="44.54328" lon="1.11392">
        <ele>211</ele>
        <time>2012-09-16T06:43:46Z</time>
      </trkpt>
      <trkpt lat="44.54359" lon="1.11397">
        <ele>209</ele>
        <time>2012-09-16T06:43:52Z</time>
      </trkpt>
      <trkpt lat="44.54374" lon="1.11393">
        <ele>208</ele>
        <time>2012-09-16T06:43:57Z</time>
      </trkpt>
      <trkpt lat="44.54388" lon="1.11391">
        <ele>206</ele>
        <time>2012-09-16T06:44:03Z</time>
      </trkpt>
      <trkpt lat="44.54402" lon="1.11387">
        <ele>204</ele>
        <time>2012-09-16T06:44:08Z</time>
      </trkpt>
      <trkpt lat="44.54414" lon="1.11386">
        <ele>201</ele>
        <time>2012-09-16T06:44:13Z</time>
      </trkpt>
      <trkpt lat="44.54426" lon="1.11385">
        <ele>198</ele>
        <time>2012-09-16T06:44:19Z</time>
      </trkpt>
      <trkpt lat="44.54434" lon="1.11378">
        <ele>197</ele>
        <time>2012-09-16T06:44:24Z</time>
      </trkpt>
      <trkpt lat="44.54438" lon="1.11358">
        <ele>197</ele>
        <time>2012-09-16T06:44:29Z</time>
      </trkpt>
      <trkpt lat="44.54438" lon="1.11335">
        <ele>197</ele>
        <time>2012-09-16T06:44:34Z</time>
      </trkpt>
      <trkpt lat="44.54437" lon="1.1131">
        <ele>197</ele>
        <time>2012-09-16T06:44:39Z</time>
      </trkpt>
      <trkpt lat="44.54433" lon="1.11278">
        <ele>202</ele>
        <time>2012-09-16T06:44:45Z</time>
      </trkpt>
      <trkpt lat="44.54427" lon="1.11243">
        <ele>202</ele>
        <time>2012-09-16T06:44:50Z</time>
      </trkpt>
      <trkpt lat="44.5442" lon="1.11215">
        <ele>202</ele>
        <time>2012-09-16T06:44:55Z</time>
      </trkpt>
      <trkpt lat="44.54412" lon="1.11179">
        <ele>202</ele>
        <time>2012-09-16T06:45:01Z</time>
      </trkpt>
      <trkpt lat="44.54411" lon="1.11159">
        <ele>202</ele>
        <time>2012-09-16T06:45:06Z</time>
      </trkpt>
      <trkpt lat="44.54411" lon="1.11138">
        <ele>202</ele>
        <time>2012-09-16T06:45:11Z</time>
      </trkpt>
      <trkpt lat="44.54408" lon="1.11122">
        <ele>202</ele>
        <time>2012-09-16T06:45:16Z</time>
      </trkpt>
      <trkpt lat="44.54405" lon="1.11106">
        <ele>205</ele>
        <time>2012-09-16T06:45:21Z</time>
      </trkpt>
      <trkpt lat="44.54404" lon="1.11091">
        <ele>205</ele>
        <time>2012-09-16T06:45:26Z</time>
      </trkpt>
      <trkpt lat="44.54398" lon="1.11062">
        <ele>206</ele>
        <time>2012-09-16T06:45:32Z</time>
      </trkpt>
      <trkpt lat="44.54393" lon="1.11037">
        <ele>206</ele>
        <time>2012-09-16T06:45:37Z</time>
      </trkpt>
      <trkpt lat="44.54387" lon="1.11004">
        <ele>206</ele>
        <time>2012-09-16T06:45:43Z</time>
      </trkpt>
      <trkpt lat="44.54386" lon="1.10975">
        <ele>206</ele>
        <time>2012-09-16T06:45:48Z</time>
      </trkpt>
      <trkpt lat="44.54387" lon="1.10937">
        <ele>204</ele>
        <time>2012-09-16T06:45:53Z</time>
      </trkpt>
      <trkpt lat="44.54387" lon="1.10916">
        <ele>204</ele>
        <time>2012-09-16T06:45:58Z</time>
      </trkpt>
      <trkpt lat="44.54388" lon="1.10901">
        <ele>204</ele>
        <time>2012-09-16T06:46:03Z</time>
      </trkpt>
      <trkpt lat="44.54391" lon="1.10886">
        <ele>204</ele>
        <time>2012-09-16T06:46:09Z</time>
      </trkpt>
      <trkpt lat="44.54401" lon="1.10866">
        <ele>204</ele>
        <time>2012-09-16T06:46:14Z</time>
      </trkpt>
      <trkpt lat="44.54411" lon="1.10852">
        <ele>199</ele>
        <time>2012-09-16T06:46:19Z</time>
      </trkpt>
      <trkpt lat="44.54413" lon="1.10837">
        <ele>199</ele>
        <time>2012-09-16T06:46:25Z</time>
      </trkpt>
      <trkpt lat="44.54401" lon="1.10837">
        <ele>199</ele>
        <time>2012-09-16T06:46:31Z</time>
      </trkpt>
      <trkpt lat="44.54385" lon="1.10845">
        <ele>199</ele>
        <time>2012-09-16T06:46:36Z</time>
      </trkpt>
      <trkpt lat="44.54377" lon="1.10852">
        <ele>199</ele>
        <time>2012-09-16T06:46:41Z</time>
      </trkpt>
      <trkpt lat="44.54371" lon="1.10856">
        <ele>199</ele>
        <time>2012-09-16T06:46:46Z</time>
      </trkpt>
      <trkpt lat="44.54358" lon="1.10859">
        <ele>199</ele>
        <time>2012-09-16T06:46:51Z</time>
      </trkpt>
      <trkpt lat="44.54344" lon="1.1086">
        <ele>200</ele>
        <time>2012-09-16T06:46:56Z</time>
      </trkpt>
      <trkpt lat="44.54331" lon="1.10866">
        <ele>201</ele>
        <time>2012-09-16T06:47:01Z</time>
      </trkpt>
      <trkpt lat="44.54317" lon="1.10871">
        <ele>203</ele>
        <time>2012-09-16T06:47:06Z</time>
      </trkpt>
      <trkpt lat="44.54301" lon="1.10882">
        <ele>207</ele>
        <time>2012-09-16T06:47:12Z</time>
      </trkpt>
      <trkpt lat="44.54286" lon="1.10887">
        <ele>209</ele>
        <time>2012-09-16T06:47:18Z</time>
      </trkpt>
      <trkpt lat="44.54269" lon="1.10884">
        <ele>210</ele>
        <time>2012-09-16T06:47:24Z</time>
      </trkpt>
      <trkpt lat="44.54242" lon="1.1087">
        <ele>210</ele>
        <time>2012-09-16T06:47:30Z</time>
      </trkpt>
      <trkpt lat="44.5421" lon="1.10852">
        <ele>210</ele>
        <time>2012-09-16T06:47:36Z</time>
      </trkpt>
      <trkpt lat="44.54179" lon="1.10827">
        <ele>210</ele>
        <time>2012-09-16T06:47:41Z</time>
      </trkpt>
      <trkpt lat="44.54145" lon="1.10807">
        <ele>210</ele>
        <time>2012-09-16T06:47:46Z</time>
      </trkpt>
      <trkpt lat="44.54122" lon="1.1076">
        <ele>209</ele>
        <time>2012-09-16T06:47:51Z</time>
      </trkpt>
      <trkpt lat="44.54122" lon="1.10698">
        <ele>206</ele>
        <time>2012-09-16T06:47:57Z</time>
      </trkpt>
      <trkpt lat="44.54116" lon="1.1066">
        <ele>203</ele>
        <time>2012-09-16T06:48:02Z</time>
      </trkpt>
      <trkpt lat="44.54093" lon="1.10627">
        <ele>199</ele>
        <time>2012-09-16T06:48:08Z</time>
      </trkpt>
      <trkpt lat="44.5407" lon="1.10601">
        <ele>197</ele>
        <time>2012-09-16T06:48:13Z</time>
      </trkpt>
      <trkpt lat="44.5405" lon="1.10586">
        <ele>194</ele>
        <time>2012-09-16T06:48:18Z</time>
      </trkpt>
      <trkpt lat="44.54025" lon="1.10585">
        <ele>194</ele>
        <time>2012-09-16T06:48:23Z</time>
      </trkpt>
      <trkpt lat="44.54006" lon="1.10582">
        <ele>194</ele>
        <time>2012-09-16T06:48:28Z</time>
      </trkpt>
      <trkpt lat="44.53991" lon="1.10588">
        <ele>199</ele>
        <time>2012-09-16T06:48:33Z</time>
      </trkpt>
      <trkpt lat="44.53977" lon="1.10597">
        <ele>204</ele>
        <time>2012-09-16T06:48:38Z</time>
      </trkpt>
      <trkpt lat="44.53961" lon="1.10602">
        <ele>210</ele>
        <time>2012-09-16T06:48:44Z</time>
      </trkpt>
      <trkpt lat="44.53952" lon="1.10599">
        <ele>213</ele>
        <time>2012-09-16T06:48:49Z</time>
      </trkpt>
      <trkpt lat="44.53939" lon="1.10594">
        <ele>215</ele>
        <time>2012-09-16T06:48:55Z</time>
      </trkpt>
      <trkpt lat="44.53931" lon="1.106">
        <ele>218</ele>
        <time>2012-09-16T06:49:00Z</time>
      </trkpt>
      <trkpt lat="44.53921" lon="1.10604">
        <ele>219</ele>
        <time>2012-09-16T06:49:06Z</time>
      </trkpt>
      <trkpt lat="44.53911" lon="1.10609">
        <ele>220</ele>
        <time>2012-09-16T06:49:11Z</time>
      </trkpt>
      <trkpt lat="44.53898" lon="1.10605">
        <ele>220</ele>
        <time>2012-09-16T06:49:16Z</time>
      </trkpt>
      <trkpt lat="44.53889" lon="1.106">
        <ele>220</ele>
        <time>2012-09-16T06:49:21Z</time>
      </trkpt>
      <trkpt lat="44.53875" lon="1.10599">
        <ele>220</ele>
        <time>2012-09-16T06:49:28Z</time>
      </trkpt>
      <trkpt lat="44.53866" lon="1.10593">
        <ele>220</ele>
        <time>2012-09-16T06:49:33Z</time>
      </trkpt>
      <trkpt lat="44.53853" lon="1.10592">
        <ele>222</ele>
        <time>2012-09-16T06:49:38Z</time>
      </trkpt>
      <trkpt lat="44.53841" lon="1.10592">
        <ele>224</ele>
        <time>2012-09-16T06:49:43Z</time>
      </trkpt>
      <trkpt lat="44.53825" lon="1.10597">
        <ele>229</ele>
        <time>2012-09-16T06:49:48Z</time>
      </trkpt>
      <trkpt lat="44.53817" lon="1.10606">
        <ele>233</ele>
        <time>2012-09-16T06:49:53Z</time>
      </trkpt>
      <trkpt lat="44.53816" lon="1.10615">
        <ele>235</ele>
        <time>2012-09-16T06:49:58Z</time>
      </trkpt>
      <trkpt lat="44.53815" lon="1.10627">
        <ele>235</ele>
        <time>2012-09-16T06:50:03Z</time>
      </trkpt>
      <trkpt lat="44.53815" lon="1.1064">
        <ele>235</ele>
        <time>2012-09-16T06:50:08Z</time>
      </trkpt>
      <trkpt lat="44.5382" lon="1.10662">
        <ele>235</ele>
        <time>2012-09-16T06:50:13Z</time>
      </trkpt>
      <trkpt lat="44.53826" lon="1.10687">
        <ele>235</ele>
        <time>2012-09-16T06:50:19Z</time>
      </trkpt>
      <trkpt lat="44.53834" lon="1.10716">
        <ele>231</ele>
        <time>2012-09-16T06:50:25Z</time>
      </trkpt>
      <trkpt lat="44.53836" lon="1.10742">
        <ele>230</ele>
        <time>2012-09-16T06:50:31Z</time>
      </trkpt>
      <trkpt lat="44.53837" lon="1.10761">
        <ele>230</ele>
        <time>2012-09-16T06:50:36Z</time>
      </trkpt>
      <trkpt lat="44.5384" lon="1.1078">
        <ele>230</ele>
        <time>2012-09-16T06:50:41Z</time>
      </trkpt>
      <trkpt lat="44.53844" lon="1.10803">
        <ele>230</ele>
        <time>2012-09-16T06:50:46Z</time>
      </trkpt>
      <trkpt lat="44.53845" lon="1.10825">
        <ele>230</ele>
        <time>2012-09-16T06:50:51Z</time>
      </trkpt>
      <trkpt lat="44.53848" lon="1.10839">
        <ele>230</ele>
        <time>2012-09-16T06:50:56Z</time>
      </trkpt>
      <trkpt lat="44.53847" lon="1.10852">
        <ele>230</ele>
        <time>2012-09-16T06:51:01Z</time>
      </trkpt>
      <trkpt lat="44.53848" lon="1.10865">
        <ele>233</ele>
        <time>2012-09-16T06:51:06Z</time>
      </trkpt>
      <trkpt lat="44.53848" lon="1.10877">
        <ele>234</ele>
        <time>2012-09-16T06:51:11Z</time>
      </trkpt>
      <trkpt lat="44.53849" lon="1.10891">
        <ele>237</ele>
        <time>2012-09-16T06:51:17Z</time>
      </trkpt>
      <trkpt lat="44.5385" lon="1.10902">
        <ele>240</ele>
        <time>2012-09-16T06:51:22Z</time>
      </trkpt>
      <trkpt lat="44.53855" lon="1.10912">
        <ele>241</ele>
        <time>2012-09-16T06:51:27Z</time>
      </trkpt>
      <trkpt lat="44.53858" lon="1.10927">
        <ele>241</ele>
        <time>2012-09-16T06:51:32Z</time>
      </trkpt>
      <trkpt lat="44.53858" lon="1.10938">
        <ele>241</ele>
        <time>2012-09-16T06:51:37Z</time>
      </trkpt>
      <trkpt lat="44.53856" lon="1.10959">
        <ele>244</ele>
        <time>2012-09-16T06:51:43Z</time>
      </trkpt>
      <trkpt lat="44.53856" lon="1.10976">
        <ele>247</ele>
        <time>2012-09-16T06:51:48Z</time>
      </trkpt>
      <trkpt lat="44.53855" lon="1.10992">
        <ele>250</ele>
        <time>2012-09-16T06:51:53Z</time>
      </trkpt>
      <trkpt lat="44.53854" lon="1.11006">
        <ele>251</ele>
        <time>2012-09-16T06:51:58Z</time>
      </trkpt>
      <trkpt lat="44.53857" lon="1.11021">
        <ele>252</ele>
        <time>2012-09-16T06:52:03Z</time>
      </trkpt>
      <trkpt lat="44.53854" lon="1.11033">
        <ele>252</ele>
        <time>2012-09-16T06:52:08Z</time>
      </trkpt>
      <trkpt lat="44.53852" lon="1.11053">
        <ele>252</ele>
        <time>2012-09-16T06:52:14Z</time>
      </trkpt>
      <trkpt lat="44.53852" lon="1.11063">
        <ele>252</ele>
        <time>2012-09-16T06:52:19Z</time>
      </trkpt>
      <trkpt lat="44.53849" lon="1.11077">
        <ele>252</ele>
        <time>2012-09-16T06:52:24Z</time>
      </trkpt>
      <trkpt lat="44.53844" lon="1.1109">
        <ele>252</ele>
        <time>2012-09-16T06:52:29Z</time>
      </trkpt>
      <trkpt lat="44.53841" lon="1.11104">
        <ele>252</ele>
        <time>2012-09-16T06:52:34Z</time>
      </trkpt>
      <trkpt lat="44.53838" lon="1.11118">
        <ele>256</ele>
        <time>2012-09-16T06:52:39Z</time>
      </trkpt>
      <trkpt lat="44.53838" lon="1.1114">
        <ele>258</ele>
        <time>2012-09-16T06:52:45Z</time>
      </trkpt>
      <trkpt lat="44.53833" lon="1.11161">
        <ele>261</ele>
        <time>2012-09-16T06:52:50Z</time>
      </trkpt>
      <trkpt lat="44.53828" lon="1.11179">
        <ele>266</ele>
        <time>2012-09-16T06:52:55Z</time>
      </trkpt>
      <trkpt lat="44.53828" lon="1.11207">
        <ele>270</ele>
        <time>2012-09-16T06:53:00Z</time>
      </trkpt>
      <trkpt lat="44.53828" lon="1.11237">
        <ele>270</ele>
        <time>2012-09-16T06:53:05Z</time>
      </trkpt>
      <trkpt lat="44.53827" lon="1.11263">
        <ele>270</ele>
        <time>2012-09-16T06:53:10Z</time>
      </trkpt>
      <trkpt lat="44.53826" lon="1.11302">
        <ele>270</ele>
        <time>2012-09-16T06:53:16Z</time>
      </trkpt>
      <trkpt lat="44.53826" lon="1.11335">
        <ele>267</ele>
        <time>2012-09-16T06:53:21Z</time>
      </trkpt>
      <trkpt lat="44.53827" lon="1.11353">
        <ele>263</ele>
        <time>2012-09-16T06:53:26Z</time>
      </trkpt>
      <trkpt lat="44.53826" lon="1.11354">
        <ele>260</ele>
        <time>2012-09-16T06:53:32Z</time>
      </trkpt>
      <trkpt lat="44.53825" lon="1.11354">
        <ele>259</ele>
        <time>2012-09-16T06:53:39Z</time>
      </trkpt>
      <trkpt lat="44.53823" lon="1.11352">
        <ele>254</ele>
        <time>2012-09-16T06:53:45Z</time>
      </trkpt>
      <trkpt lat="44.53813" lon="1.11349">
        <ele>253</ele>
        <time>2012-09-16T06:53:50Z</time>
      </trkpt>
      <trkpt lat="44.53801" lon="1.11343">
        <ele>253</ele>
        <time>2012-09-16T06:53:55Z</time>
      </trkpt>
      <trkpt lat="44.53784" lon="1.11336">
        <ele>253</ele>
        <time>2012-09-16T06:54:01Z</time>
      </trkpt>
      <trkpt lat="44.53762" lon="1.11324">
        <ele>253</ele>
        <time>2012-09-16T06:54:07Z</time>
      </trkpt>
      <trkpt lat="44.53736" lon="1.11299">
        <ele>253</ele>
        <time>2012-09-16T06:54:12Z</time>
      </trkpt>
      <trkpt lat="44.53713" lon="1.11269">
        <ele>253</ele>
        <time>2012-09-16T06:54:17Z</time>
      </trkpt>
      <trkpt lat="44.53686" lon="1.11241">
        <ele>252</ele>
        <time>2012-09-16T06:54:22Z</time>
      </trkpt>
      <trkpt lat="44.53668" lon="1.11228">
        <ele>248</ele>
        <time>2012-09-16T06:54:27Z</time>
      </trkpt>
      <trkpt lat="44.5365" lon="1.11205">
        <ele>243</ele>
        <time>2012-09-16T06:54:32Z</time>
      </trkpt>
      <trkpt lat="44.53624" lon="1.11186">
        <ele>238</ele>
        <time>2012-09-16T06:54:37Z</time>
      </trkpt>
      <trkpt lat="44.53599" lon="1.11146">
        <ele>233</ele>
        <time>2012-09-16T06:54:42Z</time>
      </trkpt>
      <trkpt lat="44.53571" lon="1.11108">
        <ele>227</ele>
        <time>2012-09-16T06:54:48Z</time>
      </trkpt>
      <trkpt lat="44.5353" lon="1.11103">
        <ele>222</ele>
        <time>2012-09-16T06:54:53Z</time>
      </trkpt>
      <trkpt lat="44.53489" lon="1.11097">
        <ele>217</ele>
        <time>2012-09-16T06:54:58Z</time>
      </trkpt>
      <trkpt lat="44.53453" lon="1.11096">
        <ele>211</ele>
        <time>2012-09-16T06:55:04Z</time>
      </trkpt>
      <trkpt lat="44.5342" lon="1.1112">
        <ele>205</ele>
        <time>2012-09-16T06:55:10Z</time>
      </trkpt>
      <trkpt lat="44.534" lon="1.11153">
        <ele>201</ele>
        <time>2012-09-16T06:55:15Z</time>
      </trkpt>
      <trkpt lat="44.5338" lon="1.11192">
        <ele>200</ele>
        <time>2012-09-16T06:55:21Z</time>
      </trkpt>
      <trkpt lat="44.53373" lon="1.11222">
        <ele>200</ele>
        <time>2012-09-16T06:55:26Z</time>
      </trkpt>
      <trkpt lat="44.53374" lon="1.11237">
        <ele>202</ele>
        <time>2012-09-16T06:55:32Z</time>
      </trkpt>
      <trkpt lat="44.53373" lon="1.11225">
        <ele>202</ele>
        <time>2012-09-16T06:55:37Z</time>
      </trkpt>
      <trkpt lat="44.53371" lon="1.11195">
        <ele>200</ele>
        <time>2012-09-16T06:55:42Z</time>
      </trkpt>
      <trkpt lat="44.53363" lon="1.11146">
        <ele>195</ele>
        <time>2012-09-16T06:55:47Z</time>
      </trkpt>
      <trkpt lat="44.53359" lon="1.11102">
        <ele>190</ele>
        <time>2012-09-16T06:55:52Z</time>
      </trkpt>
      <trkpt lat="44.53337" lon="1.11062">
        <ele>185</ele>
        <time>2012-09-16T06:55:57Z</time>
      </trkpt>
      <trkpt lat="44.53313" lon="1.11023">
        <ele>180</ele>
        <time>2012-09-16T06:56:02Z</time>
      </trkpt>
      <trkpt lat="44.53284" lon="1.10986">
        <ele>174</ele>
        <time>2012-09-16T06:56:08Z</time>
      </trkpt>
      <trkpt lat="44.53265" lon="1.10965">
        <ele>172</ele>
        <time>2012-09-16T06:56:13Z</time>
      </trkpt>
      <trkpt lat="44.53233" lon="1.10973">
        <ele>172</ele>
        <time>2012-09-16T06:56:18Z</time>
      </trkpt>
      <trkpt lat="44.53193" lon="1.10974">
        <ele>172</ele>
        <time>2012-09-16T06:56:23Z</time>
      </trkpt>
      <trkpt lat="44.53164" lon="1.10959">
        <ele>172</ele>
        <time>2012-09-16T06:56:28Z</time>
      </trkpt>
      <trkpt lat="44.5314" lon="1.10927">
        <ele>170</ele>
        <time>2012-09-16T06:56:33Z</time>
      </trkpt>
      <trkpt lat="44.53121" lon="1.10885">
        <ele>165</ele>
        <time>2012-09-16T06:56:38Z</time>
      </trkpt>
      <trkpt lat="44.53106" lon="1.10862">
        <ele>160</ele>
        <time>2012-09-16T06:56:43Z</time>
      </trkpt>
      <trkpt lat="44.53109" lon="1.1085">
        <ele>156</ele>
        <time>2012-09-16T06:56:49Z</time>
      </trkpt>
      <trkpt lat="44.53111" lon="1.10844">
        <ele>153</ele>
        <time>2012-09-16T06:56:54Z</time>
      </trkpt>
      <trkpt lat="44.53098" lon="1.10837">
        <ele>154</ele>
        <time>2012-09-16T06:56:59Z</time>
      </trkpt>
      <trkpt lat="44.53096" lon="1.10835">
        <ele>160</ele>
        <time>2012-09-16T06:57:04Z</time>
      </trkpt>
      <trkpt lat="44.53103" lon="1.10835">
        <ele>163</ele>
        <time>2012-09-16T06:57:09Z</time>
      </trkpt>
      <trkpt lat="44.53108" lon="1.10829">
        <ele>162</ele>
        <time>2012-09-16T06:57:15Z</time>
      </trkpt>
      <trkpt lat="44.53114" lon="1.1082">
        <ele>158</ele>
        <time>2012-09-16T06:57:20Z</time>
      </trkpt>
      <trkpt lat="44.53125" lon="1.10807">
        <ele>153</ele>
        <time>2012-09-16T06:57:25Z</time>
      </trkpt>
      <trkpt lat="44.53137" lon="1.10797">
        <ele>144</ele>
        <time>2012-09-16T06:57:30Z</time>
      </trkpt>
      <trkpt lat="44.53149" lon="1.1079">
        <ele>139</ele>
        <time>2012-09-16T06:57:35Z</time>
      </trkpt>
      <trkpt lat="44.53161" lon="1.10777">
        <ele>131</ele>
        <time>2012-09-16T06:57:40Z</time>
      </trkpt>
      <trkpt lat="44.53173" lon="1.10766">
        <ele>125</ele>
        <time>2012-09-16T06:57:46Z</time>
      </trkpt>
      <trkpt lat="44.53184" lon="1.10755">
        <ele>124</ele>
        <time>2012-09-16T06:57:51Z</time>
      </trkpt>
      <trkpt lat="44.53202" lon="1.10748">
        <ele>124</ele>
        <time>2012-09-16T06:57:56Z</time>
      </trkpt>
      <trkpt lat="44.53224" lon="1.10742">
        <ele>124</ele>
        <time>2012-09-16T06:58:01Z</time>
      </trkpt>
      <trkpt lat="44.5324" lon="1.10738">
        <ele>124</ele>
        <time>2012-09-16T06:58:06Z</time>
      </trkpt>
      <trkpt lat="44.5325" lon="1.10734">
        <ele>128</ele>
        <time>2012-09-16T06:58:11Z</time>
      </trkpt>
      <trkpt lat="44.53263" lon="1.10728">
        <ele>133</ele>
        <time>2012-09-16T06:58:16Z</time>
      </trkpt>
      <trkpt lat="44.53273" lon="1.10719">
        <ele>136</ele>
        <time>2012-09-16T06:58:21Z</time>
      </trkpt>
      <trkpt lat="44.53285" lon="1.10709">
        <ele>142</ele>
        <time>2012-09-16T06:58:27Z</time>
      </trkpt>
      <trkpt lat="44.53297" lon="1.10702">
        <ele>142</ele>
        <time>2012-09-16T06:58:32Z</time>
      </trkpt>
      <trkpt lat="44.53302" lon="1.1069">
        <ele>143</ele>
        <time>2012-09-16T06:58:38Z</time>
      </trkpt>
      <trkpt lat="44.53304" lon="1.1068">
        <ele>146</ele>
        <time>2012-09-16T06:58:43Z</time>
      </trkpt>
      <trkpt lat="44.53312" lon="1.10655">
        <ele>151</ele>
        <time>2012-09-16T06:58:48Z</time>
      </trkpt>
      <trkpt lat="44.5331" lon="1.10637">
        <ele>156</ele>
        <time>2012-09-16T06:58:53Z</time>
      </trkpt>
      <trkpt lat="44.53308" lon="1.10615">
        <ele>158</ele>
        <time>2012-09-16T06:58:58Z</time>
      </trkpt>
      <trkpt lat="44.53305" lon="1.10594">
        <ele>163</ele>
        <time>2012-09-16T06:59:03Z</time>
      </trkpt>
      <trkpt lat="44.53295" lon="1.10568">
        <ele>170</ele>
        <time>2012-09-16T06:59:08Z</time>
      </trkpt>
      <trkpt lat="44.53285" lon="1.10562">
        <ele>177</ele>
        <time>2012-09-16T06:59:13Z</time>
      </trkpt>
      <trkpt lat="44.53268" lon="1.10566">
        <ele>183</ele>
        <time>2012-09-16T06:59:19Z</time>
      </trkpt>
      <trkpt lat="44.53256" lon="1.10562">
        <ele>185</ele>
        <time>2012-09-16T06:59:24Z</time>
      </trkpt>
      <trkpt lat="44.53242" lon="1.10555">
        <ele>185</ele>
        <time>2012-09-16T06:59:29Z</time>
      </trkpt>
      <trkpt lat="44.53228" lon="1.10546">
        <ele>181</ele>
        <time>2012-09-16T06:59:36Z</time>
      </trkpt>
      <trkpt lat="44.53223" lon="1.10543">
        <ele>177</ele>
        <time>2012-09-16T06:59:41Z</time>
      </trkpt>
      <trkpt lat="44.53212" lon="1.10535">
        <ele>177</ele>
        <time>2012-09-16T06:59:47Z</time>
      </trkpt>
      <trkpt lat="44.53204" lon="1.10531">
        <ele>177</ele>
        <time>2012-09-16T06:59:52Z</time>
      </trkpt>
      <trkpt lat="44.53195" lon="1.10526">
        <ele>177</ele>
        <time>2012-09-16T06:59:57Z</time>
      </trkpt>
      <trkpt lat="44.53184" lon="1.10524">
        <ele>177</ele>
        <time>2012-09-16T07:00:04Z</time>
      </trkpt>
      <trkpt lat="44.53174" lon="1.10524">
        <ele>179</ele>
        <time>2012-09-16T07:00:10Z</time>
      </trkpt>
      <trkpt lat="44.53166" lon="1.10527">
        <ele>180</ele>
        <time>2012-09-16T07:00:15Z</time>
      </trkpt>
      <trkpt lat="44.5316" lon="1.10528">
        <ele>182</ele>
        <time>2012-09-16T07:00:22Z</time>
      </trkpt>
      <trkpt lat="44.53152" lon="1.10531">
        <ele>187</ele>
        <time>2012-09-16T07:00:28Z</time>
      </trkpt>
      <trkpt lat="44.53142" lon="1.10537">
        <ele>189</ele>
        <time>2012-09-16T07:00:34Z</time>
      </trkpt>
      <trkpt lat="44.53128" lon="1.10538">
        <ele>192</ele>
        <time>2012-09-16T07:00:40Z</time>
      </trkpt>
      <trkpt lat="44.5312" lon="1.10543">
        <ele>193</ele>
        <time>2012-09-16T07:00:45Z</time>
      </trkpt>
      <trkpt lat="44.53112" lon="1.10547">
        <ele>196</ele>
        <time>2012-09-16T07:00:51Z</time>
      </trkpt>
      <trkpt lat="44.53106" lon="1.10551">
        <ele>197</ele>
        <time>2012-09-16T07:00:56Z</time>
      </trkpt>
      <trkpt lat="44.53099" lon="1.10556">
        <ele>198</ele>
        <time>2012-09-16T07:01:02Z</time>
      </trkpt>
      <trkpt lat="44.53095" lon="1.1056">
        <ele>198</ele>
        <time>2012-09-16T07:01:07Z</time>
      </trkpt>
      <trkpt lat="44.53085" lon="1.10561">
        <ele>201</ele>
        <time>2012-09-16T07:01:14Z</time>
      </trkpt>
      <trkpt lat="44.53074" lon="1.10565">
        <ele>202</ele>
        <time>2012-09-16T07:01:20Z</time>
      </trkpt>
      <trkpt lat="44.53062" lon="1.10567">
        <ele>206</ele>
        <time>2012-09-16T07:01:26Z</time>
      </trkpt>
      <trkpt lat="44.53056" lon="1.1057">
        <ele>207</ele>
        <time>2012-09-16T07:01:32Z</time>
      </trkpt>
      <trkpt lat="44.53051" lon="1.10566">
        <ele>207</ele>
        <time>2012-09-16T07:01:38Z</time>
      </trkpt>
      <trkpt lat="44.53043" lon="1.10565">
        <ele>207</ele>
        <time>2012-09-16T07:01:43Z</time>
      </trkpt>
      <trkpt lat="44.53036" lon="1.10563">
        <ele>207</ele>
        <time>2012-09-16T07:01:48Z</time>
      </trkpt>
      <trkpt lat="44.53027" lon="1.10562">
        <ele>207</ele>
        <time>2012-09-16T07:01:53Z</time>
      </trkpt>
      <trkpt lat="44.53019" lon="1.10558">
        <ele>207</ele>
        <time>2012-09-16T07:01:59Z</time>
      </trkpt>
      <trkpt lat="44.53014" lon="1.10555">
        <ele>207</ele>
        <time>2012-09-16T07:02:04Z</time>
      </trkpt>
      <trkpt lat="44.53004" lon="1.10556">
        <ele>206</ele>
        <time>2012-09-16T07:02:10Z</time>
      </trkpt>
      <trkpt lat="44.52996" lon="1.10559">
        <ele>206</ele>
        <time>2012-09-16T07:02:15Z</time>
      </trkpt>
      <trkpt lat="44.52985" lon="1.10557">
        <ele>206</ele>
        <time>2012-09-16T07:02:20Z</time>
      </trkpt>
      <trkpt lat="44.52978" lon="1.10555">
        <ele>206</ele>
        <time>2012-09-16T07:02:25Z</time>
      </trkpt>
      <trkpt lat="44.5297" lon="1.10553">
        <ele>206</ele>
        <time>2012-09-16T07:02:30Z</time>
      </trkpt>
      <trkpt lat="44.52962" lon="1.1055">
        <ele>206</ele>
        <time>2012-09-16T07:02:36Z</time>
      </trkpt>
      <trkpt lat="44.52953" lon="1.10547">
        <ele>207</ele>
        <time>2012-09-16T07:02:42Z</time>
      </trkpt>
      <trkpt lat="44.52946" lon="1.10541">
        <ele>209</ele>
        <time>2012-09-16T07:02:47Z</time>
      </trkpt>
      <trkpt lat="44.52939" lon="1.10529">
        <ele>211</ele>
        <time>2012-09-16T07:02:53Z</time>
      </trkpt>
      <trkpt lat="44.52935" lon="1.10528">
        <ele>214</ele>
        <time>2012-09-16T07:02:58Z</time>
      </trkpt>
      <trkpt lat="44.52929" lon="1.10526">
        <ele>218</ele>
        <time>2012-09-16T07:03:03Z</time>
      </trkpt>
      <trkpt lat="44.52921" lon="1.1052">
        <ele>223</ele>
        <time>2012-09-16T07:03:08Z</time>
      </trkpt>
      <trkpt lat="44.52916" lon="1.10515">
        <ele>228</ele>
        <time>2012-09-16T07:03:13Z</time>
      </trkpt>
      <trkpt lat="44.52911" lon="1.10511">
        <ele>234</ele>
        <time>2012-09-16T07:03:19Z</time>
      </trkpt>
      <trkpt lat="44.52908" lon="1.10509">
        <ele>241</ele>
        <time>2012-09-16T07:03:26Z</time>
      </trkpt>
      <trkpt lat="44.52911" lon="1.1051">
        <ele>243</ele>
        <time>2012-09-16T07:03:31Z</time>
      </trkpt>
      <trkpt lat="44.52915" lon="1.10512">
        <ele>244</ele>
        <time>2012-09-16T07:03:38Z</time>
      </trkpt>
      <trkpt lat="44.52916" lon="1.10513">
        <ele>245</ele>
        <time>2012-09-16T07:03:44Z</time>
      </trkpt>
      <trkpt lat="44.52918" lon="1.10514">
        <ele>247</ele>
        <time>2012-09-16T07:03:53Z</time>
      </trkpt>
      <trkpt lat="44.52926" lon="1.10516">
        <ele>245</ele>
        <time>2012-09-16T07:03:59Z</time>
      </trkpt>
      <trkpt lat="44.52934" lon="1.10514">
        <ele>240</ele>
        <time>2012-09-16T07:04:04Z</time>
      </trkpt>
      <trkpt lat="44.52942" lon="1.10507">
        <ele>234</ele>
        <time>2012-09-16T07:04:09Z</time>
      </trkpt>
      <trkpt lat="44.52952" lon="1.10495">
        <ele>229</ele>
        <time>2012-09-16T07:04:14Z</time>
      </trkpt>
      <trkpt lat="44.52959" lon="1.10484">
        <ele>224</ele>
        <time>2012-09-16T07:04:19Z</time>
      </trkpt>
      <trkpt lat="44.52966" lon="1.10472">
        <ele>219</ele>
        <time>2012-09-16T07:04:24Z</time>
      </trkpt>
      <trkpt lat="44.52976" lon="1.10459">
        <ele>216</ele>
        <time>2012-09-16T07:04:30Z</time>
      </trkpt>
      <trkpt lat="44.52986" lon="1.10449">
        <ele>216</ele>
        <time>2012-09-16T07:04:35Z</time>
      </trkpt>
      <trkpt lat="44.52996" lon="1.10438">
        <ele>215</ele>
        <time>2012-09-16T07:04:40Z</time>
      </trkpt>
      <trkpt lat="44.53004" lon="1.10424">
        <ele>215</ele>
        <time>2012-09-16T07:04:45Z</time>
      </trkpt>
      <trkpt lat="44.5301" lon="1.10404">
        <ele>215</ele>
        <time>2012-09-16T07:04:50Z</time>
      </trkpt>
      <trkpt lat="44.53019" lon="1.1038">
        <ele>211</ele>
        <time>2012-09-16T07:04:55Z</time>
      </trkpt>
      <trkpt lat="44.53032" lon="1.10361">
        <ele>207</ele>
        <time>2012-09-16T07:05:00Z</time>
      </trkpt>
      <trkpt lat="44.53046" lon="1.10344">
        <ele>206</ele>
        <time>2012-09-16T07:05:05Z</time>
      </trkpt>
      <trkpt lat="44.5306" lon="1.1033">
        <ele>204</ele>
        <time>2012-09-16T07:05:10Z</time>
      </trkpt>
      <trkpt lat="44.53072" lon="1.10313">
        <ele>204</ele>
        <time>2012-09-16T07:05:15Z</time>
      </trkpt>
      <trkpt lat="44.53084" lon="1.10297">
        <ele>204</ele>
        <time>2012-09-16T07:05:20Z</time>
      </trkpt>
      <trkpt lat="44.53094" lon="1.10279">
        <ele>207</ele>
        <time>2012-09-16T07:05:25Z</time>
      </trkpt>
      <trkpt lat="44.53103" lon="1.1026">
        <ele>209</ele>
        <time>2012-09-16T07:05:30Z</time>
      </trkpt>
      <trkpt lat="44.53109" lon="1.10241">
        <ele>213</ele>
        <time>2012-09-16T07:05:35Z</time>
      </trkpt>
      <trkpt lat="44.53105" lon="1.10216">
        <ele>215</ele>
        <time>2012-09-16T07:05:40Z</time>
      </trkpt>
      <trkpt lat="44.53111" lon="1.1019">
        <ele>215</ele>
        <time>2012-09-16T07:05:45Z</time>
      </trkpt>
      <trkpt lat="44.53126" lon="1.10194">
        <ele>216</ele>
        <time>2012-09-16T07:05:50Z</time>
      </trkpt>
      <trkpt lat="44.53144" lon="1.10208">
        <ele>219</ele>
        <time>2012-09-16T07:05:55Z</time>
      </trkpt>
      <trkpt lat="44.53154" lon="1.10183">
        <ele>220</ele>
        <time>2012-09-16T07:06:00Z</time>
      </trkpt>
      <trkpt lat="44.53158" lon="1.10147">
        <ele>221</ele>
        <time>2012-09-16T07:06:05Z</time>
      </trkpt>
      <trkpt lat="44.53159" lon="1.10129">
        <ele>221</ele>
        <time>2012-09-16T07:06:10Z</time>
      </trkpt>
      <trkpt lat="44.53159" lon="1.10132">
        <ele>222</ele>
        <time>2012-09-16T07:06:19Z</time>
      </trkpt>
      <trkpt lat="44.53157" lon="1.10135">
        <ele>225</ele>
        <time>2012-09-16T07:06:24Z</time>
      </trkpt>
      <trkpt lat="44.53156" lon="1.10134">
        <ele>227</ele>
        <time>2012-09-16T07:06:30Z</time>
      </trkpt>
      <trkpt lat="44.53157" lon="1.1012">
        <ele>228</ele>
        <time>2012-09-16T07:06:35Z</time>
      </trkpt>
      <trkpt lat="44.53159" lon="1.101">
        <ele>229</ele>
        <time>2012-09-16T07:06:40Z</time>
      </trkpt>
      <trkpt lat="44.53159" lon="1.1008">
        <ele>229</ele>
        <time>2012-09-16T07:06:45Z</time>
      </trkpt>
      <trkpt lat="44.53157" lon="1.10057">
        <ele>230</ele>
        <time>2012-09-16T07:06:50Z</time>
      </trkpt>
      <trkpt lat="44.53154" lon="1.10031">
        <ele>230</ele>
        <time>2012-09-16T07:06:55Z</time>
      </trkpt>
      <trkpt lat="44.53151" lon="1.10004">
        <ele>230</ele>
        <time>2012-09-16T07:07:00Z</time>
      </trkpt>
      <trkpt lat="44.53153" lon="1.0998">
        <ele>230</ele>
        <time>2012-09-16T07:07:05Z</time>
      </trkpt>
      <trkpt lat="44.53176" lon="1.09976">
        <ele>231</ele>
        <time>2012-09-16T07:07:10Z</time>
      </trkpt>
      <trkpt lat="44.53202" lon="1.09975">
        <ele>231</ele>
        <time>2012-09-16T07:07:15Z</time>
      </trkpt>
      <trkpt lat="44.53234" lon="1.09973">
        <ele>231</ele>
        <time>2012-09-16T07:07:20Z</time>
      </trkpt>
      <trkpt lat="44.5327" lon="1.09972">
        <ele>229</ele>
        <time>2012-09-16T07:07:25Z</time>
      </trkpt>
      <trkpt lat="44.53313" lon="1.09971">
        <ele>227</ele>
        <time>2012-09-16T07:07:31Z</time>
      </trkpt>
      <trkpt lat="44.53349" lon="1.09971">
        <ele>226</ele>
        <time>2012-09-16T07:07:36Z</time>
      </trkpt>
      <trkpt lat="44.53388" lon="1.09973">
        <ele>226</ele>
        <time>2012-09-16T07:07:42Z</time>
      </trkpt>
      <trkpt lat="44.53418" lon="1.09973">
        <ele>226</ele>
        <time>2012-09-16T07:07:47Z</time>
      </trkpt>
      <trkpt lat="44.53445" lon="1.0997">
        <ele>226</ele>
        <time>2012-09-16T07:07:52Z</time>
      </trkpt>
      <trkpt lat="44.5347" lon="1.09968">
        <ele>226</ele>
        <time>2012-09-16T07:07:57Z</time>
      </trkpt>
      <trkpt lat="44.53493" lon="1.09967">
        <ele>226</ele>
        <time>2012-09-16T07:08:02Z</time>
      </trkpt>
      <trkpt lat="44.53516" lon="1.09966">
        <ele>227</ele>
        <time>2012-09-16T07:08:07Z</time>
      </trkpt>
      <trkpt lat="44.53537" lon="1.09965">
        <ele>229</ele>
        <time>2012-09-16T07:08:12Z</time>
      </trkpt>
      <trkpt lat="44.53556" lon="1.09961">
        <ele>230</ele>
        <time>2012-09-16T07:08:17Z</time>
      </trkpt>
      <trkpt lat="44.53575" lon="1.09957">
        <ele>230</ele>
        <time>2012-09-16T07:08:22Z</time>
      </trkpt>
      <trkpt lat="44.53594" lon="1.09953">
        <ele>231</ele>
        <time>2012-09-16T07:08:27Z</time>
      </trkpt>
      <trkpt lat="44.53613" lon="1.09949">
        <ele>232</ele>
        <time>2012-09-16T07:08:32Z</time>
      </trkpt>
      <trkpt lat="44.53632" lon="1.09946">
        <ele>234</ele>
        <time>2012-09-16T07:08:37Z</time>
      </trkpt>
      <trkpt lat="44.53651" lon="1.09944">
        <ele>235</ele>
        <time>2012-09-16T07:08:42Z</time>
      </trkpt>
      <trkpt lat="44.5367" lon="1.09941">
        <ele>236</ele>
        <time>2012-09-16T07:08:47Z</time>
      </trkpt>
      <trkpt lat="44.5369" lon="1.09937">
        <ele>236</ele>
        <time>2012-09-16T07:08:52Z</time>
      </trkpt>
      <trkpt lat="44.53709" lon="1.09933">
        <ele>237</ele>
        <time>2012-09-16T07:08:57Z</time>
      </trkpt>
      <trkpt lat="44.53728" lon="1.09929">
        <ele>238</ele>
        <time>2012-09-16T07:09:02Z</time>
      </trkpt>
      <trkpt lat="44.53747" lon="1.09923">
        <ele>238</ele>
        <time>2012-09-16T07:09:07Z</time>
      </trkpt>
      <trkpt lat="44.53762" lon="1.09913">
        <ele>238</ele>
        <time>2012-09-16T07:09:12Z</time>
      </trkpt>
      <trkpt lat="44.53773" lon="1.0989">
        <ele>239</ele>
        <time>2012-09-16T07:09:17Z</time>
      </trkpt>
      <trkpt lat="44.53783" lon="1.09865">
        <ele>239</ele>
        <time>2012-09-16T07:09:22Z</time>
      </trkpt>
      <trkpt lat="44.53801" lon="1.09835">
        <ele>239</ele>
        <time>2012-09-16T07:09:27Z</time>
      </trkpt>
      <trkpt lat="44.53823" lon="1.09803">
        <ele>239</ele>
        <time>2012-09-16T07:09:32Z</time>
      </trkpt>
      <trkpt lat="44.53837" lon="1.0978">
        <ele>239</ele>
        <time>2012-09-16T07:09:37Z</time>
      </trkpt>
      <trkpt lat="44.53848" lon="1.09757">
        <ele>239</ele>
        <time>2012-09-16T07:09:42Z</time>
      </trkpt>
      <trkpt lat="44.53862" lon="1.09732">
        <ele>239</ele>
        <time>2012-09-16T07:09:47Z</time>
      </trkpt>
      <trkpt lat="44.53874" lon="1.09709">
        <ele>238</ele>
        <time>2012-09-16T07:09:52Z</time>
      </trkpt>
      <trkpt lat="44.53891" lon="1.09684">
        <ele>234</ele>
        <time>2012-09-16T07:09:57Z</time>
      </trkpt>
      <trkpt lat="44.53914" lon="1.09651">
        <ele>231</ele>
        <time>2012-09-16T07:10:02Z</time>
      </trkpt>
      <trkpt lat="44.53939" lon="1.09614">
        <ele>226</ele>
        <time>2012-09-16T07:10:08Z</time>
      </trkpt>
      <trkpt lat="44.53962" lon="1.0956">
        <ele>222</ele>
        <time>2012-09-16T07:10:14Z</time>
      </trkpt>
      <trkpt lat="44.53977" lon="1.09511">
        <ele>220</ele>
        <time>2012-09-16T07:10:19Z</time>
      </trkpt>
      <trkpt lat="44.53991" lon="1.09457">
        <ele>215</ele>
        <time>2012-09-16T07:10:24Z</time>
      </trkpt>
      <trkpt lat="44.5401" lon="1.09422">
        <ele>211</ele>
        <time>2012-09-16T07:10:29Z</time>
      </trkpt>
      <trkpt lat="44.54029" lon="1.0939">
        <ele>210</ele>
        <time>2012-09-16T07:10:34Z</time>
      </trkpt>
      <trkpt lat="44.54042" lon="1.09358">
        <ele>210</ele>
        <time>2012-09-16T07:10:39Z</time>
      </trkpt>
      <trkpt lat="44.54057" lon="1.09328">
        <ele>210</ele>
        <time>2012-09-16T07:10:44Z</time>
      </trkpt>
      <trkpt lat="44.54075" lon="1.0929">
        <ele>210</ele>
        <time>2012-09-16T07:10:50Z</time>
      </trkpt>
      <trkpt lat="44.54079" lon="1.09256">
        <ele>210</ele>
        <time>2012-09-16T07:10:55Z</time>
      </trkpt>
      <trkpt lat="44.54082" lon="1.09227">
        <ele>210</ele>
        <time>2012-09-16T07:11:00Z</time>
      </trkpt>
      <trkpt lat="44.54083" lon="1.09202">
        <ele>213</ele>
        <time>2012-09-16T07:11:05Z</time>
      </trkpt>
      <trkpt lat="44.54082" lon="1.09184">
        <ele>213</ele>
        <time>2012-09-16T07:11:10Z</time>
      </trkpt>
      <trkpt lat="44.54084" lon="1.09159">
        <ele>213</ele>
        <time>2012-09-16T07:11:15Z</time>
      </trkpt>
      <trkpt lat="44.5409" lon="1.09131">
        <ele>213</ele>
        <time>2012-09-16T07:11:20Z</time>
      </trkpt>
      <trkpt lat="44.541" lon="1.09092">
        <ele>213</ele>
        <time>2012-09-16T07:11:25Z</time>
      </trkpt>
      <trkpt lat="44.54111" lon="1.09045">
        <ele>213</ele>
        <time>2012-09-16T07:11:30Z</time>
      </trkpt>
      <trkpt lat="44.54119" lon="1.09013">
        <ele>213</ele>
        <time>2012-09-16T07:11:35Z</time>
      </trkpt>
      <trkpt lat="44.54119" lon="1.08977">
        <ele>213</ele>
        <time>2012-09-16T07:11:41Z</time>
      </trkpt>
      <trkpt lat="44.54117" lon="1.08938">
        <ele>213</ele>
        <time>2012-09-16T07:11:46Z</time>
      </trkpt>
      <trkpt lat="44.54117" lon="1.08902">
        <ele>212</ele>
        <time>2012-09-16T07:11:51Z</time>
      </trkpt>
      <trkpt lat="44.5412" lon="1.08889">
        <ele>210</ele>
        <time>2012-09-16T07:11:56Z</time>
      </trkpt>
      <trkpt lat="44.54124" lon="1.08883">
        <ele>209</ele>
        <time>2012-09-16T07:12:01Z</time>
      </trkpt>
      <trkpt lat="44.54128" lon="1.08882">
        <ele>209</ele>
        <time>2012-09-16T07:12:07Z</time>
      </trkpt>
      <trkpt lat="44.54146" lon="1.08879">
        <ele>207</ele>
        <time>2012-09-16T07:12:12Z</time>
      </trkpt>
      <trkpt lat="44.5417" lon="1.08868">
        <ele>203</ele>
        <time>2012-09-16T07:12:17Z</time>
      </trkpt>
      <trkpt lat="44.54197" lon="1.08859">
        <ele>200</ele>
        <time>2012-09-16T07:12:22Z</time>
      </trkpt>
      <trkpt lat="44.54227" lon="1.08843">
        <ele>199</ele>
        <time>2012-09-16T07:12:27Z</time>
      </trkpt>
      <trkpt lat="44.54257" lon="1.08822">
        <ele>196</ele>
        <time>2012-09-16T07:12:32Z</time>
      </trkpt>
      <trkpt lat="44.54272" lon="1.08801">
        <ele>196</ele>
        <time>2012-09-16T07:12:38Z</time>
      </trkpt>
      <trkpt lat="44.54258" lon="1.08762">
        <ele>195</ele>
        <time>2012-09-16T07:12:43Z</time>
      </trkpt>
      <trkpt lat="44.54243" lon="1.08716">
        <ele>194</ele>
        <time>2012-09-16T07:12:48Z</time>
      </trkpt>
      <trkpt lat="44.54235" lon="1.08676">
        <ele>193</ele>
        <time>2012-09-16T07:12:53Z</time>
      </trkpt>
      <trkpt lat="44.54233" lon="1.08645">
        <ele>193</ele>
        <time>2012-09-16T07:12:59Z</time>
      </trkpt>
      <trkpt lat="44.5423" lon="1.08623">
        <ele>196</ele>
        <time>2012-09-16T07:13:04Z</time>
      </trkpt>
      <trkpt lat="44.54229" lon="1.08608">
        <ele>200</ele>
        <time>2012-09-16T07:13:09Z</time>
      </trkpt>
      <trkpt lat="44.54224" lon="1.08591">
        <ele>203</ele>
        <time>2012-09-16T07:13:14Z</time>
      </trkpt>
      <trkpt lat="44.54218" lon="1.08574">
        <ele>204</ele>
        <time>2012-09-16T07:13:19Z</time>
      </trkpt>
      <trkpt lat="44.54213" lon="1.08557">
        <ele>204</ele>
        <time>2012-09-16T07:13:24Z</time>
      </trkpt>
      <trkpt lat="44.54206" lon="1.08539">
        <ele>204</ele>
        <time>2012-09-16T07:13:29Z</time>
      </trkpt>
      <trkpt lat="44.54197" lon="1.08509">
        <ele>205</ele>
        <time>2012-09-16T07:13:34Z</time>
      </trkpt>
      <trkpt lat="44.54187" lon="1.08457">
        <ele>205</ele>
        <time>2012-09-16T07:13:40Z</time>
      </trkpt>
      <trkpt lat="44.54176" lon="1.08411">
        <ele>205</ele>
        <time>2012-09-16T07:13:45Z</time>
      </trkpt>
      <trkpt lat="44.54166" lon="1.0837">
        <ele>205</ele>
        <time>2012-09-16T07:13:50Z</time>
      </trkpt>
      <trkpt lat="44.54157" lon="1.0836">
        <ele>203</ele>
        <time>2012-09-16T07:13:55Z</time>
      </trkpt>
      <trkpt lat="44.54146" lon="1.08339">
        <ele>203</ele>
        <time>2012-09-16T07:14:00Z</time>
      </trkpt>
      <trkpt lat="44.54137" lon="1.08318">
        <ele>201</ele>
        <time>2012-09-16T07:14:05Z</time>
      </trkpt>
      <trkpt lat="44.54126" lon="1.08291">
        <ele>198</ele>
        <time>2012-09-16T07:14:11Z</time>
      </trkpt>
      <trkpt lat="44.54116" lon="1.0827">
        <ele>198</ele>
        <time>2012-09-16T07:14:16Z</time>
      </trkpt>
      <trkpt lat="44.54105" lon="1.08247">
        <ele>198</ele>
        <time>2012-09-16T07:14:21Z</time>
      </trkpt>
      <trkpt lat="44.5411" lon="1.08214">
        <ele>198</ele>
        <time>2012-09-16T07:14:27Z</time>
      </trkpt>
      <trkpt lat="44.54123" lon="1.08192">
        <ele>198</ele>
        <time>2012-09-16T07:14:32Z</time>
      </trkpt>
      <trkpt lat="44.54132" lon="1.08163">
        <ele>198</ele>
        <time>2012-09-16T07:14:37Z</time>
      </trkpt>
      <trkpt lat="44.54125" lon="1.08126">
        <ele>198</ele>
        <time>2012-09-16T07:14:42Z</time>
      </trkpt>
      <trkpt lat="44.54114" lon="1.08085">
        <ele>195</ele>
        <time>2012-09-16T07:14:47Z</time>
      </trkpt>
      <trkpt lat="44.5411" lon="1.08042">
        <ele>191</ele>
        <time>2012-09-16T07:14:52Z</time>
      </trkpt>
      <trkpt lat="44.5411" lon="1.07995">
        <ele>191</ele>
        <time>2012-09-16T07:14:58Z</time>
      </trkpt>
      <trkpt lat="44.54107" lon="1.07965">
        <ele>191</ele>
        <time>2012-09-16T07:15:03Z</time>
      </trkpt>
      <trkpt lat="44.54111" lon="1.07945">
        <ele>191</ele>
        <time>2012-09-16T07:15:08Z</time>
      </trkpt>
      <trkpt lat="44.54123" lon="1.07944">
        <ele>191</ele>
        <time>2012-09-16T07:15:13Z</time>
      </trkpt>
      <trkpt lat="44.54135" lon="1.07943">
        <ele>191</ele>
        <time>2012-09-16T07:15:18Z</time>
      </trkpt>
      <trkpt lat="44.5415" lon="1.07945">
        <ele>194</ele>
        <time>2012-09-16T07:15:23Z</time>
      </trkpt>
      <trkpt lat="44.54159" lon="1.0794">
        <ele>196</ele>
        <time>2012-09-16T07:15:28Z</time>
      </trkpt>
      <trkpt lat="44.54164" lon="1.07926">
        <ele>197</ele>
        <time>2012-09-16T07:15:33Z</time>
      </trkpt>
      <trkpt lat="44.54166" lon="1.07914">
        <ele>198</ele>
        <time>2012-09-16T07:15:38Z</time>
      </trkpt>
      <trkpt lat="44.54166" lon="1.07898">
        <ele>201</ele>
        <time>2012-09-16T07:15:43Z</time>
      </trkpt>
      <trkpt lat="44.54168" lon="1.07882">
        <ele>205</ele>
        <time>2012-09-16T07:15:48Z</time>
      </trkpt>
      <trkpt lat="44.54173" lon="1.07869">
        <ele>205</ele>
        <time>2012-09-16T07:15:53Z</time>
      </trkpt>
      <trkpt lat="44.54177" lon="1.07859">
        <ele>207</ele>
        <time>2012-09-16T07:15:58Z</time>
      </trkpt>
      <trkpt lat="44.54187" lon="1.07838">
        <ele>207</ele>
        <time>2012-09-16T07:16:04Z</time>
      </trkpt>
      <trkpt lat="44.54198" lon="1.0782">
        <ele>206</ele>
        <time>2012-09-16T07:16:09Z</time>
      </trkpt>
      <trkpt lat="44.54209" lon="1.07794">
        <ele>201</ele>
        <time>2012-09-16T07:16:14Z</time>
      </trkpt>
      <trkpt lat="44.54216" lon="1.07767">
        <ele>199</ele>
        <time>2012-09-16T07:16:19Z</time>
      </trkpt>
      <trkpt lat="44.54216" lon="1.07734">
        <ele>196</ele>
        <time>2012-09-16T07:16:24Z</time>
      </trkpt>
      <trkpt lat="44.54213" lon="1.07705">
        <ele>193</ele>
        <time>2012-09-16T07:16:29Z</time>
      </trkpt>
      <trkpt lat="44.5421" lon="1.07681">
        <ele>191</ele>
        <time>2012-09-16T07:16:34Z</time>
      </trkpt>
      <trkpt lat="44.54207" lon="1.07654">
        <ele>186</ele>
        <time>2012-09-16T07:16:39Z</time>
      </trkpt>
      <trkpt lat="44.54202" lon="1.07618">
        <ele>184</ele>
        <time>2012-09-16T07:16:44Z</time>
      </trkpt>
      <trkpt lat="44.542" lon="1.07573">
        <ele>180</ele>
        <time>2012-09-16T07:16:49Z</time>
      </trkpt>
      <trkpt lat="44.54192" lon="1.07533">
        <ele>175</ele>
        <time>2012-09-16T07:16:54Z</time>
      </trkpt>
      <trkpt lat="44.54184" lon="1.07504">
        <ele>175</ele>
        <time>2012-09-16T07:16:59Z</time>
      </trkpt>
      <trkpt lat="44.54193" lon="1.07474">
        <ele>174</ele>
        <time>2012-09-16T07:17:05Z</time>
      </trkpt>
      <trkpt lat="44.54202" lon="1.07456">
        <ele>169</ele>
        <time>2012-09-16T07:17:10Z</time>
      </trkpt>
      <trkpt lat="44.5421" lon="1.07438">
        <ele>168</ele>
        <time>2012-09-16T07:17:15Z</time>
      </trkpt>
      <trkpt lat="44.54217" lon="1.07425">
        <ele>163</ele>
        <time>2012-09-16T07:17:20Z</time>
      </trkpt>
      <trkpt lat="44.54224" lon="1.07411">
        <ele>159</ele>
        <time>2012-09-16T07:17:25Z</time>
      </trkpt>
      <trkpt lat="44.54232" lon="1.07393">
        <ele>159</ele>
        <time>2012-09-16T07:17:30Z</time>
      </trkpt>
      <trkpt lat="44.54224" lon="1.07385">
        <ele>162</ele>
        <time>2012-09-16T07:17:35Z</time>
      </trkpt>
      <trkpt lat="44.54212" lon="1.07372">
        <ele>167</ele>
        <time>2012-09-16T07:17:40Z</time>
      </trkpt>
      <trkpt lat="44.54189" lon="1.07361">
        <ele>173</ele>
        <time>2012-09-16T07:17:46Z</time>
      </trkpt>
      <trkpt lat="44.54169" lon="1.07344">
        <ele>179</ele>
        <time>2012-09-16T07:17:52Z</time>
      </trkpt>
      <trkpt lat="44.54155" lon="1.07326">
        <ele>179</ele>
        <time>2012-09-16T07:17:57Z</time>
      </trkpt>
      <trkpt lat="44.5414" lon="1.07311">
        <ele>179</ele>
        <time>2012-09-16T07:18:02Z</time>
      </trkpt>
      <trkpt lat="44.54122" lon="1.07293">
        <ele>180</ele>
        <time>2012-09-16T07:18:07Z</time>
      </trkpt>
      <trkpt lat="44.54106" lon="1.07278">
        <ele>180</ele>
        <time>2012-09-16T07:18:12Z</time>
      </trkpt>
      <trkpt lat="44.54086" lon="1.07263">
        <ele>180</ele>
        <time>2012-09-16T07:18:18Z</time>
      </trkpt>
      <trkpt lat="44.5407" lon="1.07264">
        <ele>180</ele>
        <time>2012-09-16T07:18:23Z</time>
      </trkpt>
      <trkpt lat="44.54056" lon="1.07272">
        <ele>180</ele>
        <time>2012-09-16T07:18:28Z</time>
      </trkpt>
      <trkpt lat="44.54051" lon="1.07273">
        <ele>180</ele>
        <time>2012-09-16T07:18:57Z</time>
      </trkpt>
      <trkpt lat="44.54052" lon="1.07274">
        <ele>180</ele>
        <time>2012-09-16T07:19:04Z</time>
      </trkpt>
      <trkpt lat="44.54053" lon="1.07274">
        <ele>183</ele>
        <time>2012-09-16T07:19:14Z</time>
      </trkpt>
      <trkpt lat="44.54054" lon="1.07274">
        <ele>184</ele>
        <time>2012-09-16T07:19:24Z</time>
      </trkpt>
      <trkpt lat="44.54055" lon="1.07275">
        <ele>186</ele>
        <time>2012-09-16T07:19:39Z</time>
      </trkpt>
      <trkpt lat="44.54057" lon="1.07276">
        <ele>189</ele>
        <time>2012-09-16T07:19:53Z</time>
      </trkpt>
      <trkpt lat="44.54058" lon="1.07277">
        <ele>192</ele>
        <time>2012-09-16T07:20:18Z</time>
      </trkpt>
      <trkpt lat="44.54059" lon="1.07279">
        <ele>196</ele>
        <time>2012-09-16T07:20:49Z</time>
      </trkpt>
      <trkpt lat="44.5406" lon="1.0728">
        <ele>199</ele>
        <time>2012-09-16T07:21:54Z</time>
      </trkpt>
      <trkpt lat="44.54059" lon="1.07281">
        <ele>201</ele>
        <time>2012-09-16T07:23:32Z</time>
      </trkpt>
      <trkpt lat="44.5406" lon="1.07281">
        <ele>202</ele>
        <time>2012-09-16T07:24:00Z</time>
      </trkpt>
      <trkpt lat="44.5406" lon="1.07278">
        <ele>202</ele>
        <time>2012-09-16T07:24:13Z</time>
      </trkpt>
      <trkpt lat="44.54058" lon="1.07276">
        <ele>195</ele>
        <time>2012-09-16T07:24:26Z</time>
      </trkpt>
      <trkpt lat="44.5406" lon="1.07275">
        <ele>192</ele>
        <time>2012-09-16T07:24:32Z</time>
      </trkpt>
      <trkpt lat="44.54066" lon="1.07284">
        <ele>190</ele>
        <time>2012-09-16T07:24:38Z</time>
      </trkpt>
      <trkpt lat="44.54067" lon="1.073">
        <ele>190</ele>
        <time>2012-09-16T07:24:43Z</time>
      </trkpt>
      <trkpt lat="44.54072" lon="1.07312">
        <ele>190</ele>
        <time>2012-09-16T07:24:48Z</time>
      </trkpt>
      <trkpt lat="44.54081" lon="1.0732">
        <ele>190</ele>
        <time>2012-09-16T07:24:53Z</time>
      </trkpt>
      <trkpt lat="44.54092" lon="1.07326">
        <ele>190</ele>
        <time>2012-09-16T07:24:58Z</time>
      </trkpt>
      <trkpt lat="44.54104" lon="1.07337">
        <ele>190</ele>
        <time>2012-09-16T07:25:03Z</time>
      </trkpt>
      <trkpt lat="44.54116" lon="1.07352">
        <ele>190</ele>
        <time>2012-09-16T07:25:08Z</time>
      </trkpt>
      <trkpt lat="44.54131" lon="1.07367">
        <ele>190</ele>
        <time>2012-09-16T07:25:13Z</time>
      </trkpt>
      <trkpt lat="44.54144" lon="1.07381">
        <ele>190</ele>
        <time>2012-09-16T07:25:18Z</time>
      </trkpt>
      <trkpt lat="44.54159" lon="1.07392">
        <ele>190</ele>
        <time>2012-09-16T07:25:23Z</time>
      </trkpt>
      <trkpt lat="44.54173" lon="1.07406">
        <ele>190</ele>
        <time>2012-09-16T07:25:28Z</time>
      </trkpt>
      <trkpt lat="44.54188" lon="1.0742">
        <ele>190</ele>
        <time>2012-09-16T07:25:33Z</time>
      </trkpt>
      <trkpt lat="44.54198" lon="1.07439">
        <ele>189</ele>
        <time>2012-09-16T07:25:38Z</time>
      </trkpt>
      <trkpt lat="44.5419" lon="1.07464">
        <ele>184</ele>
        <time>2012-09-16T07:25:43Z</time>
      </trkpt>
      <trkpt lat="44.54181" lon="1.07487">
        <ele>181</ele>
        <time>2012-09-16T07:25:48Z</time>
      </trkpt>
      <trkpt lat="44.54188" lon="1.07516">
        <ele>177</ele>
        <time>2012-09-16T07:25:54Z</time>
      </trkpt>
      <trkpt lat="44.54199" lon="1.0754">
        <ele>172</ele>
        <time>2012-09-16T07:25:59Z</time>
      </trkpt>
      <trkpt lat="44.54213" lon="1.07538">
        <ele>171</ele>
        <time>2012-09-16T07:26:04Z</time>
      </trkpt>
      <trkpt lat="44.54231" lon="1.07529">
        <ele>169</ele>
        <time>2012-09-16T07:26:09Z</time>
      </trkpt>
      <trkpt lat="44.54247" lon="1.07546">
        <ele>167</ele>
        <time>2012-09-16T07:26:14Z</time>
      </trkpt>
      <trkpt lat="44.54267" lon="1.07562">
        <ele>167</ele>
        <time>2012-09-16T07:26:19Z</time>
      </trkpt>
      <trkpt lat="44.54295" lon="1.07565">
        <ele>166</ele>
        <time>2012-09-16T07:26:24Z</time>
      </trkpt>
      <trkpt lat="44.54345" lon="1.07569">
        <ele>164</ele>
        <time>2012-09-16T07:26:30Z</time>
      </trkpt>
      <trkpt lat="44.5437" lon="1.07601">
        <ele>164</ele>
        <time>2012-09-16T07:26:35Z</time>
      </trkpt>
      <trkpt lat="44.54394" lon="1.07639">
        <ele>162</ele>
        <time>2012-09-16T07:26:40Z</time>
      </trkpt>
      <trkpt lat="44.54418" lon="1.07668">
        <ele>159</ele>
        <time>2012-09-16T07:26:45Z</time>
      </trkpt>
      <trkpt lat="44.54438" lon="1.07702">
        <ele>155</ele>
        <time>2012-09-16T07:26:50Z</time>
      </trkpt>
      <trkpt lat="44.54464" lon="1.07747">
        <ele>150</ele>
        <time>2012-09-16T07:26:56Z</time>
      </trkpt>
      <trkpt lat="44.54482" lon="1.07788">
        <ele>146</ele>
        <time>2012-09-16T07:27:01Z</time>
      </trkpt>
      <trkpt lat="44.545" lon="1.07829">
        <ele>143</ele>
        <time>2012-09-16T07:27:06Z</time>
      </trkpt>
      <trkpt lat="44.54516" lon="1.0787">
        <ele>140</ele>
        <time>2012-09-16T07:27:11Z</time>
      </trkpt>
      <trkpt lat="44.54534" lon="1.07897">
        <ele>135</ele>
        <time>2012-09-16T07:27:16Z</time>
      </trkpt>
      <trkpt lat="44.54549" lon="1.07923">
        <ele>131</ele>
        <time>2012-09-16T07:27:21Z</time>
      </trkpt>
      <trkpt lat="44.54568" lon="1.07957">
        <ele>128</ele>
        <time>2012-09-16T07:27:27Z</time>
      </trkpt>
      <trkpt lat="44.54581" lon="1.07967">
        <ele>128</ele>
        <time>2012-09-16T07:27:32Z</time>
      </trkpt>
      <trkpt lat="44.54596" lon="1.07956">
        <ele>128</ele>
        <time>2012-09-16T07:27:37Z</time>
      </trkpt>
      <trkpt lat="44.54617" lon="1.0796">
        <ele>131</ele>
        <time>2012-09-16T07:27:42Z</time>
      </trkpt>
      <trkpt lat="44.54633" lon="1.07966">
        <ele>131</ele>
        <time>2012-09-16T07:27:47Z</time>
      </trkpt>
      <trkpt lat="44.5464" lon="1.07959">
        <ele>131</ele>
        <time>2012-09-16T07:27:52Z</time>
      </trkpt>
      <trkpt lat="44.54643" lon="1.07958">
        <ele>128</ele>
        <time>2012-09-16T07:27:57Z</time>
      </trkpt>
      <trkpt lat="44.54643" lon="1.0796">
        <ele>126</ele>
        <time>2012-09-16T07:28:04Z</time>
      </trkpt>
      <trkpt lat="44.54645" lon="1.07959">
        <ele>125</ele>
        <time>2012-09-16T07:28:15Z</time>
      </trkpt>
      <trkpt lat="44.54665" lon="1.07947">
        <ele>123</ele>
        <time>2012-09-16T07:28:20Z</time>
      </trkpt>
      <trkpt lat="44.54687" lon="1.0794">
        <ele>122</ele>
        <time>2012-09-16T07:28:25Z</time>
      </trkpt>
      <trkpt lat="44.54709" lon="1.0793">
        <ele>118</ele>
        <time>2012-09-16T07:28:30Z</time>
      </trkpt>
      <trkpt lat="44.54736" lon="1.0792">
        <ele>115</ele>
        <time>2012-09-16T07:28:36Z</time>
      </trkpt>
      <trkpt lat="44.54759" lon="1.07911">
        <ele>114</ele>
        <time>2012-09-16T07:28:41Z</time>
      </trkpt>
      <trkpt lat="44.54782" lon="1.07899">
        <ele>111</ele>
        <time>2012-09-16T07:28:46Z</time>
      </trkpt>
      <trkpt lat="44.54805" lon="1.0789">
        <ele>111</ele>
        <time>2012-09-16T07:28:51Z</time>
      </trkpt>
      <trkpt lat="44.54822" lon="1.07875">
        <ele>111</ele>
        <time>2012-09-16T07:28:57Z</time>
      </trkpt>
      <trkpt lat="44.54812" lon="1.07851">
        <ele>111</ele>
        <time>2012-09-16T07:29:02Z</time>
      </trkpt>
      <trkpt lat="44.54797" lon="1.07824">
        <ele>111</ele>
        <time>2012-09-16T07:29:07Z</time>
      </trkpt>
      <trkpt lat="44.54777" lon="1.07796">
        <ele>112</ele>
        <time>2012-09-16T07:29:12Z</time>
      </trkpt>
      <trkpt lat="44.54752" lon="1.07774">
        <ele>116</ele>
        <time>2012-09-16T07:29:17Z</time>
      </trkpt>
      <trkpt lat="44.54722" lon="1.07746">
        <ele>121</ele>
        <time>2012-09-16T07:29:23Z</time>
      </trkpt>
      <trkpt lat="44.54699" lon="1.07721">
        <ele>123</ele>
        <time>2012-09-16T07:29:28Z</time>
      </trkpt>
      <trkpt lat="44.54675" lon="1.07697">
        <ele>126</ele>
        <time>2012-09-16T07:29:33Z</time>
      </trkpt>
      <trkpt lat="44.54657" lon="1.07663">
        <ele>126</ele>
        <time>2012-09-16T07:29:39Z</time>
      </trkpt>
      <trkpt lat="44.54643" lon="1.07633">
        <ele>126</ele>
        <time>2012-09-16T07:29:44Z</time>
      </trkpt>
      <trkpt lat="44.54632" lon="1.07599">
        <ele>126</ele>
        <time>2012-09-16T07:29:49Z</time>
      </trkpt>
      <trkpt lat="44.54618" lon="1.07564">
        <ele>126</ele>
        <time>2012-09-16T07:29:54Z</time>
      </trkpt>
      <trkpt lat="44.54608" lon="1.07524">
        <ele>126</ele>
        <time>2012-09-16T07:29:59Z</time>
      </trkpt>
      <trkpt lat="44.54608" lon="1.07485">
        <ele>126</ele>
        <time>2012-09-16T07:30:04Z</time>
      </trkpt>
      <trkpt lat="44.54608" lon="1.0745">
        <ele>126</ele>
        <time>2012-09-16T07:30:09Z</time>
      </trkpt>
      <trkpt lat="44.5461" lon="1.07419">
        <ele>129</ele>
        <time>2012-09-16T07:30:14Z</time>
      </trkpt>
      <trkpt lat="44.54613" lon="1.07389">
        <ele>129</ele>
        <time>2012-09-16T07:30:19Z</time>
      </trkpt>
      <trkpt lat="44.54615" lon="1.07356">
        <ele>127</ele>
        <time>2012-09-16T07:30:24Z</time>
      </trkpt>
      <trkpt lat="44.54642" lon="1.07326">
        <ele>124</ele>
        <time>2012-09-16T07:30:30Z</time>
      </trkpt>
      <trkpt lat="44.54667" lon="1.07316">
        <ele>119</ele>
        <time>2012-09-16T07:30:35Z</time>
      </trkpt>
      <trkpt lat="44.54671" lon="1.07302">
        <ele>116</ele>
        <time>2012-09-16T07:30:40Z</time>
      </trkpt>
      <trkpt lat="44.5465" lon="1.07276">
        <ele>116</ele>
        <time>2012-09-16T07:30:45Z</time>
      </trkpt>
      <trkpt lat="44.54629" lon="1.07241">
        <ele>116</ele>
        <time>2012-09-16T07:30:50Z</time>
      </trkpt>
      <trkpt lat="44.54594" lon="1.07217">
        <ele>116</ele>
        <time>2012-09-16T07:30:55Z</time>
      </trkpt>
      <trkpt lat="44.54566" lon="1.07184">
        <ele>116</ele>
        <time>2012-09-16T07:31:00Z</time>
      </trkpt>
      <trkpt lat="44.54538" lon="1.07151">
        <ele>115</ele>
        <time>2012-09-16T07:31:05Z</time>
      </trkpt>
      <trkpt lat="44.54511" lon="1.07114">
        <ele>113</ele>
        <time>2012-09-16T07:31:10Z</time>
      </trkpt>
      <trkpt lat="44.54486" lon="1.07075">
        <ele>113</ele>
        <time>2012-09-16T07:31:15Z</time>
      </trkpt>
      <trkpt lat="44.54466" lon="1.07034">
        <ele>113</ele>
        <time>2012-09-16T07:31:20Z</time>
      </trkpt>
      <trkpt lat="44.54449" lon="1.06995">
        <ele>113</ele>
        <time>2012-09-16T07:31:25Z</time>
      </trkpt>
      <trkpt lat="44.54435" lon="1.06965">
        <ele>113</ele>
        <time>2012-09-16T07:31:30Z</time>
      </trkpt>
      <trkpt lat="44.54431" lon="1.0693">
        <ele>113</ele>
        <time>2012-09-16T07:31:35Z</time>
      </trkpt>
      <trkpt lat="44.54432" lon="1.06895">
        <ele>113</ele>
        <time>2012-09-16T07:31:40Z</time>
      </trkpt>
      <trkpt lat="44.54428" lon="1.06874">
        <ele>113</ele>
        <time>2012-09-16T07:31:45Z</time>
      </trkpt>
      <trkpt lat="44.54413" lon="1.06874">
        <ele>110</ele>
        <time>2012-09-16T07:31:50Z</time>
      </trkpt>
      <trkpt lat="44.54401" lon="1.06875">
        <ele>108</ele>
        <time>2012-09-16T07:31:55Z</time>
      </trkpt>
      <trkpt lat="44.5439" lon="1.06864">
        <ele>108</ele>
        <time>2012-09-16T07:32:01Z</time>
      </trkpt>
      <trkpt lat="44.54374" lon="1.06851">
        <ele>108</ele>
        <time>2012-09-16T07:32:06Z</time>
      </trkpt>
      <trkpt lat="44.54362" lon="1.06839">
        <ele>108</ele>
        <time>2012-09-16T07:32:11Z</time>
      </trkpt>
      <trkpt lat="44.54356" lon="1.06831">
        <ele>110</ele>
        <time>2012-09-16T07:32:16Z</time>
      </trkpt>
      <trkpt lat="44.54349" lon="1.06825">
        <ele>112</ele>
        <time>2012-09-16T07:32:21Z</time>
      </trkpt>
      <trkpt lat="44.5434" lon="1.0682">
        <ele>115</ele>
        <time>2012-09-16T07:32:26Z</time>
      </trkpt>
      <trkpt lat="44.5433" lon="1.06809">
        <ele>116</ele>
        <time>2012-09-16T07:32:32Z</time>
      </trkpt>
      <trkpt lat="44.54321" lon="1.06799">
        <ele>118</ele>
        <time>2012-09-16T07:32:37Z</time>
      </trkpt>
      <trkpt lat="44.54314" lon="1.06791">
        <ele>121</ele>
        <time>2012-09-16T07:32:42Z</time>
      </trkpt>
      <trkpt lat="44.54306" lon="1.06782">
        <ele>124</ele>
        <time>2012-09-16T07:32:47Z</time>
      </trkpt>
      <trkpt lat="44.54301" lon="1.06772">
        <ele>125</ele>
        <time>2012-09-16T07:32:52Z</time>
      </trkpt>
      <trkpt lat="44.54295" lon="1.06754">
        <ele>127</ele>
        <time>2012-09-16T07:32:57Z</time>
      </trkpt>
      <trkpt lat="44.54283" lon="1.06731">
        <ele>127</ele>
        <time>2012-09-16T07:33:02Z</time>
      </trkpt>
      <trkpt lat="44.54263" lon="1.06715">
        <ele>128</ele>
        <time>2012-09-16T07:33:07Z</time>
      </trkpt>
      <trkpt lat="44.54239" lon="1.06694">
        <ele>132</ele>
        <time>2012-09-16T07:33:12Z</time>
      </trkpt>
      <trkpt lat="44.54217" lon="1.06667">
        <ele>135</ele>
        <time>2012-09-16T07:33:17Z</time>
      </trkpt>
      <trkpt lat="44.54201" lon="1.06636">
        <ele>135</ele>
        <time>2012-09-16T07:33:22Z</time>
      </trkpt>
      <trkpt lat="44.54193" lon="1.06614">
        <ele>135</ele>
        <time>2012-09-16T07:33:27Z</time>
      </trkpt>
      <trkpt lat="44.5418" lon="1.06599">
        <ele>130</ele>
        <time>2012-09-16T07:33:32Z</time>
      </trkpt>
      <trkpt lat="44.54169" lon="1.06585">
        <ele>126</ele>
        <time>2012-09-16T07:33:37Z</time>
      </trkpt>
      <trkpt lat="44.5416" lon="1.06575">
        <ele>124</ele>
        <time>2012-09-16T07:33:42Z</time>
      </trkpt>
      <trkpt lat="44.54153" lon="1.06565">
        <ele>120</ele>
        <time>2012-09-16T07:33:47Z</time>
      </trkpt>
      <trkpt lat="44.54137" lon="1.06554">
        <ele>115</ele>
        <time>2012-09-16T07:33:52Z</time>
      </trkpt>
      <trkpt lat="44.5411" lon="1.06548">
        <ele>112</ele>
        <time>2012-09-16T07:33:58Z</time>
      </trkpt>
      <trkpt lat="44.54089" lon="1.06531">
        <ele>109</ele>
        <time>2012-09-16T07:34:03Z</time>
      </trkpt>
      <trkpt lat="44.54071" lon="1.06526">
        <ele>108</ele>
        <time>2012-09-16T07:34:08Z</time>
      </trkpt>
      <trkpt lat="44.54058" lon="1.06527">
        <ele>108</ele>
        <time>2012-09-16T07:34:13Z</time>
      </trkpt>
      <trkpt lat="44.54055" lon="1.06528">
        <ele>106</ele>
        <time>2012-09-16T07:34:28Z</time>
      </trkpt>
      <trkpt lat="44.54054" lon="1.06527">
        <ele>106</ele>
        <time>2012-09-16T07:34:39Z</time>
      </trkpt>
      <trkpt lat="44.54049" lon="1.0652">
        <ele>106</ele>
        <time>2012-09-16T07:34:44Z</time>
      </trkpt>
      <trkpt lat="44.54043" lon="1.065">
        <ele>106</ele>
        <time>2012-09-16T07:34:49Z</time>
      </trkpt>
      <trkpt lat="44.54037" lon="1.06471">
        <ele>106</ele>
        <time>2012-09-16T07:34:54Z</time>
      </trkpt>
      <trkpt lat="44.54029" lon="1.06441">
        <ele>106</ele>
        <time>2012-09-16T07:34:59Z</time>
      </trkpt>
      <trkpt lat="44.54018" lon="1.06414">
        <ele>106</ele>
        <time>2012-09-16T07:35:04Z</time>
      </trkpt>
      <trkpt lat="44.54006" lon="1.06386">
        <ele>106</ele>
        <time>2012-09-16T07:35:09Z</time>
      </trkpt>
      <trkpt lat="44.53989" lon="1.06354">
        <ele>106</ele>
        <time>2012-09-16T07:35:15Z</time>
      </trkpt>
      <trkpt lat="44.53971" lon="1.06326">
        <ele>106</ele>
        <time>2012-09-16T07:35:20Z</time>
      </trkpt>
      <trkpt lat="44.53952" lon="1.06294">
        <ele>106</ele>
        <time>2012-09-16T07:35:25Z</time>
      </trkpt>
      <trkpt lat="44.53933" lon="1.06261">
        <ele>106</ele>
        <time>2012-09-16T07:35:30Z</time>
      </trkpt>
      <trkpt lat="44.53913" lon="1.06228">
        <ele>106</ele>
        <time>2012-09-16T07:35:35Z</time>
      </trkpt>
      <trkpt lat="44.53894" lon="1.06195">
        <ele>106</ele>
        <time>2012-09-16T07:35:40Z</time>
      </trkpt>
      <trkpt lat="44.53877" lon="1.06167">
        <ele>106</ele>
        <time>2012-09-16T07:35:45Z</time>
      </trkpt>
      <trkpt lat="44.53882" lon="1.06138">
        <ele>106</ele>
        <time>2012-09-16T07:35:50Z</time>
      </trkpt>
      <trkpt lat="44.53901" lon="1.06112">
        <ele>106</ele>
        <time>2012-09-16T07:35:55Z</time>
      </trkpt>
      <trkpt lat="44.53894" lon="1.06078">
        <ele>106</ele>
        <time>2012-09-16T07:36:01Z</time>
      </trkpt>
      <trkpt lat="44.53896" lon="1.06031">
        <ele>106</ele>
        <time>2012-09-16T07:36:07Z</time>
      </trkpt>
      <trkpt lat="44.53908" lon="1.05998">
        <ele>106</ele>
        <time>2012-09-16T07:36:12Z</time>
      </trkpt>
      <trkpt lat="44.53909" lon="1.05959">
        <ele>109</ele>
        <time>2012-09-16T07:36:17Z</time>
      </trkpt>
      <trkpt lat="44.53897" lon="1.05914">
        <ele>111</ele>
        <time>2012-09-16T07:36:22Z</time>
      </trkpt>
      <trkpt lat="44.53891" lon="1.05866">
        <ele>112</ele>
        <time>2012-09-16T07:36:27Z</time>
      </trkpt>
      <trkpt lat="44.53886" lon="1.05819">
        <ele>112</ele>
        <time>2012-09-16T07:36:32Z</time>
      </trkpt>
      <trkpt lat="44.53881" lon="1.05773">
        <ele>112</ele>
        <time>2012-09-16T07:36:37Z</time>
      </trkpt>
      <trkpt lat="44.53877" lon="1.05729">
        <ele>112</ele>
        <time>2012-09-16T07:36:42Z</time>
      </trkpt>
      <trkpt lat="44.53867" lon="1.05695">
        <ele>112</ele>
        <time>2012-09-16T07:36:47Z</time>
      </trkpt>
      <trkpt lat="44.53852" lon="1.05649">
        <ele>112</ele>
        <time>2012-09-16T07:36:53Z</time>
      </trkpt>
      <trkpt lat="44.53838" lon="1.05611">
        <ele>112</ele>
        <time>2012-09-16T07:36:58Z</time>
      </trkpt>
      <trkpt lat="44.53827" lon="1.0557">
        <ele>112</ele>
        <time>2012-09-16T07:37:03Z</time>
      </trkpt>
      <trkpt lat="44.53823" lon="1.05531">
        <ele>112</ele>
        <time>2012-09-16T07:37:08Z</time>
      </trkpt>
      <trkpt lat="44.53821" lon="1.05497">
        <ele>110</ele>
        <time>2012-09-16T07:37:13Z</time>
      </trkpt>
      <trkpt lat="44.53808" lon="1.05458">
        <ele>110</ele>
        <time>2012-09-16T07:37:18Z</time>
      </trkpt>
      <trkpt lat="44.53791" lon="1.05409">
        <ele>110</ele>
        <time>2012-09-16T07:37:24Z</time>
      </trkpt>
      <trkpt lat="44.53776" lon="1.05375">
        <ele>110</ele>
        <time>2012-09-16T07:37:29Z</time>
      </trkpt>
      <trkpt lat="44.53758" lon="1.05347">
        <ele>110</ele>
        <time>2012-09-16T07:37:34Z</time>
      </trkpt>
      <trkpt lat="44.5374" lon="1.05323">
        <ele>109</ele>
        <time>2012-09-16T07:37:39Z</time>
      </trkpt>
      <trkpt lat="44.53719" lon="1.053">
        <ele>107</ele>
        <time>2012-09-16T07:37:44Z</time>
      </trkpt>
      <trkpt lat="44.53696" lon="1.05276">
        <ele>107</ele>
        <time>2012-09-16T07:37:49Z</time>
      </trkpt>
      <trkpt lat="44.53672" lon="1.0525">
        <ele>107</ele>
        <time>2012-09-16T07:37:54Z</time>
      </trkpt>
      <trkpt lat="44.53652" lon="1.05217">
        <ele>107</ele>
        <time>2012-09-16T07:37:59Z</time>
      </trkpt>
      <trkpt lat="44.53639" lon="1.0518">
        <ele>107</ele>
        <time>2012-09-16T07:38:04Z</time>
      </trkpt>
      <trkpt lat="44.53635" lon="1.05147">
        <ele>107</ele>
        <time>2012-09-16T07:38:09Z</time>
      </trkpt>
      <trkpt lat="44.53631" lon="1.0511">
        <ele>106</ele>
        <time>2012-09-16T07:38:14Z</time>
      </trkpt>
      <trkpt lat="44.53612" lon="1.05071">
        <ele>104</ele>
        <time>2012-09-16T07:38:20Z</time>
      </trkpt>
      <trkpt lat="44.53595" lon="1.05032">
        <ele>104</ele>
        <time>2012-09-16T07:38:25Z</time>
      </trkpt>
      <trkpt lat="44.53586" lon="1.04991">
        <ele>104</ele>
        <time>2012-09-16T07:38:30Z</time>
      </trkpt>
      <trkpt lat="44.53584" lon="1.04953">
        <ele>105</ele>
        <time>2012-09-16T07:38:35Z</time>
      </trkpt>
      <trkpt lat="44.53582" lon="1.0492">
        <ele>107</ele>
        <time>2012-09-16T07:38:40Z</time>
      </trkpt>
      <trkpt lat="44.53594" lon="1.04881">
        <ele>111</ele>
        <time>2012-09-16T07:38:45Z</time>
      </trkpt>
      <trkpt lat="44.53598" lon="1.04841">
        <ele>111</ele>
        <time>2012-09-16T07:38:50Z</time>
      </trkpt>
      <trkpt lat="44.53589" lon="1.04804">
        <ele>112</ele>
        <time>2012-09-16T07:38:55Z</time>
      </trkpt>
      <trkpt lat="44.53585" lon="1.0477">
        <ele>116</ele>
        <time>2012-09-16T07:39:00Z</time>
      </trkpt>
      <trkpt lat="44.53576" lon="1.04731">
        <ele>118</ele>
        <time>2012-09-16T07:39:05Z</time>
      </trkpt>
      <trkpt lat="44.53561" lon="1.04696">
        <ele>119</ele>
        <time>2012-09-16T07:39:11Z</time>
      </trkpt>
      <trkpt lat="44.53564" lon="1.04682">
        <ele>123</ele>
        <time>2012-09-16T07:39:16Z</time>
      </trkpt>
      <trkpt lat="44.53577" lon="1.04668">
        <ele>128</ele>
        <time>2012-09-16T07:39:21Z</time>
      </trkpt>
      <trkpt lat="44.53593" lon="1.04647">
        <ele>128</ele>
        <time>2012-09-16T07:39:27Z</time>
      </trkpt>
      <trkpt lat="44.53605" lon="1.04634">
        <ele>128</ele>
        <time>2012-09-16T07:39:32Z</time>
      </trkpt>
      <trkpt lat="44.53623" lon="1.04612">
        <ele>131</ele>
        <time>2012-09-16T07:39:38Z</time>
      </trkpt>
      <trkpt lat="44.53643" lon="1.04594">
        <ele>132</ele>
        <time>2012-09-16T07:39:43Z</time>
      </trkpt>
      <trkpt lat="44.53654" lon="1.04579">
        <ele>134</ele>
        <time>2012-09-16T07:39:48Z</time>
      </trkpt>
      <trkpt lat="44.5366" lon="1.04556">
        <ele>138</ele>
        <time>2012-09-16T07:39:53Z</time>
      </trkpt>
      <trkpt lat="44.53666" lon="1.04526">
        <ele>139</ele>
        <time>2012-09-16T07:39:58Z</time>
      </trkpt>
      <trkpt lat="44.53669" lon="1.045">
        <ele>139</ele>
        <time>2012-09-16T07:40:03Z</time>
      </trkpt>
      <trkpt lat="44.53672" lon="1.04471">
        <ele>139</ele>
        <time>2012-09-16T07:40:09Z</time>
      </trkpt>
      <trkpt lat="44.53675" lon="1.04449">
        <ele>139</ele>
        <time>2012-09-16T07:40:14Z</time>
      </trkpt>
      <trkpt lat="44.53678" lon="1.04427">
        <ele>139</ele>
        <time>2012-09-16T07:40:19Z</time>
      </trkpt>
      <trkpt lat="44.53682" lon="1.04403">
        <ele>139</ele>
        <time>2012-09-16T07:40:24Z</time>
      </trkpt>
      <trkpt lat="44.5369" lon="1.04382">
        <ele>138</ele>
        <time>2012-09-16T07:40:29Z</time>
      </trkpt>
      <trkpt lat="44.53695" lon="1.04364">
        <ele>136</ele>
        <time>2012-09-16T07:40:34Z</time>
      </trkpt>
      <trkpt lat="44.53695" lon="1.04345">
        <ele>136</ele>
        <time>2012-09-16T07:40:39Z</time>
      </trkpt>
      <trkpt lat="44.53696" lon="1.04323">
        <ele>136</ele>
        <time>2012-09-16T07:40:44Z</time>
      </trkpt>
      <trkpt lat="44.53695" lon="1.04304">
        <ele>136</ele>
        <time>2012-09-16T07:40:49Z</time>
      </trkpt>
      <trkpt lat="44.53702" lon="1.04285">
        <ele>140</ele>
        <time>2012-09-16T07:40:54Z</time>
      </trkpt>
      <trkpt lat="44.53711" lon="1.04267">
        <ele>143</ele>
        <time>2012-09-16T07:40:59Z</time>
      </trkpt>
      <trkpt lat="44.53722" lon="1.04247">
        <ele>146</ele>
        <time>2012-09-16T07:41:05Z</time>
      </trkpt>
      <trkpt lat="44.53733" lon="1.0423">
        <ele>150</ele>
        <time>2012-09-16T07:41:10Z</time>
      </trkpt>
      <trkpt lat="44.53743" lon="1.04217">
        <ele>151</ele>
        <time>2012-09-16T07:41:15Z</time>
      </trkpt>
      <trkpt lat="44.53755" lon="1.04201">
        <ele>151</ele>
        <time>2012-09-16T07:41:20Z</time>
      </trkpt>
      <trkpt lat="44.53765" lon="1.04191">
        <ele>151</ele>
        <time>2012-09-16T07:41:25Z</time>
      </trkpt>
      <trkpt lat="44.5378" lon="1.04174">
        <ele>154</ele>
        <time>2012-09-16T07:41:30Z</time>
      </trkpt>
      <trkpt lat="44.53794" lon="1.04159">
        <ele>154</ele>
        <time>2012-09-16T07:41:35Z</time>
      </trkpt>
      <trkpt lat="44.53811" lon="1.04142">
        <ele>153</ele>
        <time>2012-09-16T07:41:40Z</time>
      </trkpt>
      <trkpt lat="44.53826" lon="1.04128">
        <ele>150</ele>
        <time>2012-09-16T07:41:45Z</time>
      </trkpt>
      <trkpt lat="44.53838" lon="1.04117">
        <ele>152</ele>
        <time>2012-09-16T07:41:50Z</time>
      </trkpt>
      <trkpt lat="44.53855" lon="1.04114">
        <ele>156</ele>
        <time>2012-09-16T07:41:55Z</time>
      </trkpt>
      <trkpt lat="44.53873" lon="1.04112">
        <ele>156</ele>
        <time>2012-09-16T07:42:00Z</time>
      </trkpt>
      <trkpt lat="44.53892" lon="1.0411">
        <ele>155</ele>
        <time>2012-09-16T07:42:05Z</time>
      </trkpt>
      <trkpt lat="44.53912" lon="1.04108">
        <ele>154</ele>
        <time>2012-09-16T07:42:10Z</time>
      </trkpt>
      <trkpt lat="44.53931" lon="1.04105">
        <ele>153</ele>
        <time>2012-09-16T07:42:15Z</time>
      </trkpt>
      <trkpt lat="44.53949" lon="1.04102">
        <ele>152</ele>
        <time>2012-09-16T07:42:20Z</time>
      </trkpt>
      <trkpt lat="44.53972" lon="1.04098">
        <ele>148</ele>
        <time>2012-09-16T07:42:26Z</time>
      </trkpt>
      <trkpt lat="44.53989" lon="1.04094">
        <ele>148</ele>
        <time>2012-09-16T07:42:31Z</time>
      </trkpt>
      <trkpt lat="44.54005" lon="1.0409">
        <ele>148</ele>
        <time>2012-09-16T07:42:36Z</time>
      </trkpt>
      <trkpt lat="44.54023" lon="1.04093">
        <ele>149</ele>
        <time>2012-09-16T07:42:41Z</time>
      </trkpt>
      <trkpt lat="44.54041" lon="1.04091">
        <ele>152</ele>
        <time>2012-09-16T07:42:46Z</time>
      </trkpt>
      <trkpt lat="44.54064" lon="1.04096">
        <ele>157</ele>
        <time>2012-09-16T07:42:51Z</time>
      </trkpt>
      <trkpt lat="44.54084" lon="1.04098">
        <ele>161</ele>
        <time>2012-09-16T07:42:56Z</time>
      </trkpt>
      <trkpt lat="44.54106" lon="1.04102">
        <ele>161</ele>
        <time>2012-09-16T07:43:01Z</time>
      </trkpt>
      <trkpt lat="44.54131" lon="1.04105">
        <ele>161</ele>
        <time>2012-09-16T07:43:07Z</time>
      </trkpt>
      <trkpt lat="44.54152" lon="1.04108">
        <ele>161</ele>
        <time>2012-09-16T07:43:12Z</time>
      </trkpt>
      <trkpt lat="44.5417" lon="1.04111">
        <ele>164</ele>
        <time>2012-09-16T07:43:17Z</time>
      </trkpt>
      <trkpt lat="44.54193" lon="1.04116">
        <ele>165</ele>
        <time>2012-09-16T07:43:22Z</time>
      </trkpt>
      <trkpt lat="44.54214" lon="1.04125">
        <ele>165</ele>
        <time>2012-09-16T07:43:27Z</time>
      </trkpt>
      <trkpt lat="44.54234" lon="1.04128">
        <ele>166</ele>
        <time>2012-09-16T07:43:32Z</time>
      </trkpt>
      <trkpt lat="44.54256" lon="1.04133">
        <ele>169</ele>
        <time>2012-09-16T07:43:37Z</time>
      </trkpt>
      <trkpt lat="44.54277" lon="1.04144">
        <ele>172</ele>
        <time>2012-09-16T07:43:42Z</time>
      </trkpt>
      <trkpt lat="44.54299" lon="1.04153">
        <ele>172</ele>
        <time>2012-09-16T07:43:47Z</time>
      </trkpt>
      <trkpt lat="44.54318" lon="1.04165">
        <ele>172</ele>
        <time>2012-09-16T07:43:52Z</time>
      </trkpt>
      <trkpt lat="44.54336" lon="1.04175">
        <ele>172</ele>
        <time>2012-09-16T07:43:57Z</time>
      </trkpt>
      <trkpt lat="44.54357" lon="1.04187">
        <ele>172</ele>
        <time>2012-09-16T07:44:02Z</time>
      </trkpt>
      <trkpt lat="44.54377" lon="1.04202">
        <ele>169</ele>
        <time>2012-09-16T07:44:07Z</time>
      </trkpt>
      <trkpt lat="44.54398" lon="1.04208">
        <ele>169</ele>
        <time>2012-09-16T07:44:12Z</time>
      </trkpt>
      <trkpt lat="44.54423" lon="1.0421">
        <ele>168</ele>
        <time>2012-09-16T07:44:17Z</time>
      </trkpt>
      <trkpt lat="44.54443" lon="1.04209">
        <ele>168</ele>
        <time>2012-09-16T07:44:22Z</time>
      </trkpt>
      <trkpt lat="44.54466" lon="1.04194">
        <ele>168</ele>
        <time>2012-09-16T07:44:28Z</time>
      </trkpt>
      <trkpt lat="44.54485" lon="1.04176">
        <ele>168</ele>
        <time>2012-09-16T07:44:33Z</time>
      </trkpt>
      <trkpt lat="44.54507" lon="1.0415">
        <ele>168</ele>
        <time>2012-09-16T07:44:38Z</time>
      </trkpt>
      <trkpt lat="44.5453" lon="1.0413">
        <ele>168</ele>
        <time>2012-09-16T07:44:43Z</time>
      </trkpt>
      <trkpt lat="44.5455" lon="1.04118">
        <ele>168</ele>
        <time>2012-09-16T07:44:48Z</time>
      </trkpt>
      <trkpt lat="44.54566" lon="1.04118">
        <ele>168</ele>
        <time>2012-09-16T07:44:53Z</time>
      </trkpt>
      <trkpt lat="44.54583" lon="1.04117">
        <ele>171</ele>
        <time>2012-09-16T07:44:58Z</time>
      </trkpt>
      <trkpt lat="44.54597" lon="1.04106">
        <ele>176</ele>
        <time>2012-09-16T07:45:03Z</time>
      </trkpt>
      <trkpt lat="44.54612" lon="1.04089">
        <ele>179</ele>
        <time>2012-09-16T07:45:08Z</time>
      </trkpt>
      <trkpt lat="44.54626" lon="1.04074">
        <ele>182</ele>
        <time>2012-09-16T07:45:13Z</time>
      </trkpt>
      <trkpt lat="44.54643" lon="1.04054">
        <ele>182</ele>
        <time>2012-09-16T07:45:19Z</time>
      </trkpt>
      <trkpt lat="44.54657" lon="1.0404">
        <ele>182</ele>
        <time>2012-09-16T07:45:24Z</time>
      </trkpt>
      <trkpt lat="44.5467" lon="1.04024">
        <ele>184</ele>
        <time>2012-09-16T07:45:29Z</time>
      </trkpt>
      <trkpt lat="44.54679" lon="1.04007">
        <ele>186</ele>
        <time>2012-09-16T07:45:34Z</time>
      </trkpt>
      <trkpt lat="44.54689" lon="1.03986">
        <ele>186</ele>
        <time>2012-09-16T07:45:39Z</time>
      </trkpt>
      <trkpt lat="44.54697" lon="1.03966">
        <ele>186</ele>
        <time>2012-09-16T07:45:44Z</time>
      </trkpt>
      <trkpt lat="44.54704" lon="1.03948">
        <ele>186</ele>
        <time>2012-09-16T07:45:49Z</time>
      </trkpt>
      <trkpt lat="44.54713" lon="1.03926">
        <ele>189</ele>
        <time>2012-09-16T07:45:55Z</time>
      </trkpt>
      <trkpt lat="44.5472" lon="1.03902">
        <ele>194</ele>
        <time>2012-09-16T07:46:01Z</time>
      </trkpt>
      <trkpt lat="44.54726" lon="1.03881">
        <ele>198</ele>
        <time>2012-09-16T07:46:06Z</time>
      </trkpt>
      <trkpt lat="44.54732" lon="1.03858">
        <ele>201</ele>
        <time>2012-09-16T07:46:11Z</time>
      </trkpt>
      <trkpt lat="44.54738" lon="1.03829">
        <ele>203</ele>
        <time>2012-09-16T07:46:17Z</time>
      </trkpt>
      <trkpt lat="44.54745" lon="1.03797">
        <ele>203</ele>
        <time>2012-09-16T07:46:23Z</time>
      </trkpt>
      <trkpt lat="44.54747" lon="1.03776">
        <ele>203</ele>
        <time>2012-09-16T07:46:28Z</time>
      </trkpt>
      <trkpt lat="44.54747" lon="1.03752">
        <ele>203</ele>
        <time>2012-09-16T07:46:33Z</time>
      </trkpt>
      <trkpt lat="44.5474" lon="1.03729">
        <ele>203</ele>
        <time>2012-09-16T07:46:38Z</time>
      </trkpt>
      <trkpt lat="44.54733" lon="1.03705">
        <ele>203</ele>
        <time>2012-09-16T07:46:43Z</time>
      </trkpt>
      <trkpt lat="44.54728" lon="1.0368">
        <ele>203</ele>
        <time>2012-09-16T07:46:48Z</time>
      </trkpt>
      <trkpt lat="44.54721" lon="1.03655">
        <ele>202</ele>
        <time>2012-09-16T07:46:53Z</time>
      </trkpt>
      <trkpt lat="44.54722" lon="1.0363">
        <ele>202</ele>
        <time>2012-09-16T07:46:58Z</time>
      </trkpt>
      <trkpt lat="44.5472" lon="1.03606">
        <ele>202</ele>
        <time>2012-09-16T07:47:03Z</time>
      </trkpt>
      <trkpt lat="44.54724" lon="1.03579">
        <ele>202</ele>
        <time>2012-09-16T07:47:09Z</time>
      </trkpt>
      <trkpt lat="44.54726" lon="1.0356">
        <ele>201</ele>
        <time>2012-09-16T07:47:14Z</time>
      </trkpt>
      <trkpt lat="44.54734" lon="1.03542">
        <ele>201</ele>
        <time>2012-09-16T07:47:19Z</time>
      </trkpt>
      <trkpt lat="44.54749" lon="1.03525">
        <ele>201</ele>
        <time>2012-09-16T07:47:24Z</time>
      </trkpt>
      <trkpt lat="44.54767" lon="1.03506">
        <ele>204</ele>
        <time>2012-09-16T07:47:30Z</time>
      </trkpt>
      <trkpt lat="44.54781" lon="1.03491">
        <ele>207</ele>
        <time>2012-09-16T07:47:35Z</time>
      </trkpt>
      <trkpt lat="44.5479" lon="1.03481">
        <ele>209</ele>
        <time>2012-09-16T07:47:40Z</time>
      </trkpt>
      <trkpt lat="44.54805" lon="1.03474">
        <ele>214</ele>
        <time>2012-09-16T07:47:45Z</time>
      </trkpt>
      <trkpt lat="44.54825" lon="1.03464">
        <ele>216</ele>
        <time>2012-09-16T07:47:50Z</time>
      </trkpt>
      <trkpt lat="44.54845" lon="1.03458">
        <ele>216</ele>
        <time>2012-09-16T07:47:55Z</time>
      </trkpt>
      <trkpt lat="44.54868" lon="1.03456">
        <ele>216</ele>
        <time>2012-09-16T07:48:01Z</time>
      </trkpt>
      <trkpt lat="44.54887" lon="1.03453">
        <ele>216</ele>
        <time>2012-09-16T07:48:06Z</time>
      </trkpt>
      <trkpt lat="44.54909" lon="1.03448">
        <ele>214</ele>
        <time>2012-09-16T07:48:12Z</time>
      </trkpt>
      <trkpt lat="44.54927" lon="1.03442">
        <ele>212</ele>
        <time>2012-09-16T07:48:17Z</time>
      </trkpt>
      <trkpt lat="44.54948" lon="1.03432">
        <ele>212</ele>
        <time>2012-09-16T07:48:22Z</time>
      </trkpt>
      <trkpt lat="44.54971" lon="1.0342">
        <ele>210</ele>
        <time>2012-09-16T07:48:27Z</time>
      </trkpt>
      <trkpt lat="44.54996" lon="1.03414">
        <ele>210</ele>
        <time>2012-09-16T07:48:32Z</time>
      </trkpt>
      <trkpt lat="44.55021" lon="1.03413">
        <ele>210</ele>
        <time>2012-09-16T07:48:37Z</time>
      </trkpt>
      <trkpt lat="44.55044" lon="1.03413">
        <ele>210</ele>
        <time>2012-09-16T07:48:42Z</time>
      </trkpt>
      <trkpt lat="44.55072" lon="1.03408">
        <ele>210</ele>
        <time>2012-09-16T07:48:48Z</time>
      </trkpt>
      <trkpt lat="44.55089" lon="1.034">
        <ele>207</ele>
        <time>2012-09-16T07:48:53Z</time>
      </trkpt>
      <trkpt lat="44.55105" lon="1.03391">
        <ele>207</ele>
        <time>2012-09-16T07:48:59Z</time>
      </trkpt>
      <trkpt lat="44.55119" lon="1.0338">
        <ele>207</ele>
        <time>2012-09-16T07:49:04Z</time>
      </trkpt>
      <trkpt lat="44.55136" lon="1.03366">
        <ele>207</ele>
        <time>2012-09-16T07:49:09Z</time>
      </trkpt>
      <trkpt lat="44.55154" lon="1.03347">
        <ele>206</ele>
        <time>2012-09-16T07:49:15Z</time>
      </trkpt>
      <trkpt lat="44.55157" lon="1.03339">
        <ele>204</ele>
        <time>2012-09-16T07:49:20Z</time>
      </trkpt>
      <trkpt lat="44.55145" lon="1.03346">
        <ele>203</ele>
        <time>2012-09-16T07:49:26Z</time>
      </trkpt>
      <trkpt lat="44.5513" lon="1.03356">
        <ele>203</ele>
        <time>2012-09-16T07:49:31Z</time>
      </trkpt>
      <trkpt lat="44.5511" lon="1.03365">
        <ele>202</ele>
        <time>2012-09-16T07:49:37Z</time>
      </trkpt>
      <trkpt lat="44.55091" lon="1.03368">
        <ele>201</ele>
        <time>2012-09-16T07:49:42Z</time>
      </trkpt>
      <trkpt lat="44.55069" lon="1.03365">
        <ele>200</ele>
        <time>2012-09-16T07:49:47Z</time>
      </trkpt>
      <trkpt lat="44.55046" lon="1.0336">
        <ele>196</ele>
        <time>2012-09-16T07:49:52Z</time>
      </trkpt>
      <trkpt lat="44.55019" lon="1.03366">
        <ele>195</ele>
        <time>2012-09-16T07:49:58Z</time>
      </trkpt>
      <trkpt lat="44.54995" lon="1.03368">
        <ele>192</ele>
        <time>2012-09-16T07:50:03Z</time>
      </trkpt>
      <trkpt lat="44.54974" lon="1.03379">
        <ele>189</ele>
        <time>2012-09-16T07:50:08Z</time>
      </trkpt>
      <trkpt lat="44.54955" lon="1.03391">
        <ele>186</ele>
        <time>2012-09-16T07:50:13Z</time>
      </trkpt>
      <trkpt lat="44.54932" lon="1.034">
        <ele>184</ele>
        <time>2012-09-16T07:50:19Z</time>
      </trkpt>
      <trkpt lat="44.54913" lon="1.03399">
        <ele>184</ele>
        <time>2012-09-16T07:50:24Z</time>
      </trkpt>
      <trkpt lat="44.54893" lon="1.03401">
        <ele>184</ele>
        <time>2012-09-16T07:50:29Z</time>
      </trkpt>
      <trkpt lat="44.54865" lon="1.03405">
        <ele>185</ele>
        <time>2012-09-16T07:50:34Z</time>
      </trkpt>
      <trkpt lat="44.54842" lon="1.03404">
        <ele>190</ele>
        <time>2012-09-16T07:50:39Z</time>
      </trkpt>
      <trkpt lat="44.54818" lon="1.03404">
        <ele>193</ele>
        <time>2012-09-16T07:50:44Z</time>
      </trkpt>
      <trkpt lat="44.54794" lon="1.03406">
        <ele>195</ele>
        <time>2012-09-16T07:50:49Z</time>
      </trkpt>
      <trkpt lat="44.54772" lon="1.034">
        <ele>196</ele>
        <time>2012-09-16T07:50:55Z</time>
      </trkpt>
      <trkpt lat="44.54756" lon="1.03397">
        <ele>197</ele>
        <time>2012-09-16T07:51:00Z</time>
      </trkpt>
      <trkpt lat="44.54738" lon="1.03406">
        <ele>199</ele>
        <time>2012-09-16T07:51:06Z</time>
      </trkpt>
      <trkpt lat="44.54721" lon="1.03407">
        <ele>200</ele>
        <time>2012-09-16T07:51:11Z</time>
      </trkpt>
      <trkpt lat="44.54703" lon="1.03406">
        <ele>200</ele>
        <time>2012-09-16T07:51:16Z</time>
      </trkpt>
      <trkpt lat="44.54684" lon="1.03405">
        <ele>200</ele>
        <time>2012-09-16T07:51:21Z</time>
      </trkpt>
      <trkpt lat="44.54666" lon="1.03406">
        <ele>201</ele>
        <time>2012-09-16T07:51:26Z</time>
      </trkpt>
      <trkpt lat="44.54648" lon="1.0341">
        <ele>206</ele>
        <time>2012-09-16T07:51:31Z</time>
      </trkpt>
      <trkpt lat="44.5463" lon="1.03403">
        <ele>207</ele>
        <time>2012-09-16T07:51:36Z</time>
      </trkpt>
      <trkpt lat="44.54601" lon="1.03386">
        <ele>208</ele>
        <time>2012-09-16T07:51:42Z</time>
      </trkpt>
      <trkpt lat="44.54578" lon="1.03363">
        <ele>208</ele>
        <time>2012-09-16T07:51:48Z</time>
      </trkpt>
      <trkpt lat="44.54561" lon="1.03341">
        <ele>208</ele>
        <time>2012-09-16T07:51:53Z</time>
      </trkpt>
      <trkpt lat="44.54544" lon="1.03327">
        <ele>208</ele>
        <time>2012-09-16T07:51:58Z</time>
      </trkpt>
      <trkpt lat="44.54529" lon="1.03313">
        <ele>208</ele>
        <time>2012-09-16T07:52:03Z</time>
      </trkpt>
      <trkpt lat="44.54513" lon="1.03299">
        <ele>208</ele>
        <time>2012-09-16T07:52:08Z</time>
      </trkpt>
      <trkpt lat="44.54496" lon="1.03284">
        <ele>213</ele>
        <time>2012-09-16T07:52:14Z</time>
      </trkpt>
      <trkpt lat="44.54483" lon="1.03273">
        <ele>214</ele>
        <time>2012-09-16T07:52:19Z</time>
      </trkpt>
      <trkpt lat="44.54472" lon="1.03258">
        <ele>214</ele>
        <time>2012-09-16T07:52:24Z</time>
      </trkpt>
      <trkpt lat="44.54455" lon="1.03248">
        <ele>213</ele>
        <time>2012-09-16T07:52:29Z</time>
      </trkpt>
      <trkpt lat="44.5444" lon="1.03237">
        <ele>212</ele>
        <time>2012-09-16T07:52:34Z</time>
      </trkpt>
      <trkpt lat="44.54426" lon="1.03224">
        <ele>212</ele>
        <time>2012-09-16T07:52:40Z</time>
      </trkpt>
      <trkpt lat="44.54415" lon="1.03209">
        <ele>212</ele>
        <time>2012-09-16T07:52:45Z</time>
      </trkpt>
      <trkpt lat="44.54404" lon="1.03207">
        <ele>212</ele>
        <time>2012-09-16T07:52:50Z</time>
      </trkpt>
      <trkpt lat="44.54393" lon="1.03201">
        <ele>212</ele>
        <time>2012-09-16T07:52:55Z</time>
      </trkpt>
      <trkpt lat="44.54384" lon="1.03198">
        <ele>213</ele>
        <time>2012-09-16T07:53:01Z</time>
      </trkpt>
      <trkpt lat="44.54377" lon="1.03195">
        <ele>214</ele>
        <time>2012-09-16T07:53:06Z</time>
      </trkpt>
      <trkpt lat="44.54369" lon="1.03189">
        <ele>215</ele>
        <time>2012-09-16T07:53:11Z</time>
      </trkpt>
      <trkpt lat="44.54363" lon="1.03181">
        <ele>217</ele>
        <time>2012-09-16T07:53:16Z</time>
      </trkpt>
      <trkpt lat="44.54358" lon="1.03178">
        <ele>219</ele>
        <time>2012-09-16T07:53:21Z</time>
      </trkpt>
      <trkpt lat="44.54351" lon="1.03176">
        <ele>223</ele>
        <time>2012-09-16T07:53:27Z</time>
      </trkpt>
      <trkpt lat="44.54345" lon="1.03172">
        <ele>224</ele>
        <time>2012-09-16T07:53:32Z</time>
      </trkpt>
      <trkpt lat="44.54338" lon="1.03169">
        <ele>224</ele>
        <time>2012-09-16T07:53:37Z</time>
      </trkpt>
      <trkpt lat="44.54331" lon="1.03164">
        <ele>224</ele>
        <time>2012-09-16T07:53:42Z</time>
      </trkpt>
      <trkpt lat="44.54324" lon="1.03157">
        <ele>224</ele>
        <time>2012-09-16T07:53:47Z</time>
      </trkpt>
      <trkpt lat="44.54321" lon="1.03156">
        <ele>224</ele>
        <time>2012-09-16T07:53:52Z</time>
      </trkpt>
      <trkpt lat="44.5432" lon="1.03154">
        <ele>224</ele>
        <time>2012-09-16T07:54:00Z</time>
      </trkpt>
      <trkpt lat="44.54322" lon="1.03154">
        <ele>226</ele>
        <time>2012-09-16T07:54:09Z</time>
      </trkpt>
      <trkpt lat="44.5432" lon="1.03155">
        <ele>226</ele>
        <time>2012-09-16T07:54:19Z</time>
      </trkpt>
      <trkpt lat="44.54317" lon="1.03152">
        <ele>226</ele>
        <time>2012-09-16T07:54:24Z</time>
      </trkpt>
      <trkpt lat="44.54313" lon="1.03151">
        <ele>226</ele>
        <time>2012-09-16T07:54:31Z</time>
      </trkpt>
      <trkpt lat="44.5431" lon="1.03149">
        <ele>226</ele>
        <time>2012-09-16T07:54:52Z</time>
      </trkpt>
      <trkpt lat="44.5431" lon="1.03149">
        <ele>229</ele>
        <time>2012-09-16T07:55:00Z</time>
      </trkpt>
      <trkpt lat="44.54298" lon="1.03141">
        <ele>229</ele>
        <time>2012-09-16T07:55:05Z</time>
      </trkpt>
      <trkpt lat="44.54284" lon="1.03119">
        <ele>229</ele>
        <time>2012-09-16T07:55:10Z</time>
      </trkpt>
      <trkpt lat="44.54268" lon="1.03083">
        <ele>229</ele>
        <time>2012-09-16T07:55:16Z</time>
      </trkpt>
      <trkpt lat="44.54254" lon="1.03048">
        <ele>229</ele>
        <time>2012-09-16T07:55:21Z</time>
      </trkpt>
      <trkpt lat="44.5424" lon="1.03006">
        <ele>226</ele>
        <time>2012-09-16T07:55:26Z</time>
      </trkpt>
      <trkpt lat="44.54234" lon="1.02968">
        <ele>223</ele>
        <time>2012-09-16T07:55:31Z</time>
      </trkpt>
      <trkpt lat="44.54218" lon="1.02922">
        <ele>222</ele>
        <time>2012-09-16T07:55:36Z</time>
      </trkpt>
      <trkpt lat="44.54205" lon="1.02884">
        <ele>222</ele>
        <time>2012-09-16T07:55:41Z</time>
      </trkpt>
      <trkpt lat="44.54195" lon="1.02859">
        <ele>221</ele>
        <time>2012-09-16T07:55:46Z</time>
      </trkpt>
      <trkpt lat="44.54178" lon="1.02829">
        <ele>221</ele>
        <time>2012-09-16T07:55:51Z</time>
      </trkpt>
      <trkpt lat="44.5416" lon="1.0279">
        <ele>221</ele>
        <time>2012-09-16T07:55:56Z</time>
      </trkpt>
      <trkpt lat="44.54138" lon="1.02744">
        <ele>221</ele>
        <time>2012-09-16T07:56:01Z</time>
      </trkpt>
      <trkpt lat="44.54116" lon="1.02706">
        <ele>216</ele>
        <time>2012-09-16T07:56:06Z</time>
      </trkpt>
      <trkpt lat="44.54094" lon="1.0267">
        <ele>212</ele>
        <time>2012-09-16T07:56:11Z</time>
      </trkpt>
      <trkpt lat="44.5408" lon="1.02641">
        <ele>211</ele>
        <time>2012-09-16T07:56:16Z</time>
      </trkpt>
      <trkpt lat="44.54068" lon="1.02625">
        <ele>214</ele>
        <time>2012-09-16T07:56:21Z</time>
      </trkpt>
      <trkpt lat="44.54053" lon="1.02609">
        <ele>216</ele>
        <time>2012-09-16T07:56:26Z</time>
      </trkpt>
      <trkpt lat="44.54039" lon="1.02593">
        <ele>217</ele>
        <time>2012-09-16T07:56:31Z</time>
      </trkpt>
      <trkpt lat="44.54026" lon="1.02576">
        <ele>221</ele>
        <time>2012-09-16T07:56:36Z</time>
      </trkpt>
      <trkpt lat="44.5401" lon="1.02555">
        <ele>222</ele>
        <time>2012-09-16T07:56:41Z</time>
      </trkpt>
      <trkpt lat="44.53992" lon="1.0254">
        <ele>222</ele>
        <time>2012-09-16T07:56:46Z</time>
      </trkpt>
      <trkpt lat="44.53965" lon="1.0252">
        <ele>220</ele>
        <time>2012-09-16T07:56:51Z</time>
      </trkpt>
      <trkpt lat="44.53936" lon="1.025">
        <ele>215</ele>
        <time>2012-09-16T07:56:56Z</time>
      </trkpt>
      <trkpt lat="44.5391" lon="1.02471">
        <ele>207</ele>
        <time>2012-09-16T07:57:01Z</time>
      </trkpt>
      <trkpt lat="44.5388" lon="1.02441">
        <ele>198</ele>
        <time>2012-09-16T07:57:06Z</time>
      </trkpt>
      <trkpt lat="44.53846" lon="1.02411">
        <ele>194</ele>
        <time>2012-09-16T07:57:11Z</time>
      </trkpt>
      <trkpt lat="44.53815" lon="1.02382">
        <ele>197</ele>
        <time>2012-09-16T07:57:16Z</time>
      </trkpt>
      <trkpt lat="44.53789" lon="1.02357">
        <ele>202</ele>
        <time>2012-09-16T07:57:21Z</time>
      </trkpt>
      <trkpt lat="44.53763" lon="1.02338">
        <ele>206</ele>
        <time>2012-09-16T07:57:26Z</time>
      </trkpt>
      <trkpt lat="44.53739" lon="1.02321">
        <ele>207</ele>
        <time>2012-09-16T07:57:31Z</time>
      </trkpt>
      <trkpt lat="44.53714" lon="1.02305">
        <ele>208</ele>
        <time>2012-09-16T07:57:37Z</time>
      </trkpt>
      <trkpt lat="44.53696" lon="1.02293">
        <ele>209</ele>
        <time>2012-09-16T07:57:42Z</time>
      </trkpt>
      <trkpt lat="44.53682" lon="1.02286">
        <ele>211</ele>
        <time>2012-09-16T07:57:47Z</time>
      </trkpt>
      <trkpt lat="44.5366" lon="1.02273">
        <ele>212</ele>
        <time>2012-09-16T07:57:53Z</time>
      </trkpt>
      <trkpt lat="44.53642" lon="1.02262">
        <ele>213</ele>
        <time>2012-09-16T07:57:58Z</time>
      </trkpt>
      <trkpt lat="44.53624" lon="1.02254">
        <ele>213</ele>
        <time>2012-09-16T07:58:03Z</time>
      </trkpt>
      <trkpt lat="44.53611" lon="1.02251">
        <ele>213</ele>
        <time>2012-09-16T07:58:08Z</time>
      </trkpt>
      <trkpt lat="44.53609" lon="1.02253">
        <ele>213</ele>
        <time>2012-09-16T07:58:14Z</time>
      </trkpt>
      <trkpt lat="44.53606" lon="1.02252">
        <ele>213</ele>
        <time>2012-09-16T07:58:20Z</time>
      </trkpt>
      <trkpt lat="44.53607" lon="1.02251">
        <ele>213</ele>
        <time>2012-09-16T07:58:30Z</time>
      </trkpt>
      <trkpt lat="44.53601" lon="1.02246">
        <ele>213</ele>
        <time>2012-09-16T07:58:35Z</time>
      </trkpt>
      <trkpt lat="44.53585" lon="1.02238">
        <ele>213</ele>
        <time>2012-09-16T07:58:40Z</time>
      </trkpt>
      <trkpt lat="44.5356" lon="1.02222">
        <ele>213</ele>
        <time>2012-09-16T07:58:45Z</time>
      </trkpt>
      <trkpt lat="44.53532" lon="1.02203">
        <ele>213</ele>
        <time>2012-09-16T07:58:50Z</time>
      </trkpt>
      <trkpt lat="44.53502" lon="1.02183">
        <ele>213</ele>
        <time>2012-09-16T07:58:55Z</time>
      </trkpt>
      <trkpt lat="44.53477" lon="1.02152">
        <ele>211</ele>
        <time>2012-09-16T07:59:00Z</time>
      </trkpt>
      <trkpt lat="44.53455" lon="1.02115">
        <ele>209</ele>
        <time>2012-09-16T07:59:05Z</time>
      </trkpt>
      <trkpt lat="44.53433" lon="1.02076">
        <ele>209</ele>
        <time>2012-09-16T07:59:10Z</time>
      </trkpt>
      <trkpt lat="44.53414" lon="1.02039">
        <ele>206</ele>
        <time>2012-09-16T07:59:15Z</time>
      </trkpt>
      <trkpt lat="44.53398" lon="1.01999">
        <ele>206</ele>
        <time>2012-09-16T07:59:20Z</time>
      </trkpt>
      <trkpt lat="44.53374" lon="1.01977">
        <ele>206</ele>
        <time>2012-09-16T07:59:25Z</time>
      </trkpt>
      <trkpt lat="44.53372" lon="1.01935">
        <ele>206</ele>
        <time>2012-09-16T07:59:30Z</time>
      </trkpt>
      <trkpt lat="44.53374" lon="1.01893">
        <ele>206</ele>
        <time>2012-09-16T07:59:35Z</time>
      </trkpt>
      <trkpt lat="44.53384" lon="1.01854">
        <ele>204</ele>
        <time>2012-09-16T07:59:40Z</time>
      </trkpt>
      <trkpt lat="44.53389" lon="1.01806">
        <ele>198</ele>
        <time>2012-09-16T07:59:45Z</time>
      </trkpt>
      <trkpt lat="44.53406" lon="1.01767">
        <ele>188</ele>
        <time>2012-09-16T07:59:50Z</time>
      </trkpt>
      <trkpt lat="44.5343" lon="1.01735">
        <ele>179</ele>
        <time>2012-09-16T07:59:55Z</time>
      </trkpt>
      <trkpt lat="44.53451" lon="1.01705">
        <ele>174</ele>
        <time>2012-09-16T08:00:00Z</time>
      </trkpt>
      <trkpt lat="44.53466" lon="1.01679">
        <ele>167</ele>
        <time>2012-09-16T08:00:05Z</time>
      </trkpt>
      <trkpt lat="44.5348" lon="1.01654">
        <ele>157</ele>
        <time>2012-09-16T08:00:10Z</time>
      </trkpt>
      <trkpt lat="44.53494" lon="1.01617">
        <ele>147</ele>
        <time>2012-09-16T08:00:15Z</time>
      </trkpt>
      <trkpt lat="44.53513" lon="1.01573">
        <ele>138</ele>
        <time>2012-09-16T08:00:20Z</time>
      </trkpt>
      <trkpt lat="44.53526" lon="1.0156">
        <ele>133</ele>
        <time>2012-09-16T08:00:25Z</time>
      </trkpt>
      <trkpt lat="44.53531" lon="1.01579">
        <ele>133</ele>
        <time>2012-09-16T08:00:30Z</time>
      </trkpt>
      <trkpt lat="44.53537" lon="1.01606">
        <ele>138</ele>
        <time>2012-09-16T08:00:35Z</time>
      </trkpt>
      <trkpt lat="44.53544" lon="1.0163">
        <ele>143</ele>
        <time>2012-09-16T08:00:40Z</time>
      </trkpt>
      <trkpt lat="44.53556" lon="1.01668">
        <ele>148</ele>
        <time>2012-09-16T08:00:45Z</time>
      </trkpt>
      <trkpt lat="44.5357" lon="1.01695">
        <ele>150</ele>
        <time>2012-09-16T08:00:50Z</time>
      </trkpt>
      <trkpt lat="44.53589" lon="1.01707">
        <ele>150</ele>
        <time>2012-09-16T08:00:55Z</time>
      </trkpt>
      <trkpt lat="44.53604" lon="1.01687">
        <ele>146</ele>
        <time>2012-09-16T08:01:00Z</time>
      </trkpt>
      <trkpt lat="44.53616" lon="1.01682">
        <ele>136</ele>
        <time>2012-09-16T08:01:05Z</time>
      </trkpt>
      <trkpt lat="44.53626" lon="1.01684">
        <ele>128</ele>
        <time>2012-09-16T08:01:10Z</time>
      </trkpt>
      <trkpt lat="44.53636" lon="1.01689">
        <ele>125</ele>
        <time>2012-09-16T08:01:15Z</time>
      </trkpt>
      <trkpt lat="44.53643" lon="1.01693">
        <ele>127</ele>
        <time>2012-09-16T08:01:21Z</time>
      </trkpt>
      <trkpt lat="44.5365" lon="1.01696">
        <ele>132</ele>
        <time>2012-09-16T08:01:26Z</time>
      </trkpt>
      <trkpt lat="44.53661" lon="1.01701">
        <ele>137</ele>
        <time>2012-09-16T08:01:31Z</time>
      </trkpt>
      <trkpt lat="44.53672" lon="1.01707">
        <ele>142</ele>
        <time>2012-09-16T08:01:36Z</time>
      </trkpt>
      <trkpt lat="44.53689" lon="1.01713">
        <ele>145</ele>
        <time>2012-09-16T08:01:41Z</time>
      </trkpt>
      <trkpt lat="44.53708" lon="1.01721">
        <ele>145</ele>
        <time>2012-09-16T08:01:46Z</time>
      </trkpt>
      <trkpt lat="44.53724" lon="1.01725">
        <ele>145</ele>
        <time>2012-09-16T08:01:51Z</time>
      </trkpt>
      <trkpt lat="44.53741" lon="1.01718">
        <ele>145</ele>
        <time>2012-09-16T08:01:56Z</time>
      </trkpt>
      <trkpt lat="44.53757" lon="1.01712">
        <ele>145</ele>
        <time>2012-09-16T08:02:01Z</time>
      </trkpt>
      <trkpt lat="44.53769" lon="1.01708">
        <ele>145</ele>
        <time>2012-09-16T08:02:06Z</time>
      </trkpt>
      <trkpt lat="44.53776" lon="1.01708">
        <ele>145</ele>
        <time>2012-09-16T08:02:11Z</time>
      </trkpt>
      <trkpt lat="44.53783" lon="1.01707">
        <ele>145</ele>
        <time>2012-09-16T08:02:16Z</time>
      </trkpt>
      <trkpt lat="44.5379" lon="1.01707">
        <ele>145</ele>
        <time>2012-09-16T08:02:21Z</time>
      </trkpt>
      <trkpt lat="44.53796" lon="1.0171">
        <ele>145</ele>
        <time>2012-09-16T08:02:26Z</time>
      </trkpt>
      <trkpt lat="44.53803" lon="1.01711">
        <ele>147</ele>
        <time>2012-09-16T08:02:31Z</time>
      </trkpt>
      <trkpt lat="44.5381" lon="1.01714">
        <ele>148</ele>
        <time>2012-09-16T08:02:37Z</time>
      </trkpt>
      <trkpt lat="44.53816" lon="1.01717">
        <ele>152</ele>
        <time>2012-09-16T08:02:42Z</time>
      </trkpt>
      <trkpt lat="44.5382" lon="1.01724">
        <ele>157</ele>
        <time>2012-09-16T08:02:47Z</time>
      </trkpt>
      <trkpt lat="44.53826" lon="1.01729">
        <ele>161</ele>
        <time>2012-09-16T08:02:52Z</time>
      </trkpt>
      <trkpt lat="44.5383" lon="1.01734">
        <ele>164</ele>
        <time>2012-09-16T08:02:57Z</time>
      </trkpt>
      <trkpt lat="44.53835" lon="1.01739">
        <ele>168</ele>
        <time>2012-09-16T08:03:02Z</time>
      </trkpt>
      <trkpt lat="44.53846" lon="1.01746">
        <ele>170</ele>
        <time>2012-09-16T08:03:07Z</time>
      </trkpt>
      <trkpt lat="44.53863" lon="1.01759">
        <ele>173</ele>
        <time>2012-09-16T08:03:12Z</time>
      </trkpt>
      <trkpt lat="44.53901" lon="1.01774">
        <ele>175</ele>
        <time>2012-09-16T08:03:17Z</time>
      </trkpt>
      <trkpt lat="44.53928" lon="1.01784">
        <ele>172</ele>
        <time>2012-09-16T08:03:22Z</time>
      </trkpt>
      <trkpt lat="44.53947" lon="1.01793">
        <ele>169</ele>
        <time>2012-09-16T08:03:27Z</time>
      </trkpt>
      <trkpt lat="44.53967" lon="1.01813">
        <ele>169</ele>
        <time>2012-09-16T08:03:32Z</time>
      </trkpt>
      <trkpt lat="44.53981" lon="1.01827">
        <ele>169</ele>
        <time>2012-09-16T08:03:37Z</time>
      </trkpt>
      <trkpt lat="44.54001" lon="1.01837">
        <ele>170</ele>
        <time>2012-09-16T08:03:42Z</time>
      </trkpt>
      <trkpt lat="44.54029" lon="1.01847">
        <ele>169</ele>
        <time>2012-09-16T08:03:47Z</time>
      </trkpt>
      <trkpt lat="44.5405" lon="1.01844">
        <ele>164</ele>
        <time>2012-09-16T08:03:52Z</time>
      </trkpt>
      <trkpt lat="44.5407" lon="1.01833">
        <ele>155</ele>
        <time>2012-09-16T08:03:57Z</time>
      </trkpt>
      <trkpt lat="44.54093" lon="1.01822">
        <ele>145</ele>
        <time>2012-09-16T08:04:02Z</time>
      </trkpt>
      <trkpt lat="44.54119" lon="1.01818">
        <ele>139</ele>
        <time>2012-09-16T08:04:07Z</time>
      </trkpt>
      <trkpt lat="44.54128" lon="1.01799">
        <ele>133</ele>
        <time>2012-09-16T08:04:12Z</time>
      </trkpt>
      <trkpt lat="44.54144" lon="1.01806">
        <ele>130</ele>
        <time>2012-09-16T08:04:17Z</time>
      </trkpt>
      <trkpt lat="44.5416" lon="1.01812">
        <ele>130</ele>
        <time>2012-09-16T08:04:22Z</time>
      </trkpt>
      <trkpt lat="44.54173" lon="1.01815">
        <ele>130</ele>
        <time>2012-09-16T08:04:27Z</time>
      </trkpt>
      <trkpt lat="44.54185" lon="1.01815">
        <ele>130</ele>
        <time>2012-09-16T08:04:32Z</time>
      </trkpt>
      <trkpt lat="44.542" lon="1.01819">
        <ele>132</ele>
        <time>2012-09-16T08:04:37Z</time>
      </trkpt>
      <trkpt lat="44.54216" lon="1.01827">
        <ele>135</ele>
        <time>2012-09-16T08:04:42Z</time>
      </trkpt>
      <trkpt lat="44.5423" lon="1.01835">
        <ele>140</ele>
        <time>2012-09-16T08:04:47Z</time>
      </trkpt>
      <trkpt lat="44.54245" lon="1.01843">
        <ele>141</ele>
        <time>2012-09-16T08:04:52Z</time>
      </trkpt>
      <trkpt lat="44.54259" lon="1.01844">
        <ele>142</ele>
        <time>2012-09-16T08:04:57Z</time>
      </trkpt>
      <trkpt lat="44.54273" lon="1.01838">
        <ele>143</ele>
        <time>2012-09-16T08:05:02Z</time>
      </trkpt>
      <trkpt lat="44.54286" lon="1.01831">
        <ele>143</ele>
        <time>2012-09-16T08:05:07Z</time>
      </trkpt>
      <trkpt lat="44.54299" lon="1.01823">
        <ele>143</ele>
        <time>2012-09-16T08:05:12Z</time>
      </trkpt>
      <trkpt lat="44.54312" lon="1.01815">
        <ele>143</ele>
        <time>2012-09-16T08:05:17Z</time>
      </trkpt>
      <trkpt lat="44.54324" lon="1.01808">
        <ele>143</ele>
        <time>2012-09-16T08:05:22Z</time>
      </trkpt>
      <trkpt lat="44.54338" lon="1.01801">
        <ele>144</ele>
        <time>2012-09-16T08:05:27Z</time>
      </trkpt>
      <trkpt lat="44.54349" lon="1.01797">
        <ele>144</ele>
        <time>2012-09-16T08:05:32Z</time>
      </trkpt>
      <trkpt lat="44.54357" lon="1.01795">
        <ele>147</ele>
        <time>2012-09-16T08:05:37Z</time>
      </trkpt>
      <trkpt lat="44.54362" lon="1.01794">
        <ele>152</ele>
        <time>2012-09-16T08:05:42Z</time>
      </trkpt>
      <trkpt lat="44.54365" lon="1.01794">
        <ele>155</ele>
        <time>2012-09-16T08:05:47Z</time>
      </trkpt>
      <trkpt lat="44.54358" lon="1.01788">
        <ele>155</ele>
        <time>2012-09-16T08:05:52Z</time>
      </trkpt>
      <trkpt lat="44.54353" lon="1.01781">
        <ele>155</ele>
        <time>2012-09-16T08:05:57Z</time>
      </trkpt>
      <trkpt lat="44.54347" lon="1.01772">
        <ele>155</ele>
        <time>2012-09-16T08:06:03Z</time>
      </trkpt>
      <trkpt lat="44.54345" lon="1.0177">
        <ele>155</ele>
        <time>2012-09-16T08:06:11Z</time>
      </trkpt>
      <trkpt lat="44.54344" lon="1.01769">
        <ele>155</ele>
        <time>2012-09-16T08:06:16Z</time>
      </trkpt>
      <trkpt lat="44.54344" lon="1.01767">
        <ele>155</ele>
        <time>2012-09-16T08:06:23Z</time>
      </trkpt>
      <trkpt lat="44.54347" lon="1.01766">
        <ele>155</ele>
        <time>2012-09-16T08:06:28Z</time>
      </trkpt>
      <trkpt lat="44.54348" lon="1.01767">
        <ele>154</ele>
        <time>2012-09-16T08:06:33Z</time>
      </trkpt>
      <trkpt lat="44.54346" lon="1.01769">
        <ele>154</ele>
        <time>2012-09-16T08:06:44Z</time>
      </trkpt>
      <trkpt lat="44.54346" lon="1.0177">
        <ele>154</ele>
        <time>2012-09-16T08:06:52Z</time>
      </trkpt>
      <trkpt lat="44.54344" lon="1.01771">
        <ele>158</ele>
        <time>2012-09-16T08:06:58Z</time>
      </trkpt>
      <trkpt lat="44.54347" lon="1.01772">
        <ele>158</ele>
        <time>2012-09-16T08:07:05Z</time>
      </trkpt>
      <trkpt lat="44.54348" lon="1.01775">
        <ele>158</ele>
        <time>2012-09-16T08:07:10Z</time>
      </trkpt>
      <trkpt lat="44.54348" lon="1.01778">
        <ele>163</ele>
        <time>2012-09-16T08:07:15Z</time>
      </trkpt>
      <trkpt lat="44.54347" lon="1.01781">
        <ele>172</ele>
        <time>2012-09-16T08:07:37Z</time>
      </trkpt>
      <trkpt lat="44.54346" lon="1.01779">
        <ele>174</ele>
        <time>2012-09-16T08:07:47Z</time>
      </trkpt>
      <trkpt lat="44.54346" lon="1.01777">
        <ele>173</ele>
        <time>2012-09-16T08:07:52Z</time>
      </trkpt>
      <trkpt lat="44.54346" lon="1.01776">
        <ele>169</ele>
        <time>2012-09-16T08:07:57Z</time>
      </trkpt>
      <trkpt lat="44.54346" lon="1.01773">
        <ele>163</ele>
        <time>2012-09-16T08:08:09Z</time>
      </trkpt>
      <trkpt lat="44.54345" lon="1.01772">
        <ele>161</ele>
        <time>2012-09-16T08:08:17Z</time>
      </trkpt>
      <trkpt lat="44.54345" lon="1.01767">
        <ele>155</ele>
        <time>2012-09-16T08:08:24Z</time>
      </trkpt>
      <trkpt lat="44.54346" lon="1.01767">
        <ele>151</ele>
        <time>2012-09-16T08:08:37Z</time>
      </trkpt>
      <trkpt lat="44.54347" lon="1.01768">
        <ele>153</ele>
        <time>2012-09-16T08:08:44Z</time>
      </trkpt>
      <trkpt lat="44.54346" lon="1.0177">
        <ele>157</ele>
        <time>2012-09-16T08:08:58Z</time>
      </trkpt>
      <trkpt lat="44.54345" lon="1.01769">
        <ele>157</ele>
        <time>2012-09-16T08:09:06Z</time>
      </trkpt>
      <trkpt lat="44.5434" lon="1.01765">
        <ele>157</ele>
        <time>2012-09-16T08:09:12Z</time>
      </trkpt>
      <trkpt lat="44.54332" lon="1.01759">
        <ele>157</ele>
        <time>2012-09-16T08:09:17Z</time>
      </trkpt>
      <trkpt lat="44.54324" lon="1.01752">
        <ele>157</ele>
        <time>2012-09-16T08:09:22Z</time>
      </trkpt>
      <trkpt lat="44.54316" lon="1.01748">
        <ele>157</ele>
        <time>2012-09-16T08:09:27Z</time>
      </trkpt>
      <trkpt lat="44.54309" lon="1.01753">
        <ele>157</ele>
        <time>2012-09-16T08:09:32Z</time>
      </trkpt>
      <trkpt lat="44.54301" lon="1.01751">
        <ele>157</ele>
        <time>2012-09-16T08:09:37Z</time>
      </trkpt>
      <trkpt lat="44.54297" lon="1.01743">
        <ele>157</ele>
        <time>2012-09-16T08:09:42Z</time>
      </trkpt>
      <trkpt lat="44.54293" lon="1.01737">
        <ele>157</ele>
        <time>2012-09-16T08:09:47Z</time>
      </trkpt>
      <trkpt lat="44.5429" lon="1.01731">
        <ele>157</ele>
        <time>2012-09-16T08:09:52Z</time>
      </trkpt>
      <trkpt lat="44.54285" lon="1.01726">
        <ele>157</ele>
        <time>2012-09-16T08:09:58Z</time>
      </trkpt>
      <trkpt lat="44.5428" lon="1.01725">
        <ele>158</ele>
        <time>2012-09-16T08:10:04Z</time>
      </trkpt>
      <trkpt lat="44.54276" lon="1.01727">
        <ele>161</ele>
        <time>2012-09-16T08:10:09Z</time>
      </trkpt>
      <trkpt lat="44.54269" lon="1.01731">
        <ele>165</ele>
        <time>2012-09-16T08:10:15Z</time>
      </trkpt>
      <trkpt lat="44.54264" lon="1.01731">
        <ele>166</ele>
        <time>2012-09-16T08:10:20Z</time>
      </trkpt>
      <trkpt lat="44.54259" lon="1.01731">
        <ele>166</ele>
        <time>2012-09-16T08:10:25Z</time>
      </trkpt>
      <trkpt lat="44.54251" lon="1.01729">
        <ele>166</ele>
        <time>2012-09-16T08:10:30Z</time>
      </trkpt>
      <trkpt lat="44.54242" lon="1.01725">
        <ele>167</ele>
        <time>2012-09-16T08:10:35Z</time>
      </trkpt>
      <trkpt lat="44.54235" lon="1.0172">
        <ele>167</ele>
        <time>2012-09-16T08:10:40Z</time>
      </trkpt>
      <trkpt lat="44.54224" lon="1.01714">
        <ele>168</ele>
        <time>2012-09-16T08:10:45Z</time>
      </trkpt>
      <trkpt lat="44.54218" lon="1.01709">
        <ele>170</ele>
        <time>2012-09-16T08:10:50Z</time>
      </trkpt>
      <trkpt lat="44.54208" lon="1.01704">
        <ele>170</ele>
        <time>2012-09-16T08:10:55Z</time>
      </trkpt>
      <trkpt lat="44.54197" lon="1.01696">
        <ele>170</ele>
        <time>2012-09-16T08:11:00Z</time>
      </trkpt>
      <trkpt lat="44.54185" lon="1.01686">
        <ele>171</ele>
        <time>2012-09-16T08:11:05Z</time>
      </trkpt>
      <trkpt lat="44.54175" lon="1.01676">
        <ele>173</ele>
        <time>2012-09-16T08:11:10Z</time>
      </trkpt>
      <trkpt lat="44.54162" lon="1.01665">
        <ele>175</ele>
        <time>2012-09-16T08:11:15Z</time>
      </trkpt>
      <trkpt lat="44.54149" lon="1.01656">
        <ele>175</ele>
        <time>2012-09-16T08:11:20Z</time>
      </trkpt>
      <trkpt lat="44.54132" lon="1.01651">
        <ele>171</ele>
        <time>2012-09-16T08:11:25Z</time>
      </trkpt>
      <trkpt lat="44.54114" lon="1.0165">
        <ele>170</ele>
        <time>2012-09-16T08:11:30Z</time>
      </trkpt>
      <trkpt lat="44.54091" lon="1.01649">
        <ele>169</ele>
        <time>2012-09-16T08:11:35Z</time>
      </trkpt>
      <trkpt lat="44.54071" lon="1.01638">
        <ele>169</ele>
        <time>2012-09-16T08:11:40Z</time>
      </trkpt>
      <trkpt lat="44.54054" lon="1.0162">
        <ele>169</ele>
        <time>2012-09-16T08:11:45Z</time>
      </trkpt>
      <trkpt lat="44.54046" lon="1.01595">
        <ele>169</ele>
        <time>2012-09-16T08:11:50Z</time>
      </trkpt>
      <trkpt lat="44.54031" lon="1.01577">
        <ele>169</ele>
        <time>2012-09-16T08:11:55Z</time>
      </trkpt>
      <trkpt lat="44.54007" lon="1.0156">
        <ele>169</ele>
        <time>2012-09-16T08:12:00Z</time>
      </trkpt>
      <trkpt lat="44.53993" lon="1.01541">
        <ele>169</ele>
        <time>2012-09-16T08:12:05Z</time>
      </trkpt>
      <trkpt lat="44.53975" lon="1.0152">
        <ele>169</ele>
        <time>2012-09-16T08:12:10Z</time>
      </trkpt>
      <trkpt lat="44.53965" lon="1.01477">
        <ele>167</ele>
        <time>2012-09-16T08:12:15Z</time>
      </trkpt>
      <trkpt lat="44.53952" lon="1.0144">
        <ele>164</ele>
        <time>2012-09-16T08:12:20Z</time>
      </trkpt>
      <trkpt lat="44.53935" lon="1.01416">
        <ele>164</ele>
        <time>2012-09-16T08:12:25Z</time>
      </trkpt>
      <trkpt lat="44.53916" lon="1.01413">
        <ele>163</ele>
        <time>2012-09-16T08:12:30Z</time>
      </trkpt>
      <trkpt lat="44.53902" lon="1.01423">
        <ele>160</ele>
        <time>2012-09-16T08:12:35Z</time>
      </trkpt>
      <trkpt lat="44.53892" lon="1.01423">
        <ele>158</ele>
        <time>2012-09-16T08:12:40Z</time>
      </trkpt>
      <trkpt lat="44.53894" lon="1.01405">
        <ele>158</ele>
        <time>2012-09-16T08:12:45Z</time>
      </trkpt>
      <trkpt lat="44.53914" lon="1.01375">
        <ele>155</ele>
        <time>2012-09-16T08:12:50Z</time>
      </trkpt>
      <trkpt lat="44.53939" lon="1.0134">
        <ele>150</ele>
        <time>2012-09-16T08:12:55Z</time>
      </trkpt>
      <trkpt lat="44.53955" lon="1.01321">
        <ele>145</ele>
        <time>2012-09-16T08:13:00Z</time>
      </trkpt>
      <trkpt lat="44.5396" lon="1.01312">
        <ele>140</ele>
        <time>2012-09-16T08:13:05Z</time>
      </trkpt>
      <trkpt lat="44.53947" lon="1.01313">
        <ele>136</ele>
        <time>2012-09-16T08:13:10Z</time>
      </trkpt>
      <trkpt lat="44.53917" lon="1.01321">
        <ele>136</ele>
        <time>2012-09-16T08:13:15Z</time>
      </trkpt>
      <trkpt lat="44.53896" lon="1.01333">
        <ele>136</ele>
        <time>2012-09-16T08:13:20Z</time>
      </trkpt>
      <trkpt lat="44.53871" lon="1.0134">
        <ele>136</ele>
        <time>2012-09-16T08:13:25Z</time>
      </trkpt>
      <trkpt lat="44.53846" lon="1.01337">
        <ele>136</ele>
        <time>2012-09-16T08:13:30Z</time>
      </trkpt>
      <trkpt lat="44.5382" lon="1.01338">
        <ele>136</ele>
        <time>2012-09-16T08:13:35Z</time>
      </trkpt>
      <trkpt lat="44.53796" lon="1.01344">
        <ele>136</ele>
        <time>2012-09-16T08:13:40Z</time>
      </trkpt>
      <trkpt lat="44.53775" lon="1.0135">
        <ele>136</ele>
        <time>2012-09-16T08:13:45Z</time>
      </trkpt>
      <trkpt lat="44.53755" lon="1.01368">
        <ele>133</ele>
        <time>2012-09-16T08:13:50Z</time>
      </trkpt>
      <trkpt lat="44.53753" lon="1.01398">
        <ele>129</ele>
        <time>2012-09-16T08:13:55Z</time>
      </trkpt>
      <trkpt lat="44.53746" lon="1.01395">
        <ele>124</ele>
        <time>2012-09-16T08:14:00Z</time>
      </trkpt>
      <trkpt lat="44.53736" lon="1.01365">
        <ele>123</ele>
        <time>2012-09-16T08:14:05Z</time>
      </trkpt>
      <trkpt lat="44.53728" lon="1.01334">
        <ele>123</ele>
        <time>2012-09-16T08:14:10Z</time>
      </trkpt>
      <trkpt lat="44.53717" lon="1.01303">
        <ele>121</ele>
        <time>2012-09-16T08:14:15Z</time>
      </trkpt>
      <trkpt lat="44.53695" lon="1.01277">
        <ele>118</ele>
        <time>2012-09-16T08:14:20Z</time>
      </trkpt>
      <trkpt lat="44.53676" lon="1.01252">
        <ele>116</ele>
        <time>2012-09-16T08:14:25Z</time>
      </trkpt>
      <trkpt lat="44.53659" lon="1.01232">
        <ele>114</ele>
        <time>2012-09-16T08:14:30Z</time>
      </trkpt>
      <trkpt lat="44.53643" lon="1.01214">
        <ele>114</ele>
        <time>2012-09-16T08:14:35Z</time>
      </trkpt>
      <trkpt lat="44.5363" lon="1.01193">
        <ele>114</ele>
        <time>2012-09-16T08:14:40Z</time>
      </trkpt>
      <trkpt lat="44.53621" lon="1.01169">
        <ele>114</ele>
        <time>2012-09-16T08:14:45Z</time>
      </trkpt>
      <trkpt lat="44.53612" lon="1.0114">
        <ele>114</ele>
        <time>2012-09-16T08:14:50Z</time>
      </trkpt>
      <trkpt lat="44.536" lon="1.01114">
        <ele>114</ele>
        <time>2012-09-16T08:14:55Z</time>
      </trkpt>
      <trkpt lat="44.53582" lon="1.01097">
        <ele>114</ele>
        <time>2012-09-16T08:15:00Z</time>
      </trkpt>
      <trkpt lat="44.53563" lon="1.01082">
        <ele>114</ele>
        <time>2012-09-16T08:15:05Z</time>
      </trkpt>
      <trkpt lat="44.53545" lon="1.01069">
        <ele>114</ele>
        <time>2012-09-16T08:15:10Z</time>
      </trkpt>
      <trkpt lat="44.53528" lon="1.01054">
        <ele>114</ele>
        <time>2012-09-16T08:15:15Z</time>
      </trkpt>
      <trkpt lat="44.53512" lon="1.01038">
        <ele>114</ele>
        <time>2012-09-16T08:15:20Z</time>
      </trkpt>
      <trkpt lat="44.53497" lon="1.0102">
        <ele>114</ele>
        <time>2012-09-16T08:15:25Z</time>
      </trkpt>
      <trkpt lat="44.5348" lon="1.00997">
        <ele>114</ele>
        <time>2012-09-16T08:15:30Z</time>
      </trkpt>
      <trkpt lat="44.5346" lon="1.00971">
        <ele>114</ele>
        <time>2012-09-16T08:15:35Z</time>
      </trkpt>
      <trkpt lat="44.53443" lon="1.00942">
        <ele>114</ele>
        <time>2012-09-16T08:15:40Z</time>
      </trkpt>
      <trkpt lat="44.53423" lon="1.00905">
        <ele>114</ele>
        <time>2012-09-16T08:15:45Z</time>
      </trkpt>
      <trkpt lat="44.53399" lon="1.00865">
        <ele>114</ele>
        <time>2012-09-16T08:15:50Z</time>
      </trkpt>
      <trkpt lat="44.53379" lon="1.00819">
        <ele>112</ele>
        <time>2012-09-16T08:15:55Z</time>
      </trkpt>
      <trkpt lat="44.53359" lon="1.00771">
        <ele>107</ele>
        <time>2012-09-16T08:16:00Z</time>
      </trkpt>
      <trkpt lat="44.53331" lon="1.00733">
        <ele>102</ele>
        <time>2012-09-16T08:16:05Z</time>
      </trkpt>
      <trkpt lat="44.53295" lon="1.00732">
        <ele>99</ele>
        <time>2012-09-16T08:16:10Z</time>
      </trkpt>
      <trkpt lat="44.53264" lon="1.00739">
        <ele>99</ele>
        <time>2012-09-16T08:16:15Z</time>
      </trkpt>
      <trkpt lat="44.53235" lon="1.0074">
        <ele>99</ele>
        <time>2012-09-16T08:16:20Z</time>
      </trkpt>
      <trkpt lat="44.53211" lon="1.00739">
        <ele>99</ele>
        <time>2012-09-16T08:16:25Z</time>
      </trkpt>
      <trkpt lat="44.53188" lon="1.00728">
        <ele>101</ele>
        <time>2012-09-16T08:16:30Z</time>
      </trkpt>
      <trkpt lat="44.53163" lon="1.00704">
        <ele>101</ele>
        <time>2012-09-16T08:16:35Z</time>
      </trkpt>
      <trkpt lat="44.53129" lon="1.00685">
        <ele>101</ele>
        <time>2012-09-16T08:16:40Z</time>
      </trkpt>
      <trkpt lat="44.53091" lon="1.00679">
        <ele>101</ele>
        <time>2012-09-16T08:16:45Z</time>
      </trkpt>
      <trkpt lat="44.53057" lon="1.00662">
        <ele>101</ele>
        <time>2012-09-16T08:16:50Z</time>
      </trkpt>
      <trkpt lat="44.53034" lon="1.00635">
        <ele>101</ele>
        <time>2012-09-16T08:16:55Z</time>
      </trkpt>
      <trkpt lat="44.53016" lon="1.00603">
        <ele>101</ele>
        <time>2012-09-16T08:17:00Z</time>
      </trkpt>
      <trkpt lat="44.52993" lon="1.0056">
        <ele>101</ele>
        <time>2012-09-16T08:17:06Z</time>
      </trkpt>
      <trkpt lat="44.52976" lon="1.00539">
        <ele>101</ele>
        <time>2012-09-16T08:17:11Z</time>
      </trkpt>
      <trkpt lat="44.52958" lon="1.00555">
        <ele>101</ele>
        <time>2012-09-16T08:17:16Z</time>
      </trkpt>
      <trkpt lat="44.52935" lon="1.00575">
        <ele>101</ele>
        <time>2012-09-16T08:17:21Z</time>
      </trkpt>
      <trkpt lat="44.52924" lon="1.00598">
        <ele>101</ele>
        <time>2012-09-16T08:17:27Z</time>
      </trkpt>
      <trkpt lat="44.52916" lon="1.00611">
        <ele>101</ele>
        <time>2012-09-16T08:17:32Z</time>
      </trkpt>
      <trkpt lat="44.52909" lon="1.00633">
        <ele>102</ele>
        <time>2012-09-16T08:17:37Z</time>
      </trkpt>
      <trkpt lat="44.52901" lon="1.00653">
        <ele>102</ele>
        <time>2012-09-16T08:17:42Z</time>
      </trkpt>
      <trkpt lat="44.52897" lon="1.00673">
        <ele>102</ele>
        <time>2012-09-16T08:17:48Z</time>
      </trkpt>
      <trkpt lat="44.52899" lon="1.00692">
        <ele>103</ele>
        <time>2012-09-16T08:17:54Z</time>
      </trkpt>
      <trkpt lat="44.52888" lon="1.00707">
        <ele>108</ele>
        <time>2012-09-16T08:18:00Z</time>
      </trkpt>
      <trkpt lat="44.5288" lon="1.00718">
        <ele>111</ele>
        <time>2012-09-16T08:18:05Z</time>
      </trkpt>
      <trkpt lat="44.52874" lon="1.00727">
        <ele>112</ele>
        <time>2012-09-16T08:18:10Z</time>
      </trkpt>
      <trkpt lat="44.52866" lon="1.00738">
        <ele>113</ele>
        <time>2012-09-16T08:18:15Z</time>
      </trkpt>
      <trkpt lat="44.52859" lon="1.00747">
        <ele>113</ele>
        <time>2012-09-16T08:18:20Z</time>
      </trkpt>
      <trkpt lat="44.52853" lon="1.00755">
        <ele>113</ele>
        <time>2012-09-16T08:18:25Z</time>
      </trkpt>
      <trkpt lat="44.52845" lon="1.00762">
        <ele>113</ele>
        <time>2012-09-16T08:18:30Z</time>
      </trkpt>
      <trkpt lat="44.52837" lon="1.00769">
        <ele>113</ele>
        <time>2012-09-16T08:18:35Z</time>
      </trkpt>
      <trkpt lat="44.52831" lon="1.00775">
        <ele>113</ele>
        <time>2012-09-16T08:18:40Z</time>
      </trkpt>
      <trkpt lat="44.52822" lon="1.0078">
        <ele>114</ele>
        <time>2012-09-16T08:18:45Z</time>
      </trkpt>
      <trkpt lat="44.52814" lon="1.00786">
        <ele>117</ele>
        <time>2012-09-16T08:18:50Z</time>
      </trkpt>
      <trkpt lat="44.52802" lon="1.00796">
        <ele>121</ele>
        <time>2012-09-16T08:18:56Z</time>
      </trkpt>
      <trkpt lat="44.52795" lon="1.00799">
        <ele>126</ele>
        <time>2012-09-16T08:19:02Z</time>
      </trkpt>
      <trkpt lat="44.52787" lon="1.00805">
        <ele>126</ele>
        <time>2012-09-16T08:19:07Z</time>
      </trkpt>
      <trkpt lat="44.52781" lon="1.00812">
        <ele>126</ele>
        <time>2012-09-16T08:19:13Z</time>
      </trkpt>
      <trkpt lat="44.52774" lon="1.00818">
        <ele>123</ele>
        <time>2012-09-16T08:19:19Z</time>
      </trkpt>
      <trkpt lat="44.52768" lon="1.00824">
        <ele>121</ele>
        <time>2012-09-16T08:19:24Z</time>
      </trkpt>
      <trkpt lat="44.52761" lon="1.00834">
        <ele>121</ele>
        <time>2012-09-16T08:19:30Z</time>
      </trkpt>
      <trkpt lat="44.52755" lon="1.00842">
        <ele>121</ele>
        <time>2012-09-16T08:19:35Z</time>
      </trkpt>
      <trkpt lat="44.5275" lon="1.00847">
        <ele>124</ele>
        <time>2012-09-16T08:19:40Z</time>
      </trkpt>
      <trkpt lat="44.52745" lon="1.00852">
        <ele>126</ele>
        <time>2012-09-16T08:19:45Z</time>
      </trkpt>
      <trkpt lat="44.52739" lon="1.0086">
        <ele>129</ele>
        <time>2012-09-16T08:19:50Z</time>
      </trkpt>
      <trkpt lat="44.52733" lon="1.00866">
        <ele>130</ele>
        <time>2012-09-16T08:19:56Z</time>
      </trkpt>
      <trkpt lat="44.52726" lon="1.00867">
        <ele>132</ele>
        <time>2012-09-16T08:20:02Z</time>
      </trkpt>
      <trkpt lat="44.52719" lon="1.00861">
        <ele>132</ele>
        <time>2012-09-16T08:20:07Z</time>
      </trkpt>
      <trkpt lat="44.52712" lon="1.00857">
        <ele>134</ele>
        <time>2012-09-16T08:20:12Z</time>
      </trkpt>
      <trkpt lat="44.52703" lon="1.00853">
        <ele>137</ele>
        <time>2012-09-16T08:20:17Z</time>
      </trkpt>
      <trkpt lat="44.52695" lon="1.00853">
        <ele>138</ele>
        <time>2012-09-16T08:20:22Z</time>
      </trkpt>
      <trkpt lat="44.52685" lon="1.00852">
        <ele>140</ele>
        <time>2012-09-16T08:20:28Z</time>
      </trkpt>
      <trkpt lat="44.52676" lon="1.00846">
        <ele>140</ele>
        <time>2012-09-16T08:20:33Z</time>
      </trkpt>
      <trkpt lat="44.52665" lon="1.00845">
        <ele>140</ele>
        <time>2012-09-16T08:20:38Z</time>
      </trkpt>
      <trkpt lat="44.52655" lon="1.00855">
        <ele>140</ele>
        <time>2012-09-16T08:20:43Z</time>
      </trkpt>
      <trkpt lat="44.52647" lon="1.00867">
        <ele>140</ele>
        <time>2012-09-16T08:20:48Z</time>
      </trkpt>
      <trkpt lat="44.52638" lon="1.00882">
        <ele>141</ele>
        <time>2012-09-16T08:20:53Z</time>
      </trkpt>
      <trkpt lat="44.52627" lon="1.00899">
        <ele>144</ele>
        <time>2012-09-16T08:20:58Z</time>
      </trkpt>
      <trkpt lat="44.52617" lon="1.00915">
        <ele>145</ele>
        <time>2012-09-16T08:21:03Z</time>
      </trkpt>
      <trkpt lat="44.52607" lon="1.00918">
        <ele>145</ele>
        <time>2012-09-16T08:21:08Z</time>
      </trkpt>
      <trkpt lat="44.52599" lon="1.00924">
        <ele>145</ele>
        <time>2012-09-16T08:21:13Z</time>
      </trkpt>
      <trkpt lat="44.52598" lon="1.00934">
        <ele>145</ele>
        <time>2012-09-16T08:21:18Z</time>
      </trkpt>
      <trkpt lat="44.52602" lon="1.00942">
        <ele>145</ele>
        <time>2012-09-16T08:21:24Z</time>
      </trkpt>
      <trkpt lat="44.52605" lon="1.00955">
        <ele>145</ele>
        <time>2012-09-16T08:21:29Z</time>
      </trkpt>
      <trkpt lat="44.5261" lon="1.00971">
        <ele>145</ele>
        <time>2012-09-16T08:21:34Z</time>
      </trkpt>
      <trkpt lat="44.52612" lon="1.00988">
        <ele>150</ele>
        <time>2012-09-16T08:21:39Z</time>
      </trkpt>
      <trkpt lat="44.52611" lon="1.01004">
        <ele>154</ele>
        <time>2012-09-16T08:21:44Z</time>
      </trkpt>
      <trkpt lat="44.52608" lon="1.0102">
        <ele>157</ele>
        <time>2012-09-16T08:21:49Z</time>
      </trkpt>
      <trkpt lat="44.52605" lon="1.01036">
        <ele>158</ele>
        <time>2012-09-16T08:21:54Z</time>
      </trkpt>
      <trkpt lat="44.52604" lon="1.01042">
        <ele>158</ele>
        <time>2012-09-16T08:22:00Z</time>
      </trkpt>
      <trkpt lat="44.52602" lon="1.01044">
        <ele>155</ele>
        <time>2012-09-16T08:22:05Z</time>
      </trkpt>
      <trkpt lat="44.526" lon="1.01044">
        <ele>153</ele>
        <time>2012-09-16T08:22:12Z</time>
      </trkpt>
      <trkpt lat="44.52599" lon="1.01043">
        <ele>151</ele>
        <time>2012-09-16T08:22:24Z</time>
      </trkpt>
      <trkpt lat="44.52599" lon="1.01047">
        <ele>146</ele>
        <time>2012-09-16T08:22:33Z</time>
      </trkpt>
      <trkpt lat="44.52602" lon="1.01046">
        <ele>144</ele>
        <time>2012-09-16T08:22:44Z</time>
      </trkpt>
      <trkpt lat="44.52605" lon="1.01042">
        <ele>142</ele>
        <time>2012-09-16T08:22:51Z</time>
      </trkpt>
      <trkpt lat="44.52603" lon="1.01043">
        <ele>142</ele>
        <time>2012-09-16T08:22:56Z</time>
      </trkpt>
      <trkpt lat="44.52601" lon="1.01039">
        <ele>142</ele>
        <time>2012-09-16T08:23:02Z</time>
      </trkpt>
      <trkpt lat="44.52601" lon="1.0104">
        <ele>142</ele>
        <time>2012-09-16T08:23:09Z</time>
      </trkpt>
      <trkpt lat="44.52599" lon="1.01042">
        <ele>145</ele>
        <time>2012-09-16T08:23:16Z</time>
      </trkpt>
      <trkpt lat="44.52601" lon="1.01042">
        <ele>147</ele>
        <time>2012-09-16T08:23:27Z</time>
      </trkpt>
      <trkpt lat="44.52605" lon="1.01042">
        <ele>148</ele>
        <time>2012-09-16T08:23:33Z</time>
      </trkpt>
      <trkpt lat="44.52605" lon="1.01044">
        <ele>151</ele>
        <time>2012-09-16T08:23:41Z</time>
      </trkpt>
      <trkpt lat="44.52603" lon="1.01051">
        <ele>151</ele>
        <time>2012-09-16T08:23:46Z</time>
      </trkpt>
      <trkpt lat="44.52597" lon="1.0107">
        <ele>151</ele>
        <time>2012-09-16T08:23:51Z</time>
      </trkpt>
      <trkpt lat="44.52574" lon="1.01094">
        <ele>151</ele>
        <time>2012-09-16T08:23:57Z</time>
      </trkpt>
      <trkpt lat="44.52549" lon="1.01111">
        <ele>151</ele>
        <time>2012-09-16T08:24:02Z</time>
      </trkpt>
      <trkpt lat="44.52525" lon="1.01125">
        <ele>151</ele>
        <time>2012-09-16T08:24:07Z</time>
      </trkpt>
      <trkpt lat="44.52498" lon="1.01137">
        <ele>150</ele>
        <time>2012-09-16T08:24:12Z</time>
      </trkpt>
      <trkpt lat="44.52481" lon="1.01162">
        <ele>148</ele>
        <time>2012-09-16T08:24:17Z</time>
      </trkpt>
      <trkpt lat="44.52475" lon="1.01201">
        <ele>148</ele>
        <time>2012-09-16T08:24:22Z</time>
      </trkpt>
      <trkpt lat="44.52462" lon="1.01237">
        <ele>148</ele>
        <time>2012-09-16T08:24:28Z</time>
      </trkpt>
      <trkpt lat="44.52443" lon="1.0126">
        <ele>148</ele>
        <time>2012-09-16T08:24:33Z</time>
      </trkpt>
      <trkpt lat="44.5242" lon="1.01271">
        <ele>148</ele>
        <time>2012-09-16T08:24:38Z</time>
      </trkpt>
      <trkpt lat="44.52396" lon="1.01271">
        <ele>147</ele>
        <time>2012-09-16T08:24:43Z</time>
      </trkpt>
      <trkpt lat="44.5237" lon="1.01284">
        <ele>145</ele>
        <time>2012-09-16T08:24:48Z</time>
      </trkpt>
      <trkpt lat="44.52342" lon="1.01295">
        <ele>141</ele>
        <time>2012-09-16T08:24:53Z</time>
      </trkpt>
      <trkpt lat="44.5231" lon="1.01309">
        <ele>139</ele>
        <time>2012-09-16T08:24:58Z</time>
      </trkpt>
      <trkpt lat="44.52286" lon="1.01345">
        <ele>137</ele>
        <time>2012-09-16T08:25:04Z</time>
      </trkpt>
      <trkpt lat="44.52284" lon="1.0138">
        <ele>135</ele>
        <time>2012-09-16T08:25:09Z</time>
      </trkpt>
      <trkpt lat="44.5228" lon="1.01415">
        <ele>133</ele>
        <time>2012-09-16T08:25:14Z</time>
      </trkpt>
      <trkpt lat="44.52271" lon="1.01444">
        <ele>131</ele>
        <time>2012-09-16T08:25:19Z</time>
      </trkpt>
      <trkpt lat="44.52276" lon="1.01475">
        <ele>128</ele>
        <time>2012-09-16T08:25:24Z</time>
      </trkpt>
      <trkpt lat="44.52297" lon="1.01501">
        <ele>124</ele>
        <time>2012-09-16T08:25:30Z</time>
      </trkpt>
      <trkpt lat="44.52323" lon="1.01525">
        <ele>119</ele>
        <time>2012-09-16T08:25:35Z</time>
      </trkpt>
      <trkpt lat="44.52341" lon="1.0156">
        <ele>116</ele>
        <time>2012-09-16T08:25:40Z</time>
      </trkpt>
      <trkpt lat="44.52348" lon="1.01603">
        <ele>114</ele>
        <time>2012-09-16T08:25:45Z</time>
      </trkpt>
      <trkpt lat="44.52346" lon="1.01625">
        <ele>113</ele>
        <time>2012-09-16T08:25:50Z</time>
      </trkpt>
      <trkpt lat="44.52354" lon="1.01626">
        <ele>112</ele>
        <time>2012-09-16T08:25:55Z</time>
      </trkpt>
      <trkpt lat="44.52371" lon="1.01623">
        <ele>109</ele>
        <time>2012-09-16T08:26:00Z</time>
      </trkpt>
      <trkpt lat="44.52396" lon="1.01617">
        <ele>106</ele>
        <time>2012-09-16T08:26:05Z</time>
      </trkpt>
      <trkpt lat="44.52428" lon="1.01607">
        <ele>104</ele>
        <time>2012-09-16T08:26:11Z</time>
      </trkpt>
      <trkpt lat="44.5245" lon="1.01621">
        <ele>102</ele>
        <time>2012-09-16T08:26:16Z</time>
      </trkpt>
      <trkpt lat="44.52462" lon="1.01666">
        <ele>102</ele>
        <time>2012-09-16T08:26:21Z</time>
      </trkpt>
      <trkpt lat="44.52477" lon="1.01698">
        <ele>101</ele>
        <time>2012-09-16T08:26:26Z</time>
      </trkpt>
      <trkpt lat="44.52488" lon="1.01742">
        <ele>100</ele>
        <time>2012-09-16T08:26:32Z</time>
      </trkpt>
      <trkpt lat="44.52497" lon="1.01778">
        <ele>100</ele>
        <time>2012-09-16T08:26:37Z</time>
      </trkpt>
      <trkpt lat="44.52507" lon="1.01804">
        <ele>100</ele>
        <time>2012-09-16T08:26:42Z</time>
      </trkpt>
      <trkpt lat="44.52523" lon="1.01804">
        <ele>100</ele>
        <time>2012-09-16T08:26:47Z</time>
      </trkpt>
      <trkpt lat="44.52541" lon="1.01802">
        <ele>100</ele>
        <time>2012-09-16T08:26:52Z</time>
      </trkpt>
      <trkpt lat="44.52559" lon="1.01801">
        <ele>98</ele>
        <time>2012-09-16T08:26:57Z</time>
      </trkpt>
      <trkpt lat="44.52575" lon="1.01808">
        <ele>97</ele>
        <time>2012-09-16T08:27:02Z</time>
      </trkpt>
      <trkpt lat="44.52588" lon="1.0182">
        <ele>97</ele>
        <time>2012-09-16T08:27:07Z</time>
      </trkpt>
      <trkpt lat="44.52597" lon="1.01835">
        <ele>97</ele>
        <time>2012-09-16T08:27:12Z</time>
      </trkpt>
      <trkpt lat="44.52609" lon="1.01849">
        <ele>96</ele>
        <time>2012-09-16T08:27:17Z</time>
      </trkpt>
      <trkpt lat="44.52625" lon="1.0186">
        <ele>96</ele>
        <time>2012-09-16T08:27:22Z</time>
      </trkpt>
      <trkpt lat="44.52637" lon="1.01874">
        <ele>96</ele>
        <time>2012-09-16T08:27:27Z</time>
      </trkpt>
      <trkpt lat="44.52648" lon="1.01884">
        <ele>96</ele>
        <time>2012-09-16T08:27:32Z</time>
      </trkpt>
      <trkpt lat="44.52658" lon="1.01891">
        <ele>96</ele>
        <time>2012-09-16T08:27:37Z</time>
      </trkpt>
      <trkpt lat="44.52672" lon="1.01902">
        <ele>96</ele>
        <time>2012-09-16T08:27:42Z</time>
      </trkpt>
      <trkpt lat="44.52686" lon="1.01911">
        <ele>96</ele>
        <time>2012-09-16T08:27:47Z</time>
      </trkpt>
      <trkpt lat="44.52697" lon="1.01918">
        <ele>96</ele>
        <time>2012-09-16T08:27:52Z</time>
      </trkpt>
      <trkpt lat="44.52712" lon="1.01919">
        <ele>100</ele>
        <time>2012-09-16T08:27:57Z</time>
      </trkpt>
      <trkpt lat="44.52726" lon="1.0192">
        <ele>100</ele>
        <time>2012-09-16T08:28:02Z</time>
      </trkpt>
      <trkpt lat="44.52739" lon="1.01918">
        <ele>101</ele>
        <time>2012-09-16T08:28:07Z</time>
      </trkpt>
      <trkpt lat="44.52751" lon="1.01914">
        <ele>101</ele>
        <time>2012-09-16T08:28:12Z</time>
      </trkpt>
      <trkpt lat="44.52764" lon="1.01908">
        <ele>102</ele>
        <time>2012-09-16T08:28:17Z</time>
      </trkpt>
      <trkpt lat="44.52775" lon="1.01901">
        <ele>103</ele>
        <time>2012-09-16T08:28:22Z</time>
      </trkpt>
      <trkpt lat="44.52787" lon="1.01894">
        <ele>103</ele>
        <time>2012-09-16T08:28:27Z</time>
      </trkpt>
      <trkpt lat="44.52799" lon="1.01893">
        <ele>103</ele>
        <time>2012-09-16T08:28:32Z</time>
      </trkpt>
      <trkpt lat="44.52808" lon="1.01888">
        <ele>105</ele>
        <time>2012-09-16T08:28:37Z</time>
      </trkpt>
      <trkpt lat="44.52815" lon="1.01882">
        <ele>107</ele>
        <time>2012-09-16T08:28:42Z</time>
      </trkpt>
      <trkpt lat="44.5282" lon="1.01873">
        <ele>111</ele>
        <time>2012-09-16T08:28:48Z</time>
      </trkpt>
      <trkpt lat="44.52825" lon="1.01868">
        <ele>112</ele>
        <time>2012-09-16T08:28:53Z</time>
      </trkpt>
      <trkpt lat="44.52831" lon="1.01863">
        <ele>112</ele>
        <time>2012-09-16T08:28:59Z</time>
      </trkpt>
      <trkpt lat="44.52832" lon="1.01864">
        <ele>112</ele>
        <time>2012-09-16T08:29:05Z</time>
      </trkpt>
      <trkpt lat="44.52832" lon="1.01862">
        <ele>115</ele>
        <time>2012-09-16T08:29:11Z</time>
      </trkpt>
      <trkpt lat="44.52835" lon="1.01858">
        <ele>119</ele>
        <time>2012-09-16T08:29:17Z</time>
      </trkpt>
      <trkpt lat="44.52839" lon="1.01856">
        <ele>121</ele>
        <time>2012-09-16T08:29:23Z</time>
      </trkpt>
      <trkpt lat="44.52844" lon="1.01851">
        <ele>122</ele>
        <time>2012-09-16T08:29:29Z</time>
      </trkpt>
      <trkpt lat="44.52847" lon="1.01848">
        <ele>123</ele>
        <time>2012-09-16T08:29:34Z</time>
      </trkpt>
      <trkpt lat="44.5285" lon="1.01846">
        <ele>128</ele>
        <time>2012-09-16T08:29:42Z</time>
      </trkpt>
      <trkpt lat="44.52852" lon="1.01843">
        <ele>128</ele>
        <time>2012-09-16T08:29:47Z</time>
      </trkpt>
      <trkpt lat="44.52856" lon="1.01839">
        <ele>129</ele>
        <time>2012-09-16T08:29:53Z</time>
      </trkpt>
      <trkpt lat="44.5286" lon="1.01837">
        <ele>131</ele>
        <time>2012-09-16T08:29:58Z</time>
      </trkpt>
      <trkpt lat="44.52863" lon="1.01832">
        <ele>131</ele>
        <time>2012-09-16T08:30:03Z</time>
      </trkpt>
      <trkpt lat="44.52866" lon="1.01828">
        <ele>131</ele>
        <time>2012-09-16T08:30:09Z</time>
      </trkpt>
      <trkpt lat="44.52869" lon="1.01824">
        <ele>129</ele>
        <time>2012-09-16T08:30:14Z</time>
      </trkpt>
      <trkpt lat="44.52871" lon="1.01822">
        <ele>129</ele>
        <time>2012-09-16T08:30:19Z</time>
      </trkpt>
      <trkpt lat="44.52873" lon="1.01823">
        <ele>130</ele>
        <time>2012-09-16T08:30:29Z</time>
      </trkpt>
      <trkpt lat="44.52876" lon="1.01821">
        <ele>132</ele>
        <time>2012-09-16T08:30:35Z</time>
      </trkpt>
      <trkpt lat="44.52879" lon="1.01819">
        <ele>134</ele>
        <time>2012-09-16T08:30:40Z</time>
      </trkpt>
      <trkpt lat="44.52885" lon="1.01816">
        <ele>134</ele>
        <time>2012-09-16T08:30:45Z</time>
      </trkpt>
      <trkpt lat="44.52888" lon="1.01816">
        <ele>134</ele>
        <time>2012-09-16T08:30:51Z</time>
      </trkpt>
      <trkpt lat="44.5289" lon="1.01818">
        <ele>134</ele>
        <time>2012-09-16T08:31:03Z</time>
      </trkpt>
      <trkpt lat="44.52894" lon="1.01817">
        <ele>134</ele>
        <time>2012-09-16T08:31:08Z</time>
      </trkpt>
      <trkpt lat="44.52897" lon="1.01818">
        <ele>134</ele>
        <time>2012-09-16T08:31:13Z</time>
      </trkpt>
      <trkpt lat="44.52901" lon="1.01821">
        <ele>135</ele>
        <time>2012-09-16T08:31:20Z</time>
      </trkpt>
      <trkpt lat="44.52902" lon="1.01823">
        <ele>138</ele>
        <time>2012-09-16T08:31:25Z</time>
      </trkpt>
      <trkpt lat="44.52906" lon="1.01827">
        <ele>140</ele>
        <time>2012-09-16T08:31:32Z</time>
      </trkpt>
      <trkpt lat="44.5291" lon="1.01826">
        <ele>141</ele>
        <time>2012-09-16T08:31:38Z</time>
      </trkpt>
      <trkpt lat="44.52913" lon="1.01826">
        <ele>144</ele>
        <time>2012-09-16T08:31:44Z</time>
      </trkpt>
      <trkpt lat="44.52917" lon="1.01831">
        <ele>144</ele>
        <time>2012-09-16T08:31:51Z</time>
      </trkpt>
      <trkpt lat="44.52919" lon="1.01835">
        <ele>144</ele>
        <time>2012-09-16T08:31:56Z</time>
      </trkpt>
      <trkpt lat="44.52923" lon="1.01837">
        <ele>144</ele>
        <time>2012-09-16T08:32:02Z</time>
      </trkpt>
      <trkpt lat="44.52924" lon="1.01838">
        <ele>144</ele>
        <time>2012-09-16T08:32:07Z</time>
      </trkpt>
      <trkpt lat="44.52926" lon="1.01841">
        <ele>144</ele>
        <time>2012-09-16T08:32:15Z</time>
      </trkpt>
      <trkpt lat="44.52928" lon="1.01843">
        <ele>141</ele>
        <time>2012-09-16T08:32:21Z</time>
      </trkpt>
      <trkpt lat="44.52933" lon="1.01844">
        <ele>138</ele>
        <time>2012-09-16T08:32:27Z</time>
      </trkpt>
      <trkpt lat="44.52938" lon="1.01845">
        <ele>136</ele>
        <time>2012-09-16T08:32:33Z</time>
      </trkpt>
      <trkpt lat="44.52942" lon="1.01846">
        <ele>136</ele>
        <time>2012-09-16T08:32:39Z</time>
      </trkpt>
      <trkpt lat="44.52944" lon="1.01847">
        <ele>136</ele>
        <time>2012-09-16T08:32:44Z</time>
      </trkpt>
      <trkpt lat="44.5295" lon="1.01848">
        <ele>136</ele>
        <time>2012-09-16T08:32:50Z</time>
      </trkpt>
      <trkpt lat="44.52953" lon="1.0185">
        <ele>136</ele>
        <time>2012-09-16T08:32:57Z</time>
      </trkpt>
      <trkpt lat="44.52953" lon="1.01856">
        <ele>136</ele>
        <time>2012-09-16T08:33:02Z</time>
      </trkpt>
      <trkpt lat="44.52956" lon="1.01859">
        <ele>137</ele>
        <time>2012-09-16T08:33:07Z</time>
      </trkpt>
      <trkpt lat="44.52958" lon="1.01865">
        <ele>142</ele>
        <time>2012-09-16T08:33:13Z</time>
      </trkpt>
      <trkpt lat="44.5296" lon="1.0187">
        <ele>146</ele>
        <time>2012-09-16T08:33:18Z</time>
      </trkpt>
      <trkpt lat="44.5296" lon="1.01881">
        <ele>148</ele>
        <time>2012-09-16T08:33:23Z</time>
      </trkpt>
      <trkpt lat="44.52961" lon="1.01887">
        <ele>150</ele>
        <time>2012-09-16T08:33:28Z</time>
      </trkpt>
      <trkpt lat="44.52963" lon="1.01893">
        <ele>150</ele>
        <time>2012-09-16T08:33:36Z</time>
      </trkpt>
      <trkpt lat="44.52965" lon="1.01893">
        <ele>165</ele>
        <time>2012-09-16T08:33:53Z</time>
      </trkpt>
      <trkpt lat="44.52963" lon="1.01891">
        <ele>169</ele>
        <time>2012-09-16T08:34:03Z</time>
      </trkpt>
      <trkpt lat="44.52964" lon="1.01892">
        <ele>170</ele>
        <time>2012-09-16T08:34:10Z</time>
      </trkpt>
      <trkpt lat="44.52967" lon="1.01895">
        <ele>170</ele>
        <time>2012-09-16T08:34:16Z</time>
      </trkpt>
      <trkpt lat="44.52966" lon="1.01899">
        <ele>169</ele>
        <time>2012-09-16T08:34:21Z</time>
      </trkpt>
      <trkpt lat="44.52964" lon="1.01905">
        <ele>169</ele>
        <time>2012-09-16T08:34:27Z</time>
      </trkpt>
      <trkpt lat="44.52956" lon="1.01915">
        <ele>169</ele>
        <time>2012-09-16T08:34:32Z</time>
      </trkpt>
      <trkpt lat="44.52953" lon="1.01928">
        <ele>167</ele>
        <time>2012-09-16T08:34:37Z</time>
      </trkpt>
      <trkpt lat="44.52952" lon="1.01943">
        <ele>167</ele>
        <time>2012-09-16T08:34:42Z</time>
      </trkpt>
      <trkpt lat="44.52957" lon="1.01957">
        <ele>167</ele>
        <time>2012-09-16T08:34:47Z</time>
      </trkpt>
      <trkpt lat="44.52961" lon="1.01978">
        <ele>166</ele>
        <time>2012-09-16T08:34:52Z</time>
      </trkpt>
      <trkpt lat="44.52957" lon="1.02007">
        <ele>166</ele>
        <time>2012-09-16T08:34:57Z</time>
      </trkpt>
      <trkpt lat="44.52945" lon="1.02036">
        <ele>166</ele>
        <time>2012-09-16T08:35:02Z</time>
      </trkpt>
      <trkpt lat="44.52932" lon="1.02065">
        <ele>166</ele>
        <time>2012-09-16T08:35:07Z</time>
      </trkpt>
      <trkpt lat="44.52916" lon="1.02089">
        <ele>165</ele>
        <time>2012-09-16T08:35:12Z</time>
      </trkpt>
      <trkpt lat="44.52901" lon="1.02114">
        <ele>164</ele>
        <time>2012-09-16T08:35:17Z</time>
      </trkpt>
      <trkpt lat="44.52879" lon="1.02127">
        <ele>160</ele>
        <time>2012-09-16T08:35:22Z</time>
      </trkpt>
      <trkpt lat="44.52841" lon="1.02139">
        <ele>155</ele>
        <time>2012-09-16T08:35:27Z</time>
      </trkpt>
      <trkpt lat="44.52806" lon="1.02136">
        <ele>151</ele>
        <time>2012-09-16T08:35:32Z</time>
      </trkpt>
      <trkpt lat="44.52772" lon="1.02132">
        <ele>146</ele>
        <time>2012-09-16T08:35:37Z</time>
      </trkpt>
      <trkpt lat="44.52739" lon="1.02146">
        <ele>142</ele>
        <time>2012-09-16T08:35:42Z</time>
      </trkpt>
      <trkpt lat="44.52712" lon="1.02162">
        <ele>140</ele>
        <time>2012-09-16T08:35:47Z</time>
      </trkpt>
      <trkpt lat="44.52682" lon="1.02201">
        <ele>139</ele>
        <time>2012-09-16T08:35:52Z</time>
      </trkpt>
      <trkpt lat="44.52649" lon="1.02226">
        <ele>138</ele>
        <time>2012-09-16T08:35:57Z</time>
      </trkpt>
      <trkpt lat="44.52621" lon="1.02258">
        <ele>138</ele>
        <time>2012-09-16T08:36:02Z</time>
      </trkpt>
      <trkpt lat="44.52609" lon="1.02297">
        <ele>137</ele>
        <time>2012-09-16T08:36:07Z</time>
      </trkpt>
      <trkpt lat="44.52603" lon="1.02333">
        <ele>136</ele>
        <time>2012-09-16T08:36:12Z</time>
      </trkpt>
      <trkpt lat="44.52593" lon="1.02366">
        <ele>136</ele>
        <time>2012-09-16T08:36:17Z</time>
      </trkpt>
      <trkpt lat="44.52573" lon="1.02398">
        <ele>136</ele>
        <time>2012-09-16T08:36:22Z</time>
      </trkpt>
      <trkpt lat="44.52546" lon="1.02419">
        <ele>136</ele>
        <time>2012-09-16T08:36:27Z</time>
      </trkpt>
      <trkpt lat="44.5252" lon="1.02441">
        <ele>138</ele>
        <time>2012-09-16T08:36:32Z</time>
      </trkpt>
      <trkpt lat="44.52495" lon="1.02472">
        <ele>140</ele>
        <time>2012-09-16T08:36:37Z</time>
      </trkpt>
      <trkpt lat="44.52467" lon="1.02509">
        <ele>140</ele>
        <time>2012-09-16T08:36:42Z</time>
      </trkpt>
      <trkpt lat="44.52442" lon="1.02547">
        <ele>140</ele>
        <time>2012-09-16T08:36:47Z</time>
      </trkpt>
      <trkpt lat="44.52421" lon="1.02586">
        <ele>137</ele>
        <time>2012-09-16T08:36:52Z</time>
      </trkpt>
      <trkpt lat="44.52408" lon="1.02634">
        <ele>132</ele>
        <time>2012-09-16T08:36:57Z</time>
      </trkpt>
      <trkpt lat="44.52392" lon="1.02678">
        <ele>127</ele>
        <time>2012-09-16T08:37:02Z</time>
      </trkpt>
      <trkpt lat="44.52369" lon="1.02716">
        <ele>122</ele>
        <time>2012-09-16T08:37:07Z</time>
      </trkpt>
      <trkpt lat="44.5234" lon="1.02748">
        <ele>117</ele>
        <time>2012-09-16T08:37:12Z</time>
      </trkpt>
      <trkpt lat="44.52303" lon="1.02767">
        <ele>112</ele>
        <time>2012-09-16T08:37:17Z</time>
      </trkpt>
      <trkpt lat="44.52277" lon="1.02788">
        <ele>107</ele>
        <time>2012-09-16T08:37:22Z</time>
      </trkpt>
      <trkpt lat="44.52256" lon="1.02804">
        <ele>102</ele>
        <time>2012-09-16T08:37:27Z</time>
      </trkpt>
      <trkpt lat="44.52243" lon="1.02817">
        <ele>97</ele>
        <time>2012-09-16T08:37:32Z</time>
      </trkpt>
      <trkpt lat="44.52242" lon="1.02818">
        <ele>91</ele>
        <time>2012-09-16T08:37:38Z</time>
      </trkpt>
      <trkpt lat="44.5224" lon="1.02819">
        <ele>91</ele>
        <time>2012-09-16T08:37:43Z</time>
      </trkpt>
      <trkpt lat="44.5224" lon="1.0282">
        <ele>91</ele>
        <time>2012-09-16T08:38:10Z</time>
      </trkpt>
      <trkpt lat="44.52238" lon="1.0282">
        <ele>92</ele>
        <time>2012-09-16T08:38:21Z</time>
      </trkpt>
      <trkpt lat="44.52239" lon="1.02818">
        <ele>92</ele>
        <time>2012-09-16T08:38:28Z</time>
      </trkpt>
      <trkpt lat="44.5224" lon="1.02817">
        <ele>90</ele>
        <time>2012-09-16T08:38:33Z</time>
      </trkpt>
      <trkpt lat="44.52239" lon="1.02817">
        <ele>90</ele>
        <time>2012-09-16T08:38:56Z</time>
      </trkpt>
      <trkpt lat="44.52239" lon="1.02818">
        <ele>90</ele>
        <time>2012-09-16T08:39:12Z</time>
      </trkpt>
      <trkpt lat="44.52239" lon="1.0282">
        <ele>89</ele>
        <time>2012-09-16T08:39:26Z</time>
      </trkpt>
      <trkpt lat="44.52239" lon="1.02817">
        <ele>89</ele>
        <time>2012-09-16T08:39:43Z</time>
      </trkpt>
      <trkpt lat="44.52238" lon="1.02821">
        <ele>89</ele>
        <time>2012-09-16T08:40:03Z</time>
      </trkpt>
      <trkpt lat="44.52226" lon="1.0284">
        <ele>89</ele>
        <time>2012-09-16T08:40:08Z</time>
      </trkpt>
      <trkpt lat="44.52202" lon="1.02867">
        <ele>89</ele>
        <time>2012-09-16T08:40:13Z</time>
      </trkpt>
      <trkpt lat="44.52178" lon="1.02885">
        <ele>89</ele>
        <time>2012-09-16T08:40:18Z</time>
      </trkpt>
      <trkpt lat="44.52166" lon="1.02893">
        <ele>87</ele>
        <time>2012-09-16T08:40:23Z</time>
      </trkpt>
      <trkpt lat="44.52164" lon="1.02918">
        <ele>86</ele>
        <time>2012-09-16T08:40:28Z</time>
      </trkpt>
      <trkpt lat="44.52166" lon="1.02945">
        <ele>85</ele>
        <time>2012-09-16T08:40:33Z</time>
      </trkpt>
      <trkpt lat="44.52169" lon="1.02971">
        <ele>85</ele>
        <time>2012-09-16T08:40:38Z</time>
      </trkpt>
      <trkpt lat="44.52171" lon="1.03001">
        <ele>85</ele>
        <time>2012-09-16T08:40:43Z</time>
      </trkpt>
      <trkpt lat="44.52174" lon="1.0303">
        <ele>85</ele>
        <time>2012-09-16T08:40:48Z</time>
      </trkpt>
      <trkpt lat="44.52177" lon="1.03059">
        <ele>86</ele>
        <time>2012-09-16T08:40:53Z</time>
      </trkpt>
      <trkpt lat="44.52179" lon="1.03087">
        <ele>88</ele>
        <time>2012-09-16T08:40:58Z</time>
      </trkpt>
      <trkpt lat="44.52182" lon="1.03114">
        <ele>90</ele>
        <time>2012-09-16T08:41:03Z</time>
      </trkpt>
      <trkpt lat="44.52176" lon="1.03129">
        <ele>91</ele>
        <time>2012-09-16T08:41:08Z</time>
      </trkpt>
      <trkpt lat="44.52148" lon="1.03122">
        <ele>91</ele>
        <time>2012-09-16T08:41:13Z</time>
      </trkpt>
      <trkpt lat="44.52114" lon="1.03114">
        <ele>90</ele>
        <time>2012-09-16T08:41:18Z</time>
      </trkpt>
      <trkpt lat="44.52084" lon="1.03109">
        <ele>88</ele>
        <time>2012-09-16T08:41:23Z</time>
      </trkpt>
      <trkpt lat="44.52057" lon="1.0311">
        <ele>86</ele>
        <time>2012-09-16T08:41:28Z</time>
      </trkpt>
      <trkpt lat="44.52032" lon="1.03109">
        <ele>85</ele>
        <time>2012-09-16T08:41:33Z</time>
      </trkpt>
      <trkpt lat="44.52007" lon="1.03109">
        <ele>84</ele>
        <time>2012-09-16T08:41:38Z</time>
      </trkpt>
      <trkpt lat="44.51984" lon="1.03107">
        <ele>84</ele>
        <time>2012-09-16T08:41:43Z</time>
      </trkpt>
      <trkpt lat="44.51969" lon="1.03101">
        <ele>84</ele>
        <time>2012-09-16T08:41:48Z</time>
      </trkpt>
      <trkpt lat="44.51951" lon="1.03098">
        <ele>84</ele>
        <time>2012-09-16T08:41:53Z</time>
      </trkpt>
      <trkpt lat="44.51937" lon="1.03097">
        <ele>85</ele>
        <time>2012-09-16T08:41:58Z</time>
      </trkpt>
      <trkpt lat="44.51932" lon="1.03116">
        <ele>85</ele>
        <time>2012-09-16T08:42:03Z</time>
      </trkpt>
      <trkpt lat="44.51931" lon="1.03147">
        <ele>85</ele>
        <time>2012-09-16T08:42:08Z</time>
      </trkpt>
      <trkpt lat="44.51928" lon="1.03175">
        <ele>85</ele>
        <time>2012-09-16T08:42:13Z</time>
      </trkpt>
      <trkpt lat="44.51926" lon="1.03202">
        <ele>84</ele>
        <time>2012-09-16T08:42:18Z</time>
      </trkpt>
      <trkpt lat="44.51924" lon="1.03223">
        <ele>84</ele>
        <time>2012-09-16T08:42:23Z</time>
      </trkpt>
      <trkpt lat="44.51913" lon="1.0323">
        <ele>84</ele>
        <time>2012-09-16T08:42:28Z</time>
      </trkpt>
      <trkpt lat="44.51901" lon="1.03227">
        <ele>84</ele>
        <time>2012-09-16T08:42:33Z</time>
      </trkpt>
      <trkpt lat="44.51891" lon="1.03226">
        <ele>84</ele>
        <time>2012-09-16T08:42:38Z</time>
      </trkpt>
      <trkpt lat="44.51883" lon="1.03224">
        <ele>84</ele>
        <time>2012-09-16T08:42:43Z</time>
      </trkpt>
      <trkpt lat="44.51875" lon="1.03221">
        <ele>84</ele>
        <time>2012-09-16T08:42:48Z</time>
      </trkpt>
      <trkpt lat="44.51864" lon="1.03216">
        <ele>84</ele>
        <time>2012-09-16T08:42:53Z</time>
      </trkpt>
      <trkpt lat="44.51854" lon="1.03214">
        <ele>84</ele>
        <time>2012-09-16T08:42:58Z</time>
      </trkpt>
      <trkpt lat="44.51842" lon="1.03211">
        <ele>84</ele>
        <time>2012-09-16T08:43:03Z</time>
      </trkpt>
      <trkpt lat="44.51831" lon="1.03208">
        <ele>84</ele>
        <time>2012-09-16T08:43:08Z</time>
      </trkpt>
      <trkpt lat="44.51819" lon="1.03203">
        <ele>85</ele>
        <time>2012-09-16T08:43:13Z</time>
      </trkpt>
      <trkpt lat="44.51808" lon="1.032">
        <ele>85</ele>
        <time>2012-09-16T08:43:18Z</time>
      </trkpt>
      <trkpt lat="44.51799" lon="1.03197">
        <ele>86</ele>
        <time>2012-09-16T08:43:23Z</time>
      </trkpt>
      <trkpt lat="44.5179" lon="1.03195">
        <ele>88</ele>
        <time>2012-09-16T08:43:28Z</time>
      </trkpt>
      <trkpt lat="44.51781" lon="1.03193">
        <ele>89</ele>
        <time>2012-09-16T08:43:33Z</time>
      </trkpt>
      <trkpt lat="44.51773" lon="1.03191">
        <ele>89</ele>
        <time>2012-09-16T08:43:38Z</time>
      </trkpt>
      <trkpt lat="44.51765" lon="1.0319">
        <ele>90</ele>
        <time>2012-09-16T08:43:43Z</time>
      </trkpt>
      <trkpt lat="44.51757" lon="1.03187">
        <ele>92</ele>
        <time>2012-09-16T08:43:48Z</time>
      </trkpt>
      <trkpt lat="44.5175" lon="1.03184">
        <ele>94</ele>
        <time>2012-09-16T08:43:53Z</time>
      </trkpt>
      <trkpt lat="44.51741" lon="1.03179">
        <ele>96</ele>
        <time>2012-09-16T08:43:58Z</time>
      </trkpt>
      <trkpt lat="44.51735" lon="1.03177">
        <ele>97</ele>
        <time>2012-09-16T08:44:03Z</time>
      </trkpt>
      <trkpt lat="44.51727" lon="1.03175">
        <ele>100</ele>
        <time>2012-09-16T08:44:08Z</time>
      </trkpt>
      <trkpt lat="44.51719" lon="1.03175">
        <ele>100</ele>
        <time>2012-09-16T08:44:13Z</time>
      </trkpt>
      <trkpt lat="44.51712" lon="1.03175">
        <ele>101</ele>
        <time>2012-09-16T08:44:18Z</time>
      </trkpt>
      <trkpt lat="44.51705" lon="1.03174">
        <ele>103</ele>
        <time>2012-09-16T08:44:23Z</time>
      </trkpt>
      <trkpt lat="44.51698" lon="1.03173">
        <ele>105</ele>
        <time>2012-09-16T08:44:28Z</time>
      </trkpt>
      <trkpt lat="44.5169" lon="1.03173">
        <ele>106</ele>
        <time>2012-09-16T08:44:33Z</time>
      </trkpt>
      <trkpt lat="44.51683" lon="1.03173">
        <ele>108</ele>
        <time>2012-09-16T08:44:38Z</time>
      </trkpt>
      <trkpt lat="44.51677" lon="1.03173">
        <ele>109</ele>
        <time>2012-09-16T08:44:43Z</time>
      </trkpt>
      <trkpt lat="44.51669" lon="1.03175">
        <ele>110</ele>
        <time>2012-09-16T08:44:48Z</time>
      </trkpt>
      <trkpt lat="44.51663" lon="1.03174">
        <ele>114</ele>
        <time>2012-09-16T08:44:53Z</time>
      </trkpt>
      <trkpt lat="44.51654" lon="1.03175">
        <ele>117</ele>
        <time>2012-09-16T08:44:58Z</time>
      </trkpt>
      <trkpt lat="44.51645" lon="1.03175">
        <ele>119</ele>
        <time>2012-09-16T08:45:04Z</time>
      </trkpt>
      <trkpt lat="44.51636" lon="1.03176">
        <ele>120</ele>
        <time>2012-09-16T08:45:09Z</time>
      </trkpt>
      <trkpt lat="44.51627" lon="1.03177">
        <ele>120</ele>
        <time>2012-09-16T08:45:14Z</time>
      </trkpt>
      <trkpt lat="44.5162" lon="1.03178">
        <ele>120</ele>
        <time>2012-09-16T08:45:19Z</time>
      </trkpt>
      <trkpt lat="44.5161" lon="1.03181">
        <ele>120</ele>
        <time>2012-09-16T08:45:24Z</time>
      </trkpt>
      <trkpt lat="44.51599" lon="1.03183">
        <ele>120</ele>
        <time>2012-09-16T08:45:29Z</time>
      </trkpt>
      <trkpt lat="44.5159" lon="1.03184">
        <ele>120</ele>
        <time>2012-09-16T08:45:34Z</time>
      </trkpt>
      <trkpt lat="44.51582" lon="1.03186">
        <ele>120</ele>
        <time>2012-09-16T08:45:39Z</time>
      </trkpt>
      <trkpt lat="44.51572" lon="1.03188">
        <ele>122</ele>
        <time>2012-09-16T08:45:44Z</time>
      </trkpt>
      <trkpt lat="44.51563" lon="1.03191">
        <ele>122</ele>
        <time>2012-09-16T08:45:49Z</time>
      </trkpt>
      <trkpt lat="44.51553" lon="1.03193">
        <ele>124</ele>
        <time>2012-09-16T08:45:54Z</time>
      </trkpt>
      <trkpt lat="44.51544" lon="1.03196">
        <ele>125</ele>
        <time>2012-09-16T08:45:59Z</time>
      </trkpt>
      <trkpt lat="44.51535" lon="1.03198">
        <ele>128</ele>
        <time>2012-09-16T08:46:04Z</time>
      </trkpt>
      <trkpt lat="44.51525" lon="1.03201">
        <ele>128</ele>
        <time>2012-09-16T08:46:09Z</time>
      </trkpt>
      <trkpt lat="44.51516" lon="1.03202">
        <ele>128</ele>
        <time>2012-09-16T08:46:14Z</time>
      </trkpt>
      <trkpt lat="44.51507" lon="1.03206">
        <ele>130</ele>
        <time>2012-09-16T08:46:19Z</time>
      </trkpt>
      <trkpt lat="44.51497" lon="1.03209">
        <ele>132</ele>
        <time>2012-09-16T08:46:24Z</time>
      </trkpt>
      <trkpt lat="44.51487" lon="1.03213">
        <ele>133</ele>
        <time>2012-09-16T08:46:29Z</time>
      </trkpt>
      <trkpt lat="44.51479" lon="1.03218">
        <ele>133</ele>
        <time>2012-09-16T08:46:34Z</time>
      </trkpt>
      <trkpt lat="44.51471" lon="1.03223">
        <ele>135</ele>
        <time>2012-09-16T08:46:39Z</time>
      </trkpt>
      <trkpt lat="44.51462" lon="1.03227">
        <ele>138</ele>
        <time>2012-09-16T08:46:44Z</time>
      </trkpt>
      <trkpt lat="44.51446" lon="1.03238">
        <ele>140</ele>
        <time>2012-09-16T08:46:49Z</time>
      </trkpt>
      <trkpt lat="44.51434" lon="1.03245">
        <ele>141</ele>
        <time>2012-09-16T08:46:54Z</time>
      </trkpt>
      <trkpt lat="44.51423" lon="1.03251">
        <ele>143</ele>
        <time>2012-09-16T08:46:59Z</time>
      </trkpt>
      <trkpt lat="44.51414" lon="1.03252">
        <ele>143</ele>
        <time>2012-09-16T08:47:04Z</time>
      </trkpt>
      <trkpt lat="44.51402" lon="1.03254">
        <ele>144</ele>
        <time>2012-09-16T08:47:09Z</time>
      </trkpt>
      <trkpt lat="44.5139" lon="1.03256">
        <ele>145</ele>
        <time>2012-09-16T08:47:14Z</time>
      </trkpt>
      <trkpt lat="44.51377" lon="1.03258">
        <ele>145</ele>
        <time>2012-09-16T08:47:19Z</time>
      </trkpt>
      <trkpt lat="44.51365" lon="1.03258">
        <ele>145</ele>
        <time>2012-09-16T08:47:24Z</time>
      </trkpt>
      <trkpt lat="44.51355" lon="1.03255">
        <ele>145</ele>
        <time>2012-09-16T08:47:29Z</time>
      </trkpt>
      <trkpt lat="44.51347" lon="1.03251">
        <ele>145</ele>
        <time>2012-09-16T08:47:34Z</time>
      </trkpt>
      <trkpt lat="44.5134" lon="1.03244">
        <ele>146</ele>
        <time>2012-09-16T08:47:39Z</time>
      </trkpt>
      <trkpt lat="44.51331" lon="1.03237">
        <ele>147</ele>
        <time>2012-09-16T08:47:44Z</time>
      </trkpt>
      <trkpt lat="44.51323" lon="1.03236">
        <ele>147</ele>
        <time>2012-09-16T08:47:49Z</time>
      </trkpt>
      <trkpt lat="44.51316" lon="1.03235">
        <ele>147</ele>
        <time>2012-09-16T08:47:54Z</time>
      </trkpt>
      <trkpt lat="44.51308" lon="1.03236">
        <ele>149</ele>
        <time>2012-09-16T08:47:59Z</time>
      </trkpt>
      <trkpt lat="44.513" lon="1.03238">
        <ele>152</ele>
        <time>2012-09-16T08:48:05Z</time>
      </trkpt>
      <trkpt lat="44.51292" lon="1.03237">
        <ele>156</ele>
        <time>2012-09-16T08:48:10Z</time>
      </trkpt>
      <trkpt lat="44.51286" lon="1.03237">
        <ele>159</ele>
        <time>2012-09-16T08:48:15Z</time>
      </trkpt>
      <trkpt lat="44.51277" lon="1.03238">
        <ele>161</ele>
        <time>2012-09-16T08:48:20Z</time>
      </trkpt>
      <trkpt lat="44.51268" lon="1.03239">
        <ele>161</ele>
        <time>2012-09-16T08:48:25Z</time>
      </trkpt>
      <trkpt lat="44.51258" lon="1.03242">
        <ele>161</ele>
        <time>2012-09-16T08:48:31Z</time>
      </trkpt>
      <trkpt lat="44.51249" lon="1.03245">
        <ele>162</ele>
        <time>2012-09-16T08:48:36Z</time>
      </trkpt>
      <trkpt lat="44.51238" lon="1.03251">
        <ele>169</ele>
        <time>2012-09-16T08:48:44Z</time>
      </trkpt>
      <trkpt lat="44.51229" lon="1.03254">
        <ele>172</ele>
        <time>2012-09-16T08:48:49Z</time>
      </trkpt>
      <trkpt lat="44.51221" lon="1.03258">
        <ele>172</ele>
        <time>2012-09-16T08:48:54Z</time>
      </trkpt>
      <trkpt lat="44.51215" lon="1.0326">
        <ele>172</ele>
        <time>2012-09-16T08:48:59Z</time>
      </trkpt>
      <trkpt lat="44.51209" lon="1.03265">
        <ele>172</ele>
        <time>2012-09-16T08:49:04Z</time>
      </trkpt>
      <trkpt lat="44.51199" lon="1.03271">
        <ele>172</ele>
        <time>2012-09-16T08:49:09Z</time>
      </trkpt>
      <trkpt lat="44.51189" lon="1.03279">
        <ele>172</ele>
        <time>2012-09-16T08:49:14Z</time>
      </trkpt>
      <trkpt lat="44.51183" lon="1.03289">
        <ele>172</ele>
        <time>2012-09-16T08:49:19Z</time>
      </trkpt>
      <trkpt lat="44.51179" lon="1.03299">
        <ele>172</ele>
        <time>2012-09-16T08:49:24Z</time>
      </trkpt>
      <trkpt lat="44.51176" lon="1.03312">
        <ele>172</ele>
        <time>2012-09-16T08:49:29Z</time>
      </trkpt>
      <trkpt lat="44.51176" lon="1.03326">
        <ele>172</ele>
        <time>2012-09-16T08:49:34Z</time>
      </trkpt>
      <trkpt lat="44.51177" lon="1.0334">
        <ele>172</ele>
        <time>2012-09-16T08:49:39Z</time>
      </trkpt>
      <trkpt lat="44.51178" lon="1.03357">
        <ele>172</ele>
        <time>2012-09-16T08:49:44Z</time>
      </trkpt>
      <trkpt lat="44.5118" lon="1.03374">
        <ele>172</ele>
        <time>2012-09-16T08:49:49Z</time>
      </trkpt>
      <trkpt lat="44.51181" lon="1.03388">
        <ele>173</ele>
        <time>2012-09-16T08:49:54Z</time>
      </trkpt>
      <trkpt lat="44.51181" lon="1.03402">
        <ele>176</ele>
        <time>2012-09-16T08:49:59Z</time>
      </trkpt>
      <trkpt lat="44.51178" lon="1.03416">
        <ele>176</ele>
        <time>2012-09-16T08:50:04Z</time>
      </trkpt>
      <trkpt lat="44.51171" lon="1.03425">
        <ele>177</ele>
        <time>2012-09-16T08:50:09Z</time>
      </trkpt>
      <trkpt lat="44.51163" lon="1.03429">
        <ele>177</ele>
        <time>2012-09-16T08:50:14Z</time>
      </trkpt>
      <trkpt lat="44.51154" lon="1.03434">
        <ele>178</ele>
        <time>2012-09-16T08:50:19Z</time>
      </trkpt>
      <trkpt lat="44.51145" lon="1.0344">
        <ele>180</ele>
        <time>2012-09-16T08:50:24Z</time>
      </trkpt>
      <trkpt lat="44.51138" lon="1.03444">
        <ele>182</ele>
        <time>2012-09-16T08:50:29Z</time>
      </trkpt>
      <trkpt lat="44.51129" lon="1.03449">
        <ele>182</ele>
        <time>2012-09-16T08:50:35Z</time>
      </trkpt>
      <trkpt lat="44.51123" lon="1.03459">
        <ele>182</ele>
        <time>2012-09-16T08:50:40Z</time>
      </trkpt>
      <trkpt lat="44.51122" lon="1.03469">
        <ele>182</ele>
        <time>2012-09-16T08:50:45Z</time>
      </trkpt>
      <trkpt lat="44.51126" lon="1.0348">
        <ele>182</ele>
        <time>2012-09-16T08:50:51Z</time>
      </trkpt>
      <trkpt lat="44.51128" lon="1.03489">
        <ele>183</ele>
        <time>2012-09-16T08:50:56Z</time>
      </trkpt>
      <trkpt lat="44.51133" lon="1.03498">
        <ele>185</ele>
        <time>2012-09-16T08:51:01Z</time>
      </trkpt>
      <trkpt lat="44.51141" lon="1.03507">
        <ele>185</ele>
        <time>2012-09-16T08:51:06Z</time>
      </trkpt>
      <trkpt lat="44.51147" lon="1.03518">
        <ele>186</ele>
        <time>2012-09-16T08:51:11Z</time>
      </trkpt>
      <trkpt lat="44.51152" lon="1.03526">
        <ele>186</ele>
        <time>2012-09-16T08:51:16Z</time>
      </trkpt>
      <trkpt lat="44.51152" lon="1.03524">
        <ele>189</ele>
        <time>2012-09-16T08:51:27Z</time>
      </trkpt>
      <trkpt lat="44.51151" lon="1.03527">
        <ele>189</ele>
        <time>2012-09-16T08:51:36Z</time>
      </trkpt>
      <trkpt lat="44.51148" lon="1.0353">
        <ele>190</ele>
        <time>2012-09-16T08:51:42Z</time>
      </trkpt>
      <trkpt lat="44.51147" lon="1.03529">
        <ele>190</ele>
        <time>2012-09-16T08:51:49Z</time>
      </trkpt>
      <trkpt lat="44.51148" lon="1.03528">
        <ele>190</ele>
        <time>2012-09-16T08:51:55Z</time>
      </trkpt>
      <trkpt lat="44.51146" lon="1.03528">
        <ele>190</ele>
        <time>2012-09-16T08:52:01Z</time>
      </trkpt>
      <trkpt lat="44.51148" lon="1.03528">
        <ele>190</ele>
        <time>2012-09-16T08:52:10Z</time>
      </trkpt>
      <trkpt lat="44.51149" lon="1.03527">
        <ele>192</ele>
        <time>2012-09-16T08:52:15Z</time>
      </trkpt>
      <trkpt lat="44.51151" lon="1.03524">
        <ele>192</ele>
        <time>2012-09-16T08:52:20Z</time>
      </trkpt>
      <trkpt lat="44.51156" lon="1.03522">
        <ele>193</ele>
        <time>2012-09-16T08:52:56Z</time>
      </trkpt>
      <trkpt lat="44.51155" lon="1.03521">
        <ele>194</ele>
        <time>2012-09-16T08:53:06Z</time>
      </trkpt>
      <trkpt lat="44.51156" lon="1.03523">
        <ele>194</ele>
        <time>2012-09-16T08:53:12Z</time>
      </trkpt>
      <trkpt lat="44.51162" lon="1.0353">
        <ele>194</ele>
        <time>2012-09-16T08:53:17Z</time>
      </trkpt>
      <trkpt lat="44.51169" lon="1.03542">
        <ele>194</ele>
        <time>2012-09-16T08:53:22Z</time>
      </trkpt>
      <trkpt lat="44.51177" lon="1.03556">
        <ele>194</ele>
        <time>2012-09-16T08:53:27Z</time>
      </trkpt>
      <trkpt lat="44.51185" lon="1.03572">
        <ele>194</ele>
        <time>2012-09-16T08:53:32Z</time>
      </trkpt>
      <trkpt lat="44.51189" lon="1.03589">
        <ele>194</ele>
        <time>2012-09-16T08:53:37Z</time>
      </trkpt>
      <trkpt lat="44.5119" lon="1.03609">
        <ele>194</ele>
        <time>2012-09-16T08:53:42Z</time>
      </trkpt>
      <trkpt lat="44.5119" lon="1.03629">
        <ele>194</ele>
        <time>2012-09-16T08:53:47Z</time>
      </trkpt>
      <trkpt lat="44.51189" lon="1.03649">
        <ele>194</ele>
        <time>2012-09-16T08:53:52Z</time>
      </trkpt>
      <trkpt lat="44.51189" lon="1.03667">
        <ele>192</ele>
        <time>2012-09-16T08:53:57Z</time>
      </trkpt>
      <trkpt lat="44.5119" lon="1.03685">
        <ele>191</ele>
        <time>2012-09-16T08:54:02Z</time>
      </trkpt>
      <trkpt lat="44.51191" lon="1.03706">
        <ele>191</ele>
        <time>2012-09-16T08:54:07Z</time>
      </trkpt>
      <trkpt lat="44.5119" lon="1.03726">
        <ele>191</ele>
        <time>2012-09-16T08:54:12Z</time>
      </trkpt>
      <trkpt lat="44.51184" lon="1.03744">
        <ele>191</ele>
        <time>2012-09-16T08:54:17Z</time>
      </trkpt>
      <trkpt lat="44.51176" lon="1.03762">
        <ele>191</ele>
        <time>2012-09-16T08:54:22Z</time>
      </trkpt>
      <trkpt lat="44.51168" lon="1.03779">
        <ele>195</ele>
        <time>2012-09-16T08:54:27Z</time>
      </trkpt>
      <trkpt lat="44.5116" lon="1.03797">
        <ele>197</ele>
        <time>2012-09-16T08:54:32Z</time>
      </trkpt>
      <trkpt lat="44.51151" lon="1.03816">
        <ele>198</ele>
        <time>2012-09-16T08:54:37Z</time>
      </trkpt>
      <trkpt lat="44.5114" lon="1.03835">
        <ele>200</ele>
        <time>2012-09-16T08:54:42Z</time>
      </trkpt>
      <trkpt lat="44.51127" lon="1.03846">
        <ele>200</ele>
        <time>2012-09-16T08:54:47Z</time>
      </trkpt>
      <trkpt lat="44.51114" lon="1.03856">
        <ele>200</ele>
        <time>2012-09-16T08:54:52Z</time>
      </trkpt>
      <trkpt lat="44.511" lon="1.03867">
        <ele>200</ele>
        <time>2012-09-16T08:54:57Z</time>
      </trkpt>
      <trkpt lat="44.51088" lon="1.03879">
        <ele>200</ele>
        <time>2012-09-16T08:55:02Z</time>
      </trkpt>
      <trkpt lat="44.51075" lon="1.03892">
        <ele>200</ele>
        <time>2012-09-16T08:55:07Z</time>
      </trkpt>
      <trkpt lat="44.51062" lon="1.03902">
        <ele>200</ele>
        <time>2012-09-16T08:55:12Z</time>
      </trkpt>
      <trkpt lat="44.51045" lon="1.03908">
        <ele>201</ele>
        <time>2012-09-16T08:55:17Z</time>
      </trkpt>
      <trkpt lat="44.51035" lon="1.03916">
        <ele>201</ele>
        <time>2012-09-16T08:55:22Z</time>
      </trkpt>
      <trkpt lat="44.5103" lon="1.03928">
        <ele>201</ele>
        <time>2012-09-16T08:55:27Z</time>
      </trkpt>
      <trkpt lat="44.51024" lon="1.03933">
        <ele>201</ele>
        <time>2012-09-16T08:55:32Z</time>
      </trkpt>
      <trkpt lat="44.51022" lon="1.03935">
        <ele>201</ele>
        <time>2012-09-16T08:55:38Z</time>
      </trkpt>
      <trkpt lat="44.51022" lon="1.03935">
        <ele>207</ele>
        <time>2012-09-16T08:55:55Z</time>
      </trkpt>
      <trkpt lat="44.51021" lon="1.03937">
        <ele>208</ele>
        <time>2012-09-16T08:56:18Z</time>
      </trkpt>
      <trkpt lat="44.51022" lon="1.03937">
        <ele>211</ele>
        <time>2012-09-16T08:58:04Z</time>
      </trkpt>
      <trkpt lat="44.51023" lon="1.03938">
        <ele>213</ele>
        <time>2012-09-16T08:58:32Z</time>
      </trkpt>
      <trkpt lat="44.51025" lon="1.03938">
        <ele>216</ele>
        <time>2012-09-16T08:59:03Z</time>
      </trkpt>
      <trkpt lat="44.51026" lon="1.03939">
        <ele>217</ele>
        <time>2012-09-16T08:59:08Z</time>
      </trkpt>
      <trkpt lat="44.51027" lon="1.03939">
        <ele>219</ele>
        <time>2012-09-16T08:59:16Z</time>
      </trkpt>
      <trkpt lat="44.51032" lon="1.03941">
        <ele>223</ele>
        <time>2012-09-16T08:59:21Z</time>
      </trkpt>
      <trkpt lat="44.51034" lon="1.03943">
        <ele>231</ele>
        <time>2012-09-16T08:59:39Z</time>
      </trkpt>
      <trkpt lat="44.51033" lon="1.03943">
        <ele>231</ele>
        <time>2012-09-16T08:59:48Z</time>
      </trkpt>
      <trkpt lat="44.51031" lon="1.03942">
        <ele>231</ele>
        <time>2012-09-16T08:59:58Z</time>
      </trkpt>
      <trkpt lat="44.5103" lon="1.03942">
        <ele>231</ele>
        <time>2012-09-16T09:00:15Z</time>
      </trkpt>
      <trkpt lat="44.51029" lon="1.03941">
        <ele>231</ele>
        <time>2012-09-16T09:00:42Z</time>
      </trkpt>
      <trkpt lat="44.51028" lon="1.03941">
        <ele>229</ele>
        <time>2012-09-16T09:00:52Z</time>
      </trkpt>
      <trkpt lat="44.51027" lon="1.0394">
        <ele>228</ele>
        <time>2012-09-16T09:01:03Z</time>
      </trkpt>
      <trkpt lat="44.51028" lon="1.03942">
        <ele>226</ele>
        <time>2012-09-16T09:01:21Z</time>
      </trkpt>
      <trkpt lat="44.5103" lon="1.03943">
        <ele>228</ele>
        <time>2012-09-16T09:01:31Z</time>
      </trkpt>
      <trkpt lat="44.51031" lon="1.03943">
        <ele>230</ele>
        <time>2012-09-16T09:01:41Z</time>
      </trkpt>
      <trkpt lat="44.51033" lon="1.03942">
        <ele>230</ele>
        <time>2012-09-16T09:01:51Z</time>
      </trkpt>
      <trkpt lat="44.51033" lon="1.03941">
        <ele>230</ele>
        <time>2012-09-16T09:02:04Z</time>
      </trkpt>
      <trkpt lat="44.51032" lon="1.0394">
        <ele>230</ele>
        <time>2012-09-16T09:02:15Z</time>
      </trkpt>
      <trkpt lat="44.51031" lon="1.0394">
        <ele>230</ele>
        <time>2012-09-16T09:02:29Z</time>
      </trkpt>
      <trkpt lat="44.5103" lon="1.0394">
        <ele>230</ele>
        <time>2012-09-16T09:02:44Z</time>
      </trkpt>
      <trkpt lat="44.51029" lon="1.03939">
        <ele>230</ele>
        <time>2012-09-16T09:03:04Z</time>
      </trkpt>
      <trkpt lat="44.51028" lon="1.03938">
        <ele>228</ele>
        <time>2012-09-16T09:03:22Z</time>
      </trkpt>
      <trkpt lat="44.51029" lon="1.03939">
        <ele>226</ele>
        <time>2012-09-16T09:03:55Z</time>
      </trkpt>
      <trkpt lat="44.51028" lon="1.03938">
        <ele>226</ele>
        <time>2012-09-16T09:04:25Z</time>
      </trkpt>
      <trkpt lat="44.51027" lon="1.03938">
        <ele>226</ele>
        <time>2012-09-16T09:04:34Z</time>
      </trkpt>
      <trkpt lat="44.51025" lon="1.03937">
        <ele>226</ele>
        <time>2012-09-16T09:04:49Z</time>
      </trkpt>
      <trkpt lat="44.51024" lon="1.03936">
        <ele>226</ele>
        <time>2012-09-16T09:05:06Z</time>
      </trkpt>
      <trkpt lat="44.51023" lon="1.03936">
        <ele>226</ele>
        <time>2012-09-16T09:05:32Z</time>
      </trkpt>
      <trkpt lat="44.51025" lon="1.03938">
        <ele>226</ele>
        <time>2012-09-16T09:05:40Z</time>
      </trkpt>
      <trkpt lat="44.51027" lon="1.03939">
        <ele>226</ele>
        <time>2012-09-16T09:05:46Z</time>
      </trkpt>
      <trkpt lat="44.51025" lon="1.03938">
        <ele>227</ele>
        <time>2012-09-16T09:06:15Z</time>
      </trkpt>
      <trkpt lat="44.51025" lon="1.03936">
        <ele>226</ele>
        <time>2012-09-16T09:06:37Z</time>
      </trkpt>
      <trkpt lat="44.51025" lon="1.03935">
        <ele>224</ele>
        <time>2012-09-16T09:06:51Z</time>
      </trkpt>
      <trkpt lat="44.51024" lon="1.03933">
        <ele>220</ele>
        <time>2012-09-16T09:06:58Z</time>
      </trkpt>
      <trkpt lat="44.51027" lon="1.03932">
        <ele>212</ele>
        <time>2012-09-16T09:07:17Z</time>
      </trkpt>
      <trkpt lat="44.51031" lon="1.03928">
        <ele>209</ele>
        <time>2012-09-16T09:07:24Z</time>
      </trkpt>
      <trkpt lat="44.5103" lon="1.03929">
        <ele>207</ele>
        <time>2012-09-16T09:07:41Z</time>
      </trkpt>
      <trkpt lat="44.5103" lon="1.03929">
        <ele>207</ele>
        <time>2012-09-16T09:07:58Z</time>
      </trkpt>
      <trkpt lat="44.51034" lon="1.03925">
        <ele>204</ele>
        <time>2012-09-16T09:08:05Z</time>
      </trkpt>
      <trkpt lat="44.51034" lon="1.03925">
        <ele>201</ele>
        <time>2012-09-16T09:08:13Z</time>
      </trkpt>
      <trkpt lat="44.51032" lon="1.03927">
        <ele>201</ele>
        <time>2012-09-16T09:08:24Z</time>
      </trkpt>
      <trkpt lat="44.51028" lon="1.0393">
        <ele>201</ele>
        <time>2012-09-16T09:08:29Z</time>
      </trkpt>
      <trkpt lat="44.51024" lon="1.03934">
        <ele>202</ele>
        <time>2012-09-16T09:08:34Z</time>
      </trkpt>
      <trkpt lat="44.51028" lon="1.03927">
        <ele>204</ele>
        <time>2012-09-16T09:08:39Z</time>
      </trkpt>
      <trkpt lat="44.51036" lon="1.03917">
        <ele>204</ele>
        <time>2012-09-16T09:08:44Z</time>
      </trkpt>
      <trkpt lat="44.51044" lon="1.03905">
        <ele>204</ele>
        <time>2012-09-16T09:08:49Z</time>
      </trkpt>
      <trkpt lat="44.51058" lon="1.03901">
        <ele>204</ele>
        <time>2012-09-16T09:08:54Z</time>
      </trkpt>
      <trkpt lat="44.51071" lon="1.03905">
        <ele>204</ele>
        <time>2012-09-16T09:08:59Z</time>
      </trkpt>
      <trkpt lat="44.51088" lon="1.03935">
        <ele>203</ele>
        <time>2012-09-16T09:09:05Z</time>
      </trkpt>
      <trkpt lat="44.51102" lon="1.03974">
        <ele>202</ele>
        <time>2012-09-16T09:09:10Z</time>
      </trkpt>
      <trkpt lat="44.51112" lon="1.04008">
        <ele>200</ele>
        <time>2012-09-16T09:09:15Z</time>
      </trkpt>
      <trkpt lat="44.51113" lon="1.04043">
        <ele>198</ele>
        <time>2012-09-16T09:09:20Z</time>
      </trkpt>
      <trkpt lat="44.51107" lon="1.04074">
        <ele>196</ele>
        <time>2012-09-16T09:09:26Z</time>
      </trkpt>
      <trkpt lat="44.51087" lon="1.04081">
        <ele>196</ele>
        <time>2012-09-16T09:09:31Z</time>
      </trkpt>
      <trkpt lat="44.51062" lon="1.04095">
        <ele>195</ele>
        <time>2012-09-16T09:09:37Z</time>
      </trkpt>
      <trkpt lat="44.51026" lon="1.04103">
        <ele>191</ele>
        <time>2012-09-16T09:09:42Z</time>
      </trkpt>
      <trkpt lat="44.50987" lon="1.04116">
        <ele>186</ele>
        <time>2012-09-16T09:09:48Z</time>
      </trkpt>
      <trkpt lat="44.50971" lon="1.04121">
        <ele>184</ele>
        <time>2012-09-16T09:09:53Z</time>
      </trkpt>
      <trkpt lat="44.50955" lon="1.04127">
        <ele>182</ele>
        <time>2012-09-16T09:09:58Z</time>
      </trkpt>
      <trkpt lat="44.5094" lon="1.04135">
        <ele>181</ele>
        <time>2012-09-16T09:10:03Z</time>
      </trkpt>
      <trkpt lat="44.50925" lon="1.04144">
        <ele>179</ele>
        <time>2012-09-16T09:10:08Z</time>
      </trkpt>
      <trkpt lat="44.50909" lon="1.04154">
        <ele>177</ele>
        <time>2012-09-16T09:10:13Z</time>
      </trkpt>
      <trkpt lat="44.50894" lon="1.04164">
        <ele>174</ele>
        <time>2012-09-16T09:10:18Z</time>
      </trkpt>
      <trkpt lat="44.50883" lon="1.04173">
        <ele>173</ele>
        <time>2012-09-16T09:10:23Z</time>
      </trkpt>
      <trkpt lat="44.50882" lon="1.04183">
        <ele>173</ele>
        <time>2012-09-16T09:10:28Z</time>
      </trkpt>
      <trkpt lat="44.50872" lon="1.04196">
        <ele>173</ele>
        <time>2012-09-16T09:10:33Z</time>
      </trkpt>
      <trkpt lat="44.50855" lon="1.04219">
        <ele>169</ele>
        <time>2012-09-16T09:10:39Z</time>
      </trkpt>
      <trkpt lat="44.5084" lon="1.04241">
        <ele>169</ele>
        <time>2012-09-16T09:10:44Z</time>
      </trkpt>
      <trkpt lat="44.50822" lon="1.0426">
        <ele>169</ele>
        <time>2012-09-16T09:10:49Z</time>
      </trkpt>
      <trkpt lat="44.50803" lon="1.04281">
        <ele>169</ele>
        <time>2012-09-16T09:10:54Z</time>
      </trkpt>
      <trkpt lat="44.50776" lon="1.04294">
        <ele>169</ele>
        <time>2012-09-16T09:10:59Z</time>
      </trkpt>
      <trkpt lat="44.5075" lon="1.04303">
        <ele>166</ele>
        <time>2012-09-16T09:11:04Z</time>
      </trkpt>
      <trkpt lat="44.50725" lon="1.04333">
        <ele>162</ele>
        <time>2012-09-16T09:11:10Z</time>
      </trkpt>
      <trkpt lat="44.50712" lon="1.04347">
        <ele>161</ele>
        <time>2012-09-16T09:11:15Z</time>
      </trkpt>
      <trkpt lat="44.50688" lon="1.04362">
        <ele>157</ele>
        <time>2012-09-16T09:11:20Z</time>
      </trkpt>
      <trkpt lat="44.50647" lon="1.04378">
        <ele>153</ele>
        <time>2012-09-16T09:11:26Z</time>
      </trkpt>
      <trkpt lat="44.50616" lon="1.04397">
        <ele>151</ele>
        <time>2012-09-16T09:11:31Z</time>
      </trkpt>
      <trkpt lat="44.50599" lon="1.04399">
        <ele>147</ele>
        <time>2012-09-16T09:11:36Z</time>
      </trkpt>
      <trkpt lat="44.50581" lon="1.04415">
        <ele>144</ele>
        <time>2012-09-16T09:11:41Z</time>
      </trkpt>
      <trkpt lat="44.50554" lon="1.04447">
        <ele>141</ele>
        <time>2012-09-16T09:11:46Z</time>
      </trkpt>
      <trkpt lat="44.5053" lon="1.04445">
        <ele>138</ele>
        <time>2012-09-16T09:11:51Z</time>
      </trkpt>
      <trkpt lat="44.50498" lon="1.04428">
        <ele>138</ele>
        <time>2012-09-16T09:11:56Z</time>
      </trkpt>
      <trkpt lat="44.50485" lon="1.04412">
        <ele>137</ele>
        <time>2012-09-16T09:12:01Z</time>
      </trkpt>
      <trkpt lat="44.50479" lon="1.04401">
        <ele>137</ele>
        <time>2012-09-16T09:12:06Z</time>
      </trkpt>
      <trkpt lat="44.50475" lon="1.04386">
        <ele>136</ele>
        <time>2012-09-16T09:12:11Z</time>
      </trkpt>
      <trkpt lat="44.50468" lon="1.04373">
        <ele>134</ele>
        <time>2012-09-16T09:12:16Z</time>
      </trkpt>
      <trkpt lat="44.50452" lon="1.04364">
        <ele>134</ele>
        <time>2012-09-16T09:12:21Z</time>
      </trkpt>
      <trkpt lat="44.50437" lon="1.04356">
        <ele>134</ele>
        <time>2012-09-16T09:12:26Z</time>
      </trkpt>
      <trkpt lat="44.50421" lon="1.04347">
        <ele>134</ele>
        <time>2012-09-16T09:12:31Z</time>
      </trkpt>
      <trkpt lat="44.50406" lon="1.04343">
        <ele>134</ele>
        <time>2012-09-16T09:12:36Z</time>
      </trkpt>
      <trkpt lat="44.50391" lon="1.04327">
        <ele>134</ele>
        <time>2012-09-16T09:12:41Z</time>
      </trkpt>
      <trkpt lat="44.50367" lon="1.04316">
        <ele>134</ele>
        <time>2012-09-16T09:12:46Z</time>
      </trkpt>
      <trkpt lat="44.50344" lon="1.04304">
        <ele>134</ele>
        <time>2012-09-16T09:12:51Z</time>
      </trkpt>
      <trkpt lat="44.50329" lon="1.04289">
        <ele>133</ele>
        <time>2012-09-16T09:12:56Z</time>
      </trkpt>
      <trkpt lat="44.50313" lon="1.04304">
        <ele>131</ele>
        <time>2012-09-16T09:13:01Z</time>
      </trkpt>
      <trkpt lat="44.50293" lon="1.04295">
        <ele>131</ele>
        <time>2012-09-16T09:13:06Z</time>
      </trkpt>
      <trkpt lat="44.50272" lon="1.04285">
        <ele>131</ele>
        <time>2012-09-16T09:13:11Z</time>
      </trkpt>
      <trkpt lat="44.50253" lon="1.04272">
        <ele>131</ele>
        <time>2012-09-16T09:13:16Z</time>
      </trkpt>
      <trkpt lat="44.50236" lon="1.04274">
        <ele>131</ele>
        <time>2012-09-16T09:13:21Z</time>
      </trkpt>
      <trkpt lat="44.5022" lon="1.04267">
        <ele>131</ele>
        <time>2012-09-16T09:13:26Z</time>
      </trkpt>
      <trkpt lat="44.50198" lon="1.04263">
        <ele>131</ele>
        <time>2012-09-16T09:13:31Z</time>
      </trkpt>
      <trkpt lat="44.50175" lon="1.04266">
        <ele>131</ele>
        <time>2012-09-16T09:13:37Z</time>
      </trkpt>
      <trkpt lat="44.50166" lon="1.04286">
        <ele>129</ele>
        <time>2012-09-16T09:13:42Z</time>
      </trkpt>
      <trkpt lat="44.50147" lon="1.04301">
        <ele>129</ele>
        <time>2012-09-16T09:13:47Z</time>
      </trkpt>
      <trkpt lat="44.50131" lon="1.04316">
        <ele>126</ele>
        <time>2012-09-16T09:13:52Z</time>
      </trkpt>
      <trkpt lat="44.50112" lon="1.04339">
        <ele>122</ele>
        <time>2012-09-16T09:13:57Z</time>
      </trkpt>
      <trkpt lat="44.50097" lon="1.04366">
        <ele>117</ele>
        <time>2012-09-16T09:14:02Z</time>
      </trkpt>
      <trkpt lat="44.50082" lon="1.04389">
        <ele>112</ele>
        <time>2012-09-16T09:14:07Z</time>
      </trkpt>
      <trkpt lat="44.50071" lon="1.04407">
        <ele>109</ele>
        <time>2012-09-16T09:14:12Z</time>
      </trkpt>
      <trkpt lat="44.50056" lon="1.04437">
        <ele>105</ele>
        <time>2012-09-16T09:14:17Z</time>
      </trkpt>
      <trkpt lat="44.50046" lon="1.04464">
        <ele>101</ele>
        <time>2012-09-16T09:14:22Z</time>
      </trkpt>
      <trkpt lat="44.50027" lon="1.04479">
        <ele>98</ele>
        <time>2012-09-16T09:14:27Z</time>
      </trkpt>
      <trkpt lat="44.50009" lon="1.04497">
        <ele>95</ele>
        <time>2012-09-16T09:14:32Z</time>
      </trkpt>
      <trkpt lat="44.49994" lon="1.04531">
        <ele>92</ele>
        <time>2012-09-16T09:14:37Z</time>
      </trkpt>
      <trkpt lat="44.49978" lon="1.04541">
        <ele>90</ele>
        <time>2012-09-16T09:14:42Z</time>
      </trkpt>
      <trkpt lat="44.49976" lon="1.04543">
        <ele>88</ele>
        <time>2012-09-16T09:14:50Z</time>
      </trkpt>
      <trkpt lat="44.49978" lon="1.04544">
        <ele>87</ele>
        <time>2012-09-16T09:14:55Z</time>
      </trkpt>
      <trkpt lat="44.49978" lon="1.04544">
        <ele>86</ele>
        <time>2012-09-16T09:15:05Z</time>
      </trkpt>
      <trkpt lat="44.49976" lon="1.04545">
        <ele>86</ele>
        <time>2012-09-16T09:15:18Z</time>
      </trkpt>
      <trkpt lat="44.49975" lon="1.04545">
        <ele>96</ele>
        <time>2012-09-16T09:15:37Z</time>
      </trkpt>
      <trkpt lat="44.49977" lon="1.04546">
        <ele>97</ele>
        <time>2012-09-16T09:15:46Z</time>
      </trkpt>
      <trkpt lat="44.49976" lon="1.04546">
        <ele>97</ele>
        <time>2012-09-16T09:15:53Z</time>
      </trkpt>
      <trkpt lat="44.49974" lon="1.04546">
        <ele>97</ele>
        <time>2012-09-16T09:15:58Z</time>
      </trkpt>
      <trkpt lat="44.49976" lon="1.04547">
        <ele>97</ele>
        <time>2012-09-16T09:16:04Z</time>
      </trkpt>
      <trkpt lat="44.49976" lon="1.04545">
        <ele>97</ele>
        <time>2012-09-16T09:16:11Z</time>
      </trkpt>
      <trkpt lat="44.49975" lon="1.04546">
        <ele>87</ele>
        <time>2012-09-16T09:16:25Z</time>
      </trkpt>
      <trkpt lat="44.49975" lon="1.04547">
        <ele>85</ele>
        <time>2012-09-16T09:16:33Z</time>
      </trkpt>
      <trkpt lat="44.49974" lon="1.0455">
        <ele>84</ele>
        <time>2012-09-16T09:16:38Z</time>
      </trkpt>
      <trkpt lat="44.49968" lon="1.04569">
        <ele>82</ele>
        <time>2012-09-16T09:16:43Z</time>
      </trkpt>
      <trkpt lat="44.49966" lon="1.04593">
        <ele>78</ele>
        <time>2012-09-16T09:16:48Z</time>
      </trkpt>
      <trkpt lat="44.49965" lon="1.04615">
        <ele>76</ele>
        <time>2012-09-16T09:16:53Z</time>
      </trkpt>
      <trkpt lat="44.49955" lon="1.04635">
        <ele>76</ele>
        <time>2012-09-16T09:16:58Z</time>
      </trkpt>
      <trkpt lat="44.49944" lon="1.04652">
        <ele>76</ele>
        <time>2012-09-16T09:17:03Z</time>
      </trkpt>
      <trkpt lat="44.49931" lon="1.04675">
        <ele>78</ele>
        <time>2012-09-16T09:17:08Z</time>
      </trkpt>
      <trkpt lat="44.4992" lon="1.04697">
        <ele>78</ele>
        <time>2012-09-16T09:17:13Z</time>
      </trkpt>
      <trkpt lat="44.49907" lon="1.04721">
        <ele>78</ele>
        <time>2012-09-16T09:17:18Z</time>
      </trkpt>
      <trkpt lat="44.49892" lon="1.04746">
        <ele>78</ele>
        <time>2012-09-16T09:17:23Z</time>
      </trkpt>
      <trkpt lat="44.49883" lon="1.04779">
        <ele>76</ele>
        <time>2012-09-16T09:17:28Z</time>
      </trkpt>
      <trkpt lat="44.49879" lon="1.048">
        <ele>74</ele>
        <time>2012-09-16T09:17:33Z</time>
      </trkpt>
      <trkpt lat="44.49873" lon="1.04806">
        <ele>74</ele>
        <time>2012-09-16T09:17:38Z</time>
      </trkpt>
      <trkpt lat="44.49872" lon="1.04807">
        <ele>74</ele>
        <time>2012-09-16T09:17:43Z</time>
      </trkpt>
      <trkpt lat="44.49866" lon="1.0482">
        <ele>74</ele>
        <time>2012-09-16T09:17:48Z</time>
      </trkpt>
      <trkpt lat="44.49854" lon="1.04832">
        <ele>74</ele>
        <time>2012-09-16T09:17:53Z</time>
      </trkpt>
      <trkpt lat="44.49828" lon="1.04838">
        <ele>74</ele>
        <time>2012-09-16T09:17:58Z</time>
      </trkpt>
      <trkpt lat="44.498" lon="1.04837">
        <ele>74</ele>
        <time>2012-09-16T09:18:03Z</time>
      </trkpt>
      <trkpt lat="44.4979" lon="1.0485">
        <ele>74</ele>
        <time>2012-09-16T09:18:08Z</time>
      </trkpt>
      <trkpt lat="44.49808" lon="1.04848">
        <ele>72</ele>
        <time>2012-09-16T09:18:13Z</time>
      </trkpt>
      <trkpt lat="44.49827" lon="1.04846">
        <ele>71</ele>
        <time>2012-09-16T09:18:18Z</time>
      </trkpt>
      <trkpt lat="44.49848" lon="1.04848">
        <ele>70</ele>
        <time>2012-09-16T09:18:23Z</time>
      </trkpt>
      <trkpt lat="44.49868" lon="1.04848">
        <ele>70</ele>
        <time>2012-09-16T09:18:28Z</time>
      </trkpt>
      <trkpt lat="44.49889" lon="1.04851">
        <ele>70</ele>
        <time>2012-09-16T09:18:33Z</time>
      </trkpt>
      <trkpt lat="44.4991" lon="1.04854">
        <ele>70</ele>
        <time>2012-09-16T09:18:38Z</time>
      </trkpt>
      <trkpt lat="44.49933" lon="1.04854">
        <ele>70</ele>
        <time>2012-09-16T09:18:43Z</time>
      </trkpt>
      <trkpt lat="44.49958" lon="1.04856">
        <ele>69</ele>
        <time>2012-09-16T09:18:48Z</time>
      </trkpt>
      <trkpt lat="44.49989" lon="1.0486">
        <ele>68</ele>
        <time>2012-09-16T09:18:53Z</time>
      </trkpt>
      <trkpt lat="44.50018" lon="1.04864">
        <ele>67</ele>
        <time>2012-09-16T09:18:58Z</time>
      </trkpt>
      <trkpt lat="44.50052" lon="1.04868">
        <ele>65</ele>
        <time>2012-09-16T09:19:03Z</time>
      </trkpt>
      <trkpt lat="44.50087" lon="1.04871">
        <ele>62</ele>
        <time>2012-09-16T09:19:08Z</time>
      </trkpt>
      <trkpt lat="44.50122" lon="1.04875">
        <ele>60</ele>
        <time>2012-09-16T09:19:13Z</time>
      </trkpt>
      <trkpt lat="44.50154" lon="1.0488">
        <ele>59</ele>
        <time>2012-09-16T09:19:18Z</time>
      </trkpt>
      <trkpt lat="44.50184" lon="1.04888">
        <ele>59</ele>
        <time>2012-09-16T09:19:23Z</time>
      </trkpt>
      <trkpt lat="44.50215" lon="1.04899">
        <ele>59</ele>
        <time>2012-09-16T09:19:28Z</time>
      </trkpt>
      <trkpt lat="44.50245" lon="1.04909">
        <ele>59</ele>
        <time>2012-09-16T09:19:33Z</time>
      </trkpt>
      <trkpt lat="44.50274" lon="1.04921">
        <ele>59</ele>
        <time>2012-09-16T09:19:38Z</time>
      </trkpt>
      <trkpt lat="44.50301" lon="1.04929">
        <ele>62</ele>
        <time>2012-09-16T09:19:43Z</time>
      </trkpt>
      <trkpt lat="44.50328" lon="1.04938">
        <ele>63</ele>
        <time>2012-09-16T09:19:48Z</time>
      </trkpt>
      <trkpt lat="44.50359" lon="1.04947">
        <ele>63</ele>
        <time>2012-09-16T09:19:53Z</time>
      </trkpt>
      <trkpt lat="44.50388" lon="1.04954">
        <ele>63</ele>
        <time>2012-09-16T09:19:58Z</time>
      </trkpt>
      <trkpt lat="44.50414" lon="1.04961">
        <ele>63</ele>
        <time>2012-09-16T09:20:03Z</time>
      </trkpt>
      <trkpt lat="44.50437" lon="1.0497">
        <ele>63</ele>
        <time>2012-09-16T09:20:08Z</time>
      </trkpt>
      <trkpt lat="44.5046" lon="1.04981">
        <ele>63</ele>
        <time>2012-09-16T09:20:13Z</time>
      </trkpt>
      <trkpt lat="44.50486" lon="1.0499">
        <ele>63</ele>
        <time>2012-09-16T09:20:18Z</time>
      </trkpt>
      <trkpt lat="44.50512" lon="1.04997">
        <ele>63</ele>
        <time>2012-09-16T09:20:23Z</time>
      </trkpt>
      <trkpt lat="44.50541" lon="1.05006">
        <ele>63</ele>
        <time>2012-09-16T09:20:28Z</time>
      </trkpt>
      <trkpt lat="44.50569" lon="1.05014">
        <ele>63</ele>
        <time>2012-09-16T09:20:33Z</time>
      </trkpt>
      <trkpt lat="44.50594" lon="1.05025">
        <ele>63</ele>
        <time>2012-09-16T09:20:38Z</time>
      </trkpt>
      <trkpt lat="44.50618" lon="1.05034">
        <ele>63</ele>
        <time>2012-09-16T09:20:43Z</time>
      </trkpt>
      <trkpt lat="44.50646" lon="1.05043">
        <ele>63</ele>
        <time>2012-09-16T09:20:48Z</time>
      </trkpt>
      <trkpt lat="44.50671" lon="1.05055">
        <ele>63</ele>
        <time>2012-09-16T09:20:53Z</time>
      </trkpt>
      <trkpt lat="44.50693" lon="1.05067">
        <ele>64</ele>
        <time>2012-09-16T09:20:58Z</time>
      </trkpt>
      <trkpt lat="44.50716" lon="1.05083">
        <ele>65</ele>
        <time>2012-09-16T09:21:03Z</time>
      </trkpt>
      <trkpt lat="44.50741" lon="1.05103">
        <ele>66</ele>
        <time>2012-09-16T09:21:08Z</time>
      </trkpt>
      <trkpt lat="44.5077" lon="1.05122">
        <ele>69</ele>
        <time>2012-09-16T09:21:13Z</time>
      </trkpt>
      <trkpt lat="44.50793" lon="1.05141">
        <ele>71</ele>
        <time>2012-09-16T09:21:18Z</time>
      </trkpt>
      <trkpt lat="44.50818" lon="1.05161">
        <ele>71</ele>
        <time>2012-09-16T09:21:23Z</time>
      </trkpt>
      <trkpt lat="44.50843" lon="1.05178">
        <ele>71</ele>
        <time>2012-09-16T09:21:28Z</time>
      </trkpt>
      <trkpt lat="44.50868" lon="1.05196">
        <ele>71</ele>
        <time>2012-09-16T09:21:33Z</time>
      </trkpt>
      <trkpt lat="44.50893" lon="1.05215">
        <ele>70</ele>
        <time>2012-09-16T09:21:38Z</time>
      </trkpt>
      <trkpt lat="44.50915" lon="1.05237">
        <ele>70</ele>
        <time>2012-09-16T09:21:43Z</time>
      </trkpt>
      <trkpt lat="44.50938" lon="1.0526">
        <ele>70</ele>
        <time>2012-09-16T09:21:48Z</time>
      </trkpt>
      <trkpt lat="44.5096" lon="1.05287">
        <ele>70</ele>
        <time>2012-09-16T09:21:53Z</time>
      </trkpt>
      <trkpt lat="44.50981" lon="1.05314">
        <ele>70</ele>
        <time>2012-09-16T09:21:58Z</time>
      </trkpt>
      <trkpt lat="44.51002" lon="1.05343">
        <ele>70</ele>
        <time>2012-09-16T09:22:03Z</time>
      </trkpt>
      <trkpt lat="44.51022" lon="1.05374">
        <ele>69</ele>
        <time>2012-09-16T09:22:08Z</time>
      </trkpt>
      <trkpt lat="44.51038" lon="1.05403">
        <ele>69</ele>
        <time>2012-09-16T09:22:13Z</time>
      </trkpt>
      <trkpt lat="44.51057" lon="1.05434">
        <ele>69</ele>
        <time>2012-09-16T09:22:18Z</time>
      </trkpt>
      <trkpt lat="44.51077" lon="1.05464">
        <ele>68</ele>
        <time>2012-09-16T09:22:23Z</time>
      </trkpt>
      <trkpt lat="44.51096" lon="1.05494">
        <ele>63</ele>
        <time>2012-09-16T09:22:28Z</time>
      </trkpt>
      <trkpt lat="44.51115" lon="1.05525">
        <ele>63</ele>
        <time>2012-09-16T09:22:33Z</time>
      </trkpt>
      <trkpt lat="44.51134" lon="1.05556">
        <ele>63</ele>
        <time>2012-09-16T09:22:38Z</time>
      </trkpt>
      <trkpt lat="44.5115" lon="1.05587">
        <ele>63</ele>
        <time>2012-09-16T09:22:43Z</time>
      </trkpt>
      <trkpt lat="44.51168" lon="1.05622">
        <ele>65</ele>
        <time>2012-09-16T09:22:48Z</time>
      </trkpt>
      <trkpt lat="44.51187" lon="1.05657">
        <ele>65</ele>
        <time>2012-09-16T09:22:53Z</time>
      </trkpt>
      <trkpt lat="44.51202" lon="1.05694">
        <ele>66</ele>
        <time>2012-09-16T09:22:58Z</time>
      </trkpt>
      <trkpt lat="44.51218" lon="1.05726">
        <ele>66</ele>
        <time>2012-09-16T09:23:03Z</time>
      </trkpt>
      <trkpt lat="44.51233" lon="1.05759">
        <ele>61</ele>
        <time>2012-09-16T09:23:08Z</time>
      </trkpt>
      <trkpt lat="44.51239" lon="1.05797">
        <ele>56</ele>
        <time>2012-09-16T09:23:13Z</time>
      </trkpt>
      <trkpt lat="44.51246" lon="1.05838">
        <ele>55</ele>
        <time>2012-09-16T09:23:18Z</time>
      </trkpt>
      <trkpt lat="44.51247" lon="1.0588">
        <ele>51</ele>
        <time>2012-09-16T09:23:23Z</time>
      </trkpt>
      <trkpt lat="44.51246" lon="1.0592">
        <ele>51</ele>
        <time>2012-09-16T09:23:28Z</time>
      </trkpt>
      <trkpt lat="44.51245" lon="1.05962">
        <ele>51</ele>
        <time>2012-09-16T09:23:33Z</time>
      </trkpt>
      <trkpt lat="44.51243" lon="1.06003">
        <ele>53</ele>
        <time>2012-09-16T09:23:38Z</time>
      </trkpt>
      <trkpt lat="44.51241" lon="1.06044">
        <ele>56</ele>
        <time>2012-09-16T09:23:43Z</time>
      </trkpt>
      <trkpt lat="44.51241" lon="1.0609">
        <ele>59</ele>
        <time>2012-09-16T09:23:48Z</time>
      </trkpt>
      <trkpt lat="44.51243" lon="1.06132">
        <ele>60</ele>
        <time>2012-09-16T09:23:53Z</time>
      </trkpt>
      <trkpt lat="44.51244" lon="1.0617">
        <ele>60</ele>
        <time>2012-09-16T09:23:58Z</time>
      </trkpt>
      <trkpt lat="44.51246" lon="1.06212">
        <ele>60</ele>
        <time>2012-09-16T09:24:03Z</time>
      </trkpt>
      <trkpt lat="44.51244" lon="1.06252">
        <ele>59</ele>
        <time>2012-09-16T09:24:08Z</time>
      </trkpt>
      <trkpt lat="44.51247" lon="1.06286">
        <ele>57</ele>
        <time>2012-09-16T09:24:13Z</time>
      </trkpt>
      <trkpt lat="44.51246" lon="1.06325">
        <ele>57</ele>
        <time>2012-09-16T09:24:18Z</time>
      </trkpt>
      <trkpt lat="44.51242" lon="1.06363">
        <ele>57</ele>
        <time>2012-09-16T09:24:23Z</time>
      </trkpt>
      <trkpt lat="44.51238" lon="1.064">
        <ele>57</ele>
        <time>2012-09-16T09:24:28Z</time>
      </trkpt>
      <trkpt lat="44.51219" lon="1.0645">
        <ele>61</ele>
        <time>2012-09-16T09:24:33Z</time>
      </trkpt>
      <trkpt lat="44.51211" lon="1.0649">
        <ele>66</ele>
        <time>2012-09-16T09:24:38Z</time>
      </trkpt>
      <trkpt lat="44.51194" lon="1.06525">
        <ele>71</ele>
        <time>2012-09-16T09:24:43Z</time>
      </trkpt>
      <trkpt lat="44.51181" lon="1.06565">
        <ele>72</ele>
        <time>2012-09-16T09:24:48Z</time>
      </trkpt>
      <trkpt lat="44.51162" lon="1.06606">
        <ele>72</ele>
        <time>2012-09-16T09:24:53Z</time>
      </trkpt>
      <trkpt lat="44.51148" lon="1.06648">
        <ele>72</ele>
        <time>2012-09-16T09:24:58Z</time>
      </trkpt>
      <trkpt lat="44.51133" lon="1.06688">
        <ele>72</ele>
        <time>2012-09-16T09:25:03Z</time>
      </trkpt>
      <trkpt lat="44.51117" lon="1.06725">
        <ele>72</ele>
        <time>2012-09-16T09:25:08Z</time>
      </trkpt>
      <trkpt lat="44.51102" lon="1.06761">
        <ele>72</ele>
        <time>2012-09-16T09:25:13Z</time>
      </trkpt>
      <trkpt lat="44.51089" lon="1.06792">
        <ele>72</ele>
        <time>2012-09-16T09:25:18Z</time>
      </trkpt>
      <trkpt lat="44.51075" lon="1.06829">
        <ele>72</ele>
        <time>2012-09-16T09:25:23Z</time>
      </trkpt>
      <trkpt lat="44.51061" lon="1.06865">
        <ele>72</ele>
        <time>2012-09-16T09:25:28Z</time>
      </trkpt>
      <trkpt lat="44.51046" lon="1.06903">
        <ele>72</ele>
        <time>2012-09-16T09:25:33Z</time>
      </trkpt>
      <trkpt lat="44.5103" lon="1.06939">
        <ele>72</ele>
        <time>2012-09-16T09:25:38Z</time>
      </trkpt>
      <trkpt lat="44.51017" lon="1.06976">
        <ele>72</ele>
        <time>2012-09-16T09:25:43Z</time>
      </trkpt>
      <trkpt lat="44.51002" lon="1.07011">
        <ele>72</ele>
        <time>2012-09-16T09:25:48Z</time>
      </trkpt>
      <trkpt lat="44.50988" lon="1.07045">
        <ele>72</ele>
        <time>2012-09-16T09:25:53Z</time>
      </trkpt>
      <trkpt lat="44.50973" lon="1.0708">
        <ele>72</ele>
        <time>2012-09-16T09:25:58Z</time>
      </trkpt>
      <trkpt lat="44.50958" lon="1.07116">
        <ele>72</ele>
        <time>2012-09-16T09:26:03Z</time>
      </trkpt>
      <trkpt lat="44.50943" lon="1.07152">
        <ele>72</ele>
        <time>2012-09-16T09:26:08Z</time>
      </trkpt>
      <trkpt lat="44.50927" lon="1.07189">
        <ele>72</ele>
        <time>2012-09-16T09:26:13Z</time>
      </trkpt>
      <trkpt lat="44.50911" lon="1.07226">
        <ele>72</ele>
        <time>2012-09-16T09:26:18Z</time>
      </trkpt>
      <trkpt lat="44.50897" lon="1.0726">
        <ele>72</ele>
        <time>2012-09-16T09:26:23Z</time>
      </trkpt>
      <trkpt lat="44.50885" lon="1.07292">
        <ele>72</ele>
        <time>2012-09-16T09:26:28Z</time>
      </trkpt>
      <trkpt lat="44.5087" lon="1.07325">
        <ele>72</ele>
        <time>2012-09-16T09:26:33Z</time>
      </trkpt>
      <trkpt lat="44.50856" lon="1.0736">
        <ele>72</ele>
        <time>2012-09-16T09:26:38Z</time>
      </trkpt>
      <trkpt lat="44.5084" lon="1.07398">
        <ele>72</ele>
        <time>2012-09-16T09:26:43Z</time>
      </trkpt>
      <trkpt lat="44.50826" lon="1.07432">
        <ele>72</ele>
        <time>2012-09-16T09:26:48Z</time>
      </trkpt>
      <trkpt lat="44.50814" lon="1.07457">
        <ele>72</ele>
        <time>2012-09-16T09:26:53Z</time>
      </trkpt>
      <trkpt lat="44.50804" lon="1.07484">
        <ele>72</ele>
        <time>2012-09-16T09:26:58Z</time>
      </trkpt>
      <trkpt lat="44.5079" lon="1.07514">
        <ele>72</ele>
        <time>2012-09-16T09:27:03Z</time>
      </trkpt>
      <trkpt lat="44.50773" lon="1.07545">
        <ele>73</ele>
        <time>2012-09-16T09:27:08Z</time>
      </trkpt>
      <trkpt lat="44.50755" lon="1.07576">
        <ele>76</ele>
        <time>2012-09-16T09:27:13Z</time>
      </trkpt>
      <trkpt lat="44.5074" lon="1.07608">
        <ele>76</ele>
        <time>2012-09-16T09:27:18Z</time>
      </trkpt>
      <trkpt lat="44.50726" lon="1.07642">
        <ele>76</ele>
        <time>2012-09-16T09:27:23Z</time>
      </trkpt>
      <trkpt lat="44.50711" lon="1.07677">
        <ele>76</ele>
        <time>2012-09-16T09:27:28Z</time>
      </trkpt>
      <trkpt lat="44.50698" lon="1.0771">
        <ele>76</ele>
        <time>2012-09-16T09:27:33Z</time>
      </trkpt>
      <trkpt lat="44.50685" lon="1.07744">
        <ele>76</ele>
        <time>2012-09-16T09:27:38Z</time>
      </trkpt>
      <trkpt lat="44.50671" lon="1.07777">
        <ele>76</ele>
        <time>2012-09-16T09:27:43Z</time>
      </trkpt>
      <trkpt lat="44.50657" lon="1.07808">
        <ele>73</ele>
        <time>2012-09-16T09:27:48Z</time>
      </trkpt>
      <trkpt lat="44.50643" lon="1.0784">
        <ele>73</ele>
        <time>2012-09-16T09:27:53Z</time>
      </trkpt>
      <trkpt lat="44.50629" lon="1.0787">
        <ele>73</ele>
        <time>2012-09-16T09:27:58Z</time>
      </trkpt>
      <trkpt lat="44.50617" lon="1.07895">
        <ele>73</ele>
        <time>2012-09-16T09:28:03Z</time>
      </trkpt>
      <trkpt lat="44.50604" lon="1.07928">
        <ele>73</ele>
        <time>2012-09-16T09:28:08Z</time>
      </trkpt>
      <trkpt lat="44.50593" lon="1.07963">
        <ele>73</ele>
        <time>2012-09-16T09:28:13Z</time>
      </trkpt>
      <trkpt lat="44.5058" lon="1.07997">
        <ele>73</ele>
        <time>2012-09-16T09:28:18Z</time>
      </trkpt>
      <trkpt lat="44.50567" lon="1.08028">
        <ele>72</ele>
        <time>2012-09-16T09:28:23Z</time>
      </trkpt>
      <trkpt lat="44.50564" lon="1.08044">
        <ele>72</ele>
        <time>2012-09-16T09:28:28Z</time>
      </trkpt>
      <trkpt lat="44.50563" lon="1.08063">
        <ele>72</ele>
        <time>2012-09-16T09:28:33Z</time>
      </trkpt>
      <trkpt lat="44.50554" lon="1.08089">
        <ele>72</ele>
        <time>2012-09-16T09:28:38Z</time>
      </trkpt>
      <trkpt lat="44.50542" lon="1.08118">
        <ele>72</ele>
        <time>2012-09-16T09:28:43Z</time>
      </trkpt>
      <trkpt lat="44.50529" lon="1.08151">
        <ele>69</ele>
        <time>2012-09-16T09:28:48Z</time>
      </trkpt>
      <trkpt lat="44.50517" lon="1.08185">
        <ele>67</ele>
        <time>2012-09-16T09:28:53Z</time>
      </trkpt>
      <trkpt lat="44.505" lon="1.08221">
        <ele>67</ele>
        <time>2012-09-16T09:28:58Z</time>
      </trkpt>
      <trkpt lat="44.50488" lon="1.08251">
        <ele>67</ele>
        <time>2012-09-16T09:29:03Z</time>
      </trkpt>
      <trkpt lat="44.50479" lon="1.08278">
        <ele>67</ele>
        <time>2012-09-16T09:29:08Z</time>
      </trkpt>
      <trkpt lat="44.50465" lon="1.08309">
        <ele>67</ele>
        <time>2012-09-16T09:29:13Z</time>
      </trkpt>
      <trkpt lat="44.50451" lon="1.0834">
        <ele>66</ele>
        <time>2012-09-16T09:29:18Z</time>
      </trkpt>
      <trkpt lat="44.50437" lon="1.08375">
        <ele>66</ele>
        <time>2012-09-16T09:29:23Z</time>
      </trkpt>
      <trkpt lat="44.50422" lon="1.08406">
        <ele>66</ele>
        <time>2012-09-16T09:29:28Z</time>
      </trkpt>
      <trkpt lat="44.50409" lon="1.08436">
        <ele>65</ele>
        <time>2012-09-16T09:29:33Z</time>
      </trkpt>
      <trkpt lat="44.50396" lon="1.08469">
        <ele>65</ele>
        <time>2012-09-16T09:29:38Z</time>
      </trkpt>
      <trkpt lat="44.50382" lon="1.08504">
        <ele>65</ele>
        <time>2012-09-16T09:29:43Z</time>
      </trkpt>
      <trkpt lat="44.50369" lon="1.08538">
        <ele>64</ele>
        <time>2012-09-16T09:29:48Z</time>
      </trkpt>
      <trkpt lat="44.50354" lon="1.08572">
        <ele>63</ele>
        <time>2012-09-16T09:29:53Z</time>
      </trkpt>
      <trkpt lat="44.50341" lon="1.08603">
        <ele>63</ele>
        <time>2012-09-16T09:29:58Z</time>
      </trkpt>
      <trkpt lat="44.50328" lon="1.08637">
        <ele>66</ele>
        <time>2012-09-16T09:30:03Z</time>
      </trkpt>
      <trkpt lat="44.50314" lon="1.08672">
        <ele>66</ele>
        <time>2012-09-16T09:30:08Z</time>
      </trkpt>
      <trkpt lat="44.503" lon="1.08705">
        <ele>66</ele>
        <time>2012-09-16T09:30:13Z</time>
      </trkpt>
      <trkpt lat="44.50288" lon="1.08738">
        <ele>66</ele>
        <time>2012-09-16T09:30:18Z</time>
      </trkpt>
      <trkpt lat="44.50275" lon="1.08774">
        <ele>66</ele>
        <time>2012-09-16T09:30:23Z</time>
      </trkpt>
      <trkpt lat="44.50259" lon="1.0881">
        <ele>67</ele>
        <time>2012-09-16T09:30:28Z</time>
      </trkpt>
      <trkpt lat="44.50245" lon="1.08842">
        <ele>67</ele>
        <time>2012-09-16T09:30:33Z</time>
      </trkpt>
      <trkpt lat="44.50232" lon="1.08874">
        <ele>67</ele>
        <time>2012-09-16T09:30:38Z</time>
      </trkpt>
      <trkpt lat="44.50218" lon="1.08908">
        <ele>67</ele>
        <time>2012-09-16T09:30:43Z</time>
      </trkpt>
      <trkpt lat="44.50203" lon="1.08943">
        <ele>67</ele>
        <time>2012-09-16T09:30:48Z</time>
      </trkpt>
      <trkpt lat="44.50188" lon="1.08979">
        <ele>67</ele>
        <time>2012-09-16T09:30:53Z</time>
      </trkpt>
      <trkpt lat="44.50172" lon="1.09013">
        <ele>67</ele>
        <time>2012-09-16T09:30:58Z</time>
      </trkpt>
      <trkpt lat="44.50157" lon="1.09046">
        <ele>67</ele>
        <time>2012-09-16T09:31:03Z</time>
      </trkpt>
      <trkpt lat="44.50148" lon="1.09073">
        <ele>67</ele>
        <time>2012-09-16T09:31:08Z</time>
      </trkpt>
      <trkpt lat="44.5014" lon="1.09091">
        <ele>67</ele>
        <time>2012-09-16T09:31:13Z</time>
      </trkpt>
      <trkpt lat="44.5013" lon="1.09116">
        <ele>67</ele>
        <time>2012-09-16T09:31:18Z</time>
      </trkpt>
      <trkpt lat="44.5012" lon="1.09139">
        <ele>67</ele>
        <time>2012-09-16T09:31:23Z</time>
      </trkpt>
      <trkpt lat="44.50108" lon="1.0917">
        <ele>67</ele>
        <time>2012-09-16T09:31:28Z</time>
      </trkpt>
      <trkpt lat="44.50096" lon="1.09202">
        <ele>67</ele>
        <time>2012-09-16T09:31:33Z</time>
      </trkpt>
      <trkpt lat="44.50085" lon="1.09228">
        <ele>66</ele>
        <time>2012-09-16T09:31:38Z</time>
      </trkpt>
      <trkpt lat="44.50072" lon="1.09259">
        <ele>66</ele>
        <time>2012-09-16T09:31:43Z</time>
      </trkpt>
      <trkpt lat="44.50058" lon="1.09291">
        <ele>66</ele>
        <time>2012-09-16T09:31:48Z</time>
      </trkpt>
      <trkpt lat="44.50042" lon="1.09326">
        <ele>66</ele>
        <time>2012-09-16T09:31:53Z</time>
      </trkpt>
      <trkpt lat="44.50029" lon="1.09358">
        <ele>66</ele>
        <time>2012-09-16T09:31:58Z</time>
      </trkpt>
      <trkpt lat="44.50018" lon="1.09387">
        <ele>66</ele>
        <time>2012-09-16T09:32:03Z</time>
      </trkpt>
      <trkpt lat="44.50008" lon="1.09412">
        <ele>66</ele>
        <time>2012-09-16T09:32:08Z</time>
      </trkpt>
      <trkpt lat="44.5" lon="1.09434">
        <ele>66</ele>
        <time>2012-09-16T09:32:13Z</time>
      </trkpt>
      <trkpt lat="44.4999" lon="1.09459">
        <ele>66</ele>
        <time>2012-09-16T09:32:18Z</time>
      </trkpt>
      <trkpt lat="44.49978" lon="1.09485">
        <ele>66</ele>
        <time>2012-09-16T09:32:23Z</time>
      </trkpt>
      <trkpt lat="44.49967" lon="1.09512">
        <ele>66</ele>
        <time>2012-09-16T09:32:28Z</time>
      </trkpt>
      <trkpt lat="44.49955" lon="1.09537">
        <ele>66</ele>
        <time>2012-09-16T09:32:33Z</time>
      </trkpt>
      <trkpt lat="44.49944" lon="1.09563">
        <ele>66</ele>
        <time>2012-09-16T09:32:38Z</time>
      </trkpt>
      <trkpt lat="44.49934" lon="1.09589">
        <ele>66</ele>
        <time>2012-09-16T09:32:43Z</time>
      </trkpt>
      <trkpt lat="44.49923" lon="1.09615">
        <ele>65</ele>
        <time>2012-09-16T09:32:48Z</time>
      </trkpt>
      <trkpt lat="44.49913" lon="1.0964">
        <ele>65</ele>
        <time>2012-09-16T09:32:53Z</time>
      </trkpt>
      <trkpt lat="44.49903" lon="1.09664">
        <ele>64</ele>
        <time>2012-09-16T09:32:58Z</time>
      </trkpt>
      <trkpt lat="44.49894" lon="1.09691">
        <ele>61</ele>
        <time>2012-09-16T09:33:03Z</time>
      </trkpt>
      <trkpt lat="44.49886" lon="1.09718">
        <ele>57</ele>
        <time>2012-09-16T09:33:08Z</time>
      </trkpt>
      <trkpt lat="44.49879" lon="1.09747">
        <ele>55</ele>
        <time>2012-09-16T09:33:13Z</time>
      </trkpt>
      <trkpt lat="44.49875" lon="1.09775">
        <ele>54</ele>
        <time>2012-09-16T09:33:18Z</time>
      </trkpt>
      <trkpt lat="44.49871" lon="1.09806">
        <ele>54</ele>
        <time>2012-09-16T09:33:23Z</time>
      </trkpt>
      <trkpt lat="44.49871" lon="1.09837">
        <ele>54</ele>
        <time>2012-09-16T09:33:28Z</time>
      </trkpt>
      <trkpt lat="44.49875" lon="1.09865">
        <ele>56</ele>
        <time>2012-09-16T09:33:33Z</time>
      </trkpt>
      <trkpt lat="44.49878" lon="1.09891">
        <ele>58</ele>
        <time>2012-09-16T09:33:38Z</time>
      </trkpt>
      <trkpt lat="44.49881" lon="1.09916">
        <ele>59</ele>
        <time>2012-09-16T09:33:43Z</time>
      </trkpt>
      <trkpt lat="44.49886" lon="1.09944">
        <ele>59</ele>
        <time>2012-09-16T09:33:48Z</time>
      </trkpt>
      <trkpt lat="44.49892" lon="1.09972">
        <ele>60</ele>
        <time>2012-09-16T09:33:53Z</time>
      </trkpt>
      <trkpt lat="44.499" lon="1.09999">
        <ele>61</ele>
        <time>2012-09-16T09:33:58Z</time>
      </trkpt>
      <trkpt lat="44.49909" lon="1.10025">
        <ele>61</ele>
        <time>2012-09-16T09:34:03Z</time>
      </trkpt>
      <trkpt lat="44.4992" lon="1.10053">
        <ele>61</ele>
        <time>2012-09-16T09:34:08Z</time>
      </trkpt>
      <trkpt lat="44.49932" lon="1.10081">
        <ele>61</ele>
        <time>2012-09-16T09:34:13Z</time>
      </trkpt>
      <trkpt lat="44.49944" lon="1.1011">
        <ele>61</ele>
        <time>2012-09-16T09:34:18Z</time>
      </trkpt>
      <trkpt lat="44.49956" lon="1.10138">
        <ele>61</ele>
        <time>2012-09-16T09:34:23Z</time>
      </trkpt>
      <trkpt lat="44.49968" lon="1.10167">
        <ele>61</ele>
        <time>2012-09-16T09:34:28Z</time>
      </trkpt>
      <trkpt lat="44.4998" lon="1.102">
        <ele>61</ele>
        <time>2012-09-16T09:34:33Z</time>
      </trkpt>
      <trkpt lat="44.49991" lon="1.10232">
        <ele>61</ele>
        <time>2012-09-16T09:34:38Z</time>
      </trkpt>
      <trkpt lat="44.50002" lon="1.10263">
        <ele>62</ele>
        <time>2012-09-16T09:34:43Z</time>
      </trkpt>
      <trkpt lat="44.50012" lon="1.10292">
        <ele>64</ele>
        <time>2012-09-16T09:34:48Z</time>
      </trkpt>
      <trkpt lat="44.50022" lon="1.10324">
        <ele>65</ele>
        <time>2012-09-16T09:34:53Z</time>
      </trkpt>
      <trkpt lat="44.50032" lon="1.10354">
        <ele>66</ele>
        <time>2012-09-16T09:34:58Z</time>
      </trkpt>
      <trkpt lat="44.50042" lon="1.10384">
        <ele>66</ele>
        <time>2012-09-16T09:35:03Z</time>
      </trkpt>
      <trkpt lat="44.5005" lon="1.10408">
        <ele>66</ele>
        <time>2012-09-16T09:35:08Z</time>
      </trkpt>
      <trkpt lat="44.50057" lon="1.10415">
        <ele>66</ele>
        <time>2012-09-16T09:35:13Z</time>
      </trkpt>
      <trkpt lat="44.50071" lon="1.10403">
        <ele>66</ele>
        <time>2012-09-16T09:35:18Z</time>
      </trkpt>
      <trkpt lat="44.50087" lon="1.10389">
        <ele>66</ele>
        <time>2012-09-16T09:35:23Z</time>
      </trkpt>
      <trkpt lat="44.50102" lon="1.10376">
        <ele>66</ele>
        <time>2012-09-16T09:35:28Z</time>
      </trkpt>
      <trkpt lat="44.50119" lon="1.10361">
        <ele>66</ele>
        <time>2012-09-16T09:35:33Z</time>
      </trkpt>
      <trkpt lat="44.50136" lon="1.10345">
        <ele>66</ele>
        <time>2012-09-16T09:35:38Z</time>
      </trkpt>
      <trkpt lat="44.50154" lon="1.10328">
        <ele>66</ele>
        <time>2012-09-16T09:35:43Z</time>
      </trkpt>
      <trkpt lat="44.50171" lon="1.10313">
        <ele>66</ele>
        <time>2012-09-16T09:35:48Z</time>
      </trkpt>
      <trkpt lat="44.5019" lon="1.10296">
        <ele>66</ele>
        <time>2012-09-16T09:35:53Z</time>
      </trkpt>
      <trkpt lat="44.50208" lon="1.10282">
        <ele>66</ele>
        <time>2012-09-16T09:35:58Z</time>
      </trkpt>
      <trkpt lat="44.50225" lon="1.10267">
        <ele>66</ele>
        <time>2012-09-16T09:36:03Z</time>
      </trkpt>
      <trkpt lat="44.50243" lon="1.10251">
        <ele>66</ele>
        <time>2012-09-16T09:36:08Z</time>
      </trkpt>
      <trkpt lat="44.50264" lon="1.10232">
        <ele>66</ele>
        <time>2012-09-16T09:36:13Z</time>
      </trkpt>
      <trkpt lat="44.50286" lon="1.10222">
        <ele>66</ele>
        <time>2012-09-16T09:36:18Z</time>
      </trkpt>
      <trkpt lat="44.50303" lon="1.10238">
        <ele>66</ele>
        <time>2012-09-16T09:36:23Z</time>
      </trkpt>
      <trkpt lat="44.50314" lon="1.10263">
        <ele>66</ele>
        <time>2012-09-16T09:36:28Z</time>
      </trkpt>
      <trkpt lat="44.50326" lon="1.1029">
        <ele>66</ele>
        <time>2012-09-16T09:36:33Z</time>
      </trkpt>
      <trkpt lat="44.50339" lon="1.10319">
        <ele>66</ele>
        <time>2012-09-16T09:36:38Z</time>
      </trkpt>
      <trkpt lat="44.50352" lon="1.10349">
        <ele>67</ele>
        <time>2012-09-16T09:36:43Z</time>
      </trkpt>
      <trkpt lat="44.50367" lon="1.10378">
        <ele>67</ele>
        <time>2012-09-16T09:36:48Z</time>
      </trkpt>
      <trkpt lat="44.50381" lon="1.10407">
        <ele>67</ele>
        <time>2012-09-16T09:36:53Z</time>
      </trkpt>
      <trkpt lat="44.50396" lon="1.10437">
        <ele>67</ele>
        <time>2012-09-16T09:36:58Z</time>
      </trkpt>
      <trkpt lat="44.50413" lon="1.10466">
        <ele>67</ele>
        <time>2012-09-16T09:37:03Z</time>
      </trkpt>
      <trkpt lat="44.5043" lon="1.10499">
        <ele>67</ele>
        <time>2012-09-16T09:37:08Z</time>
      </trkpt>
      <trkpt lat="44.50443" lon="1.10534">
        <ele>67</ele>
        <time>2012-09-16T09:37:13Z</time>
      </trkpt>
      <trkpt lat="44.50451" lon="1.10567">
        <ele>67</ele>
        <time>2012-09-16T09:37:18Z</time>
      </trkpt>
      <trkpt lat="44.50459" lon="1.10598">
        <ele>67</ele>
        <time>2012-09-16T09:37:23Z</time>
      </trkpt>
      <trkpt lat="44.50465" lon="1.10625">
        <ele>67</ele>
        <time>2012-09-16T09:37:28Z</time>
      </trkpt>
      <trkpt lat="44.50473" lon="1.10656">
        <ele>67</ele>
        <time>2012-09-16T09:37:33Z</time>
      </trkpt>
      <trkpt lat="44.50487" lon="1.10689">
        <ele>67</ele>
        <time>2012-09-16T09:37:38Z</time>
      </trkpt>
      <trkpt lat="44.50498" lon="1.10721">
        <ele>67</ele>
        <time>2012-09-16T09:37:43Z</time>
      </trkpt>
      <trkpt lat="44.50508" lon="1.10751">
        <ele>67</ele>
        <time>2012-09-16T09:37:48Z</time>
      </trkpt>
      <trkpt lat="44.50518" lon="1.10781">
        <ele>67</ele>
        <time>2012-09-16T09:37:53Z</time>
      </trkpt>
      <trkpt lat="44.50522" lon="1.10811">
        <ele>67</ele>
        <time>2012-09-16T09:37:58Z</time>
      </trkpt>
      <trkpt lat="44.50524" lon="1.10846">
        <ele>67</ele>
        <time>2012-09-16T09:38:03Z</time>
      </trkpt>
      <trkpt lat="44.50526" lon="1.10882">
        <ele>67</ele>
        <time>2012-09-16T09:38:08Z</time>
      </trkpt>
      <trkpt lat="44.50529" lon="1.10917">
        <ele>67</ele>
        <time>2012-09-16T09:38:13Z</time>
      </trkpt>
      <trkpt lat="44.50534" lon="1.10953">
        <ele>67</ele>
        <time>2012-09-16T09:38:18Z</time>
      </trkpt>
      <trkpt lat="44.50539" lon="1.10988">
        <ele>67</ele>
        <time>2012-09-16T09:38:23Z</time>
      </trkpt>
      <trkpt lat="44.50545" lon="1.11023">
        <ele>67</ele>
        <time>2012-09-16T09:38:28Z</time>
      </trkpt>
      <trkpt lat="44.5055" lon="1.11058">
        <ele>67</ele>
        <time>2012-09-16T09:38:33Z</time>
      </trkpt>
      <trkpt lat="44.50555" lon="1.11095">
        <ele>67</ele>
        <time>2012-09-16T09:38:38Z</time>
      </trkpt>
      <trkpt lat="44.50561" lon="1.11131">
        <ele>67</ele>
        <time>2012-09-16T09:38:43Z</time>
      </trkpt>
      <trkpt lat="44.50565" lon="1.1117">
        <ele>67</ele>
        <time>2012-09-16T09:38:48Z</time>
      </trkpt>
      <trkpt lat="44.50569" lon="1.11208">
        <ele>67</ele>
        <time>2012-09-16T09:38:53Z</time>
      </trkpt>
      <trkpt lat="44.50573" lon="1.11247">
        <ele>67</ele>
        <time>2012-09-16T09:38:58Z</time>
      </trkpt>
      <trkpt lat="44.50577" lon="1.11285">
        <ele>67</ele>
        <time>2012-09-16T09:39:03Z</time>
      </trkpt>
      <trkpt lat="44.50582" lon="1.11321">
        <ele>67</ele>
        <time>2012-09-16T09:39:08Z</time>
      </trkpt>
      <trkpt lat="44.50599" lon="1.11339">
        <ele>67</ele>
        <time>2012-09-16T09:39:13Z</time>
      </trkpt>
      <trkpt lat="44.5062" lon="1.11336">
        <ele>67</ele>
        <time>2012-09-16T09:39:18Z</time>
      </trkpt>
      <trkpt lat="44.50642" lon="1.11332">
        <ele>67</ele>
        <time>2012-09-16T09:39:23Z</time>
      </trkpt>
      <trkpt lat="44.50664" lon="1.11328">
        <ele>67</ele>
        <time>2012-09-16T09:39:28Z</time>
      </trkpt>
      <trkpt lat="44.50688" lon="1.11323">
        <ele>67</ele>
        <time>2012-09-16T09:39:33Z</time>
      </trkpt>
      <trkpt lat="44.50714" lon="1.11318">
        <ele>68</ele>
        <time>2012-09-16T09:39:38Z</time>
      </trkpt>
      <trkpt lat="44.50741" lon="1.11315">
        <ele>69</ele>
        <time>2012-09-16T09:39:43Z</time>
      </trkpt>
      <trkpt lat="44.50761" lon="1.11337">
        <ele>69</ele>
        <time>2012-09-16T09:39:48Z</time>
      </trkpt>
      <trkpt lat="44.50765" lon="1.11373">
        <ele>69</ele>
        <time>2012-09-16T09:39:53Z</time>
      </trkpt>
      <trkpt lat="44.50766" lon="1.11408">
        <ele>69</ele>
        <time>2012-09-16T09:39:58Z</time>
      </trkpt>
      <trkpt lat="44.50767" lon="1.11443">
        <ele>69</ele>
        <time>2012-09-16T09:40:03Z</time>
      </trkpt>
      <trkpt lat="44.50769" lon="1.1148">
        <ele>69</ele>
        <time>2012-09-16T09:40:08Z</time>
      </trkpt>
      <trkpt lat="44.5077" lon="1.11519">
        <ele>69</ele>
        <time>2012-09-16T09:40:13Z</time>
      </trkpt>
      <trkpt lat="44.50773" lon="1.11558">
        <ele>69</ele>
        <time>2012-09-16T09:40:18Z</time>
      </trkpt>
      <trkpt lat="44.50776" lon="1.11596">
        <ele>69</ele>
        <time>2012-09-16T09:40:23Z</time>
      </trkpt>
      <trkpt lat="44.50779" lon="1.11635">
        <ele>69</ele>
        <time>2012-09-16T09:40:28Z</time>
      </trkpt>
      <trkpt lat="44.50782" lon="1.11675">
        <ele>69</ele>
        <time>2012-09-16T09:40:33Z</time>
      </trkpt>
      <trkpt lat="44.50784" lon="1.11714">
        <ele>69</ele>
        <time>2012-09-16T09:40:38Z</time>
      </trkpt>
      <trkpt lat="44.50787" lon="1.11753">
        <ele>69</ele>
        <time>2012-09-16T09:40:43Z</time>
      </trkpt>
      <trkpt lat="44.50791" lon="1.11792">
        <ele>69</ele>
        <time>2012-09-16T09:40:48Z</time>
      </trkpt>
      <trkpt lat="44.50795" lon="1.11832">
        <ele>69</ele>
        <time>2012-09-16T09:40:53Z</time>
      </trkpt>
      <trkpt lat="44.50798" lon="1.11872">
        <ele>69</ele>
        <time>2012-09-16T09:40:58Z</time>
      </trkpt>
      <trkpt lat="44.50799" lon="1.11912">
        <ele>69</ele>
        <time>2012-09-16T09:41:03Z</time>
      </trkpt>
      <trkpt lat="44.50799" lon="1.11953">
        <ele>69</ele>
        <time>2012-09-16T09:41:08Z</time>
      </trkpt>
      <trkpt lat="44.50796" lon="1.11993">
        <ele>69</ele>
        <time>2012-09-16T09:41:13Z</time>
      </trkpt>
      <trkpt lat="44.50793" lon="1.12032">
        <ele>69</ele>
        <time>2012-09-16T09:41:18Z</time>
      </trkpt>
      <trkpt lat="44.50787" lon="1.1207">
        <ele>69</ele>
        <time>2012-09-16T09:41:23Z</time>
      </trkpt>
      <trkpt lat="44.5078" lon="1.12106">
        <ele>69</ele>
        <time>2012-09-16T09:41:28Z</time>
      </trkpt>
      <trkpt lat="44.50773" lon="1.12143">
        <ele>68</ele>
        <time>2012-09-16T09:41:33Z</time>
      </trkpt>
      <trkpt lat="44.50765" lon="1.12182">
        <ele>67</ele>
        <time>2012-09-16T09:41:38Z</time>
      </trkpt>
      <trkpt lat="44.50756" lon="1.12222">
        <ele>67</ele>
        <time>2012-09-16T09:41:43Z</time>
      </trkpt>
      <trkpt lat="44.50747" lon="1.12258">
        <ele>68</ele>
        <time>2012-09-16T09:41:48Z</time>
      </trkpt>
      <trkpt lat="44.50736" lon="1.12293">
        <ele>69</ele>
        <time>2012-09-16T09:41:53Z</time>
      </trkpt>
      <trkpt lat="44.50724" lon="1.12326">
        <ele>69</ele>
        <time>2012-09-16T09:41:58Z</time>
      </trkpt>
      <trkpt lat="44.50711" lon="1.12358">
        <ele>69</ele>
        <time>2012-09-16T09:42:03Z</time>
      </trkpt>
      <trkpt lat="44.50698" lon="1.12388">
        <ele>69</ele>
        <time>2012-09-16T09:42:08Z</time>
      </trkpt>
      <trkpt lat="44.50685" lon="1.12418">
        <ele>69</ele>
        <time>2012-09-16T09:42:13Z</time>
      </trkpt>
      <trkpt lat="44.50673" lon="1.12448">
        <ele>69</ele>
        <time>2012-09-16T09:42:18Z</time>
      </trkpt>
      <trkpt lat="44.50664" lon="1.1248">
        <ele>69</ele>
        <time>2012-09-16T09:42:23Z</time>
      </trkpt>
      <trkpt lat="44.5066" lon="1.12513">
        <ele>69</ele>
        <time>2012-09-16T09:42:28Z</time>
      </trkpt>
      <trkpt lat="44.50664" lon="1.12539">
        <ele>69</ele>
        <time>2012-09-16T09:42:33Z</time>
      </trkpt>
      <trkpt lat="44.50683" lon="1.12553">
        <ele>69</ele>
        <time>2012-09-16T09:42:38Z</time>
      </trkpt>
      <trkpt lat="44.50706" lon="1.12569">
        <ele>69</ele>
        <time>2012-09-16T09:42:43Z</time>
      </trkpt>
      <trkpt lat="44.5073" lon="1.12587">
        <ele>69</ele>
        <time>2012-09-16T09:42:48Z</time>
      </trkpt>
      <trkpt lat="44.50756" lon="1.12606">
        <ele>69</ele>
        <time>2012-09-16T09:42:53Z</time>
      </trkpt>
      <trkpt lat="44.50782" lon="1.12623">
        <ele>69</ele>
        <time>2012-09-16T09:42:58Z</time>
      </trkpt>
      <trkpt lat="44.50807" lon="1.12641">
        <ele>69</ele>
        <time>2012-09-16T09:43:03Z</time>
      </trkpt>
      <trkpt lat="44.50833" lon="1.12659">
        <ele>69</ele>
        <time>2012-09-16T09:43:08Z</time>
      </trkpt>
      <trkpt lat="44.50854" lon="1.12674">
        <ele>69</ele>
        <time>2012-09-16T09:43:13Z</time>
      </trkpt>
      <trkpt lat="44.50856" lon="1.12695">
        <ele>69</ele>
        <time>2012-09-16T09:43:18Z</time>
      </trkpt>
      <trkpt lat="44.50847" lon="1.12725">
        <ele>68</ele>
        <time>2012-09-16T09:43:23Z</time>
      </trkpt>
      <trkpt lat="44.50838" lon="1.1275">
        <ele>68</ele>
        <time>2012-09-16T09:43:28Z</time>
      </trkpt>
      <trkpt lat="44.50834" lon="1.12778">
        <ele>68</ele>
        <time>2012-09-16T09:43:33Z</time>
      </trkpt>
      <trkpt lat="44.50825" lon="1.128">
        <ele>66</ele>
        <time>2012-09-16T09:43:38Z</time>
      </trkpt>
      <trkpt lat="44.50821" lon="1.12817">
        <ele>65</ele>
        <time>2012-09-16T09:43:43Z</time>
      </trkpt>
      <trkpt lat="44.50815" lon="1.12833">
        <ele>65</ele>
        <time>2012-09-16T09:43:48Z</time>
      </trkpt>
      <trkpt lat="44.50809" lon="1.12845">
        <ele>65</ele>
        <time>2012-09-16T09:43:53Z</time>
      </trkpt>
      <trkpt lat="44.50804" lon="1.12858">
        <ele>65</ele>
        <time>2012-09-16T09:43:58Z</time>
      </trkpt>
      <trkpt lat="44.50798" lon="1.12868">
        <ele>65</ele>
        <time>2012-09-16T09:44:03Z</time>
      </trkpt>
      <trkpt lat="44.50792" lon="1.1288">
        <ele>65</ele>
        <time>2012-09-16T09:44:08Z</time>
      </trkpt>
      <trkpt lat="44.50784" lon="1.12894">
        <ele>69</ele>
        <time>2012-09-16T09:44:13Z</time>
      </trkpt>
      <trkpt lat="44.50779" lon="1.12902">
        <ele>72</ele>
        <time>2012-09-16T09:44:18Z</time>
      </trkpt>
      <trkpt lat="44.50778" lon="1.12905">
        <ele>72</ele>
        <time>2012-09-16T09:44:23Z</time>
      </trkpt>
      <trkpt lat="44.50776" lon="1.12912">
        <ele>72</ele>
        <time>2012-09-16T09:44:28Z</time>
      </trkpt>
      <trkpt lat="44.50775" lon="1.12912">
        <ele>76</ele>
        <time>2012-09-16T09:44:33Z</time>
      </trkpt>
      <trkpt lat="44.5077" lon="1.12922">
        <ele>76</ele>
        <time>2012-09-16T09:44:38Z</time>
      </trkpt>
      <trkpt lat="44.50761" lon="1.12934">
        <ele>76</ele>
        <time>2012-09-16T09:44:43Z</time>
      </trkpt>
      <trkpt lat="44.50753" lon="1.12947">
        <ele>76</ele>
        <time>2012-09-16T09:44:48Z</time>
      </trkpt>
      <trkpt lat="44.50745" lon="1.12961">
        <ele>76</ele>
        <time>2012-09-16T09:44:53Z</time>
      </trkpt>
      <trkpt lat="44.50742" lon="1.12971">
        <ele>76</ele>
        <time>2012-09-16T09:44:58Z</time>
      </trkpt>
      <trkpt lat="44.50734" lon="1.12983">
        <ele>76</ele>
        <time>2012-09-16T09:45:03Z</time>
      </trkpt>
      <trkpt lat="44.50725" lon="1.13002">
        <ele>76</ele>
        <time>2012-09-16T09:45:08Z</time>
      </trkpt>
      <trkpt lat="44.5072" lon="1.13017">
        <ele>76</ele>
        <time>2012-09-16T09:45:13Z</time>
      </trkpt>
      <trkpt lat="44.50711" lon="1.13034">
        <ele>75</ele>
        <time>2012-09-16T09:45:18Z</time>
      </trkpt>
      <trkpt lat="44.50703" lon="1.1305">
        <ele>73</ele>
        <time>2012-09-16T09:45:23Z</time>
      </trkpt>
      <trkpt lat="44.50694" lon="1.13062">
        <ele>73</ele>
        <time>2012-09-16T09:45:29Z</time>
      </trkpt>
      <trkpt lat="44.5069" lon="1.13063">
        <ele>73</ele>
        <time>2012-09-16T09:45:38Z</time>
      </trkpt>
      <trkpt lat="44.50687" lon="1.13064">
        <ele>75</ele>
        <time>2012-09-16T09:45:46Z</time>
      </trkpt>
      <trkpt lat="44.50687" lon="1.13062">
        <ele>76</ele>
        <time>2012-09-16T09:45:54Z</time>
      </trkpt>
      <trkpt lat="44.50686" lon="1.13058">
        <ele>76</ele>
        <time>2012-09-16T09:46:00Z</time>
      </trkpt>
      <trkpt lat="44.50683" lon="1.13057">
        <ele>76</ele>
        <time>2012-09-16T09:46:07Z</time>
      </trkpt>
      <trkpt lat="44.50682" lon="1.13058">
        <ele>78</ele>
        <time>2012-09-16T09:46:15Z</time>
      </trkpt>
      <trkpt lat="44.50679" lon="1.13062">
        <ele>78</ele>
        <time>2012-09-16T09:46:20Z</time>
      </trkpt>
      <trkpt lat="44.50678" lon="1.13063">
        <ele>78</ele>
        <time>2012-09-16T09:46:25Z</time>
      </trkpt>
      <trkpt lat="44.50679" lon="1.13066">
        <ele>78</ele>
        <time>2012-09-16T09:46:33Z</time>
      </trkpt>
      <trkpt lat="44.50677" lon="1.13066">
        <ele>75</ele>
        <time>2012-09-16T09:46:39Z</time>
      </trkpt>
      <trkpt lat="44.50675" lon="1.13063">
        <ele>74</ele>
        <time>2012-09-16T09:46:44Z</time>
      </trkpt>
      <trkpt lat="44.5067" lon="1.13071">
        <ele>74</ele>
        <time>2012-09-16T09:46:49Z</time>
      </trkpt>
      <trkpt lat="44.50659" lon="1.13082">
        <ele>74</ele>
        <time>2012-09-16T09:46:54Z</time>
      </trkpt>
      <trkpt lat="44.50644" lon="1.13095">
        <ele>74</ele>
        <time>2012-09-16T09:46:59Z</time>
      </trkpt>
      <trkpt lat="44.50628" lon="1.13108">
        <ele>74</ele>
        <time>2012-09-16T09:47:04Z</time>
      </trkpt>
      <trkpt lat="44.50613" lon="1.13122">
        <ele>74</ele>
        <time>2012-09-16T09:47:09Z</time>
      </trkpt>
      <trkpt lat="44.50583" lon="1.13141">
        <ele>74</ele>
        <time>2012-09-16T09:47:14Z</time>
      </trkpt>
      <trkpt lat="44.5056" lon="1.13154">
        <ele>74</ele>
        <time>2012-09-16T09:47:19Z</time>
      </trkpt>
      <trkpt lat="44.50554" lon="1.13162">
        <ele>74</ele>
        <time>2012-09-16T09:47:28Z</time>
      </trkpt>
      <trkpt lat="44.50556" lon="1.13163">
        <ele>71</ele>
        <time>2012-09-16T09:47:36Z</time>
      </trkpt>
      <trkpt lat="44.50555" lon="1.1316">
        <ele>69</ele>
        <time>2012-09-16T09:47:42Z</time>
      </trkpt>
      <trkpt lat="44.50553" lon="1.13159">
        <ele>69</ele>
        <time>2012-09-16T09:47:48Z</time>
      </trkpt>
      <trkpt lat="44.50546" lon="1.13164">
        <ele>69</ele>
        <time>2012-09-16T09:47:53Z</time>
      </trkpt>
      <trkpt lat="44.50538" lon="1.13174">
        <ele>71</ele>
        <time>2012-09-16T09:47:58Z</time>
      </trkpt>
      <trkpt lat="44.50532" lon="1.13189">
        <ele>71</ele>
        <time>2012-09-16T09:48:03Z</time>
      </trkpt>
      <trkpt lat="44.50526" lon="1.13203">
        <ele>71</ele>
        <time>2012-09-16T09:48:08Z</time>
      </trkpt>
      <trkpt lat="44.50518" lon="1.13214">
        <ele>71</ele>
        <time>2012-09-16T09:48:13Z</time>
      </trkpt>
      <trkpt lat="44.5051" lon="1.13224">
        <ele>71</ele>
        <time>2012-09-16T09:48:18Z</time>
      </trkpt>
      <trkpt lat="44.50502" lon="1.13235">
        <ele>71</ele>
        <time>2012-09-16T09:48:23Z</time>
      </trkpt>
      <trkpt lat="44.50495" lon="1.13248">
        <ele>71</ele>
        <time>2012-09-16T09:48:28Z</time>
      </trkpt>
      <trkpt lat="44.50488" lon="1.13262">
        <ele>71</ele>
        <time>2012-09-16T09:48:33Z</time>
      </trkpt>
      <trkpt lat="44.50478" lon="1.13279">
        <ele>71</ele>
        <time>2012-09-16T09:48:38Z</time>
      </trkpt>
      <trkpt lat="44.50468" lon="1.13297">
        <ele>71</ele>
        <time>2012-09-16T09:48:43Z</time>
      </trkpt>
      <trkpt lat="44.50453" lon="1.13316">
        <ele>70</ele>
        <time>2012-09-16T09:48:48Z</time>
      </trkpt>
      <trkpt lat="44.50435" lon="1.13335">
        <ele>70</ele>
        <time>2012-09-16T09:48:53Z</time>
      </trkpt>
      <trkpt lat="44.50419" lon="1.13355">
        <ele>70</ele>
        <time>2012-09-16T09:48:58Z</time>
      </trkpt>
      <trkpt lat="44.50404" lon="1.13375">
        <ele>70</ele>
        <time>2012-09-16T09:49:03Z</time>
      </trkpt>
      <trkpt lat="44.50388" lon="1.13397">
        <ele>70</ele>
        <time>2012-09-16T09:49:08Z</time>
      </trkpt>
      <trkpt lat="44.50373" lon="1.13417">
        <ele>70</ele>
        <time>2012-09-16T09:49:13Z</time>
      </trkpt>
      <trkpt lat="44.50357" lon="1.13438">
        <ele>70</ele>
        <time>2012-09-16T09:49:18Z</time>
      </trkpt>
      <trkpt lat="44.50342" lon="1.1346">
        <ele>71</ele>
        <time>2012-09-16T09:49:23Z</time>
      </trkpt>
      <trkpt lat="44.50328" lon="1.13481">
        <ele>71</ele>
        <time>2012-09-16T09:49:28Z</time>
      </trkpt>
      <trkpt lat="44.50314" lon="1.13497">
        <ele>71</ele>
        <time>2012-09-16T09:49:33Z</time>
      </trkpt>
      <trkpt lat="44.50288" lon="1.1351">
        <ele>72</ele>
        <time>2012-09-16T09:49:38Z</time>
      </trkpt>
      <trkpt lat="44.50262" lon="1.1352">
        <ele>74</ele>
        <time>2012-09-16T09:49:43Z</time>
      </trkpt>
      <trkpt lat="44.50235" lon="1.13527">
        <ele>74</ele>
        <time>2012-09-16T09:49:48Z</time>
      </trkpt>
      <trkpt lat="44.50216" lon="1.13538">
        <ele>74</ele>
        <time>2012-09-16T09:49:53Z</time>
      </trkpt>
      <trkpt lat="44.50201" lon="1.1355">
        <ele>74</ele>
        <time>2012-09-16T09:49:58Z</time>
      </trkpt>
      <trkpt lat="44.50184" lon="1.13556">
        <ele>74</ele>
        <time>2012-09-16T09:50:03Z</time>
      </trkpt>
      <trkpt lat="44.50172" lon="1.13561">
        <ele>75</ele>
        <time>2012-09-16T09:50:08Z</time>
      </trkpt>
      <trkpt lat="44.50174" lon="1.13578">
        <ele>75</ele>
        <time>2012-09-16T09:50:13Z</time>
      </trkpt>
      <trkpt lat="44.50177" lon="1.13597">
        <ele>75</ele>
        <time>2012-09-16T09:50:18Z</time>
      </trkpt>
      <trkpt lat="44.50179" lon="1.13614">
        <ele>75</ele>
        <time>2012-09-16T09:50:23Z</time>
      </trkpt>
      <trkpt lat="44.50183" lon="1.13635">
        <ele>75</ele>
        <time>2012-09-16T09:50:28Z</time>
      </trkpt>
      <trkpt lat="44.50188" lon="1.13659">
        <ele>75</ele>
        <time>2012-09-16T09:50:33Z</time>
      </trkpt>
      <trkpt lat="44.50193" lon="1.13684">
        <ele>75</ele>
        <time>2012-09-16T09:50:38Z</time>
      </trkpt>
      <trkpt lat="44.50198" lon="1.1371">
        <ele>75</ele>
        <time>2012-09-16T09:50:43Z</time>
      </trkpt>
      <trkpt lat="44.50204" lon="1.13734">
        <ele>75</ele>
        <time>2012-09-16T09:50:48Z</time>
      </trkpt>
      <trkpt lat="44.50208" lon="1.13757">
        <ele>75</ele>
        <time>2012-09-16T09:50:53Z</time>
      </trkpt>
      <trkpt lat="44.50216" lon="1.13781">
        <ele>75</ele>
        <time>2012-09-16T09:50:58Z</time>
      </trkpt>
      <trkpt lat="44.50224" lon="1.13806">
        <ele>76</ele>
        <time>2012-09-16T09:51:03Z</time>
      </trkpt>
      <trkpt lat="44.50229" lon="1.13835">
        <ele>78</ele>
        <time>2012-09-16T09:51:08Z</time>
      </trkpt>
      <trkpt lat="44.5023" lon="1.1386">
        <ele>79</ele>
        <time>2012-09-16T09:51:13Z</time>
      </trkpt>
      <trkpt lat="44.50237" lon="1.13886">
        <ele>79</ele>
        <time>2012-09-16T09:51:18Z</time>
      </trkpt>
      <trkpt lat="44.50241" lon="1.13914">
        <ele>79</ele>
        <time>2012-09-16T09:51:23Z</time>
      </trkpt>
      <trkpt lat="44.50248" lon="1.13935">
        <ele>79</ele>
        <time>2012-09-16T09:51:28Z</time>
      </trkpt>
      <trkpt lat="44.50255" lon="1.13953">
        <ele>80</ele>
        <time>2012-09-16T09:51:33Z</time>
      </trkpt>
      <trkpt lat="44.50261" lon="1.13979">
        <ele>82</ele>
        <time>2012-09-16T09:51:38Z</time>
      </trkpt>
      <trkpt lat="44.50255" lon="1.14005">
        <ele>82</ele>
        <time>2012-09-16T09:51:43Z</time>
      </trkpt>
      <trkpt lat="44.50243" lon="1.14032">
        <ele>82</ele>
        <time>2012-09-16T09:51:48Z</time>
      </trkpt>
      <trkpt lat="44.50237" lon="1.14061">
        <ele>83</ele>
        <time>2012-09-16T09:51:53Z</time>
      </trkpt>
      <trkpt lat="44.5023" lon="1.1409">
        <ele>83</ele>
        <time>2012-09-16T09:51:58Z</time>
      </trkpt>
      <trkpt lat="44.50215" lon="1.14113">
        <ele>83</ele>
        <time>2012-09-16T09:52:03Z</time>
      </trkpt>
      <trkpt lat="44.50201" lon="1.14136">
        <ele>83</ele>
        <time>2012-09-16T09:52:08Z</time>
      </trkpt>
      <trkpt lat="44.50187" lon="1.14161">
        <ele>83</ele>
        <time>2012-09-16T09:52:13Z</time>
      </trkpt>
      <trkpt lat="44.50172" lon="1.14187">
        <ele>85</ele>
        <time>2012-09-16T09:52:18Z</time>
      </trkpt>
      <trkpt lat="44.50158" lon="1.1421">
        <ele>86</ele>
        <time>2012-09-16T09:52:23Z</time>
      </trkpt>
      <trkpt lat="44.50142" lon="1.14231">
        <ele>87</ele>
        <time>2012-09-16T09:52:28Z</time>
      </trkpt>
      <trkpt lat="44.50128" lon="1.14255">
        <ele>89</ele>
        <time>2012-09-16T09:52:33Z</time>
      </trkpt>
      <trkpt lat="44.50112" lon="1.1428">
        <ele>90</ele>
        <time>2012-09-16T09:52:38Z</time>
      </trkpt>
      <trkpt lat="44.50097" lon="1.14303">
        <ele>91</ele>
        <time>2012-09-16T09:52:43Z</time>
      </trkpt>
      <trkpt lat="44.50085" lon="1.14331">
        <ele>91</ele>
        <time>2012-09-16T09:52:48Z</time>
      </trkpt>
      <trkpt lat="44.50073" lon="1.14362">
        <ele>91</ele>
        <time>2012-09-16T09:52:53Z</time>
      </trkpt>
      <trkpt lat="44.50064" lon="1.14392">
        <ele>91</ele>
        <time>2012-09-16T09:52:58Z</time>
      </trkpt>
      <trkpt lat="44.50054" lon="1.14424">
        <ele>91</ele>
        <time>2012-09-16T09:53:03Z</time>
      </trkpt>
      <trkpt lat="44.50049" lon="1.1445">
        <ele>91</ele>
        <time>2012-09-16T09:53:08Z</time>
      </trkpt>
      <trkpt lat="44.50055" lon="1.14477">
        <ele>90</ele>
        <time>2012-09-16T09:53:13Z</time>
      </trkpt>
      <trkpt lat="44.50069" lon="1.14499">
        <ele>88</ele>
        <time>2012-09-16T09:53:18Z</time>
      </trkpt>
      <trkpt lat="44.50083" lon="1.14518">
        <ele>88</ele>
        <time>2012-09-16T09:53:23Z</time>
      </trkpt>
      <trkpt lat="44.50099" lon="1.14535">
        <ele>88</ele>
        <time>2012-09-16T09:53:28Z</time>
      </trkpt>
      <trkpt lat="44.50117" lon="1.1454">
        <ele>89</ele>
        <time>2012-09-16T09:53:33Z</time>
      </trkpt>
      <trkpt lat="44.50136" lon="1.14539">
        <ele>90</ele>
        <time>2012-09-16T09:53:38Z</time>
      </trkpt>
      <trkpt lat="44.50154" lon="1.14547">
        <ele>92</ele>
        <time>2012-09-16T09:53:43Z</time>
      </trkpt>
      <trkpt lat="44.50172" lon="1.14566">
        <ele>93</ele>
        <time>2012-09-16T09:53:48Z</time>
      </trkpt>
      <trkpt lat="44.50186" lon="1.14592">
        <ele>95</ele>
        <time>2012-09-16T09:53:53Z</time>
      </trkpt>
      <trkpt lat="44.5019" lon="1.14604">
        <ele>96</ele>
        <time>2012-09-16T09:54:00Z</time>
      </trkpt>
      <trkpt lat="44.50186" lon="1.14605">
        <ele>96</ele>
        <time>2012-09-16T09:54:05Z</time>
      </trkpt>
      <trkpt lat="44.50171" lon="1.14584">
        <ele>93</ele>
        <time>2012-09-16T09:54:10Z</time>
      </trkpt>
      <trkpt lat="44.50161" lon="1.1458">
        <ele>90</ele>
        <time>2012-09-16T09:54:15Z</time>
      </trkpt>
      <trkpt lat="44.50168" lon="1.14594">
        <ele>89</ele>
        <time>2012-09-16T09:54:20Z</time>
      </trkpt>
      <trkpt lat="44.5018" lon="1.14616">
        <ele>86</ele>
        <time>2012-09-16T09:54:25Z</time>
      </trkpt>
      <trkpt lat="44.50194" lon="1.14639">
        <ele>85</ele>
        <time>2012-09-16T09:54:30Z</time>
      </trkpt>
      <trkpt lat="44.50211" lon="1.14658">
        <ele>85</ele>
        <time>2012-09-16T09:54:35Z</time>
      </trkpt>
      <trkpt lat="44.50225" lon="1.14676">
        <ele>85</ele>
        <time>2012-09-16T09:54:40Z</time>
      </trkpt>
      <trkpt lat="44.50243" lon="1.14695">
        <ele>85</ele>
        <time>2012-09-16T09:54:45Z</time>
      </trkpt>
      <trkpt lat="44.50263" lon="1.14714">
        <ele>84</ele>
        <time>2012-09-16T09:54:50Z</time>
      </trkpt>
      <trkpt lat="44.50282" lon="1.14737">
        <ele>84</ele>
        <time>2012-09-16T09:54:55Z</time>
      </trkpt>
      <trkpt lat="44.50302" lon="1.14758">
        <ele>84</ele>
        <time>2012-09-16T09:55:00Z</time>
      </trkpt>
      <trkpt lat="44.50322" lon="1.14777">
        <ele>84</ele>
        <time>2012-09-16T09:55:05Z</time>
      </trkpt>
      <trkpt lat="44.5034" lon="1.14796">
        <ele>84</ele>
        <time>2012-09-16T09:55:10Z</time>
      </trkpt>
      <trkpt lat="44.50356" lon="1.14818">
        <ele>84</ele>
        <time>2012-09-16T09:55:15Z</time>
      </trkpt>
      <trkpt lat="44.50373" lon="1.14842">
        <ele>87</ele>
        <time>2012-09-16T09:55:20Z</time>
      </trkpt>
      <trkpt lat="44.50389" lon="1.14863">
        <ele>91</ele>
        <time>2012-09-16T09:55:25Z</time>
      </trkpt>
      <trkpt lat="44.50404" lon="1.14884">
        <ele>94</ele>
        <time>2012-09-16T09:55:30Z</time>
      </trkpt>
      <trkpt lat="44.50421" lon="1.14906">
        <ele>94</ele>
        <time>2012-09-16T09:55:35Z</time>
      </trkpt>
      <trkpt lat="44.5044" lon="1.14929">
        <ele>94</ele>
        <time>2012-09-16T09:55:40Z</time>
      </trkpt>
      <trkpt lat="44.5046" lon="1.14954">
        <ele>89</ele>
        <time>2012-09-16T09:55:45Z</time>
      </trkpt>
      <trkpt lat="44.50475" lon="1.14976">
        <ele>84</ele>
        <time>2012-09-16T09:55:50Z</time>
      </trkpt>
      <trkpt lat="44.50491" lon="1.15">
        <ele>83</ele>
        <time>2012-09-16T09:55:55Z</time>
      </trkpt>
      <trkpt lat="44.50502" lon="1.15023">
        <ele>81</ele>
        <time>2012-09-16T09:56:00Z</time>
      </trkpt>
      <trkpt lat="44.50513" lon="1.15046">
        <ele>79</ele>
        <time>2012-09-16T09:56:05Z</time>
      </trkpt>
      <trkpt lat="44.50525" lon="1.15072">
        <ele>78</ele>
        <time>2012-09-16T09:56:10Z</time>
      </trkpt>
      <trkpt lat="44.50534" lon="1.15099">
        <ele>78</ele>
        <time>2012-09-16T09:56:15Z</time>
      </trkpt>
      <trkpt lat="44.50543" lon="1.15127">
        <ele>82</ele>
        <time>2012-09-16T09:56:20Z</time>
      </trkpt>
      <trkpt lat="44.50552" lon="1.15153">
        <ele>87</ele>
        <time>2012-09-16T09:56:25Z</time>
      </trkpt>
      <trkpt lat="44.50563" lon="1.15178">
        <ele>91</ele>
        <time>2012-09-16T09:56:30Z</time>
      </trkpt>
      <trkpt lat="44.50573" lon="1.15202">
        <ele>94</ele>
        <time>2012-09-16T09:56:35Z</time>
      </trkpt>
      <trkpt lat="44.50586" lon="1.15227">
        <ele>94</ele>
        <time>2012-09-16T09:56:40Z</time>
      </trkpt>
      <trkpt lat="44.50602" lon="1.15257">
        <ele>91</ele>
        <time>2012-09-16T09:56:46Z</time>
      </trkpt>
      <trkpt lat="44.50619" lon="1.15284">
        <ele>86</ele>
        <time>2012-09-16T09:56:51Z</time>
      </trkpt>
      <trkpt lat="44.50633" lon="1.15307">
        <ele>82</ele>
        <time>2012-09-16T09:56:56Z</time>
      </trkpt>
      <trkpt lat="44.50646" lon="1.15334">
        <ele>78</ele>
        <time>2012-09-16T09:57:01Z</time>
      </trkpt>
      <trkpt lat="44.50661" lon="1.15356">
        <ele>73</ele>
        <time>2012-09-16T09:57:06Z</time>
      </trkpt>
      <trkpt lat="44.50675" lon="1.15379">
        <ele>68</ele>
        <time>2012-09-16T09:57:11Z</time>
      </trkpt>
      <trkpt lat="44.50687" lon="1.15404">
        <ele>68</ele>
        <time>2012-09-16T09:57:16Z</time>
      </trkpt>
      <trkpt lat="44.50701" lon="1.15434">
        <ele>68</ele>
        <time>2012-09-16T09:57:22Z</time>
      </trkpt>
      <trkpt lat="44.50714" lon="1.15457">
        <ele>69</ele>
        <time>2012-09-16T09:57:27Z</time>
      </trkpt>
      <trkpt lat="44.50723" lon="1.15483">
        <ele>72</ele>
        <time>2012-09-16T09:57:32Z</time>
      </trkpt>
      <trkpt lat="44.50732" lon="1.15509">
        <ele>76</ele>
        <time>2012-09-16T09:57:37Z</time>
      </trkpt>
      <trkpt lat="44.50742" lon="1.15537">
        <ele>80</ele>
        <time>2012-09-16T09:57:42Z</time>
      </trkpt>
      <trkpt lat="44.50755" lon="1.1557">
        <ele>80</ele>
        <time>2012-09-16T09:57:47Z</time>
      </trkpt>
      <trkpt lat="44.50765" lon="1.15602">
        <ele>80</ele>
        <time>2012-09-16T09:57:52Z</time>
      </trkpt>
      <trkpt lat="44.50775" lon="1.15636">
        <ele>80</ele>
        <time>2012-09-16T09:57:57Z</time>
      </trkpt>
      <trkpt lat="44.50782" lon="1.15668">
        <ele>80</ele>
        <time>2012-09-16T09:58:02Z</time>
      </trkpt>
      <trkpt lat="44.50788" lon="1.15701">
        <ele>80</ele>
        <time>2012-09-16T09:58:07Z</time>
      </trkpt>
      <trkpt lat="44.50795" lon="1.15741">
        <ele>80</ele>
        <time>2012-09-16T09:58:13Z</time>
      </trkpt>
      <trkpt lat="44.50799" lon="1.15777">
        <ele>81</ele>
        <time>2012-09-16T09:58:18Z</time>
      </trkpt>
      <trkpt lat="44.50803" lon="1.15812">
        <ele>84</ele>
        <time>2012-09-16T09:58:23Z</time>
      </trkpt>
      <trkpt lat="44.50811" lon="1.15851">
        <ele>84</ele>
        <time>2012-09-16T09:58:29Z</time>
      </trkpt>
      <trkpt lat="44.50818" lon="1.15883">
        <ele>84</ele>
        <time>2012-09-16T09:58:34Z</time>
      </trkpt>
      <trkpt lat="44.50822" lon="1.15904">
        <ele>84</ele>
        <time>2012-09-16T09:58:39Z</time>
      </trkpt>
      <trkpt lat="44.50823" lon="1.15922">
        <ele>84</ele>
        <time>2012-09-16T09:58:44Z</time>
      </trkpt>
      <trkpt lat="44.50822" lon="1.15952">
        <ele>82</ele>
        <time>2012-09-16T09:58:50Z</time>
      </trkpt>
      <trkpt lat="44.50822" lon="1.15972">
        <ele>82</ele>
        <time>2012-09-16T09:58:55Z</time>
      </trkpt>
      <trkpt lat="44.50823" lon="1.15977">
        <ele>82</ele>
        <time>2012-09-16T09:59:01Z</time>
      </trkpt>
      <trkpt lat="44.50822" lon="1.15981">
        <ele>83</ele>
        <time>2012-09-16T09:59:06Z</time>
      </trkpt>
      <trkpt lat="44.50821" lon="1.15984">
        <ele>83</ele>
        <time>2012-09-16T09:59:11Z</time>
      </trkpt>
      <trkpt lat="44.50819" lon="1.15984">
        <ele>83</ele>
        <time>2012-09-16T09:59:21Z</time>
      </trkpt>
      <trkpt lat="44.50818" lon="1.15987">
        <ele>83</ele>
        <time>2012-09-16T09:59:46Z</time>
      </trkpt>
      <trkpt lat="44.50821" lon="1.16005">
        <ele>83</ele>
        <time>2012-09-16T09:59:51Z</time>
      </trkpt>
      <trkpt lat="44.50819" lon="1.16029">
        <ele>83</ele>
        <time>2012-09-16T09:59:56Z</time>
      </trkpt>
      <trkpt lat="44.50816" lon="1.16065">
        <ele>86</ele>
        <time>2012-09-16T10:00:02Z</time>
      </trkpt>
      <trkpt lat="44.50813" lon="1.161">
        <ele>86</ele>
        <time>2012-09-16T10:00:07Z</time>
      </trkpt>
      <trkpt lat="44.50806" lon="1.16149">
        <ele>86</ele>
        <time>2012-09-16T10:00:13Z</time>
      </trkpt>
      <trkpt lat="44.50801" lon="1.16193">
        <ele>86</ele>
        <time>2012-09-16T10:00:18Z</time>
      </trkpt>
      <trkpt lat="44.50798" lon="1.16235">
        <ele>84</ele>
        <time>2012-09-16T10:00:23Z</time>
      </trkpt>
      <trkpt lat="44.50788" lon="1.16268">
        <ele>84</ele>
        <time>2012-09-16T10:00:28Z</time>
      </trkpt>
      <trkpt lat="44.50768" lon="1.163">
        <ele>84</ele>
        <time>2012-09-16T10:00:34Z</time>
      </trkpt>
      <trkpt lat="44.50754" lon="1.16339">
        <ele>84</ele>
        <time>2012-09-16T10:00:40Z</time>
      </trkpt>
      <trkpt lat="44.50744" lon="1.16372">
        <ele>84</ele>
        <time>2012-09-16T10:00:45Z</time>
      </trkpt>
      <trkpt lat="44.50734" lon="1.16411">
        <ele>85</ele>
        <time>2012-09-16T10:00:50Z</time>
      </trkpt>
      <trkpt lat="44.50725" lon="1.16452">
        <ele>88</ele>
        <time>2012-09-16T10:00:55Z</time>
      </trkpt>
      <trkpt lat="44.50716" lon="1.16493">
        <ele>89</ele>
        <time>2012-09-16T10:01:00Z</time>
      </trkpt>
      <trkpt lat="44.50704" lon="1.16541">
        <ele>90</ele>
        <time>2012-09-16T10:01:06Z</time>
      </trkpt>
      <trkpt lat="44.50693" lon="1.1658">
        <ele>91</ele>
        <time>2012-09-16T10:01:11Z</time>
      </trkpt>
      <trkpt lat="44.50682" lon="1.16618">
        <ele>91</ele>
        <time>2012-09-16T10:01:16Z</time>
      </trkpt>
      <trkpt lat="44.50673" lon="1.16657">
        <ele>91</ele>
        <time>2012-09-16T10:01:21Z</time>
      </trkpt>
      <trkpt lat="44.5066" lon="1.16695">
        <ele>91</ele>
        <time>2012-09-16T10:01:26Z</time>
      </trkpt>
      <trkpt lat="44.50648" lon="1.16735">
        <ele>91</ele>
        <time>2012-09-16T10:01:31Z</time>
      </trkpt>
      <trkpt lat="44.50638" lon="1.16773">
        <ele>91</ele>
        <time>2012-09-16T10:01:36Z</time>
      </trkpt>
      <trkpt lat="44.50628" lon="1.16813">
        <ele>91</ele>
        <time>2012-09-16T10:01:41Z</time>
      </trkpt>
      <trkpt lat="44.50618" lon="1.16853">
        <ele>91</ele>
        <time>2012-09-16T10:01:46Z</time>
      </trkpt>
      <trkpt lat="44.50607" lon="1.16891">
        <ele>91</ele>
        <time>2012-09-16T10:01:51Z</time>
      </trkpt>
      <trkpt lat="44.50597" lon="1.16935">
        <ele>91</ele>
        <time>2012-09-16T10:01:56Z</time>
      </trkpt>
      <trkpt lat="44.50586" lon="1.16986">
        <ele>91</ele>
        <time>2012-09-16T10:02:02Z</time>
      </trkpt>
      <trkpt lat="44.50575" lon="1.17038">
        <ele>91</ele>
        <time>2012-09-16T10:02:08Z</time>
      </trkpt>
      <trkpt lat="44.50566" lon="1.17081">
        <ele>91</ele>
        <time>2012-09-16T10:02:13Z</time>
      </trkpt>
      <trkpt lat="44.50556" lon="1.17123">
        <ele>91</ele>
        <time>2012-09-16T10:02:18Z</time>
      </trkpt>
      <trkpt lat="44.50546" lon="1.17164">
        <ele>91</ele>
        <time>2012-09-16T10:02:23Z</time>
      </trkpt>
      <trkpt lat="44.50536" lon="1.17205">
        <ele>91</ele>
        <time>2012-09-16T10:02:28Z</time>
      </trkpt>
      <trkpt lat="44.50527" lon="1.17247">
        <ele>91</ele>
        <time>2012-09-16T10:02:33Z</time>
      </trkpt>
      <trkpt lat="44.50517" lon="1.17288">
        <ele>91</ele>
        <time>2012-09-16T10:02:38Z</time>
      </trkpt>
      <trkpt lat="44.50507" lon="1.17329">
        <ele>91</ele>
        <time>2012-09-16T10:02:43Z</time>
      </trkpt>
      <trkpt lat="44.50497" lon="1.17368">
        <ele>91</ele>
        <time>2012-09-16T10:02:48Z</time>
      </trkpt>
      <trkpt lat="44.50488" lon="1.17412">
        <ele>91</ele>
        <time>2012-09-16T10:02:54Z</time>
      </trkpt>
      <trkpt lat="44.50474" lon="1.17446">
        <ele>91</ele>
        <time>2012-09-16T10:02:59Z</time>
      </trkpt>
      <trkpt lat="44.50459" lon="1.17478">
        <ele>91</ele>
        <time>2012-09-16T10:03:04Z</time>
      </trkpt>
      <trkpt lat="44.50441" lon="1.17508">
        <ele>91</ele>
        <time>2012-09-16T10:03:09Z</time>
      </trkpt>
      <trkpt lat="44.50424" lon="1.17537">
        <ele>91</ele>
        <time>2012-09-16T10:03:14Z</time>
      </trkpt>
      <trkpt lat="44.50406" lon="1.17564">
        <ele>91</ele>
        <time>2012-09-16T10:03:19Z</time>
      </trkpt>
      <trkpt lat="44.50389" lon="1.17587">
        <ele>91</ele>
        <time>2012-09-16T10:03:24Z</time>
      </trkpt>
      <trkpt lat="44.5037" lon="1.1761">
        <ele>91</ele>
        <time>2012-09-16T10:03:30Z</time>
      </trkpt>
      <trkpt lat="44.50356" lon="1.17629">
        <ele>91</ele>
        <time>2012-09-16T10:03:35Z</time>
      </trkpt>
      <trkpt lat="44.50346" lon="1.17656">
        <ele>91</ele>
        <time>2012-09-16T10:03:40Z</time>
      </trkpt>
      <trkpt lat="44.50344" lon="1.17679">
        <ele>92</ele>
        <time>2012-09-16T10:03:45Z</time>
      </trkpt>
      <trkpt lat="44.50346" lon="1.17706">
        <ele>92</ele>
        <time>2012-09-16T10:03:51Z</time>
      </trkpt>
      <trkpt lat="44.50329" lon="1.17718">
        <ele>92</ele>
        <time>2012-09-16T10:03:56Z</time>
      </trkpt>
      <trkpt lat="44.50314" lon="1.17736">
        <ele>92</ele>
        <time>2012-09-16T10:04:02Z</time>
      </trkpt>
      <trkpt lat="44.5031" lon="1.17762">
        <ele>93</ele>
        <time>2012-09-16T10:04:07Z</time>
      </trkpt>
      <trkpt lat="44.50307" lon="1.1779">
        <ele>97</ele>
        <time>2012-09-16T10:04:12Z</time>
      </trkpt>
      <trkpt lat="44.50306" lon="1.17827">
        <ele>98</ele>
        <time>2012-09-16T10:04:18Z</time>
      </trkpt>
      <trkpt lat="44.50302" lon="1.17858">
        <ele>103</ele>
        <time>2012-09-16T10:04:23Z</time>
      </trkpt>
      <trkpt lat="44.50298" lon="1.17884">
        <ele>105</ele>
        <time>2012-09-16T10:04:28Z</time>
      </trkpt>
      <trkpt lat="44.50292" lon="1.17914">
        <ele>107</ele>
        <time>2012-09-16T10:04:34Z</time>
      </trkpt>
      <trkpt lat="44.50281" lon="1.17916">
        <ele>108</ele>
        <time>2012-09-16T10:04:40Z</time>
      </trkpt>
      <trkpt lat="44.50261" lon="1.17902">
        <ele>108</ele>
        <time>2012-09-16T10:04:45Z</time>
      </trkpt>
      <trkpt lat="44.50241" lon="1.17889">
        <ele>104</ele>
        <time>2012-09-16T10:04:50Z</time>
      </trkpt>
      <trkpt lat="44.50226" lon="1.17876">
        <ele>101</ele>
        <time>2012-09-16T10:04:55Z</time>
      </trkpt>
      <trkpt lat="44.50212" lon="1.17874">
        <ele>98</ele>
        <time>2012-09-16T10:05:00Z</time>
      </trkpt>
      <trkpt lat="44.50198" lon="1.17894">
        <ele>98</ele>
        <time>2012-09-16T10:05:05Z</time>
      </trkpt>
      <trkpt lat="44.50189" lon="1.17934">
        <ele>98</ele>
        <time>2012-09-16T10:05:10Z</time>
      </trkpt>
      <trkpt lat="44.50181" lon="1.17973">
        <ele>98</ele>
        <time>2012-09-16T10:05:15Z</time>
      </trkpt>
      <trkpt lat="44.50169" lon="1.18017">
        <ele>98</ele>
        <time>2012-09-16T10:05:20Z</time>
      </trkpt>
      <trkpt lat="44.50163" lon="1.18057">
        <ele>97</ele>
        <time>2012-09-16T10:05:25Z</time>
      </trkpt>
      <trkpt lat="44.50161" lon="1.18107">
        <ele>97</ele>
        <time>2012-09-16T10:05:31Z</time>
      </trkpt>
      <trkpt lat="44.50161" lon="1.18149">
        <ele>97</ele>
        <time>2012-09-16T10:05:36Z</time>
      </trkpt>
      <trkpt lat="44.50161" lon="1.18197">
        <ele>97</ele>
        <time>2012-09-16T10:05:42Z</time>
      </trkpt>
      <trkpt lat="44.50163" lon="1.18242">
        <ele>97</ele>
        <time>2012-09-16T10:05:47Z</time>
      </trkpt>
      <trkpt lat="44.50166" lon="1.18286">
        <ele>97</ele>
        <time>2012-09-16T10:05:52Z</time>
      </trkpt>
      <trkpt lat="44.50167" lon="1.18326">
        <ele>95</ele>
        <time>2012-09-16T10:05:57Z</time>
      </trkpt>
      <trkpt lat="44.5017" lon="1.18367">
        <ele>95</ele>
        <time>2012-09-16T10:06:02Z</time>
      </trkpt>
      <trkpt lat="44.50172" lon="1.18408">
        <ele>95</ele>
        <time>2012-09-16T10:06:07Z</time>
      </trkpt>
      <trkpt lat="44.50173" lon="1.18449">
        <ele>95</ele>
        <time>2012-09-16T10:06:12Z</time>
      </trkpt>
      <trkpt lat="44.50175" lon="1.18484">
        <ele>95</ele>
        <time>2012-09-16T10:06:17Z</time>
      </trkpt>
      <trkpt lat="44.50176" lon="1.18516">
        <ele>96</ele>
        <time>2012-09-16T10:06:22Z</time>
      </trkpt>
      <trkpt lat="44.50177" lon="1.18529">
        <ele>97</ele>
        <time>2012-09-16T10:06:27Z</time>
      </trkpt>
      <trkpt lat="44.50178" lon="1.18532">
        <ele>97</ele>
        <time>2012-09-16T10:06:34Z</time>
      </trkpt>
      <trkpt lat="44.50179" lon="1.18527">
        <ele>91</ele>
        <time>2012-09-16T10:06:42Z</time>
      </trkpt>
      <trkpt lat="44.50178" lon="1.18526">
        <ele>88</ele>
        <time>2012-09-16T10:06:50Z</time>
      </trkpt>
      <trkpt lat="44.50179" lon="1.18528">
        <ele>88</ele>
        <time>2012-09-16T10:06:55Z</time>
      </trkpt>
      <trkpt lat="44.5019" lon="1.18531">
        <ele>88</ele>
        <time>2012-09-16T10:07:00Z</time>
      </trkpt>
      <trkpt lat="44.50211" lon="1.18541">
        <ele>88</ele>
        <time>2012-09-16T10:07:05Z</time>
      </trkpt>
      <trkpt lat="44.50233" lon="1.1855">
        <ele>88</ele>
        <time>2012-09-16T10:07:10Z</time>
      </trkpt>
      <trkpt lat="44.50254" lon="1.18564">
        <ele>89</ele>
        <time>2012-09-16T10:07:15Z</time>
      </trkpt>
      <trkpt lat="44.50276" lon="1.1857">
        <ele>90</ele>
        <time>2012-09-16T10:07:20Z</time>
      </trkpt>
      <trkpt lat="44.50298" lon="1.18574">
        <ele>93</ele>
        <time>2012-09-16T10:07:25Z</time>
      </trkpt>
      <trkpt lat="44.50326" lon="1.18578">
        <ele>96</ele>
        <time>2012-09-16T10:07:31Z</time>
      </trkpt>
      <trkpt lat="44.50348" lon="1.18581">
        <ele>96</ele>
        <time>2012-09-16T10:07:36Z</time>
      </trkpt>
      <trkpt lat="44.50365" lon="1.18586">
        <ele>98</ele>
        <time>2012-09-16T10:07:41Z</time>
      </trkpt>
      <trkpt lat="44.50375" lon="1.18587">
        <ele>100</ele>
        <time>2012-09-16T10:07:46Z</time>
      </trkpt>
      <trkpt lat="44.50381" lon="1.18596">
        <ele>102</ele>
        <time>2012-09-16T10:07:51Z</time>
      </trkpt>
      <trkpt lat="44.50387" lon="1.18617">
        <ele>104</ele>
        <time>2012-09-16T10:07:56Z</time>
      </trkpt>
      <trkpt lat="44.50395" lon="1.18644">
        <ele>109</ele>
        <time>2012-09-16T10:08:01Z</time>
      </trkpt>
      <trkpt lat="44.50396" lon="1.1867">
        <ele>110</ele>
        <time>2012-09-16T10:08:06Z</time>
      </trkpt>
      <trkpt lat="44.50395" lon="1.18698">
        <ele>112</ele>
        <time>2012-09-16T10:08:11Z</time>
      </trkpt>
      <trkpt lat="44.50409" lon="1.1871">
        <ele>113</ele>
        <time>2012-09-16T10:08:16Z</time>
      </trkpt>
      <trkpt lat="44.5043" lon="1.18709">
        <ele>112</ele>
        <time>2012-09-16T10:08:21Z</time>
      </trkpt>
      <trkpt lat="44.50449" lon="1.18722">
        <ele>111</ele>
        <time>2012-09-16T10:08:26Z</time>
      </trkpt>
      <trkpt lat="44.50458" lon="1.18743">
        <ele>111</ele>
        <time>2012-09-16T10:08:31Z</time>
      </trkpt>
      <trkpt lat="44.50464" lon="1.18767">
        <ele>111</ele>
        <time>2012-09-16T10:08:36Z</time>
      </trkpt>
      <trkpt lat="44.5047" lon="1.18789">
        <ele>111</ele>
        <time>2012-09-16T10:08:41Z</time>
      </trkpt>
      <trkpt lat="44.50474" lon="1.18797">
        <ele>110</ele>
        <time>2012-09-16T10:08:46Z</time>
      </trkpt>
      <trkpt lat="44.50492" lon="1.18805">
        <ele>109</ele>
        <time>2012-09-16T10:08:51Z</time>
      </trkpt>
      <trkpt lat="44.50513" lon="1.18815">
        <ele>107</ele>
        <time>2012-09-16T10:08:56Z</time>
      </trkpt>
      <trkpt lat="44.50534" lon="1.18828">
        <ele>106</ele>
        <time>2012-09-16T10:09:01Z</time>
      </trkpt>
      <trkpt lat="44.50557" lon="1.18839">
        <ele>106</ele>
        <time>2012-09-16T10:09:06Z</time>
      </trkpt>
      <trkpt lat="44.50583" lon="1.1885">
        <ele>106</ele>
        <time>2012-09-16T10:09:11Z</time>
      </trkpt>
      <trkpt lat="44.50608" lon="1.18861">
        <ele>106</ele>
        <time>2012-09-16T10:09:16Z</time>
      </trkpt>
      <trkpt lat="44.50634" lon="1.18875">
        <ele>106</ele>
        <time>2012-09-16T10:09:21Z</time>
      </trkpt>
      <trkpt lat="44.50659" lon="1.18885">
        <ele>106</ele>
        <time>2012-09-16T10:09:26Z</time>
      </trkpt>
      <trkpt lat="44.50674" lon="1.18901">
        <ele>106</ele>
        <time>2012-09-16T10:09:31Z</time>
      </trkpt>
      <trkpt lat="44.50682" lon="1.18935">
        <ele>106</ele>
        <time>2012-09-16T10:09:36Z</time>
      </trkpt>
      <trkpt lat="44.50687" lon="1.18962">
        <ele>106</ele>
        <time>2012-09-16T10:09:41Z</time>
      </trkpt>
      <trkpt lat="44.50693" lon="1.1899">
        <ele>106</ele>
        <time>2012-09-16T10:09:46Z</time>
      </trkpt>
      <trkpt lat="44.50702" lon="1.19015">
        <ele>106</ele>
        <time>2012-09-16T10:09:51Z</time>
      </trkpt>
      <trkpt lat="44.50709" lon="1.19043">
        <ele>103</ele>
        <time>2012-09-16T10:09:56Z</time>
      </trkpt>
      <trkpt lat="44.50716" lon="1.19071">
        <ele>103</ele>
        <time>2012-09-16T10:10:01Z</time>
      </trkpt>
      <trkpt lat="44.50718" lon="1.19093">
        <ele>103</ele>
        <time>2012-09-16T10:10:06Z</time>
      </trkpt>
      <trkpt lat="44.50718" lon="1.19106">
        <ele>106</ele>
        <time>2012-09-16T10:10:11Z</time>
      </trkpt>
      <trkpt lat="44.50719" lon="1.19111">
        <ele>108</ele>
        <time>2012-09-16T10:10:18Z</time>
      </trkpt>
      <trkpt lat="44.50719" lon="1.19111">
        <ele>108</ele>
        <time>2012-09-16T10:10:19Z</time>
      </trkpt>
    </trkseg>
  </trk>
</gpx>